<?xml version='1.0' encoding='UTF-8'?><gpx version="1.1" creator="JPX - https://github.com/jenetics/jpx" xmlns="http://www.topografix.com/GPX/1/1"><trk><trkseg><trkpt lat="40.429886021792804" lon="15.734478479179598"><ele>827.0</ele><time>2026-04-19T06:17:18.999Z</time></trkpt><trkpt lat="40.429888470179094" lon="15.734591183862296"><ele>827.0</ele><time>2026-04-19T06:17:20.999Z</time></trkpt><trkpt lat="40.42986529902659" lon="15.734701653139748"><ele>827.0</ele><time>2026-04-19T06:17:23.999Z</time></trkpt><trkpt lat="40.429798122660344" lon="15.734781426347825"><ele>827.0</ele><time>2026-04-19T06:17:25.999Z</time></trkpt><trkpt lat="40.42968613154451" lon="15.734853357326402"><ele>827.0</ele><time>2026-04-19T06:17:27.999Z</time></trkpt><trkpt lat="40.42955010599207" lon="15.734933257353722"><ele>826.0</ele><time>2026-04-19T06:17:29.999Z</time></trkpt><trkpt lat="40.42949279396289" lon="15.734975008124504"><ele>825.0</ele><time>2026-04-19T06:17:30.999Z</time></trkpt><trkpt lat="40.429394844762186" lon="15.735042591681067"><ele>824.0</ele><time>2026-04-19T06:17:32.999Z</time></trkpt><trkpt lat="40.42939645156977" lon="15.73515195092809"><ele>823.0</ele><time>2026-04-19T06:17:35.998Z</time></trkpt><trkpt lat="40.42947098698182" lon="15.735236377866094"><ele>822.0</ele><time>2026-04-19T06:17:37.998Z</time></trkpt><trkpt lat="40.429554299420516" lon="15.735358155879402"><ele>821.6666666666666</ele><time>2026-04-19T06:17:39.998Z</time></trkpt><trkpt lat="40.42959474667921" lon="15.735434420660054"><ele>821.3333333333333</ele><time>2026-04-19T06:17:40.998Z</time></trkpt><trkpt lat="40.42963822954225" lon="15.735509825402946"><ele>821.0</ele><time>2026-04-19T06:17:41.998Z</time></trkpt><trkpt lat="40.42969549632263" lon="15.735593727838014"><ele>820.6666666666666</ele><time>2026-04-19T06:17:42.998Z</time></trkpt><trkpt lat="40.42976455809769" lon="15.735704904153058"><ele>820.3333333333333</ele><time>2026-04-19T06:17:43.998Z</time></trkpt><trkpt lat="40.42983503928893" lon="15.735811539873454"><ele>820.0</ele><time>2026-04-19T06:17:45.998Z</time></trkpt><trkpt lat="40.429831439203454" lon="15.735911030300416"><ele>820.0</ele><time>2026-04-19T06:17:47.998Z</time></trkpt><trkpt lat="40.429784878542314" lon="15.735979585898734"><ele>820.0</ele><time>2026-04-19T06:17:49.997Z</time></trkpt><trkpt lat="40.4296100244889" lon="15.73601324167436"><ele>820.0</ele><time>2026-04-19T06:17:51.997Z</time></trkpt><trkpt lat="40.429535947026835" lon="15.736071204008422"><ele>820.0</ele><time>2026-04-19T06:17:52.997Z</time></trkpt><trkpt lat="40.42938651842223" lon="15.7362368899845"><ele>818.4</ele><time>2026-04-19T06:17:55.997Z</time></trkpt><trkpt lat="40.42927561859186" lon="15.736484150317203"><ele>816.8</ele><time>2026-04-19T06:17:56.997Z</time></trkpt><trkpt lat="40.42924280983888" lon="15.736574465895385"><ele>815.2</ele><time>2026-04-19T06:17:57.997Z</time></trkpt><trkpt lat="40.429202647551634" lon="15.736650091401991"><ele>813.6</ele><time>2026-04-19T06:17:59.997Z</time></trkpt><trkpt lat="40.429148571517636" lon="15.736716911382192"><ele>812.0</ele><time>2026-04-19T06:21:14Z</time></trkpt><trkpt lat="40.429119791158385" lon="15.736809551401386"><ele>810.4285714285714</ele><time>2026-04-19T06:21:20.999Z</time></trkpt><trkpt lat="40.42908609952391" lon="15.736891507767897"><ele>808.8571428571429</ele><time>2026-04-19T06:21:27.999Z</time></trkpt><trkpt lat="40.4290499696872" lon="15.736977469427325"><ele>807.2857142857142</ele><time>2026-04-19T06:21:37.999Z</time></trkpt><trkpt lat="40.429012111993686" lon="15.737063244918295"><ele>805.7142857142858</ele><time>2026-04-19T06:21:41.999Z</time></trkpt><trkpt lat="40.42898019791632" lon="15.73713998995851"><ele>804.1428571428571</ele><time>2026-04-19T06:21:44.999Z</time></trkpt><trkpt lat="40.42894549185732" lon="15.737228745136308"><ele>802.5714285714286</ele><time>2026-04-19T06:21:47.999Z</time></trkpt><trkpt lat="40.42890345913195" lon="15.737325042480505"><ele>801.0</ele><time>2026-04-19T06:21:49.999Z</time></trkpt><trkpt lat="40.428863195507866" lon="15.737402920100248"><ele>800.0</ele><time>2026-04-19T06:21:51.999Z</time></trkpt><trkpt lat="40.42880164154039" lon="15.737489501628884"><ele>799.0</ele><time>2026-04-19T06:21:53.999Z</time></trkpt><trkpt lat="40.42875536205206" lon="15.737585248292167"><ele>798.0</ele><time>2026-04-19T06:21:55.999Z</time></trkpt><trkpt lat="40.42869680662429" lon="15.737674909939015"><ele>797.0</ele><time>2026-04-19T06:21:57.999Z</time></trkpt><trkpt lat="40.42862104184158" lon="15.737773135746334"><ele>796.0</ele><time>2026-04-19T06:21:59.999Z</time></trkpt><trkpt lat="40.42854992260813" lon="15.73788016676473"><ele>796.0</ele><time>2026-04-19T06:22:01.999Z</time></trkpt><trkpt lat="40.428449777946895" lon="15.73792888894129"><ele>796.0</ele><time>2026-04-19T06:22:03.999Z</time></trkpt><trkpt lat="40.42836296506654" lon="15.73800720032831"><ele>796.0</ele><time>2026-04-19T06:22:05.999Z</time></trkpt><trkpt lat="40.42826257940461" lon="15.738074269296169"><ele>796.0</ele><time>2026-04-19T06:22:07.998Z</time></trkpt><trkpt lat="40.428150178948236" lon="15.73813138343523"><ele>796.0</ele><time>2026-04-19T06:22:09.998Z</time></trkpt><trkpt lat="40.42802936247545" lon="15.738182755844457"><ele>795.9999999999999</ele><time>2026-04-19T06:22:11.998Z</time></trkpt><trkpt lat="40.42796715209327" lon="15.738198290055374"><ele>796.0</ele><time>2026-04-19T06:22:12.998Z</time></trkpt><trkpt lat="40.42790339011324" lon="15.738233141883935"><ele>796.0</ele><time>2026-04-19T06:22:13.998Z</time></trkpt><trkpt lat="40.427834117659636" lon="15.738224373856433"><ele>796.0</ele><time>2026-04-19T06:22:14.998Z</time></trkpt><trkpt lat="40.427763083631085" lon="15.738229234711012"><ele>796.0</ele><time>2026-04-19T06:22:15.998Z</time></trkpt><trkpt lat="40.42768835890398" lon="15.73823168868224"><ele>795.9999999999999</ele><time>2026-04-19T06:22:16.998Z</time></trkpt><trkpt lat="40.42762420817049" lon="15.738230894461458"><ele>796.0</ele><time>2026-04-19T06:22:17.998Z</time></trkpt><trkpt lat="40.42755751659189" lon="15.738229677790027"><ele>795.9999999999999</ele><time>2026-04-19T06:22:18.998Z</time></trkpt><trkpt lat="40.42747992349481" lon="15.738227748327983"><ele>796.0</ele><time>2026-04-19T06:22:19.998Z</time></trkpt><trkpt lat="40.42739896658717" lon="15.738243296445125"><ele>796.0</ele><time>2026-04-19T06:22:20.998Z</time></trkpt><trkpt lat="40.42733005411031" lon="15.73824463934674"><ele>796.0</ele><time>2026-04-19T06:22:21.998Z</time></trkpt><trkpt lat="40.427267327748226" lon="15.738221986360498"><ele>796.0</ele><time>2026-04-19T06:22:22.998Z</time></trkpt><trkpt lat="40.427198677606924" lon="15.7382201806573"><ele>795.9999999999999</ele><time>2026-04-19T06:22:23.998Z</time></trkpt><trkpt lat="40.4271246807412" lon="15.738219801624629"><ele>796.0</ele><time>2026-04-19T06:22:24.998Z</time></trkpt><trkpt lat="40.42704578234701" lon="15.738235980729659"><ele>794.9999999999999</ele><time>2026-04-19T06:22:25.998Z</time></trkpt><trkpt lat="40.42697201246366" lon="15.738233500589462"><ele>794.0</ele><time>2026-04-19T06:22:26.998Z</time></trkpt><trkpt lat="40.426894121344354" lon="15.738242860871278"><ele>793.0</ele><time>2026-04-19T06:22:27.998Z</time></trkpt><trkpt lat="40.42681686295119" lon="15.738254603676907"><ele>792.0</ele><time>2026-04-19T06:22:28.998Z</time></trkpt><trkpt lat="40.42674008150161" lon="15.738252378953106"><ele>790.9999999999999</ele><time>2026-04-19T06:22:29.998Z</time></trkpt><trkpt lat="40.426661584856184" lon="15.738221860317863"><ele>790.0</ele><time>2026-04-19T06:22:30.998Z</time></trkpt><trkpt lat="40.42659551742658" lon="15.73818659044534"><ele>790.0</ele><time>2026-04-19T06:22:31.998Z</time></trkpt><trkpt lat="40.426538006091796" lon="15.738144813276861"><ele>790.0</ele><time>2026-04-19T06:22:32.998Z</time></trkpt><trkpt lat="40.42648475077661" lon="15.738083541969345"><ele>790.0</ele><time>2026-04-19T06:22:33.998Z</time></trkpt><trkpt lat="40.426433363187876" lon="15.738014077417471"><ele>790.0</ele><time>2026-04-19T06:22:34.998Z</time></trkpt><trkpt lat="40.42638733902063" lon="15.737943073759839"><ele>790.0</ele><time>2026-04-19T06:22:35.998Z</time></trkpt><trkpt lat="40.42635183750187" lon="15.737866504914065"><ele>790.0</ele><time>2026-04-19T06:22:36.998Z</time></trkpt><trkpt lat="40.426320949664564" lon="15.737783817625777"><ele>790.0</ele><time>2026-04-19T06:22:37.998Z</time></trkpt><trkpt lat="40.426285919845554" lon="15.737707310741225"><ele>790.8333333333333</ele><time>2026-04-19T06:22:38.998Z</time></trkpt><trkpt lat="40.4262593012288" lon="15.737624359677302"><ele>791.6666666666666</ele><time>2026-04-19T06:22:39.998Z</time></trkpt><trkpt lat="40.42622754537" lon="15.737540559445074"><ele>792.5</ele><time>2026-04-19T06:22:40.998Z</time></trkpt><trkpt lat="40.4261885139944" lon="15.737454957294947"><ele>793.3333333333333</ele><time>2026-04-19T06:22:41.998Z</time></trkpt><trkpt lat="40.42614589264873" lon="15.73735771264673"><ele>794.1666666666666</ele><time>2026-04-19T06:22:42.998Z</time></trkpt><trkpt lat="40.426110841979835" lon="15.737256465649175"><ele>795.0</ele><time>2026-04-19T06:22:43.998Z</time></trkpt><trkpt lat="40.42606147429121" lon="15.73714815260801"><ele>795.0</ele><time>2026-04-19T06:22:44.998Z</time></trkpt><trkpt lat="40.42601714266616" lon="15.737052727552031"><ele>795.0</ele><time>2026-04-19T06:22:45.998Z</time></trkpt><trkpt lat="40.42598120196405" lon="15.736965747220133"><ele>795.0</ele><time>2026-04-19T06:22:46.998Z</time></trkpt><trkpt lat="40.42594784232506" lon="15.736888651105561"><ele>795.0</ele><time>2026-04-19T06:22:47.998Z</time></trkpt><trkpt lat="40.42592089082288" lon="15.736810419079575"><ele>795.0</ele><time>2026-04-19T06:22:48.998Z</time></trkpt><trkpt lat="40.42588797919355" lon="15.736661205405733"><ele>795.0</ele><time>2026-04-19T06:22:51Z</time></trkpt><trkpt lat="40.425888966393444" lon="15.736575201689902"><ele>795.2</ele><time>2026-04-19T06:22:53Z</time></trkpt><trkpt lat="40.42600879731948" lon="15.7365419335959"><ele>795.4</ele><time>2026-04-19T06:22:55Z</time></trkpt><trkpt lat="40.42610800377145" lon="15.736527679203329"><ele>795.5999999999999</ele><time>2026-04-19T06:22:57Z</time></trkpt><trkpt lat="40.42618761399626" lon="15.736444455577361"><ele>795.8</ele><time>2026-04-19T06:22:59Z</time></trkpt><trkpt lat="40.42624775344417" lon="15.736419939846655"><ele>796.0</ele><time>2026-04-19T06:23:01Z</time></trkpt><trkpt lat="40.426333267069964" lon="15.736426855650635"><ele>795.9999999999999</ele><time>2026-04-19T06:23:05Z</time></trkpt><trkpt lat="40.42639255226244" lon="15.736388281501307"><ele>796.0</ele><time>2026-04-19T06:23:09Z</time></trkpt><trkpt lat="40.42631807056079" lon="15.73645072175014"><ele>796.0</ele><time>2026-04-19T06:23:13Z</time></trkpt><trkpt lat="40.42622540894064" lon="15.73643400863756"><ele>796.0</ele><time>2026-04-19T06:23:16Z</time></trkpt><trkpt lat="40.426160966802335" lon="15.736427031288654"><ele>795.9999999999999</ele><time>2026-04-19T06:23:20Z</time></trkpt><trkpt lat="40.42622742731783" lon="15.736451935403975"><ele>796.0</ele><time>2026-04-19T06:23:23Z</time></trkpt><trkpt lat="40.42634033651969" lon="15.736371799534492"><ele>796.6666666666666</ele><time>2026-04-19T06:28:58.998Z</time></trkpt><trkpt lat="40.426422254421375" lon="15.736403446240356"><ele>797.3333333333333</ele><time>2026-04-19T06:29:18Z</time></trkpt><trkpt lat="40.42648883004987" lon="15.736461523053888"><ele>798.0</ele><time>2026-04-19T06:29:20Z</time></trkpt><trkpt lat="40.42659165196868" lon="15.736501112106739"><ele>798.6666666666667</ele><time>2026-04-19T06:29:22Z</time></trkpt><trkpt lat="40.42665756421442" lon="15.736483113098648"><ele>799.3333333333334</ele><time>2026-04-19T06:29:23Z</time></trkpt><trkpt lat="40.42673620166386" lon="15.736442365101361"><ele>800.0</ele><time>2026-04-19T06:29:25Z</time></trkpt><trkpt lat="40.426835660846635" lon="15.73640550660469"><ele>800.0</ele><time>2026-04-19T06:29:27Z</time></trkpt><trkpt lat="40.426935825409856" lon="15.73636754769509"><ele>800.0</ele><time>2026-04-19T06:29:29Z</time></trkpt><trkpt lat="40.427017446326076" lon="15.7363343225739"><ele>800.0</ele><time>2026-04-19T06:29:31Z</time></trkpt><trkpt lat="40.42710616228672" lon="15.736255730311642"><ele>800.0</ele><time>2026-04-19T06:29:33Z</time></trkpt><trkpt lat="40.42717456026181" lon="15.736175771089231"><ele>800.0</ele><time>2026-04-19T06:29:35Z</time></trkpt><trkpt lat="40.42723779236146" lon="15.736078832119547"><ele>800.8333333333334</ele><time>2026-04-19T06:29:37Z</time></trkpt><trkpt lat="40.427289869137645" lon="15.735990224960778"><ele>801.6666666666667</ele><time>2026-04-19T06:29:39Z</time></trkpt><trkpt lat="40.42733194945216" lon="15.735920936161342"><ele>802.5</ele><time>2026-04-19T06:29:41Z</time></trkpt><trkpt lat="40.42738697761921" lon="15.735831930935646"><ele>803.3333333333333</ele><time>2026-04-19T06:29:43.999Z</time></trkpt><trkpt lat="40.427427758399354" lon="15.735764533279669"><ele>804.1666666666666</ele><time>2026-04-19T06:29:46.999Z</time></trkpt><trkpt lat="40.42751784060674" lon="15.735636471710428"><ele>805.0</ele><time>2026-04-19T06:29:48.999Z</time></trkpt><trkpt lat="40.42757115797538" lon="15.735563230398554"><ele>804.9999999999999</ele><time>2026-04-19T06:29:49.999Z</time></trkpt><trkpt lat="40.42764563059184" lon="15.73545806131275"><ele>805.0</ele><time>2026-04-19T06:29:51.999Z</time></trkpt><trkpt lat="40.42768687516178" lon="15.735392236833146"><ele>805.0</ele><time>2026-04-19T06:29:53.999Z</time></trkpt><trkpt lat="40.42776750370619" lon="15.7352876148297"><ele>805.0</ele><time>2026-04-19T06:30:32.998Z</time></trkpt><trkpt lat="40.42781402344713" lon="15.735231616500334"><ele>804.9999999999999</ele><time>2026-04-19T06:30:33.998Z</time></trkpt><trkpt lat="40.42787555433911" lon="15.735160751275178"><ele>805.0</ele><time>2026-04-19T06:30:34.998Z</time></trkpt><trkpt lat="40.42794489261042" lon="15.735082827746668"><ele>805.6</ele><time>2026-04-19T06:30:35.998Z</time></trkpt><trkpt lat="40.42800724627472" lon="15.735028302785524"><ele>806.2</ele><time>2026-04-19T06:30:36.998Z</time></trkpt><trkpt lat="40.42807668221607" lon="15.734953268842363"><ele>806.8</ele><time>2026-04-19T06:30:37.998Z</time></trkpt><trkpt lat="40.428141810860986" lon="15.734871143435532"><ele>807.4</ele><time>2026-04-19T06:30:38.998Z</time></trkpt><trkpt lat="40.428223107828174" lon="15.734778612874731"><ele>808.0</ele><time>2026-04-19T06:30:39.998Z</time></trkpt><trkpt lat="40.42831184326581" lon="15.734686621233227"><ele>808.0</ele><time>2026-04-19T06:30:40.998Z</time></trkpt><trkpt lat="40.42840345905403" lon="15.73458887026411"><ele>808.0</ele><time>2026-04-19T06:30:41.998Z</time></trkpt><trkpt lat="40.428484739669045" lon="15.734503234242112"><ele>808.0</ele><time>2026-04-19T06:30:42.998Z</time></trkpt><trkpt lat="40.42856642557973" lon="15.734408813344945"><ele>808.0</ele><time>2026-04-19T06:30:43.998Z</time></trkpt><trkpt lat="40.428651912238536" lon="15.734354837427368"><ele>808.0</ele><time>2026-04-19T06:30:44.998Z</time></trkpt><trkpt lat="40.4287182586187" lon="15.734301598149942"><ele>808.6666666666666</ele><time>2026-04-19T06:30:45.998Z</time></trkpt><trkpt lat="40.42879482916657" lon="15.734234020775641"><ele>809.3333333333333</ele><time>2026-04-19T06:30:46.998Z</time></trkpt><trkpt lat="40.42888580241466" lon="15.734193404999766"><ele>810.0</ele><time>2026-04-19T06:30:47.998Z</time></trkpt><trkpt lat="40.42896174669728" lon="15.73416366972228"><ele>810.6666666666667</ele><time>2026-04-19T06:30:48.998Z</time></trkpt><trkpt lat="40.42904503456" lon="15.734134386147572"><ele>811.3333333333334</ele><time>2026-04-19T06:30:49.998Z</time></trkpt><trkpt lat="40.42913329113133" lon="15.734092927929291"><ele>812.0</ele><time>2026-04-19T06:30:50.998Z</time></trkpt><trkpt lat="40.429207324770644" lon="15.734039458521615"><ele>812.0</ele><time>2026-04-19T06:30:51.998Z</time></trkpt><trkpt lat="40.42927269627989" lon="15.733962028200299"><ele>812.0</ele><time>2026-04-19T06:30:52.998Z</time></trkpt><trkpt lat="40.429316843291595" lon="15.73385311826228"><ele>812.0</ele><time>2026-04-19T06:30:53.998Z</time></trkpt><trkpt lat="40.4293278363453" lon="15.733730878091139"><ele>812.0</ele><time>2026-04-19T06:30:54.998Z</time></trkpt><trkpt lat="40.42930299925799" lon="15.733600220368299"><ele>812.0</ele><time>2026-04-19T06:30:55.998Z</time></trkpt><trkpt lat="40.42926102879715" lon="15.733489290664435"><ele>810.4000000000001</ele><time>2026-04-19T06:30:56.998Z</time></trkpt><trkpt lat="40.429231600060525" lon="15.733390757234817"><ele>808.8000000000001</ele><time>2026-04-19T06:30:57.998Z</time></trkpt><trkpt lat="40.429213289044355" lon="15.733288513002195"><ele>807.2</ele><time>2026-04-19T06:30:58.998Z</time></trkpt><trkpt lat="40.42918332526587" lon="15.733154969464355"><ele>805.6</ele><time>2026-04-19T06:30:59.998Z</time></trkpt><trkpt lat="40.42916465061511" lon="15.73302130044488"><ele>804.0</ele><time>2026-04-19T06:31:00.998Z</time></trkpt><trkpt lat="40.429162356128955" lon="15.732884917686306"><ele>804.0</ele><time>2026-04-19T06:31:01.998Z</time></trkpt><trkpt lat="40.42918455731553" lon="15.73275249149384"><ele>804.0</ele><time>2026-04-19T06:31:02.998Z</time></trkpt><trkpt lat="40.42920853779762" lon="15.73261777576353"><ele>804.0</ele><time>2026-04-19T06:31:03.998Z</time></trkpt><trkpt lat="40.429218171578654" lon="15.732475565676042"><ele>804.0</ele><time>2026-04-19T06:31:04.998Z</time></trkpt><trkpt lat="40.42919152995413" lon="15.732324217603098"><ele>804.0</ele><time>2026-04-19T06:31:05.998Z</time></trkpt><trkpt lat="40.429174615870764" lon="15.732171317155125"><ele>803.8000000000001</ele><time>2026-04-19T06:31:06.998Z</time></trkpt><trkpt lat="40.429154372517594" lon="15.732020244836306"><ele>803.6</ele><time>2026-04-19T06:31:07.998Z</time></trkpt><trkpt lat="40.42914116115172" lon="15.731885664895845"><ele>803.4</ele><time>2026-04-19T06:31:08.998Z</time></trkpt><trkpt lat="40.429145972854506" lon="15.731766528301401"><ele>803.2</ele><time>2026-04-19T06:31:09.998Z</time></trkpt><trkpt lat="40.429167525885504" lon="15.731652939219897"><ele>803.0</ele><time>2026-04-19T06:31:10.998Z</time></trkpt><trkpt lat="40.42921624665329" lon="15.731537870264908"><ele>802.75</ele><time>2026-04-19T06:31:11.998Z</time></trkpt><trkpt lat="40.42923887075985" lon="15.731409842673644"><ele>802.5</ele><time>2026-04-19T06:31:12.998Z</time></trkpt><trkpt lat="40.42927857702288" lon="15.73128153322523"><ele>802.25</ele><time>2026-04-19T06:31:14Z</time></trkpt><trkpt lat="40.42932128593054" lon="15.731154305432977"><ele>802.0</ele><time>2026-04-19T06:31:15Z</time></trkpt><trkpt lat="40.42933416835466" lon="15.73097184301514"><ele>801.8</ele><time>2026-04-19T06:31:16Z</time></trkpt><trkpt lat="40.42930816780407" lon="15.730831509232482"><ele>801.6</ele><time>2026-04-19T06:31:17Z</time></trkpt><trkpt lat="40.429288590426324" lon="15.730705738387199"><ele>801.4</ele><time>2026-04-19T06:31:18Z</time></trkpt><trkpt lat="40.42928189532828" lon="15.73056504934946"><ele>801.1999999999999</ele><time>2026-04-19T06:31:19Z</time></trkpt><trkpt lat="40.429276458113655" lon="15.730404586069366"><ele>801.0</ele><time>2026-04-19T06:31:20Z</time></trkpt><trkpt lat="40.42929910288016" lon="15.730243818240702"><ele>800.0</ele><time>2026-04-19T06:31:21Z</time></trkpt><trkpt lat="40.429348449676745" lon="15.730120346533123"><ele>799.0</ele><time>2026-04-19T06:31:22Z</time></trkpt><trkpt lat="40.4294112374028" lon="15.730001082125415"><ele>798.0</ele><time>2026-04-19T06:31:23Z</time></trkpt><trkpt lat="40.42949223966065" lon="15.72989327856285"><ele>797.0</ele><time>2026-04-19T06:31:24Z</time></trkpt><trkpt lat="40.42957795433983" lon="15.729787387061094"><ele>796.0</ele><time>2026-04-19T06:31:25Z</time></trkpt><trkpt lat="40.4296611732392" lon="15.729690222874394"><ele>798.0</ele><time>2026-04-19T06:31:26Z</time></trkpt><trkpt lat="40.42974597511914" lon="15.729576375720649"><ele>800.0</ele><time>2026-04-19T06:31:27Z</time></trkpt><trkpt lat="40.429846168510174" lon="15.729520368131716"><ele>802.0</ele><time>2026-04-19T06:31:28Z</time></trkpt><trkpt lat="40.429923542278274" lon="15.729417330274822"><ele>804.0</ele><time>2026-04-19T06:31:29Z</time></trkpt><trkpt lat="40.43001157856203" lon="15.72932288386109"><ele>804.0</ele><time>2026-04-19T06:31:30Z</time></trkpt><trkpt lat="40.43008516554294" lon="15.729221698153848"><ele>804.0</ele><time>2026-04-19T06:31:31Z</time></trkpt><trkpt lat="40.43016478662698" lon="15.729144140250687"><ele>804.0</ele><time>2026-04-19T06:31:32Z</time></trkpt><trkpt lat="40.430253157012174" lon="15.729084558208557"><ele>804.0</ele><time>2026-04-19T06:31:33Z</time></trkpt><trkpt lat="40.43033348916832" lon="15.729052059583617"><ele>804.0</ele><time>2026-04-19T06:31:34Z</time></trkpt><trkpt lat="40.4304036785628" lon="15.729042521347575"><ele>804.0</ele><time>2026-04-19T06:31:35Z</time></trkpt><trkpt lat="40.43049382533192" lon="15.729032525649949"><ele>804.0</ele><time>2026-04-19T06:31:37Z</time></trkpt><trkpt lat="40.43056278492428" lon="15.728998774052078"><ele>804.0</ele><time>2026-04-19T06:31:39Z</time></trkpt><trkpt lat="40.430585204901966" lon="15.728858573971447"><ele>804.0</ele><time>2026-04-19T06:31:43Z</time></trkpt><trkpt lat="40.43050292668483" lon="15.728883862303931"><ele>804.0</ele><time>2026-04-19T06:32:59.998Z</time></trkpt><trkpt lat="40.43040771843798" lon="15.72884377930399"><ele>804.0</ele><time>2026-04-19T06:33:01.998Z</time></trkpt><trkpt lat="40.43035108582398" lon="15.728777088238571"><ele>804.0</ele><time>2026-04-19T06:33:03.998Z</time></trkpt><trkpt lat="40.43029228564462" lon="15.728676281642839"><ele>804.0</ele><time>2026-04-19T06:33:05.998Z</time></trkpt><trkpt lat="40.43023672870684" lon="15.728576220006635"><ele>804.0</ele><time>2026-04-19T06:33:08.998Z</time></trkpt><trkpt lat="40.430181179932234" lon="15.728491475310696"><ele>804.0</ele><time>2026-04-19T06:33:11.998Z</time></trkpt><trkpt lat="40.43013832764224" lon="15.72841011538671"><ele>804.0</ele><time>2026-04-19T06:33:13.998Z</time></trkpt><trkpt lat="40.43009793051742" lon="15.728318993314588"><ele>802.6666666666666</ele><time>2026-04-19T06:33:15.998Z</time></trkpt><trkpt lat="40.430042481360935" lon="15.728210490551936"><ele>801.3333333333333</ele><time>2026-04-19T06:33:17.998Z</time></trkpt><trkpt lat="40.430013438219135" lon="15.728136493520608"><ele>800.0</ele><time>2026-04-19T06:33:18.998Z</time></trkpt><trkpt lat="40.42997794321518" lon="15.7280621857783"><ele>798.6666666666666</ele><time>2026-04-19T06:33:20Z</time></trkpt><trkpt lat="40.42993838933049" lon="15.727989924780447"><ele>797.3333333333333</ele><time>2026-04-19T06:33:21Z</time></trkpt><trkpt lat="40.429896994819806" lon="15.727839274583548"><ele>796.0</ele><time>2026-04-19T06:33:23Z</time></trkpt><trkpt lat="40.42984985735672" lon="15.727676965843742"><ele>794.9999999999999</ele><time>2026-04-19T06:33:25Z</time></trkpt><trkpt lat="40.42982305158287" lon="15.727589939875108"><ele>794.0</ele><time>2026-04-19T06:33:26Z</time></trkpt><trkpt lat="40.42979111853938" lon="15.727501272393887"><ele>793.0</ele><time>2026-04-19T06:33:27Z</time></trkpt><trkpt lat="40.42975503955124" lon="15.72741551348416"><ele>792.0</ele><time>2026-04-19T06:33:28Z</time></trkpt><trkpt lat="40.42971481389645" lon="15.72733618132778"><ele>791.0</ele><time>2026-04-19T06:33:29Z</time></trkpt><trkpt lat="40.42963553033977" lon="15.727311586342582"><ele>789.9999999999999</ele><time>2026-04-19T06:33:30Z</time></trkpt><trkpt lat="40.42958331953594" lon="15.727255842405487"><ele>789.0</ele><time>2026-04-19T06:33:31Z</time></trkpt><trkpt lat="40.42952694327086" lon="15.727213365309618"><ele>787.4000000000001</ele><time>2026-04-19T06:33:32Z</time></trkpt><trkpt lat="40.42942791231345" lon="15.727116400837499"><ele>785.8</ele><time>2026-04-19T06:33:34Z</time></trkpt><trkpt lat="40.42934414486074" lon="15.726995024757624"><ele>784.2</ele><time>2026-04-19T06:33:36Z</time></trkpt><trkpt lat="40.42929527607793" lon="15.726930637030778"><ele>782.5999999999999</ele><time>2026-04-19T06:33:37Z</time></trkpt><trkpt lat="40.42920174229547" lon="15.726841634876846"><ele>781.0</ele><time>2026-04-19T06:33:39Z</time></trkpt><trkpt lat="40.429094215413464" lon="15.726842914703491"><ele>780.8333333333333</ele><time>2026-04-19T06:33:41Z</time></trkpt><trkpt lat="40.429003402183255" lon="15.726856102752215"><ele>780.6666666666666</ele><time>2026-04-19T06:33:43Z</time></trkpt><trkpt lat="40.42893117797161" lon="15.726865381036802"><ele>780.5</ele><time>2026-04-19T06:33:45Z</time></trkpt><trkpt lat="40.428860047422624" lon="15.726870917336148"><ele>780.3333333333333</ele><time>2026-04-19T06:33:47Z</time></trkpt><trkpt lat="40.42878534515816" lon="15.726906786661383"><ele>780.1666666666666</ele><time>2026-04-19T06:33:49Z</time></trkpt><trkpt lat="40.42871681648749" lon="15.72689431724158"><ele>780.0</ele><time>2026-04-19T06:33:51Z</time></trkpt><trkpt lat="40.42863412585399" lon="15.7268800732008"><ele>777.4</ele><time>2026-04-19T06:33:53Z</time></trkpt><trkpt lat="40.428526510099616" lon="15.72686873896544"><ele>774.8</ele><time>2026-04-19T06:33:55Z</time></trkpt><trkpt lat="40.42842518053951" lon="15.726820762269554"><ele>772.2</ele><time>2026-04-19T06:33:57Z</time></trkpt><trkpt lat="40.428330073570876" lon="15.726819774599317"><ele>769.6</ele><time>2026-04-19T06:33:58.999Z</time></trkpt><trkpt lat="40.428250160388785" lon="15.726821256024692"><ele>767.0</ele><time>2026-04-19T06:34:00.999Z</time></trkpt><trkpt lat="40.42815830602077" lon="15.726822958812658"><ele>767.0</ele><time>2026-04-19T06:34:02.999Z</time></trkpt><trkpt lat="40.42806829017428" lon="15.726824627519639"><ele>767.0</ele><time>2026-04-19T06:34:04.999Z</time></trkpt><trkpt lat="40.42798030541093" lon="15.726823262406663"><ele>767.0</ele><time>2026-04-19T06:34:06.999Z</time></trkpt><trkpt lat="40.42791175684704" lon="15.726822484424478"><ele>767.0</ele><time>2026-04-19T06:34:09.999Z</time></trkpt><trkpt lat="40.42784469415745" lon="15.726769583332045"><ele>767.0</ele><time>2026-04-19T06:34:13.999Z</time></trkpt><trkpt lat="40.42780861790075" lon="15.72667954590529"><ele>767.0</ele><time>2026-04-19T06:34:15.999Z</time></trkpt><trkpt lat="40.427733236785954" lon="15.72663415205431"><ele>765.4000000000001</ele><time>2026-04-19T06:34:17.999Z</time></trkpt><trkpt lat="40.42763037264067" lon="15.726603401636511"><ele>763.8000000000001</ele><time>2026-04-19T06:34:19.999Z</time></trkpt><trkpt lat="40.42750384601411" lon="15.726573316904545"><ele>762.2</ele><time>2026-04-19T06:34:21.999Z</time></trkpt><trkpt lat="40.42743619185053" lon="15.726561832925533"><ele>760.6</ele><time>2026-04-19T06:34:22.999Z</time></trkpt><trkpt lat="40.427370078094675" lon="15.726552578171926"><ele>759.0</ele><time>2026-04-19T06:34:23.999Z</time></trkpt><trkpt lat="40.42724751854439" lon="15.72652927041651"><ele>759.0</ele><time>2026-04-19T06:34:25.999Z</time></trkpt><trkpt lat="40.42718255365155" lon="15.726526242007274"><ele>759.0</ele><time>2026-04-19T06:34:26.999Z</time></trkpt><trkpt lat="40.42711761518147" lon="15.72653369795877"><ele>759.0</ele><time>2026-04-19T06:34:27.999Z</time></trkpt><trkpt lat="40.427046046170574" lon="15.726555044138964"><ele>759.0</ele><time>2026-04-19T06:34:28.999Z</time></trkpt><trkpt lat="40.426979256765264" lon="15.726574610601098"><ele>759.0</ele><time>2026-04-19T06:34:29.999Z</time></trkpt><trkpt lat="40.42690845416286" lon="15.7265907223469"><ele>759.0</ele><time>2026-04-19T06:34:30.999Z</time></trkpt><trkpt lat="40.426840015028915" lon="15.726610004242259"><ele>759.0</ele><time>2026-04-19T06:34:31.999Z</time></trkpt><trkpt lat="40.426774320442014" lon="15.72664547877169"><ele>757.6666666666666</ele><time>2026-04-19T06:34:32.999Z</time></trkpt><trkpt lat="40.42670023290499" lon="15.726660863326396"><ele>756.3333333333334</ele><time>2026-04-19T06:34:33.999Z</time></trkpt><trkpt lat="40.42664834757042" lon="15.726719454756257"><ele>755.0</ele><time>2026-04-19T06:34:34.999Z</time></trkpt><trkpt lat="40.42654744199183" lon="15.726811869597958"><ele>753.6666666666667</ele><time>2026-04-19T06:34:36.999Z</time></trkpt><trkpt lat="40.42649024124592" lon="15.72686741874972"><ele>752.3333333333334</ele><time>2026-04-19T06:34:37.999Z</time></trkpt><trkpt lat="40.42642303005107" lon="15.726883118040194"><ele>751.0</ele><time>2026-04-19T06:34:38.999Z</time></trkpt><trkpt lat="40.42635719894673" lon="15.726909415674722"><ele>750.1999999999999</ele><time>2026-04-19T06:34:39.999Z</time></trkpt><trkpt lat="40.42629229355123" lon="15.726930480627404"><ele>749.4</ele><time>2026-04-19T06:34:40.999Z</time></trkpt><trkpt lat="40.42617533089273" lon="15.726969589788522"><ele>748.6</ele><time>2026-04-19T06:34:42.999Z</time></trkpt><trkpt lat="40.4260729564073" lon="15.727000781800442"><ele>747.8</ele><time>2026-04-19T06:34:44.999Z</time></trkpt><trkpt lat="40.4259613852855" lon="15.727037141120233"><ele>747.0</ele><time>2026-04-19T06:34:46.998Z</time></trkpt><trkpt lat="40.42586117693277" lon="15.727072631575137"><ele>747.0</ele><time>2026-04-19T06:34:48.998Z</time></trkpt><trkpt lat="40.425775989102085" lon="15.727107870383929"><ele>747.0</ele><time>2026-04-19T06:34:50.998Z</time></trkpt><trkpt lat="40.42569662834045" lon="15.72717437595598"><ele>747.0</ele><time>2026-04-19T06:34:52.998Z</time></trkpt><trkpt lat="40.4256203193277" lon="15.72726672701329"><ele>747.0</ele><time>2026-04-19T06:34:54.998Z</time></trkpt><trkpt lat="40.425546389688456" lon="15.727382680534674"><ele>747.0</ele><time>2026-04-19T06:34:56.998Z</time></trkpt><trkpt lat="40.42549591733641" lon="15.72744545995768"><ele>746.5714285714286</ele><time>2026-04-19T06:34:57.998Z</time></trkpt><trkpt lat="40.42543349102555" lon="15.727518324243578"><ele>746.1428571428571</ele><time>2026-04-19T06:34:58.998Z</time></trkpt><trkpt lat="40.42538033411892" lon="15.727580824239832"><ele>745.7142857142858</ele><time>2026-04-19T06:34:59.998Z</time></trkpt><trkpt lat="40.425326486407045" lon="15.727631564729434"><ele>745.2857142857142</ele><time>2026-04-19T06:35:00.998Z</time></trkpt><trkpt lat="40.425266970348574" lon="15.727675201722969"><ele>744.8571428571429</ele><time>2026-04-19T06:35:01.998Z</time></trkpt><trkpt lat="40.4252050538065" lon="15.727722958849656"><ele>744.4285714285714</ele><time>2026-04-19T06:35:02.998Z</time></trkpt><trkpt lat="40.42514321561046" lon="15.727772723672299"><ele>744.0</ele><time>2026-04-19T06:35:03.998Z</time></trkpt><trkpt lat="40.425074009652675" lon="15.727826585415787"><ele>743.75</ele><time>2026-04-19T06:35:04.998Z</time></trkpt><trkpt lat="40.42499758256699" lon="15.727900594620625"><ele>743.5</ele><time>2026-04-19T06:35:05.998Z</time></trkpt><trkpt lat="40.42491446276929" lon="15.727996312046008"><ele>743.25</ele><time>2026-04-19T06:35:06.998Z</time></trkpt><trkpt lat="40.42482441235975" lon="15.728095302920217"><ele>743.0</ele><time>2026-04-19T06:35:07.998Z</time></trkpt><trkpt lat="40.42473526916237" lon="15.72821398098952"><ele>743.0</ele><time>2026-04-19T06:35:08.998Z</time></trkpt><trkpt lat="40.424678450840176" lon="15.72833766647037"><ele>743.0</ele><time>2026-04-19T06:35:09.998Z</time></trkpt><trkpt lat="40.42463149097459" lon="15.728448628556183"><ele>743.0</ele><time>2026-04-19T06:35:10.998Z</time></trkpt><trkpt lat="40.42458357032563" lon="15.728556683381978"><ele>743.0</ele><time>2026-04-19T06:35:11.998Z</time></trkpt><trkpt lat="40.42453017984936" lon="15.728669166607519"><ele>743.0</ele><time>2026-04-19T06:35:12.998Z</time></trkpt><trkpt lat="40.42445804724819" lon="15.728786051547289"><ele>741.8</ele><time>2026-04-19T06:35:13.998Z</time></trkpt><trkpt lat="40.42438743313682" lon="15.72889331675475"><ele>740.5999999999999</ele><time>2026-04-19T06:35:14.998Z</time></trkpt><trkpt lat="40.4243202246163" lon="15.728991759595912"><ele>739.4000000000001</ele><time>2026-04-19T06:35:15.998Z</time></trkpt><trkpt lat="40.42425723760672" lon="15.729088148204537"><ele>738.2</ele><time>2026-04-19T06:35:16.998Z</time></trkpt><trkpt lat="40.42418164145306" lon="15.729193697083772"><ele>737.0</ele><time>2026-04-19T06:35:17.998Z</time></trkpt><trkpt lat="40.42410115003923" lon="15.729275348569525"><ele>737.0</ele><time>2026-04-19T06:35:18.998Z</time></trkpt><trkpt lat="40.42400158553545" lon="15.729345676689716"><ele>737.0</ele><time>2026-04-19T06:35:19.998Z</time></trkpt><trkpt lat="40.423899766908164" lon="15.72942912512909"><ele>737.0</ele><time>2026-04-19T06:35:20.998Z</time></trkpt><trkpt lat="40.42380122430253" lon="15.729502055523364"><ele>737.0</ele><time>2026-04-19T06:35:21.998Z</time></trkpt><trkpt lat="40.423705150713204" lon="15.729534487436506"><ele>737.0</ele><time>2026-04-19T06:35:22.998Z</time></trkpt><trkpt lat="40.423577686068725" lon="15.729524078627435"><ele>735.0</ele><time>2026-04-19T06:35:23.998Z</time></trkpt><trkpt lat="40.42344427346621" lon="15.72954165339101"><ele>733.0</ele><time>2026-04-19T06:35:24.998Z</time></trkpt><trkpt lat="40.423328680272995" lon="15.729551982615847"><ele>731.0</ele><time>2026-04-19T06:35:26Z</time></trkpt><trkpt lat="40.4232194911845" lon="15.729609752031891"><ele>729.0</ele><time>2026-04-19T06:35:27Z</time></trkpt><trkpt lat="40.42312096003514" lon="15.729698550872719"><ele>729.0</ele><time>2026-04-19T06:35:28Z</time></trkpt><trkpt lat="40.42303754246303" lon="15.729803240961795"><ele>729.0</ele><time>2026-04-19T06:35:29Z</time></trkpt><trkpt lat="40.42293417347939" lon="15.729894191538692"><ele>729.0</ele><time>2026-04-19T06:35:30Z</time></trkpt><trkpt lat="40.42280578715209" lon="15.729894470945837"><ele>729.0</ele><time>2026-04-19T06:35:31Z</time></trkpt><trkpt lat="40.422671646230015" lon="15.729917667213165"><ele>728.5</ele><time>2026-04-19T06:35:32Z</time></trkpt><trkpt lat="40.422530878244444" lon="15.729944166620738"><ele>728.0</ele><time>2026-04-19T06:35:33Z</time></trkpt><trkpt lat="40.422391913760606" lon="15.729992024927252"><ele>727.5</ele><time>2026-04-19T06:35:34Z</time></trkpt><trkpt lat="40.42225154018156" lon="15.730013481810754"><ele>727.0</ele><time>2026-04-19T06:35:35Z</time></trkpt><trkpt lat="40.42211719384845" lon="15.730019843075786"><ele>726.25</ele><time>2026-04-19T06:35:36Z</time></trkpt><trkpt lat="40.42198282337807" lon="15.73004473096264"><ele>725.5</ele><time>2026-04-19T06:35:37Z</time></trkpt><trkpt lat="40.4218473714304" lon="15.73006992605927"><ele>724.75</ele><time>2026-04-19T06:35:38Z</time></trkpt><trkpt lat="40.42172553208026" lon="15.730093953116285"><ele>724.0</ele><time>2026-04-19T06:35:39Z</time></trkpt><trkpt lat="40.42160787601851" lon="15.730107833990303"><ele>724.0</ele><time>2026-04-19T06:35:40Z</time></trkpt><trkpt lat="40.42149525421629" lon="15.730116094630592"><ele>724.0</ele><time>2026-04-19T06:35:41Z</time></trkpt><trkpt lat="40.42138828415549" lon="15.730123940738007"><ele>724.0</ele><time>2026-04-19T06:35:42Z</time></trkpt><trkpt lat="40.421285726689355" lon="15.730143772442611"><ele>724.0</ele><time>2026-04-19T06:35:43Z</time></trkpt><trkpt lat="40.42118495312278" lon="15.73014126855886"><ele>724.0</ele><time>2026-04-19T06:35:44Z</time></trkpt><trkpt lat="40.42108150934885" lon="15.730142838716324"><ele>723.4000000000001</ele><time>2026-04-19T06:35:45Z</time></trkpt><trkpt lat="40.42098236663852" lon="15.730126790582357"><ele>722.8</ele><time>2026-04-19T06:35:46Z</time></trkpt><trkpt lat="40.42088767481557" lon="15.730097896774952"><ele>722.2</ele><time>2026-04-19T06:35:47Z</time></trkpt><trkpt lat="40.42080711129432" lon="15.73008081291228"><ele>721.5999999999999</ele><time>2026-04-19T06:35:48Z</time></trkpt><trkpt lat="40.420736870399274" lon="15.730132361844921"><ele>721.0</ele><time>2026-04-19T06:35:49Z</time></trkpt><trkpt lat="40.420709233498634" lon="15.730256781467878"><ele>721.0</ele><time>2026-04-19T06:35:50Z</time></trkpt><trkpt lat="40.42070004809255" lon="15.730351422907761"><ele>721.0</ele><time>2026-04-19T06:35:51Z</time></trkpt><trkpt lat="40.42065156946232" lon="15.730465947162289"><ele>721.0</ele><time>2026-04-19T06:35:53Z</time></trkpt><trkpt lat="40.4205803451082" lon="15.730437242448978"><ele>721.0</ele><time>2026-04-19T06:35:56Z</time></trkpt><trkpt lat="40.420583366487726" lon="15.730299209308118"><ele>721.0</ele><time>2026-04-19T06:35:58Z</time></trkpt><trkpt lat="40.42060204879774" lon="15.73018484779907"><ele>721.0</ele><time>2026-04-19T06:35:59Z</time></trkpt><trkpt lat="40.42060373314677" lon="15.730043914052233"><ele>721.0</ele><time>2026-04-19T06:36:00Z</time></trkpt><trkpt lat="40.42058823202425" lon="15.729876630124796"><ele>721.0</ele><time>2026-04-19T06:36:01Z</time></trkpt><trkpt lat="40.42056966919899" lon="15.729701067808433"><ele>721.0</ele><time>2026-04-19T06:36:02Z</time></trkpt><trkpt lat="40.42054597954454" lon="15.729511407239022"><ele>721.0</ele><time>2026-04-19T06:36:03Z</time></trkpt><trkpt lat="40.42051753693273" lon="15.729295479360244"><ele>718.6666666666667</ele><time>2026-04-19T06:36:04Z</time></trkpt><trkpt lat="40.420492134106546" lon="15.729061569790925"><ele>716.3333333333334</ele><time>2026-04-19T06:36:04.999Z</time></trkpt><trkpt lat="40.42046916600989" lon="15.728851037281537"><ele>714.0</ele><time>2026-04-19T06:36:05.999Z</time></trkpt><trkpt lat="40.42044676190336" lon="15.72866300225419"><ele>711.5</ele><time>2026-04-19T06:36:06.999Z</time></trkpt><trkpt lat="40.42042768605928" lon="15.728479491896714"><ele>709.0</ele><time>2026-04-19T06:36:07.999Z</time></trkpt><trkpt lat="40.42041012313655" lon="15.728287601725997"><ele>706.5</ele><time>2026-04-19T06:36:08.999Z</time></trkpt><trkpt lat="40.42038014398518" lon="15.728090581215126"><ele>704.0</ele><time>2026-04-19T06:36:09.999Z</time></trkpt><trkpt lat="40.420337413800446" lon="15.72789914531714"><ele>704.0</ele><time>2026-04-19T06:36:10.999Z</time></trkpt><trkpt lat="40.420272295008665" lon="15.727730389329368"><ele>704.0</ele><time>2026-04-19T06:36:11.999Z</time></trkpt><trkpt lat="40.42017744426162" lon="15.727613333554755"><ele>704.0</ele><time>2026-04-19T06:36:12.999Z</time></trkpt><trkpt lat="40.42007115162919" lon="15.727520391340658"><ele>704.0</ele><time>2026-04-19T06:36:13.999Z</time></trkpt><trkpt lat="40.4199534795908" lon="15.727443997862142"><ele>703.75</ele><time>2026-04-19T06:36:14.999Z</time></trkpt><trkpt lat="40.419825189452915" lon="15.727391231138764"><ele>703.5</ele><time>2026-04-19T06:36:15.999Z</time></trkpt><trkpt lat="40.41970468426379" lon="15.727381546796414"><ele>703.25</ele><time>2026-04-19T06:36:16.999Z</time></trkpt><trkpt lat="40.41959076186715" lon="15.727385419859571"><ele>703.0</ele><time>2026-04-19T06:36:17.999Z</time></trkpt><trkpt lat="40.41948983486127" lon="15.727387406471681"><ele>703.0</ele><time>2026-04-19T06:36:18.999Z</time></trkpt><trkpt lat="40.41939622317087" lon="15.727381573705673"><ele>703.0</ele><time>2026-04-19T06:36:19.999Z</time></trkpt><trkpt lat="40.41930725739561" lon="15.727360456301271"><ele>703.0</ele><time>2026-04-19T06:36:20.999Z</time></trkpt><trkpt lat="40.41921037333965" lon="15.727352763192844"><ele>703.0</ele><time>2026-04-19T06:36:21.999Z</time></trkpt><trkpt lat="40.41910711397" lon="15.727318420480268"><ele>703.0</ele><time>2026-04-19T06:36:22.999Z</time></trkpt><trkpt lat="40.41902883999543" lon="15.727305495453804"><ele>703.0</ele><time>2026-04-19T06:36:23.999Z</time></trkpt><trkpt lat="40.418942322233285" lon="15.727199743192102"><ele>703.0</ele><time>2026-04-19T06:36:25.999Z</time></trkpt><trkpt lat="40.418947915407216" lon="15.727086330292515"><ele>703.0</ele><time>2026-04-19T06:36:26.999Z</time></trkpt><trkpt lat="40.418926555772856" lon="15.72697660044147"><ele>703.0</ele><time>2026-04-19T06:36:27.999Z</time></trkpt><trkpt lat="40.418913525091796" lon="15.726857567151594"><ele>703.0</ele><time>2026-04-19T06:36:28.999Z</time></trkpt><trkpt lat="40.418923395243375" lon="15.726757204676698"><ele>705.8</ele><time>2026-04-19T06:36:29.999Z</time></trkpt><trkpt lat="40.41897998289478" lon="15.726607578722808"><ele>708.5999999999999</ele><time>2026-04-19T06:36:30.999Z</time></trkpt><trkpt lat="40.419052373358944" lon="15.726480380935971"><ele>711.4000000000001</ele><time>2026-04-19T06:36:31.999Z</time></trkpt><trkpt lat="40.41909476609455" lon="15.726367067324976"><ele>714.2</ele><time>2026-04-19T06:36:32.999Z</time></trkpt><trkpt lat="40.41913598008726" lon="15.726284543692756"><ele>717.0</ele><time>2026-04-19T06:36:33.999Z</time></trkpt><trkpt lat="40.419144881881145" lon="15.726173435204345"><ele>719.0</ele><time>2026-04-19T06:36:34.999Z</time></trkpt><trkpt lat="40.4191739364811" lon="15.726038951491471"><ele>721.0</ele><time>2026-04-19T06:36:35.999Z</time></trkpt><trkpt lat="40.41921878310957" lon="15.72590903240141"><ele>723.0</ele><time>2026-04-19T06:36:36.999Z</time></trkpt><trkpt lat="40.41925634432782" lon="15.725797852388439"><ele>725.0</ele><time>2026-04-19T06:36:37.999Z</time></trkpt><trkpt lat="40.41930760860019" lon="15.725659551048473"><ele>727.0</ele><time>2026-04-19T06:36:38.999Z</time></trkpt><trkpt lat="40.4193980446446" lon="15.725532949882776"><ele>727.0</ele><time>2026-04-19T06:36:39.999Z</time></trkpt><trkpt lat="40.41946598183456" lon="15.725425135123375"><ele>727.0</ele><time>2026-04-19T06:36:40.999Z</time></trkpt><trkpt lat="40.4195565828505" lon="15.72535487520133"><ele>727.0</ele><time>2026-04-19T06:36:41.999Z</time></trkpt><trkpt lat="40.41963452957531" lon="15.725267415816033"><ele>727.0</ele><time>2026-04-19T06:36:42.999Z</time></trkpt><trkpt lat="40.41969569016284" lon="15.725162828931545"><ele>727.0</ele><time>2026-04-19T06:36:43.999Z</time></trkpt><trkpt lat="40.41976168601827" lon="15.725051058320746"><ele>730.2</ele><time>2026-04-19T06:36:44.999Z</time></trkpt><trkpt lat="40.419831284673386" lon="15.724942689453826"><ele>733.4000000000001</ele><time>2026-04-19T06:36:45.999Z</time></trkpt><trkpt lat="40.41990375909472" lon="15.724861332536946"><ele>736.5999999999999</ele><time>2026-04-19T06:36:46.999Z</time></trkpt><trkpt lat="40.41994006494165" lon="15.724791554369679"><ele>739.8</ele><time>2026-04-19T06:36:47.999Z</time></trkpt><trkpt lat="40.41998018015911" lon="15.724655987525324"><ele>743.0</ele><time>2026-04-19T06:36:49.999Z</time></trkpt><trkpt lat="40.41994064271986" lon="15.72452609702099"><ele>747.2</ele><time>2026-04-19T06:36:51.998Z</time></trkpt><trkpt lat="40.41988601954255" lon="15.724386111518784"><ele>751.4</ele><time>2026-04-19T06:36:53.998Z</time></trkpt><trkpt lat="40.419818955758416" lon="15.724300543130273"><ele>755.6</ele><time>2026-04-19T06:36:55.998Z</time></trkpt><trkpt lat="40.41975036109383" lon="15.724239453804492"><ele>759.8000000000001</ele><time>2026-04-19T06:36:56.998Z</time></trkpt><trkpt lat="40.419660996106145" lon="15.724201097270642"><ele>764.0</ele><time>2026-04-19T06:36:57.998Z</time></trkpt><trkpt lat="40.41955235876514" lon="15.724189561593285"><ele>766.0</ele><time>2026-04-19T06:36:58.998Z</time></trkpt><trkpt lat="40.41942966908088" lon="15.724197566567275"><ele>768.0</ele><time>2026-04-19T06:36:59.998Z</time></trkpt><trkpt lat="40.41929318520656" lon="15.72420554421017"><ele>770.0</ele><time>2026-04-19T06:37:00.998Z</time></trkpt><trkpt lat="40.41913746962986" lon="15.724198826054238"><ele>772.0</ele><time>2026-04-19T06:37:01.998Z</time></trkpt><trkpt lat="40.41897318774702" lon="15.724181874694386"><ele>772.0</ele><time>2026-04-19T06:37:02.998Z</time></trkpt><trkpt lat="40.41882299648253" lon="15.724153095764976"><ele>772.0</ele><time>2026-04-19T06:37:03.998Z</time></trkpt><trkpt lat="40.41870311602751" lon="15.724097513153326"><ele>772.0</ele><time>2026-04-19T06:37:04.998Z</time></trkpt><trkpt lat="40.41857818962943" lon="15.724035534756181"><ele>772.0</ele><time>2026-04-19T06:37:05.998Z</time></trkpt><trkpt lat="40.4184549803411" lon="15.723981646033465"><ele>773.5</ele><time>2026-04-19T06:37:06.998Z</time></trkpt><trkpt lat="40.41835476962378" lon="15.723869337450648"><ele>775.0</ele><time>2026-04-19T06:37:07.998Z</time></trkpt><trkpt lat="40.41824387168712" lon="15.723818444391963"><ele>776.5</ele><time>2026-04-19T06:37:08.998Z</time></trkpt><trkpt lat="40.4181347157483" lon="15.723758358960247"><ele>778.0</ele><time>2026-04-19T06:37:09.998Z</time></trkpt><trkpt lat="40.418016624409326" lon="15.723712151936516"><ele>777.8</ele><time>2026-04-19T06:37:10.998Z</time></trkpt><trkpt lat="40.417904442024835" lon="15.723645165553721"><ele>777.5999999999999</ele><time>2026-04-19T06:37:11.998Z</time></trkpt><trkpt lat="40.41779845105647" lon="15.723591917415126"><ele>777.4000000000001</ele><time>2026-04-19T06:37:12.998Z</time></trkpt><trkpt lat="40.417729405577255" lon="15.72354159382974"><ele>777.2</ele><time>2026-04-19T06:37:13.998Z</time></trkpt><trkpt lat="40.41766138959524" lon="15.72346362323055"><ele>777.0</ele><time>2026-04-19T06:37:15.998Z</time></trkpt><trkpt lat="40.4176484128753" lon="15.723358718757243"><ele>779.8571428571429</ele><time>2026-04-19T06:37:17.998Z</time></trkpt><trkpt lat="40.41769533450125" lon="15.723286741850702"><ele>782.7142857142858</ele><time>2026-04-19T06:37:20.998Z</time></trkpt><trkpt lat="40.417720829535696" lon="15.723369930406449"><ele>785.5714285714286</ele><time>2026-04-19T06:37:23.998Z</time></trkpt><trkpt lat="40.41778087185997" lon="15.723399343448644"><ele>788.4285714285714</ele><time>2026-04-19T06:41:54Z</time></trkpt><trkpt lat="40.417729291744784" lon="15.723320686405081"><ele>791.2857142857143</ele><time>2026-04-19T06:42:20.999Z</time></trkpt><trkpt lat="40.417685996355026" lon="15.72323719855706"><ele>794.1428571428571</ele><time>2026-04-19T06:42:44.999Z</time></trkpt><trkpt lat="40.4177067086625" lon="15.723133791168433"><ele>797.0</ele><time>2026-04-19T06:42:46.999Z</time></trkpt><trkpt lat="40.41778780660119" lon="15.72300631471507"><ele>797.0000000000001</ele><time>2026-04-19T06:42:48.999Z</time></trkpt><trkpt lat="40.41783766766407" lon="15.72292858290592"><ele>797.0</ele><time>2026-04-19T06:42:49.999Z</time></trkpt><trkpt lat="40.41789952610355" lon="15.722864712642957"><ele>797.0</ele><time>2026-04-19T06:42:50.999Z</time></trkpt><trkpt lat="40.417967585925894" lon="15.722816255294127"><ele>797.0</ele><time>2026-04-19T06:42:51.999Z</time></trkpt><trkpt lat="40.41803643714293" lon="15.72277067400539"><ele>797.0000000000001</ele><time>2026-04-19T06:42:52.999Z</time></trkpt><trkpt lat="40.41810009998751" lon="15.722723007905199"><ele>797.0</ele><time>2026-04-19T06:42:53.999Z</time></trkpt><trkpt lat="40.41815797386903" lon="15.722671798969232"><ele>800.6666666666667</ele><time>2026-04-19T06:42:54.999Z</time></trkpt><trkpt lat="40.41822337915437" lon="15.722622291082933"><ele>804.3333333333334</ele><time>2026-04-19T06:42:56.999Z</time></trkpt><trkpt lat="40.418285411791786" lon="15.722578408627305"><ele>808.0</ele><time>2026-04-19T06:43:12.998Z</time></trkpt><trkpt lat="40.418350781623865" lon="15.722541915996786"><ele>811.6666666666667</ele><time>2026-04-19T06:43:18.998Z</time></trkpt><trkpt lat="40.418290683507955" lon="15.722566627992133"><ele>815.3333333333334</ele><time>2026-04-19T06:46:20Z</time></trkpt><trkpt lat="40.41824483972862" lon="15.722645360852168"><ele>819.0</ele><time>2026-04-19T06:46:25Z</time></trkpt><trkpt lat="40.41832196671218" lon="15.72253724781805"><ele>819.0</ele><time>2026-04-19T06:46:37.999Z</time></trkpt><trkpt lat="40.41837907757341" lon="15.722483804258724"><ele>819.0</ele><time>2026-04-19T06:46:38.999Z</time></trkpt><trkpt lat="40.41844461792889" lon="15.722375062168872"><ele>819.0</ele><time>2026-04-19T06:46:40.999Z</time></trkpt><trkpt lat="40.41848217213556" lon="15.722242023249809"><ele>819.0</ele><time>2026-04-19T06:46:42.999Z</time></trkpt><trkpt lat="40.418500840541924" lon="15.722103991112895"><ele>819.0</ele><time>2026-04-19T06:46:44.999Z</time></trkpt><trkpt lat="40.418538722104614" lon="15.721988313572199"><ele>821.8333333333334</ele><time>2026-04-19T06:46:46.999Z</time></trkpt><trkpt lat="40.41854845004997" lon="15.721862086280773"><ele>824.6666666666667</ele><time>2026-04-19T06:46:48.999Z</time></trkpt><trkpt lat="40.41855173075467" lon="15.721762491813848"><ele>827.5</ele><time>2026-04-19T06:46:50.999Z</time></trkpt><trkpt lat="40.41857758307765" lon="15.72165817868209"><ele>830.3333333333334</ele><time>2026-04-19T06:46:52.999Z</time></trkpt><trkpt lat="40.41859151725726" lon="15.721547924949501"><ele>833.1666666666667</ele><time>2026-04-19T06:46:54.999Z</time></trkpt><trkpt lat="40.41861300481777" lon="15.721430715496059"><ele>836.0</ele><time>2026-04-19T06:46:56.999Z</time></trkpt><trkpt lat="40.41859515085556" lon="15.721321654746193"><ele>836.0</ele><time>2026-04-19T06:46:58.999Z</time></trkpt><trkpt lat="40.41858165328301" lon="15.721201906211453"><ele>836.0</ele><time>2026-04-19T06:47:00.999Z</time></trkpt><trkpt lat="40.41856578423262" lon="15.721120698334992"><ele>836.0</ele><time>2026-04-19T06:47:01.999Z</time></trkpt><trkpt lat="40.41853963338196" lon="15.720980307713122"><ele>836.0</ele><time>2026-04-19T06:47:04.999Z</time></trkpt><trkpt lat="40.41849050456242" lon="15.720844548008635"><ele>836.0</ele><time>2026-04-19T06:47:06.999Z</time></trkpt><trkpt lat="40.418437809052826" lon="15.720710843102845"><ele>839.0</ele><time>2026-04-19T06:47:08.999Z</time></trkpt><trkpt lat="40.41837818723209" lon="15.72058268847273"><ele>842.0</ele><time>2026-04-19T06:47:10.999Z</time></trkpt><trkpt lat="40.41832424379183" lon="15.720483649509733"><ele>845.0</ele><time>2026-04-19T06:47:12.999Z</time></trkpt><trkpt lat="40.418277955515265" lon="15.72042090122338"><ele>848.0</ele><time>2026-04-19T06:47:13.998Z</time></trkpt><trkpt lat="40.41818783062979" lon="15.720348891237887"><ele>851.0</ele><time>2026-04-19T06:47:15.998Z</time></trkpt><trkpt lat="40.4181567626735" lon="15.72022076129468"><ele>854.1999999999999</ele><time>2026-04-19T06:47:18.998Z</time></trkpt><trkpt lat="40.41816374507608" lon="15.720101494251"><ele>857.4</ele><time>2026-04-19T06:47:21.998Z</time></trkpt><trkpt lat="40.41819354290217" lon="15.719944697067332"><ele>860.6</ele><time>2026-04-19T06:47:23.998Z</time></trkpt><trkpt lat="40.41821429786101" lon="15.71984013415866"><ele>863.8</ele><time>2026-04-19T06:47:25.998Z</time></trkpt><trkpt lat="40.41821186862345" lon="15.719731446093833"><ele>867.0</ele><time>2026-04-19T06:47:27.998Z</time></trkpt><trkpt lat="40.41822619289836" lon="15.719606098445212"><ele>867.0</ele><time>2026-04-19T06:47:29.998Z</time></trkpt><trkpt lat="40.41824556554802" lon="15.719496437960427"><ele>867.0</ele><time>2026-04-19T06:47:31.998Z</time></trkpt><trkpt lat="40.41826366204088" lon="15.719381055275818"><ele>867.0</ele><time>2026-04-19T06:47:33.998Z</time></trkpt><trkpt lat="40.41827519407348" lon="15.719262556195142"><ele>867.0</ele><time>2026-04-19T06:47:35.998Z</time></trkpt><trkpt lat="40.41827283898946" lon="15.719143692192343"><ele>867.0</ele><time>2026-04-19T06:47:37.998Z</time></trkpt><trkpt lat="40.418231250874754" lon="15.719026381359985"><ele>870.8</ele><time>2026-04-19T06:47:40.998Z</time></trkpt><trkpt lat="40.41819572452962" lon="15.718897994580107"><ele>874.6</ele><time>2026-04-19T06:47:42.998Z</time></trkpt><trkpt lat="40.41817411362179" lon="15.718781202016222"><ele>878.3999999999999</ele><time>2026-04-19T06:47:45.998Z</time></trkpt><trkpt lat="40.41814698331583" lon="15.718682986500863"><ele>882.1999999999999</ele><time>2026-04-19T06:47:47.998Z</time></trkpt><trkpt lat="40.41811022726539" lon="15.71859097315059"><ele>886.0</ele><time>2026-04-19T06:47:49.998Z</time></trkpt><trkpt lat="40.41804871353043" lon="15.718450573573199"><ele>888.5999999999999</ele><time>2026-04-19T06:47:51.998Z</time></trkpt><trkpt lat="40.41802724281568" lon="15.718352894817025"><ele>891.1999999999999</ele><time>2026-04-19T06:47:52.998Z</time></trkpt><trkpt lat="40.417985312425806" lon="15.718260655107873"><ele>893.8000000000001</ele><time>2026-04-19T06:47:54.998Z</time></trkpt><trkpt lat="40.417892631823875" lon="15.718207866128264"><ele>896.4000000000001</ele><time>2026-04-19T06:47:56.998Z</time></trkpt><trkpt lat="40.41782947800805" lon="15.718180003529257"><ele>899.0</ele><time>2026-04-19T06:47:57.998Z</time></trkpt><trkpt lat="40.41769067147338" lon="15.71811649001241"><ele>899.0</ele><time>2026-04-19T06:47:59.997Z</time></trkpt><trkpt lat="40.41759557129402" lon="15.718077902913485"><ele>899.0000000000001</ele><time>2026-04-19T06:48:02Z</time></trkpt><trkpt lat="40.417545765057476" lon="15.7180152023451"><ele>899.0000000000001</ele><time>2026-04-19T06:48:04Z</time></trkpt><trkpt lat="40.4174671825443" lon="15.717987514974839"><ele>899.0</ele><time>2026-04-19T06:48:07Z</time></trkpt><trkpt lat="40.417387816311496" lon="15.717916708459548"><ele>899.0</ele><time>2026-04-19T06:48:10Z</time></trkpt><trkpt lat="40.41730903857955" lon="15.717814841754931"><ele>899.0</ele><time>2026-04-19T06:48:12Z</time></trkpt><trkpt lat="40.41722092151705" lon="15.71774869482248"><ele>899.0000000000001</ele><time>2026-04-19T06:48:14Z</time></trkpt><trkpt lat="40.41714054089586" lon="15.717666713081725"><ele>899.0000000000001</ele><time>2026-04-19T06:48:16Z</time></trkpt><trkpt lat="40.41707609721" lon="15.71763624548076"><ele>899.0</ele><time>2026-04-19T06:48:18Z</time></trkpt><trkpt lat="40.41699437619759" lon="15.717576114397387"><ele>899.0</ele><time>2026-04-19T06:48:20Z</time></trkpt><trkpt lat="40.41691330362007" lon="15.717512170165714"><ele>901.1666666666667</ele><time>2026-04-19T06:48:23Z</time></trkpt><trkpt lat="40.416849410660454" lon="15.717487148331374"><ele>903.3333333333334</ele><time>2026-04-19T06:48:25Z</time></trkpt><trkpt lat="40.41678650276007" lon="15.71747031870108"><ele>905.5</ele><time>2026-04-19T06:48:34Z</time></trkpt><trkpt lat="40.416864411963935" lon="15.717495037938567"><ele>907.6666666666667</ele><time>2026-04-19T06:49:06.999Z</time></trkpt><trkpt lat="40.416944231521164" lon="15.717527449134959"><ele>909.8333333333334</ele><time>2026-04-19T06:49:08.999Z</time></trkpt><trkpt lat="40.41701326913269" lon="15.717593438734333"><ele>912.0</ele><time>2026-04-19T06:49:11.999Z</time></trkpt><trkpt lat="40.417098960016006" lon="15.71763687370079"><ele>913.0</ele><time>2026-04-19T06:49:13.999Z</time></trkpt><trkpt lat="40.41716332244019" lon="15.717691835270795"><ele>913.9999999999999</ele><time>2026-04-19T06:49:15.999Z</time></trkpt><trkpt lat="40.41721499660752" lon="15.717765905569136"><ele>915.0</ele><time>2026-04-19T06:49:18.999Z</time></trkpt><trkpt lat="40.417275648213284" lon="15.717824907239363"><ele>916.0</ele><time>2026-04-19T06:49:20.998Z</time></trkpt><trkpt lat="40.41734594749019" lon="15.717871898898535"><ele>916.9999999999999</ele><time>2026-04-19T06:49:24.998Z</time></trkpt><trkpt lat="40.41739531790902" lon="15.717925660872142"><ele>918.0</ele><time>2026-04-19T06:49:27.998Z</time></trkpt><trkpt lat="40.417460099354024" lon="15.717976192637467"><ele>919.0</ele><time>2026-04-19T06:49:30.998Z</time></trkpt><trkpt lat="40.41753979225126" lon="15.717987821798815"><ele>916.8571428571428</ele><time>2026-04-19T06:49:33.998Z</time></trkpt><trkpt lat="40.4176188345572" lon="15.717973883034226"><ele>914.7142857142856</ele><time>2026-04-19T06:49:35.998Z</time></trkpt><trkpt lat="40.41768182583846" lon="15.717961257929197"><ele>912.5714285714286</ele><time>2026-04-19T06:49:36.998Z</time></trkpt><trkpt lat="40.41775331334588" lon="15.71794245449856"><ele>910.4285714285713</ele><time>2026-04-19T06:49:37.998Z</time></trkpt><trkpt lat="40.41781558545363" lon="15.717916111071922"><ele>908.2857142857142</ele><time>2026-04-19T06:49:38.998Z</time></trkpt><trkpt lat="40.41789371567274" lon="15.717889921463936"><ele>906.1428571428571</ele><time>2026-04-19T06:49:39.998Z</time></trkpt><trkpt lat="40.417953993998424" lon="15.717860927666205"><ele>904.0</ele><time>2026-04-19T06:49:40.998Z</time></trkpt><trkpt lat="40.4180308495451" lon="15.717852692694535"><ele>903.9999999999999</ele><time>2026-04-19T06:49:41.998Z</time></trkpt><trkpt lat="40.41812944672446" lon="15.717797981281475"><ele>904.0</ele><time>2026-04-19T06:49:43.998Z</time></trkpt><trkpt lat="40.41818450160536" lon="15.717751303733722"><ele>904.0</ele><time>2026-04-19T06:49:44.998Z</time></trkpt><trkpt lat="40.41824736492285" lon="15.71766890103503"><ele>904.0</ele><time>2026-04-19T06:49:46.998Z</time></trkpt><trkpt lat="40.41827919886468" lon="15.717587150998032"><ele>903.9999999999999</ele><time>2026-04-19T06:49:48.998Z</time></trkpt><trkpt lat="40.418309071456946" lon="15.717462076543656"><ele>904.0</ele><time>2026-04-19T06:49:50.998Z</time></trkpt><trkpt lat="40.41834852844033" lon="15.717351726035625"><ele>907.0</ele><time>2026-04-19T06:49:52.998Z</time></trkpt><trkpt lat="40.41839052540439" lon="15.717207482810256"><ele>910.0000000000001</ele><time>2026-04-19T06:49:54.998Z</time></trkpt><trkpt lat="40.41841123244541" lon="15.717093280748164"><ele>913.0000000000001</ele><time>2026-04-19T06:49:56.998Z</time></trkpt><trkpt lat="40.41846107243621" lon="15.716923787075096"><ele>916.0</ele><time>2026-04-19T06:49:58.998Z</time></trkpt><trkpt lat="40.41849975870963" lon="15.716816883728121"><ele>919.0</ele><time>2026-04-19T06:50:01.998Z</time></trkpt><trkpt lat="40.41859728958694" lon="15.716395010416186"><ele>920.9999999999999</ele><time>2026-04-19T06:50:06.997Z</time></trkpt><trkpt lat="40.41861573607173" lon="15.71630352379278"><ele>923.0</ele><time>2026-04-19T06:50:08Z</time></trkpt><trkpt lat="40.41864012652733" lon="15.71622591216027"><ele>925.0</ele><time>2026-04-19T06:50:09Z</time></trkpt><trkpt lat="40.418680223910336" lon="15.716101508653319"><ele>927.0</ele><time>2026-04-19T06:50:11Z</time></trkpt><trkpt lat="40.41862895564832" lon="15.71604470071187"><ele>928.9999999999999</ele><time>2026-04-19T06:50:13Z</time></trkpt><trkpt lat="40.418599951983566" lon="15.715934726620953"><ele>931.0</ele><time>2026-04-19T06:50:16Z</time></trkpt><trkpt lat="40.418501980440766" lon="15.715944482179221"><ele>931.5999999999999</ele><time>2026-04-19T06:50:18Z</time></trkpt><trkpt lat="40.41840275892561" lon="15.71588532906673"><ele>932.1999999999999</ele><time>2026-04-19T06:50:20Z</time></trkpt><trkpt lat="40.41831861997469" lon="15.715828459996231"><ele>932.8000000000001</ele><time>2026-04-19T06:50:21Z</time></trkpt><trkpt lat="40.418242808982875" lon="15.715810227793412"><ele>933.4000000000001</ele><time>2026-04-19T06:50:23Z</time></trkpt><trkpt lat="40.41819684240305" lon="15.715707692789593"><ele>934.0</ele><time>2026-04-19T06:50:25Z</time></trkpt><trkpt lat="40.41817513591472" lon="15.715593332826817"><ele>934.0</ele><time>2026-04-19T06:50:27Z</time></trkpt><trkpt lat="40.41819172553414" lon="15.715452829458332"><ele>934.0</ele><time>2026-04-19T06:50:29Z</time></trkpt><trkpt lat="40.41823779082964" lon="15.715366785831177"><ele>934.0</ele><time>2026-04-19T06:50:33Z</time></trkpt><trkpt lat="40.418391752330976" lon="15.715101552602166"><ele>934.0</ele><time>2026-04-19T06:50:35Z</time></trkpt><trkpt lat="40.418453898598436" lon="15.714982306176825"><ele>935.6</ele><time>2026-04-19T06:50:37Z</time></trkpt><trkpt lat="40.41849641296967" lon="15.714833060436547"><ele>937.2</ele><time>2026-04-19T06:50:39Z</time></trkpt><trkpt lat="40.41854083639478" lon="15.71474560376756"><ele>938.8000000000001</ele><time>2026-04-19T06:50:40Z</time></trkpt><trkpt lat="40.41856467955911" lon="15.714641402551129"><ele>940.4000000000001</ele><time>2026-04-19T06:50:41Z</time></trkpt><trkpt lat="40.41861416374117" lon="15.714533114189175"><ele>942.0</ele><time>2026-04-19T06:50:42Z</time></trkpt><trkpt lat="40.41863491127722" lon="15.714428377378288"><ele>942.1666666666666</ele><time>2026-04-19T06:50:42.999Z</time></trkpt><trkpt lat="40.41866921609932" lon="15.714330809995671"><ele>942.3333333333333</ele><time>2026-04-19T06:50:43.999Z</time></trkpt><trkpt lat="40.41871067935251" lon="15.714261336653223"><ele>942.5</ele><time>2026-04-19T06:50:44.999Z</time></trkpt><trkpt lat="40.41873070521336" lon="15.714127079876139"><ele>942.6666666666666</ele><time>2026-04-19T06:50:46.999Z</time></trkpt><trkpt lat="40.41873438326612" lon="15.714015376274446"><ele>942.8333333333333</ele><time>2026-04-19T06:50:48.999Z</time></trkpt><trkpt lat="40.418720467479076" lon="15.713917106210976"><ele>943.0</ele><time>2026-04-19T06:50:50.999Z</time></trkpt><trkpt lat="40.41871234823596" lon="15.713812029117955"><ele>942.9999999999999</ele><time>2026-04-19T06:50:52.999Z</time></trkpt><trkpt lat="40.418723962352786" lon="15.713716522593865"><ele>943.0</ele><time>2026-04-19T06:50:55.999Z</time></trkpt><trkpt lat="40.418747762708485" lon="15.71361735507707"><ele>943.0</ele><time>2026-04-19T06:50:58.999Z</time></trkpt><trkpt lat="40.418659289975636" lon="15.713669858476198"><ele>943.0</ele><time>2026-04-19T06:51:03.999Z</time></trkpt><trkpt lat="40.41862736809292" lon="15.713743381514146"><ele>942.9999999999999</ele><time>2026-04-19T06:51:04.999Z</time></trkpt><trkpt lat="40.41857801238023" lon="15.713853290122824"><ele>943.0</ele><time>2026-04-19T06:51:06.999Z</time></trkpt><trkpt lat="40.418516938435644" lon="15.713928732461467"><ele>943.0</ele><time>2026-04-19T06:51:08.999Z</time></trkpt><trkpt lat="40.41846687399462" lon="15.713989557093015"><ele>943.0000000000001</ele><time>2026-04-19T06:51:13.999Z</time></trkpt><trkpt lat="40.418387691683655" lon="15.714021650705428"><ele>943.0</ele><time>2026-04-19T06:51:18.999Z</time></trkpt><trkpt lat="40.41831309034992" lon="15.714073781623162"><ele>943.0</ele><time>2026-04-19T06:51:23.999Z</time></trkpt><trkpt lat="40.418252675662046" lon="15.714100057695763"><ele>943.0000000000001</ele><time>2026-04-19T06:51:25.999Z</time></trkpt><trkpt lat="40.41818808403662" lon="15.714124891802008"><ele>943.0</ele><time>2026-04-19T06:51:27.998Z</time></trkpt><trkpt lat="40.41812004246064" lon="15.714155873343387"><ele>943.0</ele><time>2026-04-19T06:51:29.998Z</time></trkpt><trkpt lat="40.41805655152397" lon="15.714192300163685"><ele>943.1666666666666</ele><time>2026-04-19T06:51:32.998Z</time></trkpt><trkpt lat="40.41796863692704" lon="15.714212908143377"><ele>943.3333333333333</ele><time>2026-04-19T06:51:34.998Z</time></trkpt><trkpt lat="40.41789929657659" lon="15.71421717814729"><ele>943.5</ele><time>2026-04-19T06:51:36.998Z</time></trkpt><trkpt lat="40.41783277978061" lon="15.71419116215627"><ele>943.6666666666667</ele><time>2026-04-19T06:51:38.998Z</time></trkpt><trkpt lat="40.41774777007705" lon="15.714170287552571"><ele>943.8333333333334</ele><time>2026-04-19T06:51:40.998Z</time></trkpt><trkpt lat="40.41766638449097" lon="15.714175079140928"><ele>944.0</ele><time>2026-04-19T06:51:42.998Z</time></trkpt><trkpt lat="40.41758477110479" lon="15.71412315892531"><ele>944.0000000000001</ele><time>2026-04-19T06:51:44.998Z</time></trkpt><trkpt lat="40.417502287382256" lon="15.714125686411288"><ele>944.0</ele><time>2026-04-19T06:51:46.998Z</time></trkpt><trkpt lat="40.41742088502308" lon="15.71416511892215"><ele>944.0</ele><time>2026-04-19T06:51:49.998Z</time></trkpt><trkpt lat="40.4173508403897" lon="15.714140604011439"><ele>944.0</ele><time>2026-04-19T06:51:51.998Z</time></trkpt><trkpt lat="40.417286667458654" lon="15.714079635577276"><ele>944.0000000000001</ele><time>2026-04-19T06:51:54.998Z</time></trkpt><trkpt lat="40.41721542294712" lon="15.714059036425699"><ele>944.0</ele><time>2026-04-19T06:51:56.998Z</time></trkpt><trkpt lat="40.41728065426626" lon="15.71409534017591"><ele>944.0000000000001</ele><time>2026-04-19T06:56:11.998Z</time></trkpt><trkpt lat="40.417353674834565" lon="15.714158518501339"><ele>944.0</ele><time>2026-04-19T06:56:13.998Z</time></trkpt><trkpt lat="40.41742279895757" lon="15.714158885294278"><ele>944.0</ele><time>2026-04-19T06:56:17.998Z</time></trkpt><trkpt lat="40.417503372937524" lon="15.714130262241806"><ele>944.0</ele><time>2026-04-19T06:56:20.998Z</time></trkpt><trkpt lat="40.41758976361922" lon="15.714150955726943"><ele>944.0000000000001</ele><time>2026-04-19T06:56:23.998Z</time></trkpt><trkpt lat="40.417656143129676" lon="15.71419769085995"><ele>944.0</ele><time>2026-04-19T06:56:27Z</time></trkpt><trkpt lat="40.417748196840336" lon="15.71419722647946"><ele>944.0000000000001</ele><time>2026-04-19T06:56:30Z</time></trkpt><trkpt lat="40.41782026900993" lon="15.714264595544535"><ele>944.0</ele><time>2026-04-19T06:56:34Z</time></trkpt><trkpt lat="40.417896134996155" lon="15.714238275653205"><ele>944.0</ele><time>2026-04-19T06:56:37Z</time></trkpt><trkpt lat="40.417968590880136" lon="15.714221721197056"><ele>944.0</ele><time>2026-04-19T06:56:40Z</time></trkpt><trkpt lat="40.41805674696142" lon="15.714179883314326"><ele>944.0000000000001</ele><time>2026-04-19T06:56:43Z</time></trkpt><trkpt lat="40.41815265114006" lon="15.714172331389333"><ele>944.0</ele><time>2026-04-19T06:56:46Z</time></trkpt><trkpt lat="40.418206715477794" lon="15.714128064666719"><ele>943.8333333333334</ele><time>2026-04-19T06:56:48Z</time></trkpt><trkpt lat="40.41828778424291" lon="15.71408958898502"><ele>943.6666666666667</ele><time>2026-04-19T06:56:52Z</time></trkpt><trkpt lat="40.41835821283109" lon="15.714034269465037"><ele>943.5</ele><time>2026-04-19T06:56:57Z</time></trkpt><trkpt lat="40.418429816425224" lon="15.714038714934116"><ele>943.3333333333333</ele><time>2026-04-19T06:57:00Z</time></trkpt><trkpt lat="40.41848441376136" lon="15.713973285498442"><ele>943.1666666666666</ele><time>2026-04-19T06:57:01.999Z</time></trkpt><trkpt lat="40.41854141229291" lon="15.71388735308521"><ele>943.0</ele><time>2026-04-19T06:57:03.999Z</time></trkpt><trkpt lat="40.418602705008624" lon="15.713780126519968"><ele>942.9999999999999</ele><time>2026-04-19T06:57:04.999Z</time></trkpt><trkpt lat="40.41863848786301" lon="15.713689014944087"><ele>943.0</ele><time>2026-04-19T06:57:05.999Z</time></trkpt><trkpt lat="40.41868857634156" lon="15.71360746119202"><ele>943.0</ele><time>2026-04-19T06:57:06.999Z</time></trkpt><trkpt lat="40.41873332315382" lon="15.713542540895823"><ele>943.0</ele><time>2026-04-19T06:57:07.999Z</time></trkpt><trkpt lat="40.4187710269603" lon="15.713421163218435"><ele>942.9999999999999</ele><time>2026-04-19T06:57:09.999Z</time></trkpt><trkpt lat="40.41881391873446" lon="15.713312805215216"><ele>943.0</ele><time>2026-04-19T06:57:11.999Z</time></trkpt><trkpt lat="40.418852234443136" lon="15.71320912189723"><ele>941.9999999999999</ele><time>2026-04-19T06:57:13.999Z</time></trkpt><trkpt lat="40.41888838528074" lon="15.713109639993991"><ele>941.0</ele><time>2026-04-19T06:57:15.999Z</time></trkpt><trkpt lat="40.41892939628254" lon="15.71301762258846"><ele>940.0</ele><time>2026-04-19T06:57:17.999Z</time></trkpt><trkpt lat="40.41895735448389" lon="15.71292535722974"><ele>939.0</ele><time>2026-04-19T06:57:19.999Z</time></trkpt><trkpt lat="40.41898775921878" lon="15.712842961171408"><ele>937.9999999999999</ele><time>2026-04-19T06:57:22.999Z</time></trkpt><trkpt lat="40.418964695654076" lon="15.712737885499909"><ele>937.0</ele><time>2026-04-19T06:57:26.999Z</time></trkpt><trkpt lat="40.41893431818515" lon="15.712631726202833"><ele>936.4000000000001</ele><time>2026-04-19T06:57:28.999Z</time></trkpt><trkpt lat="40.418891803460696" lon="15.712509630547748"><ele>935.8000000000001</ele><time>2026-04-19T06:57:30.999Z</time></trkpt><trkpt lat="40.418836656448505" lon="15.712392596432167"><ele>935.2</ele><time>2026-04-19T06:57:32.999Z</time></trkpt><trkpt lat="40.41884689149004" lon="15.712306349031042"><ele>934.6</ele><time>2026-04-19T06:57:35.999Z</time></trkpt><trkpt lat="40.41881175273636" lon="15.71217833466827"><ele>934.0</ele><time>2026-04-19T06:57:37.999Z</time></trkpt><trkpt lat="40.418794958296765" lon="15.712037868868782"><ele>933.9999999999999</ele><time>2026-04-19T06:57:39.999Z</time></trkpt><trkpt lat="40.41880301853985" lon="15.711942120708853"><ele>934.0</ele><time>2026-04-19T06:57:40.999Z</time></trkpt><trkpt lat="40.418796278076" lon="15.71183946455154"><ele>934.0</ele><time>2026-04-19T06:57:41.999Z</time></trkpt><trkpt lat="40.41880942956477" lon="15.711745472389829"><ele>934.0</ele><time>2026-04-19T06:57:42.999Z</time></trkpt><trkpt lat="40.4187968364796" lon="15.711655341593106"><ele>933.9999999999999</ele><time>2026-04-19T06:57:43.999Z</time></trkpt><trkpt lat="40.41879547226878" lon="15.711528506450671"><ele>934.0</ele><time>2026-04-19T06:57:45.999Z</time></trkpt><trkpt lat="40.41877659526421" lon="15.711435343668287"><ele>935.4000000000001</ele><time>2026-04-19T06:57:46.998Z</time></trkpt><trkpt lat="40.418768943401815" lon="15.711277707213853"><ele>936.8000000000001</ele><time>2026-04-19T06:57:48.998Z</time></trkpt><trkpt lat="40.41875920911649" lon="15.711191043703812"><ele>938.1999999999999</ele><time>2026-04-19T06:57:49.998Z</time></trkpt><trkpt lat="40.41875138100917" lon="15.711052280813124"><ele>939.5999999999999</ele><time>2026-04-19T06:57:51.998Z</time></trkpt><trkpt lat="40.418720549094736" lon="15.710897403874492"><ele>941.0</ele><time>2026-04-19T06:57:53.998Z</time></trkpt><trkpt lat="40.41866856867112" lon="15.710786110332153"><ele>942.5</ele><time>2026-04-19T06:57:55.998Z</time></trkpt><trkpt lat="40.418596796642994" lon="15.710659923960034"><ele>944.0</ele><time>2026-04-19T06:57:57.998Z</time></trkpt><trkpt lat="40.41853114211022" lon="15.710532105776172"><ele>945.5</ele><time>2026-04-19T06:57:59.998Z</time></trkpt><trkpt lat="40.41845416849946" lon="15.710426282285091"><ele>947.0</ele><time>2026-04-19T06:58:01.998Z</time></trkpt><trkpt lat="40.4183689077168" lon="15.710332027914852"><ele>947.0</ele><time>2026-04-19T06:58:03.998Z</time></trkpt><trkpt lat="40.41827719618363" lon="15.710255269903254"><ele>947.0</ele><time>2026-04-19T06:58:05.998Z</time></trkpt><trkpt lat="40.41818197594195" lon="15.710187764577592"><ele>947.0</ele><time>2026-04-19T06:58:07.998Z</time></trkpt><trkpt lat="40.418100805946956" lon="15.710105211594652"><ele>947.0</ele><time>2026-04-19T06:58:09.998Z</time></trkpt><trkpt lat="40.41805031590068" lon="15.710048660305189"><ele>947.0</ele><time>2026-04-19T06:58:10.998Z</time></trkpt><trkpt lat="40.41798804444156" lon="15.70998298940333"><ele>946.6666666666667</ele><time>2026-04-19T06:58:11.998Z</time></trkpt><trkpt lat="40.41791645676789" lon="15.709907382049078"><ele>946.3333333333334</ele><time>2026-04-19T06:58:12.998Z</time></trkpt><trkpt lat="40.417861755070064" lon="15.709858875853747"><ele>946.0</ele><time>2026-04-19T06:58:13.998Z</time></trkpt><trkpt lat="40.41779305160348" lon="15.709770026131482"><ele>945.6666666666667</ele><time>2026-04-19T06:58:15.998Z</time></trkpt><trkpt lat="40.41777351894444" lon="15.709650439902756"><ele>945.3333333333334</ele><time>2026-04-19T06:58:17.998Z</time></trkpt><trkpt lat="40.41777117946051" lon="15.709561176965357"><ele>945.0</ele><time>2026-04-19T06:58:19.998Z</time></trkpt><trkpt lat="40.41769154126684" lon="15.709590420071127"><ele>945.0</ele><time>2026-04-19T06:58:22.998Z</time></trkpt><trkpt lat="40.41763515167052" lon="15.709644248439293"><ele>945.0</ele><time>2026-04-19T06:58:24.998Z</time></trkpt><trkpt lat="40.417582882278566" lon="15.709731721272401"><ele>945.0</ele><time>2026-04-19T06:58:27.998Z</time></trkpt><trkpt lat="40.41751392003739" lon="15.709752130476481"><ele>945.0</ele><time>2026-04-19T06:58:30.998Z</time></trkpt><trkpt lat="40.417451284818995" lon="15.709687628640728"><ele>945.0</ele><time>2026-04-19T06:58:34Z</time></trkpt><trkpt lat="40.41745138940601" lon="15.709579092616965"><ele>945.0</ele><time>2026-04-19T06:58:36Z</time></trkpt><trkpt lat="40.41742395941473" lon="15.70949405964822"><ele>945.0</ele><time>2026-04-19T06:58:38Z</time></trkpt><trkpt lat="40.41735466917854" lon="15.709470131725293"><ele>945.0</ele><time>2026-04-19T06:58:41Z</time></trkpt><trkpt lat="40.41733618669053" lon="15.709549732334496"><ele>945.0</ele><time>2026-04-19T06:58:55Z</time></trkpt><trkpt lat="40.41726372069773" lon="15.70951406302908"><ele>945.0</ele><time>2026-04-19T06:58:59Z</time></trkpt><trkpt lat="40.41730518514684" lon="15.709433422481233"><ele>945.0</ele><time>2026-04-19T06:59:02Z</time></trkpt><trkpt lat="40.41739958025323" lon="15.70947277996201"><ele>945.0</ele><time>2026-04-19T06:59:05Z</time></trkpt><trkpt lat="40.41747710207609" lon="15.709551128271219"><ele>945.0</ele><time>2026-04-19T06:59:06.999Z</time></trkpt><trkpt lat="40.41753865169066" lon="15.709622518106368"><ele>945.0</ele><time>2026-04-19T06:59:08.999Z</time></trkpt><trkpt lat="40.4175481263806" lon="15.709713263353649"><ele>945.0</ele><time>2026-04-19T06:59:10.999Z</time></trkpt><trkpt lat="40.4174964243296" lon="15.709790245848502"><ele>945.0</ele><time>2026-04-19T06:59:14.999Z</time></trkpt><trkpt lat="40.41743315651706" lon="15.709774271052378"><ele>945.0</ele><time>2026-04-19T06:59:17.999Z</time></trkpt><trkpt lat="40.41738909721343" lon="15.709844385919563"><ele>945.0</ele><time>2026-04-19T06:59:21.999Z</time></trkpt><trkpt lat="40.41734527427955" lon="15.709934752338059"><ele>945.0</ele><time>2026-04-19T06:59:23.999Z</time></trkpt><trkpt lat="40.41726764522091" lon="15.709962458087176"><ele>945.0</ele><time>2026-04-19T06:59:26.999Z</time></trkpt><trkpt lat="40.41720797981506" lon="15.70999943642676"><ele>945.0</ele><time>2026-04-19T06:59:31.999Z</time></trkpt><trkpt lat="40.41714141187707" lon="15.710008291707968"><ele>945.0</ele><time>2026-04-19T06:59:34.999Z</time></trkpt><trkpt lat="40.417082532334014" lon="15.709959132995074"><ele>945.0</ele><time>2026-04-19T06:59:38.999Z</time></trkpt><trkpt lat="40.417165233284145" lon="15.7099805228167"><ele>945.0</ele><time>2026-04-19T06:59:49.999Z</time></trkpt><trkpt lat="40.417235322690495" lon="15.71000148662653"><ele>945.0</ele><time>2026-04-19T06:59:53.998Z</time></trkpt><trkpt lat="40.417305273314504" lon="15.709933607094769"><ele>945.0</ele><time>2026-04-19T06:59:56.998Z</time></trkpt><trkpt lat="40.417364755481245" lon="15.709876911169514"><ele>945.0</ele><time>2026-04-19T07:00:00.998Z</time></trkpt><trkpt lat="40.41741256116282" lon="15.709810338271915"><ele>945.0</ele><time>2026-04-19T07:00:05.998Z</time></trkpt><trkpt lat="40.41745220877845" lon="15.70970168564146"><ele>945.0</ele><time>2026-04-19T07:00:08.998Z</time></trkpt><trkpt lat="40.41750772004203" lon="15.709632341018873"><ele>945.0</ele><time>2026-04-19T07:00:11.998Z</time></trkpt><trkpt lat="40.41759376738623" lon="15.709650553843119"><ele>945.0</ele><time>2026-04-19T07:00:13.998Z</time></trkpt><trkpt lat="40.41765702046771" lon="15.709632362293988"><ele>945.0</ele><time>2026-04-19T07:00:17.998Z</time></trkpt><trkpt lat="40.41773018479999" lon="15.709564848759777"><ele>945.8</ele><time>2026-04-19T07:00:20.998Z</time></trkpt><trkpt lat="40.417761509005736" lon="15.709389875643808"><ele>946.6</ele><time>2026-04-19T07:00:23.998Z</time></trkpt><trkpt lat="40.417818397866455" lon="15.70927142562065"><ele>947.4000000000001</ele><time>2026-04-19T07:00:25.998Z</time></trkpt><trkpt lat="40.41782243656822" lon="15.709125704446546"><ele>948.2</ele><time>2026-04-19T07:00:27.998Z</time></trkpt><trkpt lat="40.41782405661807" lon="15.70903767931948"><ele>949.0</ele><time>2026-04-19T07:00:28.998Z</time></trkpt><trkpt lat="40.417838007124416" lon="15.708949413465135"><ele>949.0</ele><time>2026-04-19T07:00:29.998Z</time></trkpt><trkpt lat="40.41786490011737" lon="15.708830661385317"><ele>949.0000000000001</ele><time>2026-04-19T07:00:31.998Z</time></trkpt><trkpt lat="40.41791132506301" lon="15.708699522757797"><ele>949.0000000000001</ele><time>2026-04-19T07:00:33.998Z</time></trkpt><trkpt lat="40.41797120575514" lon="15.70860775802246"><ele>949.0</ele><time>2026-04-19T07:00:34.998Z</time></trkpt><trkpt lat="40.41797886666929" lon="15.70849301307365"><ele>949.0</ele><time>2026-04-19T07:00:35.998Z</time></trkpt><trkpt lat="40.41798705957715" lon="15.708396732515217"><ele>952.8000000000001</ele><time>2026-04-19T07:00:36.998Z</time></trkpt><trkpt lat="40.417994720555164" lon="15.70822742305986"><ele>956.6000000000001</ele><time>2026-04-19T07:00:39Z</time></trkpt><trkpt lat="40.4180053298446" lon="15.70811493594965"><ele>960.4</ele><time>2026-04-19T07:00:40Z</time></trkpt><trkpt lat="40.418021763523946" lon="15.708032161984999"><ele>964.2</ele><time>2026-04-19T07:00:41Z</time></trkpt><trkpt lat="40.41801851271204" lon="15.707948878321803"><ele>968.0</ele><time>2026-04-19T07:00:44Z</time></trkpt><trkpt lat="40.41806067917907" lon="15.707815046160965"><ele>967.4</ele><time>2026-04-19T07:00:47Z</time></trkpt><trkpt lat="40.41806672102814" lon="15.707680986327462"><ele>966.8</ele><time>2026-04-19T07:00:49Z</time></trkpt><trkpt lat="40.4180420495919" lon="15.707594561995487"><ele>966.2</ele><time>2026-04-19T07:00:51Z</time></trkpt><trkpt lat="40.41799957970713" lon="15.707518638402332"><ele>965.6</ele><time>2026-04-19T07:00:52Z</time></trkpt><trkpt lat="40.41790030669936" lon="15.70744402357146"><ele>965.0</ele><time>2026-04-19T07:00:54Z</time></trkpt><trkpt lat="40.417863781226664" lon="15.707329023256188"><ele>965.0000000000001</ele><time>2026-04-19T07:00:56Z</time></trkpt><trkpt lat="40.417807164807655" lon="15.707272191789125"><ele>965.0</ele><time>2026-04-19T07:00:57Z</time></trkpt><trkpt lat="40.41776943306785" lon="15.707187903141675"><ele>965.0</ele><time>2026-04-19T07:00:58Z</time></trkpt><trkpt lat="40.41773027751886" lon="15.707085909036614"><ele>965.0</ele><time>2026-04-19T07:00:59Z</time></trkpt><trkpt lat="40.41770228317404" lon="15.706997581261888"><ele>965.0000000000001</ele><time>2026-04-19T07:01:00Z</time></trkpt><trkpt lat="40.417685718186206" lon="15.706906362421078"><ele>965.0</ele><time>2026-04-19T07:01:01Z</time></trkpt><trkpt lat="40.41767658669183" lon="15.706804128316433"><ele>966.5000000000001</ele><time>2026-04-19T07:01:02Z</time></trkpt><trkpt lat="40.41767149277774" lon="15.706699862096157"><ele>968.0</ele><time>2026-04-19T07:01:03Z</time></trkpt><trkpt lat="40.417664542904156" lon="15.706603999274213"><ele>969.5</ele><time>2026-04-19T07:01:04Z</time></trkpt><trkpt lat="40.41766132499087" lon="15.70651495816807"><ele>971.0</ele><time>2026-04-19T07:01:05Z</time></trkpt><trkpt lat="40.417642682897984" lon="15.706391041213946"><ele>972.5000000000001</ele><time>2026-04-19T07:01:08Z</time></trkpt><trkpt lat="40.417644589348505" lon="15.70626837410346"><ele>974.0</ele><time>2026-04-19T07:01:10Z</time></trkpt><trkpt lat="40.417624832116374" lon="15.706183518469075"><ele>974.0000000000001</ele><time>2026-04-19T07:01:12.999Z</time></trkpt><trkpt lat="40.417556958862605" lon="15.706281481041865"><ele>974.0</ele><time>2026-04-19T07:01:15.999Z</time></trkpt><trkpt lat="40.417516387130625" lon="15.706355373543452"><ele>974.0</ele><time>2026-04-19T07:01:16.999Z</time></trkpt><trkpt lat="40.41746561280706" lon="15.706415149771594"><ele>974.0</ele><time>2026-04-19T07:01:17.999Z</time></trkpt><trkpt lat="40.417375322346764" lon="15.706518666405808"><ele>974.0000000000001</ele><time>2026-04-19T07:01:19.999Z</time></trkpt><trkpt lat="40.41731389400081" lon="15.706596882383627"><ele>974.0</ele><time>2026-04-19T07:01:20.999Z</time></trkpt><trkpt lat="40.41725287928203" lon="15.706678038043835"><ele>974.0000000000001</ele><time>2026-04-19T07:01:21.999Z</time></trkpt><trkpt lat="40.41719464372462" lon="15.706752530918132"><ele>974.0</ele><time>2026-04-19T07:01:22.999Z</time></trkpt><trkpt lat="40.41714610635304" lon="15.706812365890048"><ele>974.0</ele><time>2026-04-19T07:01:23.999Z</time></trkpt><trkpt lat="40.41707637469383" lon="15.706910719292775"><ele>974.0</ele><time>2026-04-19T07:01:25.999Z</time></trkpt><trkpt lat="40.4170169705128" lon="15.70701443806394"><ele>974.0000000000001</ele><time>2026-04-19T07:01:27.999Z</time></trkpt><trkpt lat="40.416975132598424" lon="15.707079244818495"><ele>974.0</ele><time>2026-04-19T07:01:28.999Z</time></trkpt><trkpt lat="40.41693302147232" lon="15.70715072882685"><ele>974.0000000000001</ele><time>2026-04-19T07:01:29.999Z</time></trkpt><trkpt lat="40.41689199829178" lon="15.707229287738262"><ele>974.0</ele><time>2026-04-19T07:01:30.999Z</time></trkpt><trkpt lat="40.41685339905333" lon="15.707295053846922"><ele>974.0</ele><time>2026-04-19T07:01:31.999Z</time></trkpt><trkpt lat="40.41679071254774" lon="15.707376536766567"><ele>974.0</ele><time>2026-04-19T07:01:33.999Z</time></trkpt><trkpt lat="40.416720618967936" lon="15.70744618821914"><ele>974.0000000000001</ele><time>2026-04-19T07:01:36.999Z</time></trkpt><trkpt lat="40.416664868445594" lon="15.707520460426084"><ele>974.0</ele><time>2026-04-19T07:01:45.999Z</time></trkpt><trkpt lat="40.41663229975912" lon="15.70760342508243"><ele>974.0000000000001</ele><time>2026-04-19T07:01:49.999Z</time></trkpt><trkpt lat="40.416575983610265" lon="15.707693143874486"><ele>974.0</ele><time>2026-04-19T07:01:52.999Z</time></trkpt><trkpt lat="40.416553223985204" lon="15.707797013718686"><ele>974.0</ele><time>2026-04-19T07:01:55.999Z</time></trkpt><trkpt lat="40.41652900753543" lon="15.70787398803047"><ele>974.0</ele><time>2026-04-19T07:01:57.998Z</time></trkpt><trkpt lat="40.4164974981154" lon="15.707973406709304"><ele>974.0000000000001</ele><time>2026-04-19T07:02:00.998Z</time></trkpt><trkpt lat="40.41646377750208" lon="15.708048602469137"><ele>974.0</ele><time>2026-04-19T07:02:02.998Z</time></trkpt><trkpt lat="40.41641887910134" lon="15.708148102381786"><ele>973.8571428571429</ele><time>2026-04-19T07:02:05.998Z</time></trkpt><trkpt lat="40.41637324577188" lon="15.708241057648854"><ele>973.7142857142857</ele><time>2026-04-19T07:02:08.998Z</time></trkpt><trkpt lat="40.41636109692271" lon="15.708346073792155"><ele>973.5714285714286</ele><time>2026-04-19T07:02:11.998Z</time></trkpt><trkpt lat="40.41634674105328" lon="15.708429730439219"><ele>973.4285714285714</ele><time>2026-04-19T07:02:14.998Z</time></trkpt><trkpt lat="40.41630881394981" lon="15.708514184350962"><ele>973.2857142857142</ele><time>2026-04-19T07:02:17.998Z</time></trkpt><trkpt lat="40.416284215195475" lon="15.708596162987943"><ele>973.1428571428571</ele><time>2026-04-19T07:02:20.998Z</time></trkpt><trkpt lat="40.416259515982205" lon="15.708686610827938"><ele>973.0</ele><time>2026-04-19T07:10:09.999Z</time></trkpt><trkpt lat="40.41621565254473" lon="15.708621209544626"><ele>972.9999999999999</ele><time>2026-04-19T07:10:17.999Z</time></trkpt><trkpt lat="40.41622195606131" lon="15.708531373190837"><ele>973.0</ele><time>2026-04-19T07:10:41.998Z</time></trkpt><trkpt lat="40.41629397257078" lon="15.708465771618629"><ele>973.0</ele><time>2026-04-19T07:10:46.998Z</time></trkpt><trkpt lat="40.41635092026486" lon="15.708398900637189"><ele>973.0</ele><time>2026-04-19T07:10:48.998Z</time></trkpt><trkpt lat="40.41636647466263" lon="15.708310397923757"><ele>972.9999999999999</ele><time>2026-04-19T07:10:50.998Z</time></trkpt><trkpt lat="40.41628823647797" lon="15.70834414365682"><ele>973.0</ele><time>2026-04-19T07:10:53.998Z</time></trkpt><trkpt lat="40.41624993574906" lon="15.708418614582731"><ele>972.9999999999999</ele><time>2026-04-19T07:10:54.998Z</time></trkpt><trkpt lat="40.416165405399965" lon="15.708487884216478"><ele>973.0</ele><time>2026-04-19T07:10:56.998Z</time></trkpt><trkpt lat="40.41609095429294" lon="15.708491039400043"><ele>973.0</ele><time>2026-04-19T07:10:57.998Z</time></trkpt><trkpt lat="40.41600489637011" lon="15.708473295051624"><ele>973.0</ele><time>2026-04-19T07:10:58.998Z</time></trkpt><trkpt lat="40.41592365184104" lon="15.708453860332073"><ele>972.9999999999999</ele><time>2026-04-19T07:10:59.998Z</time></trkpt><trkpt lat="40.41586407114314" lon="15.708421995589331"><ele>973.0</ele><time>2026-04-19T07:11:00.998Z</time></trkpt><trkpt lat="40.415801070140255" lon="15.708378119115988"><ele>972.9999999999999</ele><time>2026-04-19T07:11:02.998Z</time></trkpt><trkpt lat="40.41573002279782" lon="15.708344830158486"><ele>973.0</ele><time>2026-04-19T07:11:08Z</time></trkpt><trkpt lat="40.415651603362306" lon="15.708318464078909"><ele>973.0</ele><time>2026-04-19T07:11:11Z</time></trkpt><trkpt lat="40.415583673715375" lon="15.708334900071513"><ele>973.0</ele><time>2026-04-19T07:11:14Z</time></trkpt><trkpt lat="40.4154874721832" lon="15.708413324074089"><ele>972.9999999999999</ele><time>2026-04-19T07:11:17Z</time></trkpt><trkpt lat="40.4154205001664" lon="15.708460467832575"><ele>973.0</ele><time>2026-04-19T07:11:20Z</time></trkpt><trkpt lat="40.41534170411642" lon="15.708549584423888"><ele>972.8333333333333</ele><time>2026-04-19T07:11:22Z</time></trkpt><trkpt lat="40.41529011334576" lon="15.708613133925057"><ele>972.6666666666666</ele><time>2026-04-19T07:11:23Z</time></trkpt><trkpt lat="40.41524036862066" lon="15.708665166924149"><ele>972.5</ele><time>2026-04-19T07:11:24Z</time></trkpt><trkpt lat="40.41516640665769" lon="15.708745727224466"><ele>972.3333333333333</ele><time>2026-04-19T07:11:26Z</time></trkpt><trkpt lat="40.415095177999135" lon="15.70882186710738"><ele>972.1666666666666</ele><time>2026-04-19T07:11:28Z</time></trkpt><trkpt lat="40.41504459450328" lon="15.708904963413683"><ele>972.0</ele><time>2026-04-19T07:11:30Z</time></trkpt><trkpt lat="40.41498055987662" lon="15.70899083924174"><ele>972.0</ele><time>2026-04-19T07:11:33Z</time></trkpt><trkpt lat="40.41493444727245" lon="15.709084231131923"><ele>972.0</ele><time>2026-04-19T07:11:36Z</time></trkpt><trkpt lat="40.414885188296815" lon="15.709158988977709"><ele>972.0</ele><time>2026-04-19T07:11:39Z</time></trkpt><trkpt lat="40.414842921418774" lon="15.709248645139052"><ele>972.0</ele><time>2026-04-19T07:11:42Z</time></trkpt><trkpt lat="40.41480719953957" lon="15.709325951126788"><ele>972.0</ele><time>2026-04-19T07:11:45Z</time></trkpt><trkpt lat="40.414757369327674" lon="15.709402950859115"><ele>972.0</ele><time>2026-04-19T07:11:47.999Z</time></trkpt><trkpt lat="40.41472227727653" lon="15.709483696742737"><ele>971.3333333333334</ele><time>2026-04-19T07:11:50.999Z</time></trkpt><trkpt lat="40.41466524739868" lon="15.709579051719913"><ele>970.6666666666667</ele><time>2026-04-19T07:11:52.999Z</time></trkpt><trkpt lat="40.414629192352876" lon="15.709664152638"><ele>970.0</ele><time>2026-04-19T07:11:54.999Z</time></trkpt><trkpt lat="40.414599897020366" lon="15.709751155635972"><ele>969.3333333333334</ele><time>2026-04-19T07:11:58.999Z</time></trkpt><trkpt lat="40.414552079442316" lon="15.709808246959438"><ele>968.6666666666667</ele><time>2026-04-19T07:12:00.999Z</time></trkpt><trkpt lat="40.41450295647327" lon="15.709872945031023"><ele>968.0</ele><time>2026-04-19T07:12:02.999Z</time></trkpt><trkpt lat="40.414464588587634" lon="15.709977367912183"><ele>968.0000000000001</ele><time>2026-04-19T07:12:04.999Z</time></trkpt><trkpt lat="40.414409744348774" lon="15.710070003247873"><ele>968.0</ele><time>2026-04-19T07:12:07.999Z</time></trkpt><trkpt lat="40.41435887783484" lon="15.710159273158775"><ele>968.0</ele><time>2026-04-19T07:12:09.999Z</time></trkpt><trkpt lat="40.414323415983056" lon="15.71024574489516"><ele>968.0</ele><time>2026-04-19T07:12:11.999Z</time></trkpt><trkpt lat="40.41428098179927" lon="15.710315871490405"><ele>968.0000000000001</ele><time>2026-04-19T07:12:13.999Z</time></trkpt><trkpt lat="40.41421352825828" lon="15.710418339045312"><ele>968.0</ele><time>2026-04-19T07:12:14.999Z</time></trkpt><trkpt lat="40.41415821679396" lon="15.710491863370745"><ele>967.0000000000001</ele><time>2026-04-19T07:12:17.999Z</time></trkpt><trkpt lat="40.414100398017204" lon="15.710561583036165"><ele>966.0</ele><time>2026-04-19T07:12:21.999Z</time></trkpt><trkpt lat="40.414051087486115" lon="15.710624770397882"><ele>965.0</ele><time>2026-04-19T07:12:24.999Z</time></trkpt><trkpt lat="40.413986794323456" lon="15.710670907912357"><ele>964.0</ele><time>2026-04-19T07:12:26.999Z</time></trkpt><trkpt lat="40.413909684578016" lon="15.71069545484571"><ele>963.0000000000001</ele><time>2026-04-19T07:12:29.999Z</time></trkpt><trkpt lat="40.413853287699204" lon="15.7106417126369"><ele>962.0</ele><time>2026-04-19T07:12:32.998Z</time></trkpt><trkpt lat="40.413783499882605" lon="15.710558674737003"><ele>961.2857142857142</ele><time>2026-04-19T07:12:35.998Z</time></trkpt><trkpt lat="40.413718714713696" lon="15.710493725801896"><ele>960.5714285714286</ele><time>2026-04-19T07:12:39.998Z</time></trkpt><trkpt lat="40.41365341578263" lon="15.71048241434268"><ele>959.8571428571429</ele><time>2026-04-19T07:12:41.998Z</time></trkpt><trkpt lat="40.41359682411518" lon="15.710441557930517"><ele>959.1428571428571</ele><time>2026-04-19T07:12:44.998Z</time></trkpt><trkpt lat="40.41353440155384" lon="15.71040670631244"><ele>958.4285714285716</ele><time>2026-04-19T07:12:47.998Z</time></trkpt><trkpt lat="40.413465585660255" lon="15.710363647254995"><ele>957.7142857142858</ele><time>2026-04-19T07:12:50.998Z</time></trkpt><trkpt lat="40.41353880484406" lon="15.710374891671815"><ele>957.0</ele><time>2026-04-19T07:26:19Z</time></trkpt><trkpt lat="40.41360902861934" lon="15.710423062313811"><ele>957.0</ele><time>2026-04-19T07:26:23Z</time></trkpt><trkpt lat="40.4136761292613" lon="15.71042722023844"><ele>957.0000000000001</ele><time>2026-04-19T07:26:30.999Z</time></trkpt><trkpt lat="40.41373939664932" lon="15.710393674557295"><ele>957.0</ele><time>2026-04-19T07:26:33.999Z</time></trkpt><trkpt lat="40.41380847983212" lon="15.71038731714727"><ele>957.0</ele><time>2026-04-19T07:26:36.999Z</time></trkpt><trkpt lat="40.41387460116418" lon="15.71034458144357"><ele>957.0000000000001</ele><time>2026-04-19T07:26:40.999Z</time></trkpt><trkpt lat="40.4139498585642" lon="15.710324003088614"><ele>957.0</ele><time>2026-04-19T07:26:44.999Z</time></trkpt><trkpt lat="40.41403718195637" lon="15.710299042040733"><ele>957.0</ele><time>2026-04-19T07:26:46.999Z</time></trkpt><trkpt lat="40.414110390104206" lon="15.710292723167804"><ele>958.8333333333334</ele><time>2026-04-19T07:26:48.999Z</time></trkpt><trkpt lat="40.41420066553935" lon="15.710224315435147"><ele>960.6666666666667</ele><time>2026-04-19T07:26:51.999Z</time></trkpt><trkpt lat="40.414296753230104" lon="15.710180921866945"><ele>962.5</ele><time>2026-04-19T07:26:54.999Z</time></trkpt><trkpt lat="40.41434426781537" lon="15.710123762687486"><ele>964.3333333333334</ele><time>2026-04-19T07:26:56.999Z</time></trkpt><trkpt lat="40.41440622095494" lon="15.71005305877457"><ele>966.1666666666667</ele><time>2026-04-19T07:26:58.999Z</time></trkpt><trkpt lat="40.414428345045785" lon="15.709974277755599"><ele>968.0</ele><time>2026-04-19T07:26:59.999Z</time></trkpt><trkpt lat="40.414474812005494" lon="15.709882288770578"><ele>968.0000000000001</ele><time>2026-04-19T07:27:01.999Z</time></trkpt><trkpt lat="40.41453287168342" lon="15.709847926813506"><ele>968.0</ele><time>2026-04-19T07:27:03.999Z</time></trkpt><trkpt lat="40.41460064444157" lon="15.70989897711116"><ele>968.0</ele><time>2026-04-19T07:27:07.999Z</time></trkpt><trkpt lat="40.41460042105763" lon="15.710051407238712"><ele>968.0</ele><time>2026-04-19T07:27:10.999Z</time></trkpt><trkpt lat="40.41455694102149" lon="15.710134944679202"><ele>968.0000000000001</ele><time>2026-04-19T07:27:12.998Z</time></trkpt><trkpt lat="40.414523060342404" lon="15.71024845611392"><ele>968.0</ele><time>2026-04-19T07:27:14.998Z</time></trkpt><trkpt lat="40.41450956143915" lon="15.71036367523065"><ele>967.0000000000001</ele><time>2026-04-19T07:27:15.998Z</time></trkpt><trkpt lat="40.41449293248756" lon="15.710481253399307"><ele>966.0</ele><time>2026-04-19T07:27:17.998Z</time></trkpt><trkpt lat="40.4144388506425" lon="15.710579270504104"><ele>965.0</ele><time>2026-04-19T07:27:18.998Z</time></trkpt><trkpt lat="40.41440498802351" lon="15.710657999252808"><ele>964.0</ele><time>2026-04-19T07:27:19.998Z</time></trkpt><trkpt lat="40.41437198592825" lon="15.710736452164904"><ele>963.0000000000001</ele><time>2026-04-19T07:27:20.998Z</time></trkpt><trkpt lat="40.41432424995509" lon="15.710837604793571"><ele>962.0</ele><time>2026-04-19T07:27:22.998Z</time></trkpt><trkpt lat="40.41431216839553" lon="15.710924284979628"><ele>962.0000000000001</ele><time>2026-04-19T07:27:24.998Z</time></trkpt><trkpt lat="40.41425294214868" lon="15.71104426062192"><ele>962.0</ele><time>2026-04-19T07:27:26.998Z</time></trkpt><trkpt lat="40.41421044999803" lon="15.711132633961348"><ele>962.0</ele><time>2026-04-19T07:27:28.998Z</time></trkpt><trkpt lat="40.41412961297293" lon="15.711160989141698"><ele>962.0</ele><time>2026-04-19T07:27:31.998Z</time></trkpt><trkpt lat="40.41406361989321" lon="15.711130283631029"><ele>962.0000000000001</ele><time>2026-04-19T07:27:33.998Z</time></trkpt><trkpt lat="40.41399372833609" lon="15.711111621927214"><ele>962.0</ele><time>2026-04-19T07:27:35.998Z</time></trkpt><trkpt lat="40.41392832417939" lon="15.711156617628497"><ele>962.0000000000001</ele><time>2026-04-19T07:27:39.998Z</time></trkpt><trkpt lat="40.41387973760169" lon="15.711238334275123"><ele>962.0</ele><time>2026-04-19T07:27:42.998Z</time></trkpt><trkpt lat="40.413817945499495" lon="15.711324034276414"><ele>962.0</ele><time>2026-04-19T07:27:44.998Z</time></trkpt><trkpt lat="40.41375509457146" lon="15.711404913990224"><ele>962.0</ele><time>2026-04-19T07:27:46.998Z</time></trkpt><trkpt lat="40.41369537143942" lon="15.711511555558713"><ele>962.0000000000001</ele><time>2026-04-19T07:27:48.998Z</time></trkpt><trkpt lat="40.41364363765157" lon="15.7115987775774"><ele>962.0</ele><time>2026-04-19T07:27:50.998Z</time></trkpt><trkpt lat="40.41364819803383" lon="15.711718320786606"><ele>960.0000000000001</ele><time>2026-04-19T07:27:52.998Z</time></trkpt><trkpt lat="40.413654944938195" lon="15.711822049101047"><ele>958.0</ele><time>2026-04-19T07:27:54.998Z</time></trkpt><trkpt lat="40.41366224301702" lon="15.711930333483407"><ele>956.0</ele><time>2026-04-19T07:27:58Z</time></trkpt><trkpt lat="40.41367336369561" lon="15.71202992008475"><ele>954.0</ele><time>2026-04-19T07:28:00Z</time></trkpt><trkpt lat="40.4136507787161" lon="15.712156935983634"><ele>952.0000000000001</ele><time>2026-04-19T07:28:03Z</time></trkpt><trkpt lat="40.41362002068266" lon="15.712239945765518"><ele>950.0</ele><time>2026-04-19T07:28:05Z</time></trkpt><trkpt lat="40.41359830724329" lon="15.712362098892648"><ele>948.3333333333334</ele><time>2026-04-19T07:28:07Z</time></trkpt><trkpt lat="40.41355285755258" lon="15.712486520885303"><ele>946.6666666666667</ele><time>2026-04-19T07:28:10Z</time></trkpt><trkpt lat="40.41353772808537" lon="15.712583248219653"><ele>945.0</ele><time>2026-04-19T07:28:13Z</time></trkpt><trkpt lat="40.413439399858255" lon="15.712945485316803"><ele>945.0</ele><time>2026-04-19T07:28:16Z</time></trkpt><trkpt lat="40.41343017505298" lon="15.713069947527387"><ele>945.0</ele><time>2026-04-19T07:28:18Z</time></trkpt><trkpt lat="40.41340699638012" lon="15.713147226741315"><ele>945.0</ele><time>2026-04-19T07:28:20Z</time></trkpt><trkpt lat="40.413373712210166" lon="15.71322643575298"><ele>945.0</ele><time>2026-04-19T07:28:22Z</time></trkpt><trkpt lat="40.413351944584555" lon="15.713338574146452"><ele>945.0</ele><time>2026-04-19T07:28:24Z</time></trkpt><trkpt lat="40.413345167991444" lon="15.713437560475475"><ele>945.0</ele><time>2026-04-19T07:28:26Z</time></trkpt><trkpt lat="40.413296786635954" lon="15.713540629469062"><ele>947.2</ele><time>2026-04-19T07:28:29Z</time></trkpt><trkpt lat="40.4132462021477" lon="15.713612880322637"><ele>949.4</ele><time>2026-04-19T07:28:30.999Z</time></trkpt><trkpt lat="40.41317080476206" lon="15.713710672400076"><ele>951.5999999999999</ele><time>2026-04-19T07:28:32.999Z</time></trkpt><trkpt lat="40.41310241208785" lon="15.713807902880955"><ele>953.8</ele><time>2026-04-19T07:28:34.999Z</time></trkpt><trkpt lat="40.41306011476771" lon="15.713882372344505"><ele>956.0</ele><time>2026-04-19T07:28:36.999Z</time></trkpt><trkpt lat="40.41298008704235" lon="15.71401200289458"><ele>952.8333333333334</ele><time>2026-04-19T07:28:38.999Z</time></trkpt><trkpt lat="40.41292583626409" lon="15.71410070136566"><ele>949.6666666666667</ele><time>2026-04-19T07:28:40.999Z</time></trkpt><trkpt lat="40.4128985074628" lon="15.714187023202"><ele>946.5</ele><time>2026-04-19T07:28:42.999Z</time></trkpt><trkpt lat="40.412847259253006" lon="15.714249889014837"><ele>943.3333333333333</ele><time>2026-04-19T07:28:44.999Z</time></trkpt><trkpt lat="40.41278560397466" lon="15.714349816289449"><ele>940.1666666666666</ele><time>2026-04-19T07:28:46.999Z</time></trkpt><trkpt lat="40.41276853421074" lon="15.714446508374666"><ele>937.0</ele><time>2026-04-19T07:28:48.999Z</time></trkpt><trkpt lat="40.412731755884266" lon="15.714532278049013"><ele>936.9999999999999</ele><time>2026-04-19T07:28:50.999Z</time></trkpt><trkpt lat="40.412681591766066" lon="15.714604788934"><ele>937.0</ele><time>2026-04-19T07:28:52.999Z</time></trkpt><trkpt lat="40.41261474550402" lon="15.714694051987305"><ele>937.0</ele><time>2026-04-19T07:28:56.999Z</time></trkpt><trkpt lat="40.412579346478225" lon="15.714767249037855"><ele>937.0</ele><time>2026-04-19T07:28:58.999Z</time></trkpt><trkpt lat="40.41252349468539" lon="15.714849180433701"><ele>936.9999999999999</ele><time>2026-04-19T07:29:00.999Z</time></trkpt><trkpt lat="40.412484429537315" lon="15.714932941054094"><ele>937.0</ele><time>2026-04-19T07:29:02.999Z</time></trkpt><trkpt lat="40.41241792119527" lon="15.715012715187225"><ele>936.9999999999999</ele><time>2026-04-19T07:29:05.999Z</time></trkpt><trkpt lat="40.41235596196379" lon="15.715086130586068"><ele>937.0</ele><time>2026-04-19T07:29:07.999Z</time></trkpt><trkpt lat="40.41231346946801" lon="15.715154775263139"><ele>937.0</ele><time>2026-04-19T07:29:09.999Z</time></trkpt><trkpt lat="40.41223841309216" lon="15.715227739413587"><ele>937.0</ele><time>2026-04-19T07:29:12.999Z</time></trkpt><trkpt lat="40.41219909570472" lon="15.71530189903545"><ele>936.9999999999999</ele><time>2026-04-19T07:29:14.999Z</time></trkpt><trkpt lat="40.41213634136101" lon="15.715406928803937"><ele>937.0</ele><time>2026-04-19T07:29:17.998Z</time></trkpt><trkpt lat="40.41208663863807" lon="15.715490158041593"><ele>934.9999999999999</ele><time>2026-04-19T07:29:19.998Z</time></trkpt><trkpt lat="40.412043644987484" lon="15.715597848015115"><ele>933.0</ele><time>2026-04-19T07:29:21.998Z</time></trkpt><trkpt lat="40.41199601262341" lon="15.715656753201502"><ele>931.0</ele><time>2026-04-19T07:29:22.998Z</time></trkpt><trkpt lat="40.411953778636835" lon="15.715752573349969"><ele>929.0</ele><time>2026-04-19T07:29:23.998Z</time></trkpt><trkpt lat="40.41188533603154" lon="15.715822915743903"><ele>926.9999999999999</ele><time>2026-04-19T07:29:25.998Z</time></trkpt><trkpt lat="40.411796309050246" lon="15.715904722218305"><ele>925.0</ele><time>2026-04-19T07:29:29.998Z</time></trkpt><trkpt lat="40.41173765563262" lon="15.71598173943053"><ele>925.0</ele><time>2026-04-19T07:29:31.998Z</time></trkpt><trkpt lat="40.4116699509711" lon="15.716055040826234"><ele>925.0</ele><time>2026-04-19T07:29:33.998Z</time></trkpt><trkpt lat="40.41161722274078" lon="15.71610966567737"><ele>925.0</ele><time>2026-04-19T07:29:34.998Z</time></trkpt><trkpt lat="40.4115425361253" lon="15.716181591460547"><ele>925.0</ele><time>2026-04-19T07:29:36.998Z</time></trkpt><trkpt lat="40.41144411127443" lon="15.716270164446545"><ele>925.0</ele><time>2026-04-19T07:29:38.998Z</time></trkpt><trkpt lat="40.411347004959985" lon="15.716319513746969"><ele>924.8333333333333</ele><time>2026-04-19T07:29:40.998Z</time></trkpt><trkpt lat="40.41128187740371" lon="15.716361020790725"><ele>924.6666666666666</ele><time>2026-04-19T07:29:42.998Z</time></trkpt><trkpt lat="40.41120887498726" lon="15.716399089323486"><ele>924.5</ele><time>2026-04-19T07:29:44.998Z</time></trkpt><trkpt lat="40.41111378161106" lon="15.716426282326506"><ele>924.3333333333333</ele><time>2026-04-19T07:29:47.998Z</time></trkpt><trkpt lat="40.41103244181863" lon="15.716495398930336"><ele>924.1666666666666</ele><time>2026-04-19T07:29:49.998Z</time></trkpt><trkpt lat="40.41096948595653" lon="15.716597097610839"><ele>924.0</ele><time>2026-04-19T07:29:51.998Z</time></trkpt><trkpt lat="40.41091387885366" lon="15.716659988695705"><ele>924.0</ele><time>2026-04-19T07:29:53.998Z</time></trkpt><trkpt lat="40.410848726520776" lon="15.716703702995838"><ele>924.0</ele><time>2026-04-19T07:29:56.998Z</time></trkpt><trkpt lat="40.410793225847065" lon="15.716776474858294"><ele>924.0</ele><time>2026-04-19T07:30:00.998Z</time></trkpt><trkpt lat="40.410730440393685" lon="15.71683312560592"><ele>924.0</ele><time>2026-04-19T07:30:05Z</time></trkpt><trkpt lat="40.4106749705814" lon="15.716878878085362"><ele>924.0</ele><time>2026-04-19T07:30:09Z</time></trkpt><trkpt lat="40.410610764976504" lon="15.716895765544933"><ele>924.0</ele><time>2026-04-19T07:30:12Z</time></trkpt><trkpt lat="40.41057042879523" lon="15.716959596630552"><ele>924.0</ele><time>2026-04-19T07:30:14Z</time></trkpt><trkpt lat="40.41050102717153" lon="15.716998922921155"><ele>921.7142857142858</ele><time>2026-04-19T07:30:17Z</time></trkpt><trkpt lat="40.410437545510284" lon="15.717019394186398"><ele>919.4285714285714</ele><time>2026-04-19T07:30:19Z</time></trkpt><trkpt lat="40.4103719658992" lon="15.717053457491081"><ele>917.1428571428571</ele><time>2026-04-19T07:30:22Z</time></trkpt><trkpt lat="40.41029257292946" lon="15.717089878972093"><ele>914.8571428571429</ele><time>2026-04-19T07:30:26Z</time></trkpt><trkpt lat="40.41023400930087" lon="15.717125441394858"><ele>912.5714285714287</ele><time>2026-04-19T07:30:29Z</time></trkpt><trkpt lat="40.41016595661046" lon="15.717155116861841"><ele>910.2857142857143</ele><time>2026-04-19T07:30:33Z</time></trkpt><trkpt lat="40.41009815607965" lon="15.717167347083302"><ele>908.0</ele><time>2026-04-19T07:30:35.999Z</time></trkpt><trkpt lat="40.410038656511496" lon="15.717220481515326"><ele>908.0</ele><time>2026-04-19T07:31:39.998Z</time></trkpt><trkpt lat="40.40999163553465" lon="15.717292278443997"><ele>908.0000000000001</ele><time>2026-04-19T07:31:42.998Z</time></trkpt><trkpt lat="40.409959945183644" lon="15.717368519097217"><ele>908.0</ele><time>2026-04-19T07:31:46.998Z</time></trkpt><trkpt lat="40.4098999006678" lon="15.717447937531288"><ele>908.0</ele><time>2026-04-19T07:31:50.998Z</time></trkpt><trkpt lat="40.40983880198715" lon="15.717488939268163"><ele>908.0000000000001</ele><time>2026-04-19T07:31:53.998Z</time></trkpt><trkpt lat="40.409768252630464" lon="15.71753072388352"><ele>908.0</ele><time>2026-04-19T07:31:57.998Z</time></trkpt><trkpt lat="40.40969682226567" lon="15.717578124298987"><ele>908.0</ele><time>2026-04-19T07:32:00.998Z</time></trkpt><trkpt lat="40.409653314087336" lon="15.717652148501228"><ele>903.6666666666667</ele><time>2026-04-19T07:32:04.998Z</time></trkpt><trkpt lat="40.40962311499993" lon="15.717749616689437"><ele>899.3333333333334</ele><time>2026-04-19T07:32:09Z</time></trkpt><trkpt lat="40.409607595116476" lon="15.71785166826938"><ele>895.0</ele><time>2026-04-19T07:32:18Z</time></trkpt><trkpt lat="40.40958397974768" lon="15.717949899659935"><ele>890.6666666666667</ele><time>2026-04-19T07:32:20Z</time></trkpt><trkpt lat="40.409578013570034" lon="15.718047148059755"><ele>886.3333333333334</ele><time>2026-04-19T07:32:22Z</time></trkpt><trkpt lat="40.40957217383643" lon="15.71815982713513"><ele>882.0</ele><time>2026-04-19T07:32:24Z</time></trkpt><trkpt lat="40.40955587833962" lon="15.718245651037387"><ele>882.0</ele><time>2026-04-19T07:32:26Z</time></trkpt><trkpt lat="40.409555136704824" lon="15.71834641545028"><ele>882.0</ele><time>2026-04-19T07:32:29Z</time></trkpt><trkpt lat="40.409545895311005" lon="15.718443234702814"><ele>882.0</ele><time>2026-04-19T07:32:33Z</time></trkpt><trkpt lat="40.409524130765824" lon="15.718532392205539"><ele>882.0</ele><time>2026-04-19T07:32:38Z</time></trkpt><trkpt lat="40.40951267539413" lon="15.718616746716469"><ele>882.0</ele><time>2026-04-19T07:45:27.999Z</time></trkpt><trkpt lat="40.40955939151228" lon="15.718695919912506"><ele>882.0</ele><time>2026-04-19T07:54:08.999Z</time></trkpt><trkpt lat="40.40953381877746" lon="15.718797429872051"><ele>882.0</ele><time>2026-04-19T07:54:12.999Z</time></trkpt><trkpt lat="40.409500632956664" lon="15.718880861582456"><ele>880.6666666666666</ele><time>2026-04-19T07:54:15.999Z</time></trkpt><trkpt lat="40.409464403624966" lon="15.718979149311407"><ele>879.3333333333333</ele><time>2026-04-19T07:54:18.999Z</time></trkpt><trkpt lat="40.409420116255795" lon="15.719096126062693"><ele>878.0</ele><time>2026-04-19T07:54:22.999Z</time></trkpt><trkpt lat="40.409402552092835" lon="15.719182875439046"><ele>876.6666666666666</ele><time>2026-04-19T07:54:26.999Z</time></trkpt><trkpt lat="40.409388348332136" lon="15.719280659043351"><ele>875.3333333333333</ele><time>2026-04-19T07:54:29.998Z</time></trkpt><trkpt lat="40.409358304865606" lon="15.719387946647473"><ele>874.0</ele><time>2026-04-19T07:54:32.998Z</time></trkpt><trkpt lat="40.40934177228145" lon="15.719475950566506"><ele>871.8571428571428</ele><time>2026-04-19T07:54:35.998Z</time></trkpt><trkpt lat="40.40933983720684" lon="15.719563923360239"><ele>869.7142857142858</ele><time>2026-04-19T07:54:38.998Z</time></trkpt><trkpt lat="40.409349844463314" lon="15.719647101935124"><ele>867.5714285714286</ele><time>2026-04-19T07:54:40.998Z</time></trkpt><trkpt lat="40.409339434705636" lon="15.719738324203387"><ele>865.4285714285713</ele><time>2026-04-19T07:54:44.998Z</time></trkpt><trkpt lat="40.40926874140144" lon="15.719737832441178"><ele>863.2857142857142</ele><time>2026-04-19T07:54:47.998Z</time></trkpt><trkpt lat="40.40920129323469" lon="15.719703454976901"><ele>861.1428571428571</ele><time>2026-04-19T07:54:50.998Z</time></trkpt><trkpt lat="40.40912096738649" lon="15.719669237897918"><ele>859.0</ele><time>2026-04-19T07:54:53.998Z</time></trkpt><trkpt lat="40.40904588247671" lon="15.719630740122092"><ele>858.9999999999999</ele><time>2026-04-19T07:54:56.998Z</time></trkpt><trkpt lat="40.40896953919459" lon="15.719592071606023"><ele>859.0</ele><time>2026-04-19T07:54:58.998Z</time></trkpt><trkpt lat="40.40890374329627" lon="15.719565195392233"><ele>859.0</ele><time>2026-04-19T07:55:00.998Z</time></trkpt><trkpt lat="40.40883009068148" lon="15.719526147004192"><ele>859.0</ele><time>2026-04-19T07:55:03.998Z</time></trkpt><trkpt lat="40.40874350158933" lon="15.719481986268326"><ele>858.9999999999999</ele><time>2026-04-19T07:55:06.998Z</time></trkpt><trkpt lat="40.40867739282847" lon="15.719445894443872"><ele>859.0</ele><time>2026-04-19T07:55:08.998Z</time></trkpt><trkpt lat="40.40861041847056" lon="15.719404348477205"><ele>857.1666666666666</ele><time>2026-04-19T07:55:10.998Z</time></trkpt><trkpt lat="40.408526425846205" lon="15.719345875164693"><ele>855.3333333333333</ele><time>2026-04-19T07:55:14Z</time></trkpt><trkpt lat="40.40845194253039" lon="15.719293193528673"><ele>853.5</ele><time>2026-04-19T07:55:17Z</time></trkpt><trkpt lat="40.40837371938093" lon="15.719293487879636"><ele>851.6666666666667</ele><time>2026-04-19T07:55:20Z</time></trkpt><trkpt lat="40.40830917246649" lon="15.719255408557444"><ele>849.8333333333334</ele><time>2026-04-19T07:55:26Z</time></trkpt><trkpt lat="40.40833425316797" lon="15.719158522006046"><ele>848.0</ele><time>2026-04-19T07:55:30Z</time></trkpt><trkpt lat="40.408357513819595" lon="15.71905324657637"><ele>848.0000000000001</ele><time>2026-04-19T07:55:31Z</time></trkpt><trkpt lat="40.40835900848946" lon="15.71894834690292"><ele>848.0</ele><time>2026-04-19T07:55:34Z</time></trkpt><trkpt lat="40.40836577611126" lon="15.718861414862438"><ele>848.0</ele><time>2026-04-19T07:55:35Z</time></trkpt><trkpt lat="40.40835395924058" lon="15.718746202587798"><ele>848.0</ele><time>2026-04-19T07:55:38Z</time></trkpt><trkpt lat="40.40835042780618" lon="15.718637801028969"><ele>848.0000000000001</ele><time>2026-04-19T07:55:42Z</time></trkpt><trkpt lat="40.40833285838022" lon="15.718549102297022"><ele>848.0</ele><time>2026-04-19T07:55:44Z</time></trkpt><trkpt lat="40.40826413885596" lon="15.718387928346637"><ele>848.0000000000001</ele><time>2026-04-19T07:55:47Z</time></trkpt><trkpt lat="40.40823259418471" lon="15.718304408632326"><ele>848.0</ele><time>2026-04-19T07:55:48.999Z</time></trkpt><trkpt lat="40.408219798783236" lon="15.718199550822915"><ele>848.0</ele><time>2026-04-19T07:55:51.999Z</time></trkpt><trkpt lat="40.40823781874079" lon="15.718078563736547"><ele>848.0</ele><time>2026-04-19T07:55:53.999Z</time></trkpt><trkpt lat="40.408260877483166" lon="15.717971284586612"><ele>848.0000000000001</ele><time>2026-04-19T07:55:55.999Z</time></trkpt><trkpt lat="40.40826835138112" lon="15.717884878057465"><ele>848.0</ele><time>2026-04-19T07:55:57.999Z</time></trkpt><trkpt lat="40.4082777218132" lon="15.71779261236462"><ele>846.2</ele><time>2026-04-19T07:55:59.999Z</time></trkpt><trkpt lat="40.408292265994326" lon="15.717686804187561"><ele>844.4</ele><time>2026-04-19T07:56:01.999Z</time></trkpt><trkpt lat="40.408317164274536" lon="15.717589235527587"><ele>842.6</ele><time>2026-04-19T07:56:03.999Z</time></trkpt><trkpt lat="40.408364417921184" lon="15.71742688865917"><ele>840.8000000000001</ele><time>2026-04-19T07:56:05.999Z</time></trkpt><trkpt lat="40.408399714756655" lon="15.717292263013269"><ele>839.0</ele><time>2026-04-19T07:56:07.999Z</time></trkpt><trkpt lat="40.40846726388222" lon="15.717119710962823"><ele>839.0</ele><time>2026-04-19T07:56:09.999Z</time></trkpt><trkpt lat="40.40851368539456" lon="15.71702083014556"><ele>839.0</ele><time>2026-04-19T07:56:10.999Z</time></trkpt><trkpt lat="40.408547143860915" lon="15.716947350426206"><ele>839.0</ele><time>2026-04-19T07:56:11.999Z</time></trkpt><trkpt lat="40.40859719643168" lon="15.716840264157"><ele>839.0</ele><time>2026-04-19T07:56:13.999Z</time></trkpt><trkpt lat="40.40865716641901" lon="15.716727928202667"><ele>839.0</ele><time>2026-04-19T07:56:15.999Z</time></trkpt><trkpt lat="40.408715208571365" lon="15.716603875886136"><ele>840.5000000000001</ele><time>2026-04-19T07:56:17.999Z</time></trkpt><trkpt lat="40.408753425656236" lon="15.7165314013979"><ele>842.0</ele><time>2026-04-19T07:56:18.999Z</time></trkpt><trkpt lat="40.408788146421934" lon="15.716451952713866"><ele>843.5</ele><time>2026-04-19T07:56:19.999Z</time></trkpt><trkpt lat="40.40883236864582" lon="15.716323916642581"><ele>845.0</ele><time>2026-04-19T07:56:21.999Z</time></trkpt><trkpt lat="40.4088806336068" lon="15.71622433064919"><ele>846.5000000000001</ele><time>2026-04-19T07:56:23.999Z</time></trkpt><trkpt lat="40.408929001424546" lon="15.716114366774294"><ele>848.0</ele><time>2026-04-19T07:56:25.999Z</time></trkpt><trkpt lat="40.40897299801945" lon="15.715968474092197"><ele>848.0</ele><time>2026-04-19T07:56:27.999Z</time></trkpt><trkpt lat="40.40900627165195" lon="15.715897776622972"><ele>848.0</ele><time>2026-04-19T07:56:28.999Z</time></trkpt><trkpt lat="40.409069617328576" lon="15.715773691716295"><ele>848.0</ele><time>2026-04-19T07:56:30.999Z</time></trkpt><trkpt lat="40.409135087736786" lon="15.715641743899408"><ele>848.0</ele><time>2026-04-19T07:56:32.999Z</time></trkpt><trkpt lat="40.40918102485717" lon="15.715523574984209"><ele>848.0</ele><time>2026-04-19T07:56:34.998Z</time></trkpt><trkpt lat="40.40921689526545" lon="15.7154133474998"><ele>848.0</ele><time>2026-04-19T07:56:36.998Z</time></trkpt><trkpt lat="40.409266696094434" lon="15.715286884729887"><ele>848.0</ele><time>2026-04-19T07:56:38.998Z</time></trkpt><trkpt lat="40.40931424265903" lon="15.715139616535957"><ele>848.0</ele><time>2026-04-19T07:56:40.998Z</time></trkpt><trkpt lat="40.40936616238067" lon="15.715038823441141"><ele>848.0</ele><time>2026-04-19T07:56:42.998Z</time></trkpt><trkpt lat="40.40942090794488" lon="15.714950615307632"><ele>848.0</ele><time>2026-04-19T07:56:44.998Z</time></trkpt><trkpt lat="40.40948360719591" lon="15.71482942038932"><ele>847.0</ele><time>2026-04-19T07:56:46.998Z</time></trkpt><trkpt lat="40.40955579297293" lon="15.7147088834787"><ele>846.0</ele><time>2026-04-19T07:56:48.998Z</time></trkpt><trkpt lat="40.409613958811086" lon="15.714621897674462"><ele>845.0</ele><time>2026-04-19T07:56:50.998Z</time></trkpt><trkpt lat="40.40967959648305" lon="15.714502494511088"><ele>844.0</ele><time>2026-04-19T07:56:52.998Z</time></trkpt><trkpt lat="40.40972273546883" lon="15.714433563138153"><ele>843.0</ele><time>2026-04-19T07:56:53.998Z</time></trkpt><trkpt lat="40.40978046920954" lon="15.714341994228707"><ele>843.0</ele><time>2026-04-19T07:56:55.998Z</time></trkpt><trkpt lat="40.40983597118326" lon="15.714246405307499"><ele>843.0</ele><time>2026-04-19T07:56:57.998Z</time></trkpt><trkpt lat="40.40989161680883" lon="15.714136089132985"><ele>843.0</ele><time>2026-04-19T07:56:59.998Z</time></trkpt><trkpt lat="40.40994431311945" lon="15.714069918020005"><ele>843.0</ele><time>2026-04-19T07:57:01.998Z</time></trkpt><trkpt lat="40.410015489482184" lon="15.713997173934542"><ele>843.0</ele><time>2026-04-19T07:57:03.998Z</time></trkpt><trkpt lat="40.410083360695445" lon="15.713926722584088"><ele>843.0</ele><time>2026-04-19T07:57:05.998Z</time></trkpt><trkpt lat="40.41014156323525" lon="15.713874967692622"><ele>843.0</ele><time>2026-04-19T07:57:07.998Z</time></trkpt><trkpt lat="40.410208827746054" lon="15.713824299080482"><ele>843.0</ele><time>2026-04-19T07:57:08.998Z</time></trkpt><trkpt lat="40.41027462272994" lon="15.713715045265966"><ele>843.0</ele><time>2026-04-19T07:57:10.998Z</time></trkpt><trkpt lat="40.410318661775484" lon="15.71363390964632"><ele>843.0</ele><time>2026-04-19T07:57:11.998Z</time></trkpt><trkpt lat="40.41037056113393" lon="15.713574821412507"><ele>843.0</ele><time>2026-04-19T07:57:12.998Z</time></trkpt><trkpt lat="40.41045143614779" lon="15.713499028549167"><ele>843.0</ele><time>2026-04-19T07:57:14.998Z</time></trkpt><trkpt lat="40.41054283770098" lon="15.713428910645607"><ele>841.4</ele><time>2026-04-19T07:57:16.998Z</time></trkpt><trkpt lat="40.41062164447792" lon="15.713317031708433"><ele>839.8</ele><time>2026-04-19T07:57:18.998Z</time></trkpt><trkpt lat="40.41067764875733" lon="15.71323443850646"><ele>838.2</ele><time>2026-04-19T07:57:21Z</time></trkpt><trkpt lat="40.41066079719857" lon="15.713113953897208"><ele>836.6</ele><time>2026-04-19T07:57:23Z</time></trkpt><trkpt lat="40.410579469332035" lon="15.71310010695955"><ele>835.0</ele><time>2026-04-19T07:57:26Z</time></trkpt><trkpt lat="40.410316466665066" lon="15.712993250317597"><ele>834.9999999999999</ele><time>2026-04-19T07:57:29Z</time></trkpt><trkpt lat="40.410250959199985" lon="15.712964807044246"><ele>835.0</ele><time>2026-04-19T07:57:30Z</time></trkpt><trkpt lat="40.4101714285411" lon="15.712952656464697"><ele>835.0</ele><time>2026-04-19T07:57:32Z</time></trkpt><trkpt lat="40.4100681470206" lon="15.71295786122106"><ele>835.0</ele><time>2026-04-19T07:57:34Z</time></trkpt><trkpt lat="40.409980612275405" lon="15.712900785178785"><ele>834.9999999999999</ele><time>2026-04-19T07:57:36Z</time></trkpt><trkpt lat="40.4099388556784" lon="15.712795800458021"><ele>835.0</ele><time>2026-04-19T07:57:38Z</time></trkpt><trkpt lat="40.40988700879935" lon="15.712650550469343"><ele>837.4</ele><time>2026-04-19T07:57:40Z</time></trkpt><trkpt lat="40.409861717868374" lon="15.712494747124362"><ele>839.8</ele><time>2026-04-19T07:57:42Z</time></trkpt><trkpt lat="40.40983338620808" lon="15.712349135805963"><ele>842.2</ele><time>2026-04-19T07:57:44Z</time></trkpt><trkpt lat="40.4097854134762" lon="15.712249052411114"><ele>844.6</ele><time>2026-04-19T07:57:46Z</time></trkpt><trkpt lat="40.40973404032135" lon="15.712163595772724"><ele>847.0</ele><time>2026-04-19T07:57:48Z</time></trkpt><trkpt lat="40.40969689255612" lon="15.712071726261518"><ele>843.1666666666666</ele><time>2026-04-19T07:57:51Z</time></trkpt><trkpt lat="40.40962844204882" lon="15.712029365895086"><ele>839.3333333333333</ele><time>2026-04-19T07:57:54Z</time></trkpt><trkpt lat="40.40956763132045" lon="15.712103407399766"><ele>835.5</ele><time>2026-04-19T07:57:55.999Z</time></trkpt><trkpt lat="40.409575575571786" lon="15.712189307210018"><ele>831.6666666666667</ele><time>2026-04-19T07:57:57.999Z</time></trkpt><trkpt lat="40.40965293195155" lon="15.712171992787217"><ele>827.8333333333334</ele><time>2026-04-19T07:58:01.999Z</time></trkpt><trkpt lat="40.409651408765235" lon="15.71206984435962"><ele>824.0</ele><time>2026-04-19T07:58:05.999Z</time></trkpt><trkpt lat="40.40955948790224" lon="15.712112711024282"><ele>824.0000000000001</ele><time>2026-04-19T07:58:07.999Z</time></trkpt><trkpt lat="40.40951418444069" lon="15.712213435945218"><ele>824.0</ele><time>2026-04-19T07:58:09.999Z</time></trkpt><trkpt lat="40.4094896519637" lon="15.71230495499587"><ele>824.0</ele><time>2026-04-19T07:58:11.999Z</time></trkpt><trkpt lat="40.40945498027686" lon="15.712398946305349"><ele>824.0</ele><time>2026-04-19T07:58:13.999Z</time></trkpt><trkpt lat="40.40938752841936" lon="15.712457583052018"><ele>824.0000000000001</ele><time>2026-04-19T07:58:15.999Z</time></trkpt><trkpt lat="40.40932215072015" lon="15.712448291631295"><ele>824.0</ele><time>2026-04-19T07:58:18.999Z</time></trkpt><trkpt lat="40.40925533387526" lon="15.712398308622836"><ele>824.0000000000001</ele><time>2026-04-19T07:58:21.999Z</time></trkpt><trkpt lat="40.409213999547966" lon="15.712312847896271"><ele>824.0</ele><time>2026-04-19T07:58:36.999Z</time></trkpt><trkpt lat="40.4092907481162" lon="15.712316759403281"><ele>824.0</ele><time>2026-04-19T07:58:39.999Z</time></trkpt><trkpt lat="40.409302549952336" lon="15.712427352325417"><ele>824.0</ele><time>2026-04-19T07:58:41.998Z</time></trkpt><trkpt lat="40.40935132487688" lon="15.712502517439395"><ele>824.0000000000001</ele><time>2026-04-19T07:58:44.998Z</time></trkpt><trkpt lat="40.409389912507855" lon="15.71260750138257"><ele>824.0</ele><time>2026-04-19T07:58:47.998Z</time></trkpt><trkpt lat="40.40935818478319" lon="15.712685039891724"><ele>822.7142857142857</ele><time>2026-04-19T07:58:49.998Z</time></trkpt><trkpt lat="40.40934814924197" lon="15.712776697157997"><ele>821.4285714285714</ele><time>2026-04-19T07:58:52.998Z</time></trkpt><trkpt lat="40.4092892513919" lon="15.712807594457754"><ele>820.1428571428571</ele><time>2026-04-19T07:58:55.998Z</time></trkpt><trkpt lat="40.40922903893199" lon="15.712847306606783"><ele>818.8571428571429</ele><time>2026-04-19T07:58:59.998Z</time></trkpt><trkpt lat="40.40916884604211" lon="15.71288650480751"><ele>817.5714285714286</ele><time>2026-04-19T07:59:02.998Z</time></trkpt><trkpt lat="40.409102637487166" lon="15.712917211273098"><ele>816.2857142857142</ele><time>2026-04-19T07:59:06.998Z</time></trkpt><trkpt lat="40.40903636140075" lon="15.712942919219653"><ele>815.0</ele><time>2026-04-19T07:59:09.998Z</time></trkpt><trkpt lat="40.40896947490415" lon="15.712987734813614"><ele>815.0</ele><time>2026-04-19T07:59:13.998Z</time></trkpt><trkpt lat="40.40891456472862" lon="15.713040745212142"><ele>815.0</ele><time>2026-04-19T07:59:17.998Z</time></trkpt><trkpt lat="40.40883598255511" lon="15.713107837213457"><ele>815.0</ele><time>2026-04-19T08:01:02.998Z</time></trkpt><trkpt lat="40.408893635698625" lon="15.713145635091665"><ele>815.0</ele><time>2026-04-19T08:01:10.998Z</time></trkpt><trkpt lat="40.40894115211494" lon="15.713084721935465"><ele>815.0</ele><time>2026-04-19T08:01:16.998Z</time></trkpt><trkpt lat="40.40898434716752" lon="15.712997660323268"><ele>815.0</ele><time>2026-04-19T08:01:19.998Z</time></trkpt><trkpt lat="40.40903737054945" lon="15.712948826166821"><ele>815.0</ele><time>2026-04-19T08:01:23.998Z</time></trkpt><trkpt lat="40.40912248701195" lon="15.71293698269076"><ele>815.0000000000001</ele><time>2026-04-19T08:01:27.998Z</time></trkpt><trkpt lat="40.4091919520474" lon="15.712885334989817"><ele>815.0</ele><time>2026-04-19T08:01:30.998Z</time></trkpt><trkpt lat="40.40925854058414" lon="15.712837450775558"><ele>815.0</ele><time>2026-04-19T08:01:34Z</time></trkpt><trkpt lat="40.40934055403754" lon="15.712759611887634"><ele>815.0</ele><time>2026-04-19T08:01:37Z</time></trkpt><trkpt lat="40.40936067501031" lon="15.712673948965689"><ele>815.0000000000001</ele><time>2026-04-19T08:01:38Z</time></trkpt><trkpt lat="40.40936845336448" lon="15.71254445990977"><ele>815.0</ele><time>2026-04-19T08:01:39Z</time></trkpt><trkpt lat="40.40939245371612" lon="15.712452993126295"><ele>817.25</ele><time>2026-04-19T08:01:40Z</time></trkpt><trkpt lat="40.40948613025524" lon="15.712362869255747"><ele>819.5</ele><time>2026-04-19T08:01:42Z</time></trkpt><trkpt lat="40.40959053585848" lon="15.712272309511325"><ele>821.75</ele><time>2026-04-19T08:01:44Z</time></trkpt><trkpt lat="40.409691722871884" lon="15.712230189823773"><ele>824.0</ele><time>2026-04-19T08:01:46Z</time></trkpt><trkpt lat="40.40979220476329" lon="15.71216305600361"><ele>829.0</ele><time>2026-04-19T08:01:48Z</time></trkpt><trkpt lat="40.409828701766294" lon="15.712007601655971"><ele>834.0</ele><time>2026-04-19T08:01:50Z</time></trkpt><trkpt lat="40.40981341290682" lon="15.71180376279826"><ele>839.0</ele><time>2026-04-19T08:01:52Z</time></trkpt><trkpt lat="40.4098247609548" lon="15.711690983262114"><ele>844.0</ele><time>2026-04-19T08:01:53Z</time></trkpt><trkpt lat="40.40986409546347" lon="15.711542101130156"><ele>844.0</ele><time>2026-04-19T08:01:55Z</time></trkpt><trkpt lat="40.409904615092074" lon="15.711393138863624"><ele>844.0</ele><time>2026-04-19T08:01:57Z</time></trkpt><trkpt lat="40.40991816016433" lon="15.711290239908475"><ele>844.0</ele><time>2026-04-19T08:01:59Z</time></trkpt><trkpt lat="40.40999545185566" lon="15.711170989668702"><ele>844.0</ele><time>2026-04-19T08:02:02Z</time></trkpt><trkpt lat="40.410045903757336" lon="15.71107289394282"><ele>844.0</ele><time>2026-04-19T08:02:04Z</time></trkpt><trkpt lat="40.41014787544965" lon="15.710962911051606"><ele>844.25</ele><time>2026-04-19T08:02:05Z</time></trkpt><trkpt lat="40.410283393486594" lon="15.710775263393435"><ele>844.5</ele><time>2026-04-19T08:02:07.999Z</time></trkpt><trkpt lat="40.410373037581834" lon="15.710673756506523"><ele>844.75</ele><time>2026-04-19T08:02:08.999Z</time></trkpt><trkpt lat="40.410424457871954" lon="15.710613015220579"><ele>845.0</ele><time>2026-04-19T08:02:09.999Z</time></trkpt><trkpt lat="40.4105035911871" lon="15.710508508456332"><ele>848.8333333333334</ele><time>2026-04-19T08:02:11.999Z</time></trkpt><trkpt lat="40.41059954872825" lon="15.710443135141064"><ele>852.6666666666667</ele><time>2026-04-19T08:02:13.999Z</time></trkpt><trkpt lat="40.41067862561422" lon="15.710423720970402"><ele>856.5</ele><time>2026-04-19T08:02:17.999Z</time></trkpt><trkpt lat="40.41070092235663" lon="15.710329950125102"><ele>860.3333333333333</ele><time>2026-04-19T08:02:19.999Z</time></trkpt><trkpt lat="40.41062318005588" lon="15.710367245410305"><ele>864.1666666666666</ele><time>2026-04-19T08:02:28.999Z</time></trkpt><trkpt lat="40.41056911253381" lon="15.710423570429214"><ele>868.0</ele><time>2026-04-19T08:02:31.999Z</time></trkpt><trkpt lat="40.410519764574126" lon="15.710494368037857"><ele>864.1666666666666</ele><time>2026-04-19T08:02:34.999Z</time></trkpt><trkpt lat="40.41045264795259" lon="15.710565173711156"><ele>860.3333333333333</ele><time>2026-04-19T08:02:39.999Z</time></trkpt><trkpt lat="40.410389635584636" lon="15.710649197229099"><ele>856.5</ele><time>2026-04-19T08:02:42.999Z</time></trkpt><trkpt lat="40.4103182435736" lon="15.710726091319543"><ele>852.6666666666667</ele><time>2026-04-19T08:02:46.999Z</time></trkpt><trkpt lat="40.41026176725759" lon="15.71079718359328"><ele>848.8333333333334</ele><time>2026-04-19T08:02:50.999Z</time></trkpt><trkpt lat="40.410208616972625" lon="15.710849382205568"><ele>845.0</ele><time>2026-04-19T08:02:57.998Z</time></trkpt><trkpt lat="40.41015593385299" lon="15.710911630799986"><ele>844.9999999999999</ele><time>2026-04-19T08:03:01.998Z</time></trkpt><trkpt lat="40.410092459170116" lon="15.710952981516964"><ele>845.0</ele><time>2026-04-19T08:03:05.998Z</time></trkpt><trkpt lat="40.41002741401781" lon="15.710978777692741"><ele>845.0</ele><time>2026-04-19T08:03:10.998Z</time></trkpt><trkpt lat="40.40996919173681" lon="15.711020847667486"><ele>845.0</ele><time>2026-04-19T08:03:14.998Z</time></trkpt><trkpt lat="40.409901766351574" lon="15.711053869536643"><ele>845.0</ele><time>2026-04-19T08:03:19.998Z</time></trkpt><trkpt lat="40.40983693008752" lon="15.711066681661343"><ele>844.9999999999999</ele><time>2026-04-19T08:04:17.999Z</time></trkpt><trkpt lat="40.40978328934443" lon="15.711119150484675"><ele>845.0</ele><time>2026-04-19T08:04:20.999Z</time></trkpt><trkpt lat="40.40972871811241" lon="15.71121099467023"><ele>844.8571428571428</ele><time>2026-04-19T08:04:26.999Z</time></trkpt><trkpt lat="40.40972354982975" lon="15.711304075206202"><ele>844.7142857142857</ele><time>2026-04-19T08:04:28.999Z</time></trkpt><trkpt lat="40.4097050069311" lon="15.71138366517091"><ele>844.5714285714286</ele><time>2026-04-19T08:04:30.999Z</time></trkpt><trkpt lat="40.40966560374322" lon="15.711470267716757"><ele>844.4285714285713</ele><time>2026-04-19T08:04:33.999Z</time></trkpt><trkpt lat="40.409645991656255" lon="15.71157393575806"><ele>844.2857142857143</ele><time>2026-04-19T08:04:37.999Z</time></trkpt><trkpt lat="40.40962551620387" lon="15.71167608983695"><ele>844.1428571428571</ele><time>2026-04-19T08:04:40.999Z</time></trkpt><trkpt lat="40.40959830653648" lon="15.711763505205878"><ele>844.0</ele><time>2026-04-19T08:04:43.999Z</time></trkpt><trkpt lat="40.40956993937894" lon="15.711845007019756"><ele>840.6666666666666</ele><time>2026-04-19T08:04:47.999Z</time></trkpt><trkpt lat="40.40956541999746" lon="15.711935327577967"><ele>837.3333333333333</ele><time>2026-04-19T08:04:51.999Z</time></trkpt><trkpt lat="40.40954479726461" lon="15.71203640948361"><ele>834.0</ele><time>2026-04-19T08:04:55.999Z</time></trkpt><trkpt lat="40.409506577564024" lon="15.712107786013965"><ele>830.6666666666667</ele><time>2026-04-19T08:05:02.998Z</time></trkpt><trkpt lat="40.40949059609642" lon="15.712220301890278"><ele>827.3333333333334</ele><time>2026-04-19T08:05:06.998Z</time></trkpt><trkpt lat="40.40953763740743" lon="15.712280373430332"><ele>824.0</ele><time>2026-04-19T08:05:08.998Z</time></trkpt><trkpt lat="40.40965262620806" lon="15.712273965972246"><ele>828.6</ele><time>2026-04-19T08:05:11.998Z</time></trkpt><trkpt lat="40.409727176147534" lon="15.71228832538367"><ele>833.2</ele><time>2026-04-19T08:05:12.998Z</time></trkpt><trkpt lat="40.40982161473144" lon="15.712357464367882"><ele>837.8000000000001</ele><time>2026-04-19T08:05:14.998Z</time></trkpt><trkpt lat="40.409867611109476" lon="15.71248458225544"><ele>842.4000000000001</ele><time>2026-04-19T08:05:16.998Z</time></trkpt><trkpt lat="40.40989250390124" lon="15.712607264768218"><ele>847.0</ele><time>2026-04-19T08:05:18.998Z</time></trkpt><trkpt lat="40.40991731674334" lon="15.712728242747353"><ele>844.9999999999999</ele><time>2026-04-19T08:05:20.998Z</time></trkpt><trkpt lat="40.4099440317347" lon="15.712826479491707"><ele>843.0</ele><time>2026-04-19T08:05:22.998Z</time></trkpt><trkpt lat="40.40999485244137" lon="15.712888756442434"><ele>841.0</ele><time>2026-04-19T08:05:23.998Z</time></trkpt><trkpt lat="40.41004958704447" lon="15.712944968982834"><ele>839.0</ele><time>2026-04-19T08:05:25.998Z</time></trkpt><trkpt lat="40.41017055194613" lon="15.712964454202682"><ele>836.9999999999999</ele><time>2026-04-19T08:05:28.998Z</time></trkpt><trkpt lat="40.41026330827193" lon="15.712977586465966"><ele>835.0</ele><time>2026-04-19T08:05:30.998Z</time></trkpt><trkpt lat="40.410350230566905" lon="15.713002360063067"><ele>834.9999999999999</ele><time>2026-04-19T08:05:32.998Z</time></trkpt><trkpt lat="40.41044146248055" lon="15.713023709851985"><ele>835.0</ele><time>2026-04-19T08:05:34.998Z</time></trkpt><trkpt lat="40.41050978547331" lon="15.712994094630567"><ele>835.0</ele><time>2026-04-19T08:05:35.998Z</time></trkpt><trkpt lat="40.41059919472148" lon="15.713020414604475"><ele>835.0</ele><time>2026-04-19T08:05:37.998Z</time></trkpt><trkpt lat="40.41064053686114" lon="15.713089346099949"><ele>834.9999999999999</ele><time>2026-04-19T08:05:41.998Z</time></trkpt><trkpt lat="40.41068899169944" lon="15.713157856050524"><ele>835.0</ele><time>2026-04-19T08:05:45Z</time></trkpt><trkpt lat="40.4106796132344" lon="15.713303843622576"><ele>834.9999999999999</ele><time>2026-04-19T08:05:47Z</time></trkpt><trkpt lat="40.41060019451031" lon="15.713376515835904"><ele>835.0</ele><time>2026-04-19T08:05:49Z</time></trkpt><trkpt lat="40.41053925463981" lon="15.71344836534353"><ele>835.0</ele><time>2026-04-19T08:05:51Z</time></trkpt><trkpt lat="40.41046113123863" lon="15.713513662464713"><ele>835.0</ele><time>2026-04-19T08:05:53Z</time></trkpt><trkpt lat="40.41040621655638" lon="15.713579942961953"><ele>834.9999999999999</ele><time>2026-04-19T08:05:55Z</time></trkpt><trkpt lat="40.410345387922035" lon="15.713655072982466"><ele>835.0</ele><time>2026-04-19T08:05:57Z</time></trkpt><trkpt lat="40.4102774288868" lon="15.713767109093375"><ele>836.3333333333333</ele><time>2026-04-19T08:05:59Z</time></trkpt><trkpt lat="40.41020165405881" lon="15.713847351467079"><ele>837.6666666666666</ele><time>2026-04-19T08:06:01Z</time></trkpt><trkpt lat="40.41012900692016" lon="15.713898744200144"><ele>839.0</ele><time>2026-04-19T08:06:03Z</time></trkpt><trkpt lat="40.41007033766938" lon="15.71395762182117"><ele>840.3333333333333</ele><time>2026-04-19T08:06:05Z</time></trkpt><trkpt lat="40.41000612769953" lon="15.71402324517882"><ele>841.6666666666666</ele><time>2026-04-19T08:06:09Z</time></trkpt><trkpt lat="40.409941298080305" lon="15.71408967688417"><ele>843.0</ele><time>2026-04-19T08:06:11Z</time></trkpt><trkpt lat="40.40988686227353" lon="15.714151672306416"><ele>843.0</ele><time>2026-04-19T08:06:14Z</time></trkpt><trkpt lat="40.40981650353818" lon="15.714275605516765"><ele>843.0</ele><time>2026-04-19T08:06:16Z</time></trkpt><trkpt lat="40.409772759888696" lon="15.71437565420673"><ele>843.0</ele><time>2026-04-19T08:06:19.999Z</time></trkpt><trkpt lat="40.40971750462822" lon="15.714459066516584"><ele>843.0</ele><time>2026-04-19T08:06:30.999Z</time></trkpt><trkpt lat="40.409668087698" lon="15.714524963073949"><ele>843.0</ele><time>2026-04-19T08:06:33.999Z</time></trkpt><trkpt lat="40.40962413474464" lon="15.714603333247945"><ele>843.0</ele><time>2026-04-19T08:06:36.999Z</time></trkpt><trkpt lat="40.409562656459926" lon="15.714705867424343"><ele>840.3333333333334</ele><time>2026-04-19T08:06:38.999Z</time></trkpt><trkpt lat="40.40951780081008" lon="15.714770948017113"><ele>837.6666666666667</ele><time>2026-04-19T08:06:39.999Z</time></trkpt><trkpt lat="40.40946358540626" lon="15.71487775524933"><ele>835.0</ele><time>2026-04-19T08:06:41.999Z</time></trkpt><trkpt lat="40.409403949350875" lon="15.71491660279304"><ele>832.3333333333334</ele><time>2026-04-19T08:07:54Z</time></trkpt><trkpt lat="40.40937774501579" lon="15.714997660088667"><ele>829.6666666666667</ele><time>2026-04-19T08:08:10Z</time></trkpt><trkpt lat="40.40944526548049" lon="15.7149244951738"><ele>827.0</ele><time>2026-04-19T08:08:24.999Z</time></trkpt><trkpt lat="40.4095047091897" lon="15.714853741746833"><ele>827.0000000000001</ele><time>2026-04-19T08:08:27.999Z</time></trkpt><trkpt lat="40.40954873164119" lon="15.714760380931477"><ele>827.0</ele><time>2026-04-19T08:08:30.999Z</time></trkpt><trkpt lat="40.40960729181412" lon="15.714673484015803"><ele>827.0</ele><time>2026-04-19T08:08:32.999Z</time></trkpt><trkpt lat="40.40964521355221" lon="15.714604502028239"><ele>827.0</ele><time>2026-04-19T08:08:33.999Z</time></trkpt><trkpt lat="40.4096849910043" lon="15.714527079261616"><ele>827.0000000000001</ele><time>2026-04-19T08:08:34.999Z</time></trkpt><trkpt lat="40.409739381625585" lon="15.714434995179788"><ele>827.0</ele><time>2026-04-19T08:08:35.999Z</time></trkpt><trkpt lat="40.409809475318234" lon="15.71432381326984"><ele>829.6666666666667</ele><time>2026-04-19T08:08:37.999Z</time></trkpt><trkpt lat="40.409854376017456" lon="15.714255762430268"><ele>832.3333333333334</ele><time>2026-04-19T08:08:38.999Z</time></trkpt><trkpt lat="40.40986811009771" lon="15.714174261717396"><ele>835.0</ele><time>2026-04-19T08:08:40.999Z</time></trkpt><trkpt lat="40.40993623769012" lon="15.714112447496792"><ele>837.6666666666667</ele><time>2026-04-19T08:08:41.999Z</time></trkpt><trkpt lat="40.410011997384174" lon="15.714029924349942"><ele>840.3333333333334</ele><time>2026-04-19T08:08:43.999Z</time></trkpt><trkpt lat="40.41010059148482" lon="15.713939005418249"><ele>843.0</ele><time>2026-04-19T08:08:45.999Z</time></trkpt><trkpt lat="40.4101617020505" lon="15.713888788886754"><ele>843.0</ele><time>2026-04-19T08:08:46.999Z</time></trkpt><trkpt lat="40.41024840340649" lon="15.713809844551882"><ele>843.0</ele><time>2026-04-19T08:08:48.999Z</time></trkpt><trkpt lat="40.410338988543664" lon="15.713771313366745"><ele>843.0</ele><time>2026-04-19T08:08:50.999Z</time></trkpt><trkpt lat="40.41035760334606" lon="15.713690074586841"><ele>843.0</ele><time>2026-04-19T08:08:51.999Z</time></trkpt><trkpt lat="40.410411489064906" lon="15.713583017814926"><ele>843.0</ele><time>2026-04-19T08:08:53.999Z</time></trkpt><trkpt lat="40.41049136979757" lon="15.713476759642822"><ele>846.8</ele><time>2026-04-19T08:08:55.999Z</time></trkpt><trkpt lat="40.41055523458361" lon="15.713427506112247"><ele>850.5999999999999</ele><time>2026-04-19T08:08:56.999Z</time></trkpt><trkpt lat="40.41061138566029" lon="15.7133786953257"><ele>854.4000000000001</ele><time>2026-04-19T08:08:57.999Z</time></trkpt><trkpt lat="40.410686931342795" lon="15.713270033329783"><ele>858.2</ele><time>2026-04-19T08:08:59.999Z</time></trkpt><trkpt lat="40.410700205939676" lon="15.713153219140226"><ele>862.0</ele><time>2026-04-19T08:09:01.999Z</time></trkpt><trkpt lat="40.41059688801066" lon="15.71304593258548"><ele>862.0</ele><time>2026-04-19T08:09:03.999Z</time></trkpt><trkpt lat="40.41053469057316" lon="15.712990789884985"><ele>862.0</ele><time>2026-04-19T08:09:05.999Z</time></trkpt><trkpt lat="40.41043305762439" lon="15.71301026862459"><ele>862.0</ele><time>2026-04-19T08:09:07.999Z</time></trkpt><trkpt lat="40.41032499565858" lon="15.713009736054852"><ele>862.0</ele><time>2026-04-19T08:09:09.999Z</time></trkpt><trkpt lat="40.410225111025575" lon="15.712975549535885"><ele>862.0</ele><time>2026-04-19T08:09:11.999Z</time></trkpt><trkpt lat="40.41014334171734" lon="15.712951334961408"><ele>859.4999999999999</ele><time>2026-04-19T08:09:13.999Z</time></trkpt><trkpt lat="40.41004536145339" lon="15.712934124832975"><ele>857.0</ele><time>2026-04-19T08:09:15.998Z</time></trkpt><trkpt lat="40.409975692015834" lon="15.712890656345433"><ele>854.5</ele><time>2026-04-19T08:09:17.998Z</time></trkpt><trkpt lat="40.409921116282014" lon="15.712775478873192"><ele>852.0</ele><time>2026-04-19T08:09:19.998Z</time></trkpt><trkpt lat="40.409898007362884" lon="15.712668110071267"><ele>849.4999999999999</ele><time>2026-04-19T08:09:21.998Z</time></trkpt><trkpt lat="40.40988872273124" lon="15.712560042104817"><ele>847.0</ele><time>2026-04-19T08:09:23.998Z</time></trkpt><trkpt lat="40.40987052598246" lon="15.712451508489261"><ele>847.0</ele><time>2026-04-19T08:09:25.998Z</time></trkpt><trkpt lat="40.409843234395886" lon="15.712372742585323"><ele>847.0</ele><time>2026-04-19T08:09:26.998Z</time></trkpt><trkpt lat="40.40981137228293" lon="15.712297223443477"><ele>847.0</ele><time>2026-04-19T08:09:27.998Z</time></trkpt><trkpt lat="40.40972765516584" lon="15.712230625102398"><ele>847.0</ele><time>2026-04-19T08:09:29.998Z</time></trkpt><trkpt lat="40.40960834242349" lon="15.712253699005611"><ele>847.0</ele><time>2026-04-19T08:09:31.998Z</time></trkpt><trkpt lat="40.40950928410692" lon="15.71233628797355"><ele>842.4000000000001</ele><time>2026-04-19T08:09:33.998Z</time></trkpt><trkpt lat="40.40942325106632" lon="15.712450668630007"><ele>837.8000000000001</ele><time>2026-04-19T08:09:35.998Z</time></trkpt><trkpt lat="40.40937373601646" lon="15.71257131648328"><ele>833.2</ele><time>2026-04-19T08:09:37.998Z</time></trkpt><trkpt lat="40.40936950607069" lon="15.712679144990137"><ele>828.6</ele><time>2026-04-19T08:09:39.998Z</time></trkpt><trkpt lat="40.40935458031242" lon="15.71276804648006"><ele>824.0</ele><time>2026-04-19T08:09:41.998Z</time></trkpt><trkpt lat="40.409283145873616" lon="15.71282495710181"><ele>822.5000000000001</ele><time>2026-04-19T08:09:44.998Z</time></trkpt><trkpt lat="40.40921844824313" lon="15.712873259924068"><ele>821.0</ele><time>2026-04-19T08:09:47.998Z</time></trkpt><trkpt lat="40.409147461248104" lon="15.712918482573315"><ele>819.5</ele><time>2026-04-19T08:09:50.998Z</time></trkpt><trkpt lat="40.40907272928128" lon="15.712923091170397"><ele>818.0</ele><time>2026-04-19T08:09:53.998Z</time></trkpt><trkpt lat="40.40900341466728" lon="15.712966587612595"><ele>816.5000000000001</ele><time>2026-04-19T08:09:57Z</time></trkpt><trkpt lat="40.40894528523973" lon="15.713028996207985"><ele>815.0</ele><time>2026-04-19T08:10:00Z</time></trkpt><trkpt lat="40.408876395795374" lon="15.713079991869296"><ele>813.1428571428571</ele><time>2026-04-19T08:10:41.999Z</time></trkpt><trkpt lat="40.40881379565069" lon="15.71310309418901"><ele>811.2857142857142</ele><time>2026-04-19T08:18:42Z</time></trkpt><trkpt lat="40.408738572329376" lon="15.71313183306447"><ele>809.4285714285714</ele><time>2026-04-19T08:18:51Z</time></trkpt><trkpt lat="40.40869114381974" lon="15.713187622392363"><ele>807.5714285714286</ele><time>2026-04-19T08:18:54Z</time></trkpt><trkpt lat="40.408621592399065" lon="15.713200171750723"><ele>805.7142857142858</ele><time>2026-04-19T08:19:10.999Z</time></trkpt><trkpt lat="40.408551281578944" lon="15.713221287739557"><ele>803.8571428571429</ele><time>2026-04-19T08:19:14.999Z</time></trkpt><trkpt lat="40.40851363840869" lon="15.71313700624621"><ele>802.0</ele><time>2026-04-19T08:19:17.999Z</time></trkpt><trkpt lat="40.4085260294336" lon="15.713038509074991"><ele>802.0</ele><time>2026-04-19T08:19:21.999Z</time></trkpt><trkpt lat="40.40855981728331" lon="15.712937793282082"><ele>802.0</ele><time>2026-04-19T08:19:30.999Z</time></trkpt><trkpt lat="40.408518253106415" lon="15.712852279845224"><ele>802.0</ele><time>2026-04-19T08:19:35.999Z</time></trkpt><trkpt lat="40.40850464362624" lon="15.712762426140511"><ele>802.0</ele><time>2026-04-19T08:19:38.999Z</time></trkpt><trkpt lat="40.40849999776188" lon="15.712670265494726"><ele>802.0</ele><time>2026-04-19T08:19:41.999Z</time></trkpt><trkpt lat="40.40847896373532" lon="15.712591855128286"><ele>802.0</ele><time>2026-04-19T08:19:44.998Z</time></trkpt><trkpt lat="40.40842807510036" lon="15.712510384428683"><ele>802.0</ele><time>2026-04-19T08:19:47.998Z</time></trkpt><trkpt lat="40.40840782553964" lon="15.712431913682765"><ele>801.7142857142858</ele><time>2026-04-19T08:19:51.998Z</time></trkpt><trkpt lat="40.408391360481914" lon="15.712349280558758"><ele>801.4285714285714</ele><time>2026-04-19T08:19:54.998Z</time></trkpt><trkpt lat="40.40836310702638" lon="15.71225835904935"><ele>801.1428571428571</ele><time>2026-04-19T08:19:58.998Z</time></trkpt><trkpt lat="40.40831232084028" lon="15.712200326966611"><ele>800.8571428571429</ele><time>2026-04-19T08:20:49Z</time></trkpt><trkpt lat="40.408385847781204" lon="15.712220427053957"><ele>800.5714285714286</ele><time>2026-04-19T08:20:57Z</time></trkpt><trkpt lat="40.40846701950729" lon="15.712154288148605"><ele>800.2857142857143</ele><time>2026-04-19T08:20:59Z</time></trkpt><trkpt lat="40.408514254121094" lon="15.71208439799398"><ele>800.0</ele><time>2026-04-19T08:21:00Z</time></trkpt><trkpt lat="40.40855808410236" lon="15.712012051070996"><ele>800.0000000000001</ele><time>2026-04-19T08:21:01Z</time></trkpt><trkpt lat="40.40861317477554" lon="15.711933925558066"><ele>800.0</ele><time>2026-04-19T08:21:01.999Z</time></trkpt><trkpt lat="40.40867877235483" lon="15.711853188855693"><ele>800.0</ele><time>2026-04-19T08:21:02.999Z</time></trkpt><trkpt lat="40.40873595174773" lon="15.711774613932262"><ele>800.0</ele><time>2026-04-19T08:21:03.999Z</time></trkpt><trkpt lat="40.40878486592535" lon="15.71170327095493"><ele>800.0000000000001</ele><time>2026-04-19T08:21:04.999Z</time></trkpt><trkpt lat="40.408840780948644" lon="15.71164575648664"><ele>800.0</ele><time>2026-04-19T08:21:05.999Z</time></trkpt><trkpt lat="40.408895143401466" lon="15.711529283301193"><ele>803.8333333333334</ele><time>2026-04-19T08:21:07.999Z</time></trkpt><trkpt lat="40.40894454611973" lon="15.711399383703418"><ele>807.6666666666667</ele><time>2026-04-19T08:21:09.999Z</time></trkpt><trkpt lat="40.409005249140264" lon="15.711276464731842"><ele>811.5</ele><time>2026-04-19T08:21:11.999Z</time></trkpt><trkpt lat="40.409050469318196" lon="15.711212379520783"><ele>815.3333333333333</ele><time>2026-04-19T08:21:12.999Z</time></trkpt><trkpt lat="40.40910674958335" lon="15.7111495854001"><ele>819.1666666666666</ele><time>2026-04-19T08:21:13.999Z</time></trkpt><trkpt lat="40.40915447441949" lon="15.711084156192332"><ele>823.0</ele><time>2026-04-19T08:21:14.999Z</time></trkpt><trkpt lat="40.40919897700978" lon="15.711008804584697"><ele>824.0</ele><time>2026-04-19T08:21:15.999Z</time></trkpt><trkpt lat="40.40927329989018" lon="15.710866382929053"><ele>825.0</ele><time>2026-04-19T08:21:17.999Z</time></trkpt><trkpt lat="40.40932557962578" lon="15.7108016193327"><ele>826.0</ele><time>2026-04-19T08:21:18.999Z</time></trkpt><trkpt lat="40.40940982579807" lon="15.710717154809053"><ele>827.0</ele><time>2026-04-19T08:21:20.999Z</time></trkpt><trkpt lat="40.40946844829962" lon="15.710637378554715"><ele>828.0</ele><time>2026-04-19T08:21:22.999Z</time></trkpt><trkpt lat="40.40954182290279" lon="15.710530575958968"><ele>828.0</ele><time>2026-04-19T08:21:24.999Z</time></trkpt><trkpt lat="40.40957721679196" lon="15.710427646415827"><ele>828.0</ele><time>2026-04-19T08:21:35.999Z</time></trkpt><trkpt lat="40.409658426241286" lon="15.710391381549908"><ele>828.0</ele><time>2026-04-19T08:21:37.999Z</time></trkpt><trkpt lat="40.40973820086604" lon="15.710354562901571"><ele>828.0</ele><time>2026-04-19T08:21:38.999Z</time></trkpt><trkpt lat="40.40981020797386" lon="15.710338267448725"><ele>828.0</ele><time>2026-04-19T08:21:39.999Z</time></trkpt><trkpt lat="40.40987550239401" lon="15.710342997753518"><ele>828.0</ele><time>2026-04-19T08:21:40.999Z</time></trkpt><trkpt lat="40.40994991315313" lon="15.710352062115128"><ele>830.8333333333334</ele><time>2026-04-19T08:21:41.999Z</time></trkpt><trkpt lat="40.41003572394532" lon="15.710375595073337"><ele>833.6666666666667</ele><time>2026-04-19T08:21:43.999Z</time></trkpt><trkpt lat="40.41009932094178" lon="15.71046902444226"><ele>836.5</ele><time>2026-04-19T08:21:45.999Z</time></trkpt><trkpt lat="40.410169473900396" lon="15.71046166427735"><ele>839.3333333333334</ele><time>2026-04-19T08:21:47.999Z</time></trkpt><trkpt lat="40.410223633256734" lon="15.71035905308904"><ele>842.1666666666667</ele><time>2026-04-19T08:21:49.998Z</time></trkpt><trkpt lat="40.410301262633816" lon="15.710282814855077"><ele>845.0</ele><time>2026-04-19T08:21:50.998Z</time></trkpt><trkpt lat="40.410376428811944" lon="15.71023716380579"><ele>844.9999999999999</ele><time>2026-04-19T08:21:51.998Z</time></trkpt><trkpt lat="40.41043340287633" lon="15.710195113823376"><ele>845.0</ele><time>2026-04-19T08:21:52.998Z</time></trkpt><trkpt lat="40.41049751623067" lon="15.710182255349087"><ele>845.0</ele><time>2026-04-19T08:21:54.998Z</time></trkpt><trkpt lat="40.41043046470963" lon="15.710146621643881"><ele>845.0</ele><time>2026-04-19T08:22:08.998Z</time></trkpt><trkpt lat="40.410356085444526" lon="15.71021943044086"><ele>845.0</ele><time>2026-04-19T08:22:10.998Z</time></trkpt><trkpt lat="40.410276978036315" lon="15.710242110178532"><ele>844.9999999999999</ele><time>2026-04-19T08:22:12.998Z</time></trkpt><trkpt lat="40.410221105259545" lon="15.710196808924843"><ele>845.0</ele><time>2026-04-19T08:22:17.998Z</time></trkpt><trkpt lat="40.41015230086228" lon="15.71017189297791"><ele>844.9999999999999</ele><time>2026-04-19T08:22:25.998Z</time></trkpt><trkpt lat="40.41011446915246" lon="15.710241513008109"><ele>845.0</ele><time>2026-04-19T08:22:28.998Z</time></trkpt><trkpt lat="40.41006264611854" lon="15.710298471430534"><ele>845.0</ele><time>2026-04-19T08:22:32Z</time></trkpt><trkpt lat="40.40999764882486" lon="15.710332611297337"><ele>845.0</ele><time>2026-04-19T08:22:36Z</time></trkpt><trkpt lat="40.40993307426587" lon="15.71033744771614"><ele>845.0</ele><time>2026-04-19T08:22:47Z</time></trkpt><trkpt lat="40.409865226425545" lon="15.710336190544558"><ele>844.9999999999999</ele><time>2026-04-19T08:22:51Z</time></trkpt><trkpt lat="40.409801661925144" lon="15.710332343270668"><ele>845.0</ele><time>2026-04-19T08:23:05.999Z</time></trkpt><trkpt lat="40.40971277697732" lon="15.710366011837161"><ele>845.8</ele><time>2026-04-19T08:23:08.999Z</time></trkpt><trkpt lat="40.40964972841088" lon="15.710397268476928"><ele>846.6</ele><time>2026-04-19T08:23:10.999Z</time></trkpt><trkpt lat="40.40957634829998" lon="15.71040506621696"><ele>847.4000000000001</ele><time>2026-04-19T08:23:13.999Z</time></trkpt><trkpt lat="40.40947388293188" lon="15.710370257725469"><ele>848.2</ele><time>2026-04-19T08:23:16.999Z</time></trkpt><trkpt lat="40.409386044207494" lon="15.71028283486214"><ele>849.0</ele><time>2026-04-19T08:23:18.999Z</time></trkpt><trkpt lat="40.4092845108624" lon="15.710220813745694"><ele>849.0000000000001</ele><time>2026-04-19T08:23:20.999Z</time></trkpt><trkpt lat="40.40920981460387" lon="15.7102267558497"><ele>849.0</ele><time>2026-04-19T08:23:21.999Z</time></trkpt><trkpt lat="40.40914308220817" lon="15.710223711600765"><ele>849.0</ele><time>2026-04-19T08:23:22.999Z</time></trkpt><trkpt lat="40.40908205081045" lon="15.7101953594892"><ele>849.0</ele><time>2026-04-19T08:23:23.999Z</time></trkpt><trkpt lat="40.40900748438981" lon="15.71017458747669"><ele>849.0</ele><time>2026-04-19T08:23:24.999Z</time></trkpt><trkpt lat="40.40893549739733" lon="15.710183580904717"><ele>849.0000000000001</ele><time>2026-04-19T08:23:25.999Z</time></trkpt><trkpt lat="40.40887135411638" lon="15.710196207316068"><ele>849.0</ele><time>2026-04-19T08:23:26.999Z</time></trkpt><trkpt lat="40.40880894786538" lon="15.71013658328717"><ele>850.2</ele><time>2026-04-19T08:23:27.999Z</time></trkpt><trkpt lat="40.40874382577383" lon="15.71010859800375"><ele>851.4000000000001</ele><time>2026-04-19T08:23:28.999Z</time></trkpt><trkpt lat="40.408674495436486" lon="15.710073162977679"><ele>852.6</ele><time>2026-04-19T08:23:30.999Z</time></trkpt><trkpt lat="40.408601436804894" lon="15.709938273934103"><ele>853.8</ele><time>2026-04-19T08:23:32.999Z</time></trkpt><trkpt lat="40.40854443247205" lon="15.709807627224393"><ele>855.0</ele><time>2026-04-19T08:23:34.999Z</time></trkpt><trkpt lat="40.408500429084455" lon="15.70973020273234"><ele>855.0</ele><time>2026-04-19T08:23:35.999Z</time></trkpt><trkpt lat="40.40850789670395" lon="15.709639288664675"><ele>855.0</ele><time>2026-04-19T08:23:36.999Z</time></trkpt><trkpt lat="40.40847975285165" lon="15.709458857035932"><ele>855.0</ele><time>2026-04-19T08:23:38.999Z</time></trkpt><trkpt lat="40.40844863799929" lon="15.709357079988486"><ele>855.0</ele><time>2026-04-19T08:23:39.999Z</time></trkpt><trkpt lat="40.40841379874051" lon="15.709241419346387"><ele>855.0</ele><time>2026-04-19T08:23:41.999Z</time></trkpt><trkpt lat="40.408329933743545" lon="15.709139612149032"><ele>858.0</ele><time>2026-04-19T08:23:43.999Z</time></trkpt><trkpt lat="40.40827108304927" lon="15.709102566335165"><ele>861.0</ele><time>2026-04-19T08:23:44.999Z</time></trkpt><trkpt lat="40.408216790666025" lon="15.709055410402472"><ele>864.0</ele><time>2026-04-19T08:23:45.999Z</time></trkpt><trkpt lat="40.40811192988602" lon="15.70900265725986"><ele>867.0</ele><time>2026-04-19T08:23:49.999Z</time></trkpt><trkpt lat="40.408025373048666" lon="15.708918776284353"><ele>870.0</ele><time>2026-04-19T08:23:52.999Z</time></trkpt><trkpt lat="40.407944895769276" lon="15.70892008448404"><ele>873.0</ele><time>2026-04-19T08:23:54.999Z</time></trkpt><trkpt lat="40.40787027946215" lon="15.708883851502351"><ele>872.9999999999999</ele><time>2026-04-19T08:23:56.998Z</time></trkpt><trkpt lat="40.40779401430203" lon="15.708855835510494"><ele>873.0</ele><time>2026-04-19T08:23:58.998Z</time></trkpt><trkpt lat="40.40773988057975" lon="15.708809991822633"><ele>873.0</ele><time>2026-04-19T08:24:00.998Z</time></trkpt><trkpt lat="40.4077045119861" lon="15.708729490621595"><ele>873.0</ele><time>2026-04-19T08:24:07.998Z</time></trkpt><trkpt lat="40.407708766134434" lon="15.708844921540477"><ele>873.0</ele><time>2026-04-19T08:24:28.998Z</time></trkpt><trkpt lat="40.407779619264105" lon="15.708860747271181"><ele>872.9999999999999</ele><time>2026-04-19T08:25:00Z</time></trkpt><trkpt lat="40.407842271988024" lon="15.708851407240747"><ele>873.0</ele><time>2026-04-19T08:25:03Z</time></trkpt><trkpt lat="40.40792068968965" lon="15.708878063230719"><ele>873.0</ele><time>2026-04-19T08:25:08Z</time></trkpt><trkpt lat="40.407992892517434" lon="15.708884763646527"><ele>873.0</ele><time>2026-04-19T08:25:11Z</time></trkpt><trkpt lat="40.408044783804" lon="15.708939875100747"><ele>873.0</ele><time>2026-04-19T08:25:13.999Z</time></trkpt><trkpt lat="40.408107535175176" lon="15.708972009952104"><ele>873.0</ele><time>2026-04-19T08:25:16.999Z</time></trkpt><trkpt lat="40.408183431052684" lon="15.709005406862921"><ele>873.0</ele><time>2026-04-19T08:25:18.999Z</time></trkpt><trkpt lat="40.408242194287034" lon="15.709049516512538"><ele>873.0</ele><time>2026-04-19T08:25:20.999Z</time></trkpt><trkpt lat="40.40830833388328" lon="15.709140370231967"><ele>874.0</ele><time>2026-04-19T08:25:23.999Z</time></trkpt><trkpt lat="40.40837132608603" lon="15.709204779468253"><ele>875.0</ele><time>2026-04-19T08:25:26.999Z</time></trkpt><trkpt lat="40.408413681594894" lon="15.709315545712213"><ele>876.0</ele><time>2026-04-19T08:25:30.999Z</time></trkpt><trkpt lat="40.40845671685701" lon="15.709429828654923"><ele>877.0</ele><time>2026-04-19T08:25:32.999Z</time></trkpt><trkpt lat="40.40847415807236" lon="15.709533956510207"><ele>878.0</ele><time>2026-04-19T08:25:34.999Z</time></trkpt><trkpt lat="40.408490015816376" lon="15.709640631732338"><ele>879.0</ele><time>2026-04-19T08:25:36.999Z</time></trkpt><trkpt lat="40.40850416005343" lon="15.709769798673662"><ele>875.0</ele><time>2026-04-19T08:25:38.999Z</time></trkpt><trkpt lat="40.40854315421218" lon="15.709847094259427"><ele>871.0</ele><time>2026-04-19T08:25:40.999Z</time></trkpt><trkpt lat="40.40858511268396" lon="15.709947458518826"><ele>867.0</ele><time>2026-04-19T08:25:42.999Z</time></trkpt><trkpt lat="40.40862207717966" lon="15.710053000291259"><ele>863.0</ele><time>2026-04-19T08:25:44.999Z</time></trkpt><trkpt lat="40.40869894039103" lon="15.710071567748232"><ele>859.0</ele><time>2026-04-19T08:25:46.999Z</time></trkpt><trkpt lat="40.408777792175506" lon="15.710102226145834"><ele>855.0</ele><time>2026-04-19T08:25:48.999Z</time></trkpt><trkpt lat="40.40884789177398" lon="15.710115557390996"><ele>854.0</ele><time>2026-04-19T08:25:50.999Z</time></trkpt><trkpt lat="40.40891547251534" lon="15.710133380601029"><ele>853.0</ele><time>2026-04-19T08:25:52.999Z</time></trkpt><trkpt lat="40.40901951155333" lon="15.710148578027608"><ele>852.0</ele><time>2026-04-19T08:25:54.999Z</time></trkpt><trkpt lat="40.40910079904156" lon="15.710189392008198"><ele>851.0</ele><time>2026-04-19T08:25:56.999Z</time></trkpt><trkpt lat="40.409190649707114" lon="15.710201448960769"><ele>850.0</ele><time>2026-04-19T08:25:58.999Z</time></trkpt><trkpt lat="40.409279039207405" lon="15.710229822215563"><ele>849.0</ele><time>2026-04-19T08:26:00.999Z</time></trkpt><trkpt lat="40.40935699200893" lon="15.710276466050754"><ele>845.5</ele><time>2026-04-19T08:26:02.998Z</time></trkpt><trkpt lat="40.409424662138946" lon="15.710325580922571"><ele>842.0</ele><time>2026-04-19T08:26:04.998Z</time></trkpt><trkpt lat="40.40935218324449" lon="15.710349011972049"><ele>838.5</ele><time>2026-04-19T08:26:11.998Z</time></trkpt><trkpt lat="40.40924702245758" lon="15.710274588223612"><ele>835.0</ele><time>2026-04-19T08:26:13.998Z</time></trkpt><trkpt lat="40.40918656444707" lon="15.7102482454569"><ele>831.5</ele><time>2026-04-19T08:26:14.998Z</time></trkpt><trkpt lat="40.40909694706442" lon="15.710261803988546"><ele>828.0</ele><time>2026-04-19T08:26:16.998Z</time></trkpt><trkpt lat="40.40898105977737" lon="15.710257254404503"><ele>828.0</ele><time>2026-04-19T08:26:18.998Z</time></trkpt><trkpt lat="40.40888169624481" lon="15.710277643861716"><ele>828.0</ele><time>2026-04-19T08:26:20.998Z</time></trkpt><trkpt lat="40.408750164909726" lon="15.710272070843793"><ele>828.0</ele><time>2026-04-19T08:26:22.998Z</time></trkpt><trkpt lat="40.40866719717356" lon="15.71025434244279"><ele>828.0</ele><time>2026-04-19T08:26:23.998Z</time></trkpt><trkpt lat="40.408580175029215" lon="15.710210546306515"><ele>828.0</ele><time>2026-04-19T08:26:25.998Z</time></trkpt><trkpt lat="40.40848277043655" lon="15.710153952936677"><ele>832.5</ele><time>2026-04-19T08:26:27.998Z</time></trkpt><trkpt lat="40.408423486347395" lon="15.710124456701346"><ele>837.0</ele><time>2026-04-19T08:26:28.998Z</time></trkpt><trkpt lat="40.40835383571325" lon="15.710094692586159"><ele>841.5</ele><time>2026-04-19T08:26:29.998Z</time></trkpt><trkpt lat="40.40830485413723" lon="15.710005337744374"><ele>846.0</ele><time>2026-04-19T08:26:30.998Z</time></trkpt><trkpt lat="40.408204898408684" lon="15.70993227865239"><ele>850.5</ele><time>2026-04-19T08:26:32.998Z</time></trkpt><trkpt lat="40.40813158647167" lon="15.70990970527946"><ele>855.0</ele><time>2026-04-19T08:26:34.998Z</time></trkpt><trkpt lat="40.40807757115108" lon="15.70985402810433"><ele>855.0</ele><time>2026-04-19T08:26:40.998Z</time></trkpt><trkpt lat="40.40801734232618" lon="15.709801684041802"><ele>855.0</ele><time>2026-04-19T08:26:44Z</time></trkpt><trkpt lat="40.40794520063641" lon="15.709757804643175"><ele>855.0</ele><time>2026-04-19T08:27:16Z</time></trkpt><trkpt lat="40.40788795458844" lon="15.709694705651946"><ele>855.0</ele><time>2026-04-19T08:27:18Z</time></trkpt><trkpt lat="40.407813196915654" lon="15.709608951870786"><ele>855.0</ele><time>2026-04-19T08:27:19.999Z</time></trkpt><trkpt lat="40.40775796970744" lon="15.709563023679603"><ele>855.0</ele><time>2026-04-19T08:27:20.999Z</time></trkpt><trkpt lat="40.40769841064655" lon="15.709503934110042"><ele>854.0</ele><time>2026-04-19T08:27:21.999Z</time></trkpt><trkpt lat="40.40764255112977" lon="15.709424804992574"><ele>853.0</ele><time>2026-04-19T08:27:22.999Z</time></trkpt><trkpt lat="40.407585454416164" lon="15.70935116880551"><ele>852.0</ele><time>2026-04-19T08:27:23.999Z</time></trkpt><trkpt lat="40.407519790565495" lon="15.709317011192457"><ele>851.0</ele><time>2026-04-19T08:27:24.999Z</time></trkpt><trkpt lat="40.40744239750089" lon="15.70931191763582"><ele>850.0</ele><time>2026-04-19T08:27:26.999Z</time></trkpt><trkpt lat="40.407566050016875" lon="15.7093704738089"><ele>849.0</ele><time>2026-04-19T08:27:52.999Z</time></trkpt><trkpt lat="40.40763441186872" lon="15.709422235490795"><ele>849.0</ele><time>2026-04-19T08:27:54.999Z</time></trkpt><trkpt lat="40.40769583252678" lon="15.709495418500241"><ele>849.0</ele><time>2026-04-19T08:27:57.999Z</time></trkpt><trkpt lat="40.40775539901496" lon="15.709578990746278"><ele>849.0</ele><time>2026-04-19T08:28:00.999Z</time></trkpt><trkpt lat="40.40783446713231" lon="15.709630994175736"><ele>849.0</ele><time>2026-04-19T08:28:02.999Z</time></trkpt><trkpt lat="40.40788508640569" lon="15.70970022563884"><ele>849.0</ele><time>2026-04-19T08:28:05.999Z</time></trkpt><trkpt lat="40.4079503558822" lon="15.709751979623686"><ele>849.0</ele><time>2026-04-19T08:28:08.999Z</time></trkpt><trkpt lat="40.40801249829212" lon="15.709790492992184"><ele>850.0</ele><time>2026-04-19T08:28:14.998Z</time></trkpt><trkpt lat="40.40808646404254" lon="15.709839134794018"><ele>851.0</ele><time>2026-04-19T08:28:17.998Z</time></trkpt><trkpt lat="40.408157491767206" lon="15.709897136204317"><ele>852.0</ele><time>2026-04-19T08:28:20.998Z</time></trkpt><trkpt lat="40.40823146015383" lon="15.709937624022047"><ele>853.0</ele><time>2026-04-19T08:28:22.998Z</time></trkpt><trkpt lat="40.408319585944156" lon="15.710011219562851"><ele>854.0</ele><time>2026-04-19T08:28:25.998Z</time></trkpt><trkpt lat="40.408367456847586" lon="15.71006787704323"><ele>855.0</ele><time>2026-04-19T08:28:28.998Z</time></trkpt><trkpt lat="40.408423323632995" lon="15.710126588638838"><ele>855.0</ele><time>2026-04-19T08:28:31.998Z</time></trkpt><trkpt lat="40.408541864039094" lon="15.710215581175856"><ele>855.0</ele><time>2026-04-19T08:28:34.998Z</time></trkpt><trkpt lat="40.408621512419295" lon="15.710247734284549"><ele>855.0</ele><time>2026-04-19T08:28:35.998Z</time></trkpt><trkpt lat="40.40871871534937" lon="15.710318091852384"><ele>855.0</ele><time>2026-04-19T08:28:38.998Z</time></trkpt><trkpt lat="40.40881657346621" lon="15.71030553866666"><ele>855.0</ele><time>2026-04-19T08:28:42.998Z</time></trkpt><trkpt lat="40.408915026378935" lon="15.710317639997847"><ele>850.5</ele><time>2026-04-19T08:28:44.998Z</time></trkpt><trkpt lat="40.40899380154958" lon="15.7102846122047"><ele>846.0</ele><time>2026-04-19T08:28:45.998Z</time></trkpt><trkpt lat="40.409052192557155" lon="15.71032568879037"><ele>841.5</ele><time>2026-04-19T08:28:46.998Z</time></trkpt><trkpt lat="40.409150918740465" lon="15.710312883862072"><ele>837.0</ele><time>2026-04-19T08:28:48.998Z</time></trkpt><trkpt lat="40.409211224608775" lon="15.710268195967345"><ele>832.5</ele><time>2026-04-19T08:28:50Z</time></trkpt><trkpt lat="40.40932800773141" lon="15.710332589424304"><ele>828.0</ele><time>2026-04-19T08:28:52Z</time></trkpt><trkpt lat="40.409425907081015" lon="15.710360056610696"><ele>828.0</ele><time>2026-04-19T08:28:54Z</time></trkpt><trkpt lat="40.409490416193755" lon="15.710409425935609"><ele>828.0</ele><time>2026-04-19T08:28:58Z</time></trkpt><trkpt lat="40.40952632009952" lon="15.710513098264578"><ele>828.0</ele><time>2026-04-19T08:29:02Z</time></trkpt><trkpt lat="40.4093821605741" lon="15.710747480736819"><ele>828.0</ele><time>2026-04-19T08:29:06Z</time></trkpt><trkpt lat="40.40931929841827" lon="15.71082381830069"><ele>828.0</ele><time>2026-04-19T08:29:08Z</time></trkpt><trkpt lat="40.409267737370115" lon="15.710878885149844"><ele>828.0</ele><time>2026-04-19T08:29:09Z</time></trkpt><trkpt lat="40.40920558777906" lon="15.71099724647343"><ele>828.0</ele><time>2026-04-19T08:29:11Z</time></trkpt><trkpt lat="40.40913911065748" lon="15.711111757969068"><ele>828.0</ele><time>2026-04-19T08:29:13Z</time></trkpt><trkpt lat="40.40906985517539" lon="15.711207871580273"><ele>828.0</ele><time>2026-04-19T08:29:15Z</time></trkpt><trkpt lat="40.40899779288034" lon="15.71129061066364"><ele>827.1666666666666</ele><time>2026-04-19T08:29:17Z</time></trkpt><trkpt lat="40.40893461387191" lon="15.711382918867763"><ele>826.3333333333333</ele><time>2026-04-19T08:29:19Z</time></trkpt><trkpt lat="40.40891064859515" lon="15.711498929501401"><ele>825.5</ele><time>2026-04-19T08:29:21Z</time></trkpt><trkpt lat="40.40888469063675" lon="15.711581040584722"><ele>824.6666666666666</ele><time>2026-04-19T08:29:23Z</time></trkpt><trkpt lat="40.40882117133721" lon="15.711650359440355"><ele>823.8333333333333</ele><time>2026-04-19T08:29:25.999Z</time></trkpt><trkpt lat="40.4087655179117" lon="15.711713973303937"><ele>823.0</ele><time>2026-04-19T08:29:27.999Z</time></trkpt><trkpt lat="40.40871163537725" lon="15.71176511220442"><ele>821.3333333333333</ele><time>2026-04-19T08:29:29.999Z</time></trkpt><trkpt lat="40.40865875888746" lon="15.711848385883412"><ele>819.6666666666666</ele><time>2026-04-19T08:29:31.999Z</time></trkpt><trkpt lat="40.40860862244916" lon="15.71192355782967"><ele>818.0</ele><time>2026-04-19T08:29:33.999Z</time></trkpt><trkpt lat="40.40853815217037" lon="15.712008922392616"><ele>816.3333333333333</ele><time>2026-04-19T08:29:35.999Z</time></trkpt><trkpt lat="40.40847868788403" lon="15.712106766452774"><ele>814.6666666666666</ele><time>2026-04-19T08:29:37.999Z</time></trkpt><trkpt lat="40.408409728662335" lon="15.712178849086747"><ele>813.0</ele><time>2026-04-19T08:29:39.999Z</time></trkpt><trkpt lat="40.40834191755934" lon="15.71220673048228"><ele>813.0</ele><time>2026-04-19T08:29:43.999Z</time></trkpt><trkpt lat="40.40835188225126" lon="15.712116892791073"><ele>813.0</ele><time>2026-04-19T08:29:51.999Z</time></trkpt><trkpt lat="40.408387417900244" lon="15.712028310376493"><ele>813.0</ele><time>2026-04-19T08:30:09.999Z</time></trkpt><trkpt lat="40.40838282963531" lon="15.711932305480426"><ele>813.0</ele><time>2026-04-19T08:30:16.999Z</time></trkpt><trkpt lat="40.40830525037428" lon="15.711884029776884"><ele>813.0</ele><time>2026-04-19T08:30:19.998Z</time></trkpt><trkpt lat="40.40819628780333" lon="15.711860335211071"><ele>813.0</ele><time>2026-04-19T08:30:21.998Z</time></trkpt><trkpt lat="40.40813508607702" lon="15.711886302371909"><ele>813.0</ele><time>2026-04-19T08:30:22.998Z</time></trkpt><trkpt lat="40.40806909612981" lon="15.711888591025009"><ele>813.0</ele><time>2026-04-19T08:30:26.998Z</time></trkpt><trkpt lat="40.40799287582825" lon="15.711878861977961"><ele>813.0</ele><time>2026-04-19T08:30:29.998Z</time></trkpt><trkpt lat="40.40792774453252" lon="15.711890888486908"><ele>813.0</ele><time>2026-04-19T08:30:31.998Z</time></trkpt><trkpt lat="40.40786277134438" lon="15.71187406308255"><ele>813.0</ele><time>2026-04-19T08:30:32.998Z</time></trkpt><trkpt lat="40.40780336358122" lon="15.711823965337102"><ele>813.0</ele><time>2026-04-19T08:30:34.998Z</time></trkpt><trkpt lat="40.40773393967382" lon="15.711752422080359"><ele>813.0</ele><time>2026-04-19T08:30:37.998Z</time></trkpt><trkpt lat="40.407661004304536" lon="15.711727590803049"><ele>812.0</ele><time>2026-04-19T08:30:39.998Z</time></trkpt><trkpt lat="40.40761776459976" lon="15.711657843379339"><ele>811.0</ele><time>2026-04-19T08:30:41.998Z</time></trkpt><trkpt lat="40.407577763601964" lon="15.71158386416901"><ele>810.0</ele><time>2026-04-19T08:30:43.998Z</time></trkpt><trkpt lat="40.407523038863204" lon="15.711515935343312"><ele>809.0</ele><time>2026-04-19T08:30:47.998Z</time></trkpt><trkpt lat="40.40757515373934" lon="15.711596883202246"><ele>808.0</ele><time>2026-04-19T08:33:41Z</time></trkpt><trkpt lat="40.407616631221295" lon="15.711685755944977"><ele>807.0</ele><time>2026-04-19T08:33:43.999Z</time></trkpt><trkpt lat="40.40766361125395" lon="15.711753939188508"><ele>806.0</ele><time>2026-04-19T08:33:46.999Z</time></trkpt><trkpt lat="40.407733132035894" lon="15.71182528314134"><ele>808.3333333333334</ele><time>2026-04-19T08:33:49.999Z</time></trkpt><trkpt lat="40.40794744375768" lon="15.711910172762583"><ele>810.6666666666667</ele><time>2026-04-19T08:33:52.999Z</time></trkpt><trkpt lat="40.408134095946934" lon="15.711883723973424"><ele>813.0</ele><time>2026-04-19T08:33:55.999Z</time></trkpt><trkpt lat="40.40823033973692" lon="15.711870852538553"><ele>813.0</ele><time>2026-04-19T08:33:57.999Z</time></trkpt><trkpt lat="40.40831330410105" lon="15.71187868054452"><ele>813.0</ele><time>2026-04-19T08:33:59.999Z</time></trkpt><trkpt lat="40.40838543378225" lon="15.711913690071254"><ele>813.0</ele><time>2026-04-19T08:34:01.999Z</time></trkpt><trkpt lat="40.40839523444065" lon="15.711999060107075"><ele>813.0</ele><time>2026-04-19T08:34:04.999Z</time></trkpt><trkpt lat="40.408339181926614" lon="15.712119259033571"><ele>813.0</ele><time>2026-04-19T08:34:08.999Z</time></trkpt><trkpt lat="40.408321166407134" lon="15.712205768601411"><ele>813.0</ele><time>2026-04-19T08:34:09.999Z</time></trkpt><trkpt lat="40.408274086487054" lon="15.712271491558107"><ele>810.8333333333334</ele><time>2026-04-19T08:34:12.999Z</time></trkpt><trkpt lat="40.40819396352184" lon="15.712289402767693"><ele>808.6666666666667</ele><time>2026-04-19T08:34:38.998Z</time></trkpt><trkpt lat="40.408131137158406" lon="15.712318961950015"><ele>806.5</ele><time>2026-04-19T08:34:42.998Z</time></trkpt><trkpt lat="40.40806429695451" lon="15.712350812932847"><ele>804.3333333333334</ele><time>2026-04-19T08:34:45.998Z</time></trkpt><trkpt lat="40.40800500824548" lon="15.712396019706047"><ele>802.1666666666667</ele><time>2026-04-19T08:34:47.998Z</time></trkpt><trkpt lat="40.40793631043644" lon="15.712430547010444"><ele>800.0</ele><time>2026-04-19T08:34:50.998Z</time></trkpt><trkpt lat="40.40786220081468" lon="15.712493670677755"><ele>797.4</ele><time>2026-04-19T08:34:53.998Z</time></trkpt><trkpt lat="40.40778919959556" lon="15.712567860190788"><ele>794.8</ele><time>2026-04-19T08:34:57.998Z</time></trkpt><trkpt lat="40.40770764142558" lon="15.712679556562303"><ele>792.2</ele><time>2026-04-19T08:35:01.998Z</time></trkpt><trkpt lat="40.407669170348775" lon="15.712757641255376"><ele>789.6</ele><time>2026-04-19T08:35:04.998Z</time></trkpt><trkpt lat="40.40762025485257" lon="15.712840784597487"><ele>787.0</ele><time>2026-04-19T08:35:09Z</time></trkpt><trkpt lat="40.40754159497966" lon="15.712947478879219"><ele>786.3333333333333</ele><time>2026-04-19T08:35:41Z</time></trkpt><trkpt lat="40.40747875259157" lon="15.713046482794665"><ele>785.6666666666666</ele><time>2026-04-19T08:35:44Z</time></trkpt><trkpt lat="40.40743280060274" lon="15.713111998895974"><ele>785.0</ele><time>2026-04-19T08:35:45Z</time></trkpt><trkpt lat="40.40739886377133" lon="15.71318804985396"><ele>784.3333333333333</ele><time>2026-04-19T08:35:46.999Z</time></trkpt><trkpt lat="40.407362112308036" lon="15.713291054881433"><ele>783.6666666666666</ele><time>2026-04-19T08:35:48.999Z</time></trkpt><trkpt lat="40.407300038552464" lon="15.71339559330082"><ele>783.0</ele><time>2026-04-19T08:35:50.999Z</time></trkpt><trkpt lat="40.40726380397927" lon="15.713466794853902"><ele>782.0</ele><time>2026-04-19T08:35:51.999Z</time></trkpt><trkpt lat="40.40720933537131" lon="15.713577493798978"><ele>781.0</ele><time>2026-04-19T08:35:53.999Z</time></trkpt><trkpt lat="40.407175354888295" lon="15.713686294643113"><ele>780.0</ele><time>2026-04-19T08:35:55.999Z</time></trkpt><trkpt lat="40.407151350130945" lon="15.713826166528444"><ele>779.0</ele><time>2026-04-19T08:35:57.999Z</time></trkpt><trkpt lat="40.40712010853901" lon="15.713972311421323"><ele>778.0</ele><time>2026-04-19T08:35:59.999Z</time></trkpt><trkpt lat="40.407096518684426" lon="15.714111899134032"><ele>775.4999999999999</ele><time>2026-04-19T08:36:01.999Z</time></trkpt><trkpt lat="40.40708220995984" lon="15.714245380671358"><ele>773.0</ele><time>2026-04-19T08:36:03.999Z</time></trkpt><trkpt lat="40.40708264034258" lon="15.714402157807948"><ele>770.5</ele><time>2026-04-19T08:36:05.999Z</time></trkpt><trkpt lat="40.40708991270462" lon="15.714488182723741"><ele>768.0</ele><time>2026-04-19T08:36:06.999Z</time></trkpt><trkpt lat="40.40708609175604" lon="15.714574088608975"><ele>765.5</ele><time>2026-04-19T08:36:07.999Z</time></trkpt><trkpt lat="40.407101556288275" lon="15.714656117628607"><ele>763.0</ele><time>2026-04-19T08:36:08.999Z</time></trkpt><trkpt lat="40.4071817548627" lon="15.714765620052848"><ele>763.0</ele><time>2026-04-19T08:36:10.999Z</time></trkpt><trkpt lat="40.4072807384397" lon="15.71478368518539"><ele>763.0</ele><time>2026-04-19T08:36:12.999Z</time></trkpt><trkpt lat="40.40736274721504" lon="15.714803568861463"><ele>763.0</ele><time>2026-04-19T08:36:14.999Z</time></trkpt><trkpt lat="40.407322200100666" lon="15.714920159924695"><ele>763.0</ele><time>2026-04-19T08:36:16.999Z</time></trkpt><trkpt lat="40.40724993402626" lon="15.71498506589497"><ele>763.0</ele><time>2026-04-19T08:36:18.999Z</time></trkpt><trkpt lat="40.407185155200324" lon="15.715022864281044"><ele>763.0</ele><time>2026-04-19T08:36:20.999Z</time></trkpt><trkpt lat="40.407108104018626" lon="15.71507254041963"><ele>760.3333333333334</ele><time>2026-04-19T08:36:22.999Z</time></trkpt><trkpt lat="40.40703137197813" lon="15.71510864455838"><ele>757.6666666666667</ele><time>2026-04-19T08:36:24.999Z</time></trkpt><trkpt lat="40.40694849811139" lon="15.715121890041702"><ele>755.0</ele><time>2026-04-19T08:36:26.999Z</time></trkpt><trkpt lat="40.40687052246546" lon="15.7151146260156"><ele>752.3333333333334</ele><time>2026-04-19T08:36:28.999Z</time></trkpt><trkpt lat="40.40679554354672" lon="15.715150909349152"><ele>749.6666666666666</ele><time>2026-04-19T08:36:30.999Z</time></trkpt><trkpt lat="40.40678412812361" lon="15.715253678009962"><ele>747.0</ele><time>2026-04-19T08:36:32.999Z</time></trkpt><trkpt lat="40.406845763363776" lon="15.715366166872867"><ele>745.6666666666666</ele><time>2026-04-19T08:36:34.999Z</time></trkpt><trkpt lat="40.40684455832349" lon="15.71547620512754"><ele>744.3333333333334</ele><time>2026-04-19T08:36:36.999Z</time></trkpt><trkpt lat="40.40673641006764" lon="15.715525490375176"><ele>743.0</ele><time>2026-04-19T08:36:38.999Z</time></trkpt><trkpt lat="40.40666180534075" lon="15.715521421007775"><ele>741.6666666666667</ele><time>2026-04-19T08:36:39.998Z</time></trkpt><trkpt lat="40.40659344019991" lon="15.715522618989402"><ele>740.3333333333334</ele><time>2026-04-19T08:36:40.998Z</time></trkpt><trkpt lat="40.406529134463064" lon="15.71558606065276"><ele>739.0</ele><time>2026-04-19T08:36:42.998Z</time></trkpt><trkpt lat="40.406545855221914" lon="15.71572117642106"><ele>739.0</ele><time>2026-04-19T08:36:44.998Z</time></trkpt><trkpt lat="40.406563946388395" lon="15.715850105880882"><ele>739.0</ele><time>2026-04-19T08:36:46.998Z</time></trkpt><trkpt lat="40.40649950319378" lon="15.715956954173539"><ele>739.0</ele><time>2026-04-19T08:36:48.998Z</time></trkpt><trkpt lat="40.40643945485325" lon="15.716066315494228"><ele>739.0</ele><time>2026-04-19T08:36:50.998Z</time></trkpt><trkpt lat="40.406387558421365" lon="15.71612620217264"><ele>739.0</ele><time>2026-04-19T08:36:51.998Z</time></trkpt><trkpt lat="40.40632111541999" lon="15.716171309679059"><ele>736.5</ele><time>2026-04-19T08:36:52.998Z</time></trkpt><trkpt lat="40.40626155521453" lon="15.716209524579385"><ele>734.0</ele><time>2026-04-19T08:36:53.998Z</time></trkpt><trkpt lat="40.40619544899672" lon="15.71631729438895"><ele>731.5</ele><time>2026-04-19T08:36:55.998Z</time></trkpt><trkpt lat="40.40616625503403" lon="15.71639786282464"><ele>729.0</ele><time>2026-04-19T08:36:56.998Z</time></trkpt><trkpt lat="40.406135545683384" lon="15.716486422055281"><ele>726.5</ele><time>2026-04-19T08:36:57.998Z</time></trkpt><trkpt lat="40.40608302303406" lon="15.716610342675398"><ele>724.0</ele><time>2026-04-19T08:36:59.998Z</time></trkpt><trkpt lat="40.40602433067543" lon="15.716733246251174"><ele>724.0</ele><time>2026-04-19T08:37:01.998Z</time></trkpt><trkpt lat="40.40593760816728" lon="15.716846367477327"><ele>724.0</ele><time>2026-04-19T08:37:03.998Z</time></trkpt><trkpt lat="40.40588639494001" lon="15.716910423936223"><ele>724.0</ele><time>2026-04-19T08:37:04.998Z</time></trkpt><trkpt lat="40.40579143082738" lon="15.717015498677215"><ele>724.0</ele><time>2026-04-19T08:37:06.998Z</time></trkpt><trkpt lat="40.40573869942462" lon="15.717062175640628"><ele>724.0</ele><time>2026-04-19T08:37:07.998Z</time></trkpt><trkpt lat="40.40563634864391" lon="15.71710627894788"><ele>723.1666666666667</ele><time>2026-04-19T08:37:08.998Z</time></trkpt><trkpt lat="40.40558563806478" lon="15.71718612128694"><ele>722.3333333333334</ele><time>2026-04-19T08:37:09.998Z</time></trkpt><trkpt lat="40.40551281448648" lon="15.717249855005171"><ele>721.5</ele><time>2026-04-19T08:37:11.998Z</time></trkpt><trkpt lat="40.405432438292245" lon="15.7172648003695"><ele>720.6666666666666</ele><time>2026-04-19T08:37:12.998Z</time></trkpt><trkpt lat="40.40536826292006" lon="15.717288215149582"><ele>719.8333333333333</ele><time>2026-04-19T08:37:14Z</time></trkpt><trkpt lat="40.405305270795346" lon="15.717334786657792"><ele>719.0</ele><time>2026-04-19T08:37:16Z</time></trkpt><trkpt lat="40.40523410309981" lon="15.717334957648136"><ele>719.0</ele><time>2026-04-19T08:37:32Z</time></trkpt><trkpt lat="40.40517117872907" lon="15.71734712558945"><ele>719.0</ele><time>2026-04-19T08:37:35Z</time></trkpt><trkpt lat="40.40511279767193" lon="15.717411521539438"><ele>719.0</ele><time>2026-04-19T08:37:59.999Z</time></trkpt><trkpt lat="40.40503619918035" lon="15.717470006152599"><ele>719.0</ele><time>2026-04-19T08:38:03.999Z</time></trkpt><trkpt lat="40.40495491966615" lon="15.717533198982531"><ele>719.0</ele><time>2026-04-19T08:38:06.999Z</time></trkpt><trkpt lat="40.404847205432546" lon="15.71762408801284"><ele>719.0</ele><time>2026-04-19T08:38:08.999Z</time></trkpt><trkpt lat="40.40478178768295" lon="15.717667293410088"><ele>719.0</ele><time>2026-04-19T08:38:09.999Z</time></trkpt><trkpt lat="40.404728026999415" lon="15.717716210727158"><ele>719.0</ele><time>2026-04-19T08:38:10.999Z</time></trkpt><trkpt lat="40.40467930772618" lon="15.71777972574336"><ele>719.0</ele><time>2026-04-19T08:38:11.999Z</time></trkpt><trkpt lat="40.40460329739026" lon="15.71783164697685"><ele>719.0</ele><time>2026-04-19T08:38:12.999Z</time></trkpt><trkpt lat="40.404493895934436" lon="15.717901383058694"><ele>719.0</ele><time>2026-04-19T08:38:14.999Z</time></trkpt><trkpt lat="40.404413432695705" lon="15.717955555924533"><ele>718.6</ele><time>2026-04-19T08:38:16.999Z</time></trkpt><trkpt lat="40.40435803059754" lon="15.718002109562983"><ele>718.2</ele><time>2026-04-19T08:38:17.999Z</time></trkpt><trkpt lat="40.40425138277369" lon="15.718060443281198"><ele>717.8000000000001</ele><time>2026-04-19T08:38:19.999Z</time></trkpt><trkpt lat="40.404181615200194" lon="15.718114599285185"><ele>717.4000000000001</ele><time>2026-04-19T08:38:21.999Z</time></trkpt><trkpt lat="40.404109798057426" lon="15.718168266620623"><ele>717.0</ele><time>2026-04-19T08:38:23.999Z</time></trkpt><trkpt lat="40.40399228271729" lon="15.718233055089872"><ele>717.0</ele><time>2026-04-19T08:38:25.999Z</time></trkpt><trkpt lat="40.40392729144656" lon="15.718285876355115"><ele>717.0</ele><time>2026-04-19T08:38:26.999Z</time></trkpt><trkpt lat="40.40388009715634" lon="15.718395052419005"><ele>717.0</ele><time>2026-04-19T08:38:27.999Z</time></trkpt><trkpt lat="40.403784721087526" lon="15.7184752629977"><ele>717.0</ele><time>2026-04-19T08:38:28.999Z</time></trkpt><trkpt lat="40.403717426664336" lon="15.71851867539526"><ele>717.0</ele><time>2026-04-19T08:38:29.999Z</time></trkpt><trkpt lat="40.403655454869586" lon="15.718580025845194"><ele>717.0</ele><time>2026-04-19T08:38:30.999Z</time></trkpt><trkpt lat="40.40359716633868" lon="15.71863308206112"><ele>715.1666666666666</ele><time>2026-04-19T08:38:31.999Z</time></trkpt><trkpt lat="40.403541142952605" lon="15.718683979126762"><ele>713.3333333333334</ele><time>2026-04-19T08:38:32.999Z</time></trkpt><trkpt lat="40.403485245054355" lon="15.71873037163448"><ele>711.5</ele><time>2026-04-19T08:38:33.999Z</time></trkpt><trkpt lat="40.40343183373992" lon="15.71878653066415"><ele>709.6666666666667</ele><time>2026-04-19T08:38:34.999Z</time></trkpt><trkpt lat="40.40332611342265" lon="15.718875808988443"><ele>707.8333333333334</ele><time>2026-04-19T08:38:36.999Z</time></trkpt><trkpt lat="40.40321719170483" lon="15.718944173420342"><ele>706.0</ele><time>2026-04-19T08:38:38.999Z</time></trkpt><trkpt lat="40.40312171202429" lon="15.719010446208081"><ele>706.0</ele><time>2026-04-19T08:38:40.999Z</time></trkpt><trkpt lat="40.40305310692113" lon="15.719052692883087"><ele>706.0</ele><time>2026-04-19T08:38:44.998Z</time></trkpt><trkpt lat="40.40300238225699" lon="15.719114723760503"><ele>706.0</ele><time>2026-04-19T08:38:46.998Z</time></trkpt><trkpt lat="40.40294239102571" lon="15.719228626283535"><ele>706.0</ele><time>2026-04-19T08:38:48.998Z</time></trkpt><trkpt lat="40.40290407972261" lon="15.71932823608282"><ele>706.0</ele><time>2026-04-19T08:38:50.998Z</time></trkpt><trkpt lat="40.40286067420897" lon="15.719412277738027"><ele>706.0</ele><time>2026-04-19T08:38:52.998Z</time></trkpt><trkpt lat="40.40280262110855" lon="15.719478951606202"><ele>706.0</ele><time>2026-04-19T08:39:08.998Z</time></trkpt><trkpt lat="40.40287648281463" lon="15.719354985839441"><ele>706.0</ele><time>2026-04-19T08:39:29Z</time></trkpt><trkpt lat="40.402916231116315" lon="15.719242594195189"><ele>706.0</ele><time>2026-04-19T08:39:31Z</time></trkpt><trkpt lat="40.4029929325587" lon="15.719137439880168"><ele>706.0</ele><time>2026-04-19T08:39:33Z</time></trkpt><trkpt lat="40.403043565915425" lon="15.719059356690057"><ele>706.0</ele><time>2026-04-19T08:39:35Z</time></trkpt><trkpt lat="40.403080119548825" lon="15.718951402250687"><ele>706.0</ele><time>2026-04-19T08:39:37Z</time></trkpt><trkpt lat="40.40311651486775" lon="15.718874489138537"><ele>706.0</ele><time>2026-04-19T08:39:39Z</time></trkpt><trkpt lat="40.40314751928751" lon="15.718759859087383"><ele>706.0</ele><time>2026-04-19T08:39:41Z</time></trkpt><trkpt lat="40.40320840950239" lon="15.718646232023799"><ele>706.0</ele><time>2026-04-19T08:39:43Z</time></trkpt><trkpt lat="40.40326063345253" lon="15.71859644497484"><ele>706.0</ele><time>2026-04-19T08:39:46Z</time></trkpt><trkpt lat="40.403326552829604" lon="15.718518947539337"><ele>706.0</ele><time>2026-04-19T08:39:47Z</time></trkpt><trkpt lat="40.40338912399647" lon="15.718484229141936"><ele>705.8333333333334</ele><time>2026-04-19T08:39:48Z</time></trkpt><trkpt lat="40.40347593319674" lon="15.718470944650342"><ele>705.6666666666667</ele><time>2026-04-19T08:39:50Z</time></trkpt><trkpt lat="40.40355740267348" lon="15.718431014774087"><ele>705.5</ele><time>2026-04-19T08:39:52Z</time></trkpt><trkpt lat="40.40361930434142" lon="15.71835595654126"><ele>705.3333333333334</ele><time>2026-04-19T08:39:54Z</time></trkpt><trkpt lat="40.40365996958882" lon="15.71826924545583"><ele>705.1666666666666</ele><time>2026-04-19T08:39:57Z</time></trkpt><trkpt lat="40.403733130194446" lon="15.718235533585933"><ele>705.0</ele><time>2026-04-19T08:39:59.999Z</time></trkpt><trkpt lat="40.40382102039197" lon="15.718170858895938"><ele>707.4</ele><time>2026-04-19T08:40:01.999Z</time></trkpt><trkpt lat="40.403918083156675" lon="15.71811559063767"><ele>709.8</ele><time>2026-04-19T08:40:03.999Z</time></trkpt><trkpt lat="40.40397287694348" lon="15.717980203223485"><ele>712.2</ele><time>2026-04-19T08:40:06.999Z</time></trkpt><trkpt lat="40.40403544620191" lon="15.717922628185777"><ele>714.6</ele><time>2026-04-19T08:40:09.999Z</time></trkpt><trkpt lat="40.40411469784255" lon="15.71789877511769"><ele>717.0</ele><time>2026-04-19T08:40:11.999Z</time></trkpt><trkpt lat="40.404234652738104" lon="15.717845128273648"><ele>717.0</ele><time>2026-04-19T08:40:13.999Z</time></trkpt><trkpt lat="40.404290054528424" lon="15.717793093447101"><ele>717.0</ele><time>2026-04-19T08:40:14.999Z</time></trkpt><trkpt lat="40.404366042398586" lon="15.71772828660817"><ele>717.0</ele><time>2026-04-19T08:40:16.999Z</time></trkpt><trkpt lat="40.40441624189345" lon="15.717654248483653"><ele>717.0</ele><time>2026-04-19T08:40:19.999Z</time></trkpt><trkpt lat="40.40448047137601" lon="15.717611634372838"><ele>717.0</ele><time>2026-04-19T08:40:25.999Z</time></trkpt><trkpt lat="40.40449191914631" lon="15.71752525964952"><ele>717.0</ele><time>2026-04-19T08:40:28.999Z</time></trkpt><trkpt lat="40.404430623823664" lon="15.71742261424459"><ele>716.5</ele><time>2026-04-19T08:40:34.999Z</time></trkpt><trkpt lat="40.40440482269253" lon="15.717346850654133"><ele>716.0</ele><time>2026-04-19T08:40:36.999Z</time></trkpt><trkpt lat="40.404468560793724" lon="15.71740009281861"><ele>715.5</ele><time>2026-04-19T08:41:01.998Z</time></trkpt><trkpt lat="40.404514948215656" lon="15.717490614529833"><ele>715.0</ele><time>2026-04-19T08:41:03.998Z</time></trkpt><trkpt lat="40.40446353953427" lon="15.717571107577134"><ele>714.5</ele><time>2026-04-19T08:41:18.998Z</time></trkpt><trkpt lat="40.404402801215284" lon="15.717619280282118"><ele>714.0</ele><time>2026-04-19T08:41:21.998Z</time></trkpt><trkpt lat="40.40433085855697" lon="15.717662737100087"><ele>714.0</ele><time>2026-04-19T08:41:24.998Z</time></trkpt><trkpt lat="40.40423432544552" lon="15.717694375876437"><ele>714.0</ele><time>2026-04-19T08:41:27Z</time></trkpt><trkpt lat="40.40416006657031" lon="15.71773787606494"><ele>714.0</ele><time>2026-04-19T08:41:30Z</time></trkpt><trkpt lat="40.40406908819741" lon="15.717854107852993"><ele>714.0</ele><time>2026-04-19T08:41:33Z</time></trkpt><trkpt lat="40.40399991226724" lon="15.717917137118295"><ele>714.0</ele><time>2026-04-19T08:41:35Z</time></trkpt><trkpt lat="40.40396927597344" lon="15.71800592536758"><ele>714.5</ele><time>2026-04-19T08:41:37Z</time></trkpt><trkpt lat="40.40390491194885" lon="15.718085226433242"><ele>715.0</ele><time>2026-04-19T08:41:39Z</time></trkpt><trkpt lat="40.40381257239103" lon="15.718137070921921"><ele>715.5</ele><time>2026-04-19T08:41:41Z</time></trkpt><trkpt lat="40.403749308169864" lon="15.718192603587179"><ele>716.0</ele><time>2026-04-19T08:41:43Z</time></trkpt><trkpt lat="40.40368959308098" lon="15.71823052296905"><ele>716.5</ele><time>2026-04-19T08:41:45Z</time></trkpt><trkpt lat="40.40364707761195" lon="15.71829293423551"><ele>717.0</ele><time>2026-04-19T08:41:47Z</time></trkpt><trkpt lat="40.40356937008951" lon="15.718394692463324"><ele>714.8</ele><time>2026-04-19T08:41:49Z</time></trkpt><trkpt lat="40.403483185497166" lon="15.718455651101017"><ele>712.6</ele><time>2026-04-19T08:41:51Z</time></trkpt><trkpt lat="40.403412010176204" lon="15.718459926196092"><ele>710.4</ele><time>2026-04-19T08:41:52Z</time></trkpt><trkpt lat="40.40330008694392" lon="15.718527620659934"><ele>708.1999999999999</ele><time>2026-04-19T08:41:54Z</time></trkpt><trkpt lat="40.403235000980885" lon="15.718627325888372"><ele>706.0</ele><time>2026-04-19T08:41:56Z</time></trkpt><trkpt lat="40.40316953115189" lon="15.7187425527987"><ele>706.0</ele><time>2026-04-19T08:41:58Z</time></trkpt><trkpt lat="40.40311889490408" lon="15.718878491186704"><ele>706.0</ele><time>2026-04-19T08:42:00Z</time></trkpt><trkpt lat="40.40305777837882" lon="15.719019866507537"><ele>706.0</ele><time>2026-04-19T08:42:02Z</time></trkpt><trkpt lat="40.40302390240812" lon="15.719105545523014"><ele>706.0</ele><time>2026-04-19T08:42:03Z</time></trkpt><trkpt lat="40.40297758656454" lon="15.719179544644001"><ele>706.0</ele><time>2026-04-19T08:42:04Z</time></trkpt><trkpt lat="40.40289726662716" lon="15.719298655318687"><ele>702.4</ele><time>2026-04-19T08:42:05.999Z</time></trkpt><trkpt lat="40.40283403087291" lon="15.719438596767265"><ele>698.8</ele><time>2026-04-19T08:42:07.999Z</time></trkpt><trkpt lat="40.40278682314711" lon="15.719523470702198"><ele>695.1999999999999</ele><time>2026-04-19T08:42:08.999Z</time></trkpt><trkpt lat="40.40272674369184" lon="15.719618381086153"><ele>691.5999999999999</ele><time>2026-04-19T08:42:09.999Z</time></trkpt><trkpt lat="40.40267426310874" lon="15.719706383646635"><ele>688.0</ele><time>2026-04-19T08:42:10.999Z</time></trkpt><trkpt lat="40.402625134875755" lon="15.71979647886291"><ele>688.0</ele><time>2026-04-19T08:42:11.999Z</time></trkpt><trkpt lat="40.40257598151136" lon="15.719883543460288"><ele>688.0</ele><time>2026-04-19T08:42:12.999Z</time></trkpt><trkpt lat="40.4025175018633" lon="15.720013366105865"><ele>688.0</ele><time>2026-04-19T08:42:13.999Z</time></trkpt><trkpt lat="40.40246497177073" lon="15.72013381794464"><ele>688.0</ele><time>2026-04-19T08:42:14.999Z</time></trkpt><trkpt lat="40.40242594965392" lon="15.720225666407028"><ele>688.0</ele><time>2026-04-19T08:42:15.999Z</time></trkpt><trkpt lat="40.402394728601074" lon="15.72032245755308"><ele>689.0</ele><time>2026-04-19T08:42:16.999Z</time></trkpt><trkpt lat="40.402361347816054" lon="15.720424725884705"><ele>690.0</ele><time>2026-04-19T08:42:17.999Z</time></trkpt><trkpt lat="40.40232961337035" lon="15.720514170238456"><ele>691.0</ele><time>2026-04-19T08:42:18.999Z</time></trkpt><trkpt lat="40.402297110199584" lon="15.720590401149467"><ele>692.0</ele><time>2026-04-19T08:42:19.999Z</time></trkpt><trkpt lat="40.402253087115405" lon="15.720719014564146"><ele>693.0</ele><time>2026-04-19T08:42:21.999Z</time></trkpt><trkpt lat="40.40221781981207" lon="15.72080323097446"><ele>694.0</ele><time>2026-04-19T08:42:23.999Z</time></trkpt><trkpt lat="40.4021933948808" lon="15.720887322244346"><ele>694.0</ele><time>2026-04-19T08:42:26.999Z</time></trkpt><trkpt lat="40.40218714044685" lon="15.720991992017405"><ele>694.0</ele><time>2026-04-19T08:42:29.999Z</time></trkpt><trkpt lat="40.40226270068715" lon="15.721037052954571"><ele>694.0</ele><time>2026-04-19T08:42:32.999Z</time></trkpt><trkpt lat="40.40232438530046" lon="15.72101405948988"><ele>694.0</ele><time>2026-04-19T08:42:35.999Z</time></trkpt><trkpt lat="40.402301487141486" lon="15.720928769145083"><ele>694.0</ele><time>2026-04-19T08:46:09Z</time></trkpt><trkpt lat="40.402212695674685" lon="15.720957156757327"><ele>694.0</ele><time>2026-04-19T08:46:12Z</time></trkpt><trkpt lat="40.40217014787673" lon="15.720883033181035"><ele>694.0</ele><time>2026-04-19T08:46:16Z</time></trkpt><trkpt lat="40.40222423758749" lon="15.72082840204213"><ele>694.0</ele><time>2026-04-19T08:46:19.999Z</time></trkpt><trkpt lat="40.402259511281684" lon="15.720729682831383"><ele>694.0</ele><time>2026-04-19T08:46:21.999Z</time></trkpt><trkpt lat="40.402291410662535" lon="15.720644382144778"><ele>694.0</ele><time>2026-04-19T08:46:24.999Z</time></trkpt><trkpt lat="40.40232050398195" lon="15.720550578231048"><ele>694.0</ele><time>2026-04-19T08:46:27.999Z</time></trkpt><trkpt lat="40.402353704991654" lon="15.72046471443055"><ele>694.0</ele><time>2026-04-19T08:46:31.999Z</time></trkpt><trkpt lat="40.40238779322076" lon="15.720366339657797"><ele>694.0</ele><time>2026-04-19T08:46:36.999Z</time></trkpt><trkpt lat="40.402405931927305" lon="15.720286667455504"><ele>694.0</ele><time>2026-04-19T08:46:51.999Z</time></trkpt><trkpt lat="40.40243923862012" lon="15.72020721368507"><ele>694.0</ele><time>2026-04-19T08:46:55.999Z</time></trkpt><trkpt lat="40.40235957410668" lon="15.720360046711493"><ele>694.0</ele><time>2026-04-19T08:48:01Z</time></trkpt><trkpt lat="40.402328851517815" lon="15.720450858343886"><ele>694.0</ele><time>2026-04-19T08:48:02Z</time></trkpt><trkpt lat="40.402294704807304" lon="15.720536236670652"><ele>694.0</ele><time>2026-04-19T08:48:03Z</time></trkpt><trkpt lat="40.40227836578111" lon="15.720618290658845"><ele>694.0</ele><time>2026-04-19T08:48:04Z</time></trkpt><trkpt lat="40.40223192243994" lon="15.720753133363468"><ele>694.0</ele><time>2026-04-19T08:48:06Z</time></trkpt><trkpt lat="40.4021513607096" lon="15.720736633066451"><ele>694.0</ele><time>2026-04-19T08:48:09Z</time></trkpt><trkpt lat="40.40204906537449" lon="15.72067481549245"><ele>694.0</ele><time>2026-04-19T08:48:12Z</time></trkpt><trkpt lat="40.401983126687576" lon="15.720703951660896"><ele>694.0</ele><time>2026-04-19T08:50:40.999Z</time></trkpt><trkpt lat="40.40189878635915" lon="15.720677403979789"><ele>690.4000000000001</ele><time>2026-04-19T08:50:43.999Z</time></trkpt><trkpt lat="40.401811005686135" lon="15.720684146371646"><ele>686.8</ele><time>2026-04-19T08:50:46.999Z</time></trkpt><trkpt lat="40.401723908509716" lon="15.72065256043138"><ele>683.2</ele><time>2026-04-19T08:50:49.999Z</time></trkpt><trkpt lat="40.40157796292869" lon="15.720680590243365"><ele>679.5999999999999</ele><time>2026-04-19T08:51:00.999Z</time></trkpt><trkpt lat="40.401509605367146" lon="15.720691214555771"><ele>676.0</ele><time>2026-04-19T08:51:21.999Z</time></trkpt><trkpt lat="40.401436509829296" lon="15.72062318051777"><ele>676.0</ele><time>2026-04-19T08:51:24.998Z</time></trkpt><trkpt lat="40.40137611322406" lon="15.720532764387267"><ele>676.0</ele><time>2026-04-19T08:51:26.998Z</time></trkpt><trkpt lat="40.40128976757833" lon="15.720446474518374"><ele>676.0</ele><time>2026-04-19T08:51:29.998Z</time></trkpt><trkpt lat="40.401208707284965" lon="15.72035089923891"><ele>676.0</ele><time>2026-04-19T08:51:31.998Z</time></trkpt><trkpt lat="40.401152292566714" lon="15.72029947909392"><ele>676.0</ele><time>2026-04-19T08:51:33.998Z</time></trkpt><trkpt lat="40.40122070118419" lon="15.720337949777075"><ele>676.0</ele><time>2026-04-19T08:51:51.998Z</time></trkpt><trkpt lat="40.40122094189301" lon="15.72043128091312"><ele>676.0</ele><time>2026-04-19T08:52:14Z</time></trkpt><trkpt lat="40.401295097758556" lon="15.720504608294794"><ele>676.0</ele><time>2026-04-19T08:52:17Z</time></trkpt><trkpt lat="40.40136179322954" lon="15.720586053711601"><ele>676.0</ele><time>2026-04-19T08:52:19Z</time></trkpt><trkpt lat="40.40142702461377" lon="15.720636182508413"><ele>676.0</ele><time>2026-04-19T08:52:21Z</time></trkpt><trkpt lat="40.40148728355347" lon="15.720720577155397"><ele>676.0</ele><time>2026-04-19T08:52:23Z</time></trkpt><trkpt lat="40.401455354564106" lon="15.720821045778777"><ele>676.0</ele><time>2026-04-19T08:52:41.999Z</time></trkpt><trkpt lat="40.401395829215005" lon="15.720880587983624"><ele>676.0</ele><time>2026-04-19T08:52:43.999Z</time></trkpt><trkpt lat="40.40134999451282" lon="15.720958131230331"><ele>676.0</ele><time>2026-04-19T08:52:45.999Z</time></trkpt><trkpt lat="40.40131298559783" lon="15.721028749846148"><ele>676.0</ele><time>2026-04-19T08:52:49.999Z</time></trkpt><trkpt lat="40.401265601324795" lon="15.721093615988732"><ele>676.0</ele><time>2026-04-19T08:52:51.999Z</time></trkpt><trkpt lat="40.40120980341933" lon="15.721208596661837"><ele>676.0</ele><time>2026-04-19T08:53:21.999Z</time></trkpt><trkpt lat="40.401276717478225" lon="15.721130433743035"><ele>676.0</ele><time>2026-04-19T08:53:23.999Z</time></trkpt><trkpt lat="40.40134358866002" lon="15.721051579066721"><ele>676.0</ele><time>2026-04-19T08:53:26.999Z</time></trkpt><trkpt lat="40.40142271549948" lon="15.72095168158942"><ele>676.0</ele><time>2026-04-19T08:53:30.999Z</time></trkpt><trkpt lat="40.40146263308908" lon="15.720849038390247"><ele>676.0</ele><time>2026-04-19T08:53:33.998Z</time></trkpt><trkpt lat="40.4015222703888" lon="15.720810188719447"><ele>676.0</ele><time>2026-04-19T08:53:36.998Z</time></trkpt><trkpt lat="40.40156442049722" lon="15.720715808838593"><ele>676.0</ele><time>2026-04-19T08:53:39.998Z</time></trkpt><trkpt lat="40.40163721399715" lon="15.720685862973452"><ele>676.0</ele><time>2026-04-19T08:53:42.998Z</time></trkpt><trkpt lat="40.4017559843888" lon="15.720725435808612"><ele>676.0</ele><time>2026-04-19T08:53:44.998Z</time></trkpt><trkpt lat="40.40185396867977" lon="15.720713786118766"><ele>676.0</ele><time>2026-04-19T08:53:46.998Z</time></trkpt><trkpt lat="40.40196492918021" lon="15.72072068941879"><ele>676.0</ele><time>2026-04-19T08:53:48.998Z</time></trkpt><trkpt lat="40.40206944418613" lon="15.720743421829821"><ele>676.0</ele><time>2026-04-19T08:53:50.998Z</time></trkpt><trkpt lat="40.402145531739485" lon="15.720777430259988"><ele>676.0</ele><time>2026-04-19T08:53:52.998Z</time></trkpt><trkpt lat="40.40218031824159" lon="15.720854577831236"><ele>676.0</ele><time>2026-04-19T08:53:56.998Z</time></trkpt><trkpt lat="40.40213040169011" lon="15.720955228229911"><ele>676.0</ele><time>2026-04-19T08:53:59.998Z</time></trkpt><trkpt lat="40.402093015277046" lon="15.721051480285096"><ele>676.0</ele><time>2026-04-19T08:54:02Z</time></trkpt><trkpt lat="40.40206255731281" lon="15.7211451647336"><ele>676.0</ele><time>2026-04-19T08:54:04Z</time></trkpt><trkpt lat="40.4020172611993" lon="15.72122407360913"><ele>676.0</ele><time>2026-04-19T08:54:06Z</time></trkpt><trkpt lat="40.40199629182505" lon="15.721310715705043"><ele>675.8333333333334</ele><time>2026-04-19T08:54:08Z</time></trkpt><trkpt lat="40.401942733586445" lon="15.721386838391957"><ele>675.6666666666667</ele><time>2026-04-19T08:54:10Z</time></trkpt><trkpt lat="40.401915464100554" lon="15.721461861382194"><ele>675.5</ele><time>2026-04-19T08:54:12Z</time></trkpt><trkpt lat="40.40185863677807" lon="15.721532206815432"><ele>675.3333333333334</ele><time>2026-04-19T08:54:15Z</time></trkpt><trkpt lat="40.40180788090528" lon="15.721585725137146"><ele>675.1666666666666</ele><time>2026-04-19T08:54:17Z</time></trkpt><trkpt lat="40.40175111659234" lon="15.72165870468219"><ele>675.0</ele><time>2026-04-19T08:54:19Z</time></trkpt><trkpt lat="40.401693439683385" lon="15.721741993223908"><ele>675.0</ele><time>2026-04-19T08:54:21Z</time></trkpt><trkpt lat="40.401631372829364" lon="15.721823901823955"><ele>675.0</ele><time>2026-04-19T08:54:24Z</time></trkpt><trkpt lat="40.40156118640185" lon="15.721905252751146"><ele>675.0</ele><time>2026-04-19T08:54:27Z</time></trkpt><trkpt lat="40.40147049816966" lon="15.72194404495755"><ele>675.0</ele><time>2026-04-19T08:54:30Z</time></trkpt><trkpt lat="40.401415773698965" lon="15.722040042131509"><ele>675.0</ele><time>2026-04-19T08:54:32Z</time></trkpt><trkpt lat="40.4013505071317" lon="15.72209924213054"><ele>675.0</ele><time>2026-04-19T08:54:34Z</time></trkpt><trkpt lat="40.40129087968194" lon="15.7221609311434"><ele>673.5</ele><time>2026-04-19T08:54:36Z</time></trkpt><trkpt lat="40.401269266301384" lon="15.722244614382694"><ele>672.0</ele><time>2026-04-19T08:54:37.999Z</time></trkpt><trkpt lat="40.401225400026725" lon="15.722346002251285"><ele>670.5</ele><time>2026-04-19T08:54:40.999Z</time></trkpt><trkpt lat="40.401207753331775" lon="15.722431874530747"><ele>669.0</ele><time>2026-04-19T08:54:42.999Z</time></trkpt><trkpt lat="40.40117061217801" lon="15.722503920600877"><ele>667.5</ele><time>2026-04-19T08:54:44.999Z</time></trkpt><trkpt lat="40.40114555543554" lon="15.722601961807236"><ele>666.0</ele><time>2026-04-19T08:54:46.999Z</time></trkpt><trkpt lat="40.40110712706996" lon="15.72269937733276"><ele>666.0</ele><time>2026-04-19T08:54:49.999Z</time></trkpt><trkpt lat="40.40104867453013" lon="15.72276608581431"><ele>666.0</ele><time>2026-04-19T08:54:53.999Z</time></trkpt><trkpt lat="40.400996377408006" lon="15.722680313633807"><ele>666.0</ele><time>2026-04-19T08:54:57.999Z</time></trkpt><trkpt lat="40.40096922530529" lon="15.722601911493259"><ele>666.0</ele><time>2026-04-19T08:54:59.999Z</time></trkpt><trkpt lat="40.400910356948614" lon="15.722498505158601"><ele>666.0</ele><time>2026-04-19T08:55:01.999Z</time></trkpt><trkpt lat="40.40082873889042" lon="15.722415825746992"><ele>666.0</ele><time>2026-04-19T08:55:03.999Z</time></trkpt><trkpt lat="40.40075484418254" lon="15.722384498677952"><ele>666.0</ele><time>2026-04-19T08:55:05.999Z</time></trkpt><trkpt lat="40.40069365006449" lon="15.722311563550406"><ele>666.0</ele><time>2026-04-19T08:55:08.999Z</time></trkpt><trkpt lat="40.40062349406037" lon="15.722255560138095"><ele>666.0</ele><time>2026-04-19T08:55:10.999Z</time></trkpt><trkpt lat="40.400545237796436" lon="15.722163707618668"><ele>666.0</ele><time>2026-04-19T08:55:12.999Z</time></trkpt><trkpt lat="40.40046851927366" lon="15.722073409504302"><ele>666.0</ele><time>2026-04-19T08:55:14.999Z</time></trkpt><trkpt lat="40.40043802210941" lon="15.72195914025221"><ele>669.1666666666666</ele><time>2026-04-19T08:55:15.999Z</time></trkpt><trkpt lat="40.40039951962691" lon="15.72187730870638"><ele>672.3333333333334</ele><time>2026-04-19T08:55:16.999Z</time></trkpt><trkpt lat="40.400353350340254" lon="15.721764382384418"><ele>675.5</ele><time>2026-04-19T08:55:18.999Z</time></trkpt><trkpt lat="40.40031639993415" lon="15.721696664313589"><ele>678.6666666666667</ele><time>2026-04-19T08:55:19.999Z</time></trkpt><trkpt lat="40.4002762121458" lon="15.721631278964772"><ele>681.8333333333334</ele><time>2026-04-19T08:55:20.999Z</time></trkpt><trkpt lat="40.40018413265341" lon="15.721566958702661"><ele>685.0</ele><time>2026-04-19T08:55:22.999Z</time></trkpt><trkpt lat="40.40009093946418" lon="15.721546698319907"><ele>685.0</ele><time>2026-04-19T08:55:24.999Z</time></trkpt><trkpt lat="40.399964524860245" lon="15.721593165751399"><ele>685.0</ele><time>2026-04-19T08:55:26.999Z</time></trkpt><trkpt lat="40.39987291671694" lon="15.721614304685886"><ele>685.0</ele><time>2026-04-19T08:55:27.999Z</time></trkpt><trkpt lat="40.39976006808645" lon="15.721660228338777"><ele>685.0</ele><time>2026-04-19T08:55:28.999Z</time></trkpt><trkpt lat="40.399679600789085" lon="15.721700304117984"><ele>685.0</ele><time>2026-04-19T08:55:29.999Z</time></trkpt><trkpt lat="40.39960859752001" lon="15.72176169400579"><ele>687.4</ele><time>2026-04-19T08:55:30.999Z</time></trkpt><trkpt lat="40.39954380044331" lon="15.721833650820418"><ele>689.8</ele><time>2026-04-19T08:55:31.999Z</time></trkpt><trkpt lat="40.399484583720465" lon="15.721929856156043"><ele>692.2</ele><time>2026-04-19T08:55:32.999Z</time></trkpt><trkpt lat="40.399426067569344" lon="15.722003936712401"><ele>694.6</ele><time>2026-04-19T08:55:33.998Z</time></trkpt><trkpt lat="40.399373254823246" lon="15.722069467549453"><ele>697.0</ele><time>2026-04-19T08:55:34.998Z</time></trkpt><trkpt lat="40.39928330279378" lon="15.722173017327389"><ele>697.0</ele><time>2026-04-19T08:55:36.998Z</time></trkpt><trkpt lat="40.39920020583139" lon="15.72214895117869"><ele>697.0</ele><time>2026-04-19T08:55:39.998Z</time></trkpt><trkpt lat="40.39918265572013" lon="15.721979381893481"><ele>697.0</ele><time>2026-04-19T08:55:41.998Z</time></trkpt><trkpt lat="40.39918232410979" lon="15.721873706294007"><ele>697.0</ele><time>2026-04-19T08:55:42.998Z</time></trkpt><trkpt lat="40.399163445292885" lon="15.721786715521393"><ele>697.0</ele><time>2026-04-19T08:55:43.998Z</time></trkpt><trkpt lat="40.39914145915893" lon="15.72170338178435"><ele>697.0</ele><time>2026-04-19T08:55:44.998Z</time></trkpt><trkpt lat="40.399070353238315" lon="15.72163403382954"><ele>698.8333333333334</ele><time>2026-04-19T08:55:46.998Z</time></trkpt><trkpt lat="40.39898979011932" lon="15.721719920108486"><ele>700.6666666666667</ele><time>2026-04-19T08:55:48.998Z</time></trkpt><trkpt lat="40.39894094973724" lon="15.721811203450693"><ele>702.5</ele><time>2026-04-19T08:55:49.998Z</time></trkpt><trkpt lat="40.39888596127485" lon="15.721881347192863"><ele>704.3333333333334</ele><time>2026-04-19T08:55:50.998Z</time></trkpt><trkpt lat="40.39882557174323" lon="15.721932047281742"><ele>706.1666666666666</ele><time>2026-04-19T08:55:51.998Z</time></trkpt><trkpt lat="40.398758482821734" lon="15.721968314994541"><ele>708.0</ele><time>2026-04-19T08:55:52.998Z</time></trkpt><trkpt lat="40.39869223767894" lon="15.72200614128753"><ele>711.2</ele><time>2026-04-19T08:55:53.998Z</time></trkpt><trkpt lat="40.398570425189305" lon="15.722050883667833"><ele>714.4</ele><time>2026-04-19T08:55:55.998Z</time></trkpt><trkpt lat="40.398496764479965" lon="15.72206120335231"><ele>717.6</ele><time>2026-04-19T08:55:56.998Z</time></trkpt><trkpt lat="40.398406068669026" lon="15.722041040086845"><ele>720.8000000000001</ele><time>2026-04-19T08:55:58.998Z</time></trkpt><trkpt lat="40.398392977066095" lon="15.721908841321605"><ele>724.0</ele><time>2026-04-19T08:56:00.998Z</time></trkpt><trkpt lat="40.398431344301486" lon="15.721820277377816"><ele>726.3333333333334</ele><time>2026-04-19T08:56:02.998Z</time></trkpt><trkpt lat="40.39842705826679" lon="15.721729347635705"><ele>728.6666666666667</ele><time>2026-04-19T08:56:03.998Z</time></trkpt><trkpt lat="40.39846007201278" lon="15.721582922117474"><ele>731.0</ele><time>2026-04-19T08:56:05.998Z</time></trkpt><trkpt lat="40.39839034059527" lon="15.72150337086247"><ele>733.3333333333334</ele><time>2026-04-19T08:56:06.998Z</time></trkpt><trkpt lat="40.398335764950275" lon="15.721432689470625"><ele>735.6666666666666</ele><time>2026-04-19T08:56:08Z</time></trkpt><trkpt lat="40.39828321207284" lon="15.72133118691294"><ele>738.0</ele><time>2026-04-19T08:56:10Z</time></trkpt><trkpt lat="40.39828197688889" lon="15.721244059511362"><ele>738.0</ele><time>2026-04-19T08:56:11Z</time></trkpt><trkpt lat="40.39826743339749" lon="15.721151231210142"><ele>738.0</ele><time>2026-04-19T08:56:12Z</time></trkpt><trkpt lat="40.398252638999885" lon="15.721033153636009"><ele>738.0</ele><time>2026-04-19T08:56:14Z</time></trkpt><trkpt lat="40.39826145312302" lon="15.72090337809014"><ele>738.0</ele><time>2026-04-19T08:56:16Z</time></trkpt><trkpt lat="40.39828271042919" lon="15.720766839103893"><ele>738.0</ele><time>2026-04-19T08:56:18Z</time></trkpt><trkpt lat="40.398313228898985" lon="15.720642646559844"><ele>739.5</ele><time>2026-04-19T08:56:20Z</time></trkpt><trkpt lat="40.39831435382882" lon="15.720550234618493"><ele>741.0</ele><time>2026-04-19T08:56:22Z</time></trkpt><trkpt lat="40.39831771915748" lon="15.720464538500208"><ele>742.5</ele><time>2026-04-19T08:56:23Z</time></trkpt><trkpt lat="40.39832829847816" lon="15.720362195051328"><ele>744.0</ele><time>2026-04-19T08:56:24Z</time></trkpt><trkpt lat="40.398304250316635" lon="15.720262001226779"><ele>745.5</ele><time>2026-04-19T08:56:26Z</time></trkpt><trkpt lat="40.3982179972368" lon="15.720212730026619"><ele>747.0</ele><time>2026-04-19T08:56:28Z</time></trkpt><trkpt lat="40.39813560211328" lon="15.720213514601447"><ele>747.0</ele><time>2026-04-19T08:56:30Z</time></trkpt><trkpt lat="40.39805299734534" lon="15.720244577442218"><ele>747.0</ele><time>2026-04-19T08:56:32Z</time></trkpt><trkpt lat="40.39794847583883" lon="15.720206248808053"><ele>747.0</ele><time>2026-04-19T08:56:35Z</time></trkpt><trkpt lat="40.39787674918881" lon="15.720221536690891"><ele>747.0</ele><time>2026-04-19T08:56:37Z</time></trkpt><trkpt lat="40.39779757019925" lon="15.720213564644856"><ele>747.0</ele><time>2026-04-19T08:56:38Z</time></trkpt><trkpt lat="40.39770683402129" lon="15.720202297016407"><ele>747.0</ele><time>2026-04-19T08:56:40Z</time></trkpt><trkpt lat="40.397643588611515" lon="15.720212754833753"><ele>749.9999999999999</ele><time>2026-04-19T08:56:42Z</time></trkpt><trkpt lat="40.39756271369258" lon="15.720233532733523"><ele>753.0</ele><time>2026-04-19T08:56:44Z</time></trkpt><trkpt lat="40.39749246028599" lon="15.720234298493114"><ele>756.0</ele><time>2026-04-19T08:56:46Z</time></trkpt><trkpt lat="40.397415173355014" lon="15.720216384329936"><ele>759.0</ele><time>2026-04-19T08:56:48Z</time></trkpt><trkpt lat="40.3973344007018" lon="15.720187780052788"><ele>762.0</ele><time>2026-04-19T08:56:50Z</time></trkpt><trkpt lat="40.397270498344646" lon="15.720162165135108"><ele>764.9999999999999</ele><time>2026-04-19T08:56:51.999Z</time></trkpt><trkpt lat="40.3972052593918" lon="15.72017783995097"><ele>768.0</ele><time>2026-04-19T08:57:13.999Z</time></trkpt><trkpt lat="40.39727349639382" lon="15.72016447583069"><ele>769.8333333333334</ele><time>2026-04-19T08:57:16.999Z</time></trkpt><trkpt lat="40.39736673413097" lon="15.720202422373447"><ele>771.6666666666667</ele><time>2026-04-19T08:57:19.999Z</time></trkpt><trkpt lat="40.3974308362995" lon="15.720231181041829"><ele>773.5</ele><time>2026-04-19T08:57:21.999Z</time></trkpt><trkpt lat="40.39752498253709" lon="15.720230021788668"><ele>775.3333333333334</ele><time>2026-04-19T08:57:25.999Z</time></trkpt><trkpt lat="40.39763762249206" lon="15.7202041597986"><ele>777.1666666666667</ele><time>2026-04-19T08:57:28.999Z</time></trkpt><trkpt lat="40.39770267499435" lon="15.720190788076238"><ele>779.0</ele><time>2026-04-19T08:57:30.999Z</time></trkpt><trkpt lat="40.397781285440374" lon="15.720199693653903"><ele>779.0000000000001</ele><time>2026-04-19T08:57:32.999Z</time></trkpt><trkpt lat="40.39786637335385" lon="15.720203249929703"><ele>779.0</ele><time>2026-04-19T08:57:34.999Z</time></trkpt><trkpt lat="40.397977809764505" lon="15.72021785672446"><ele>779.0</ele><time>2026-04-19T08:57:36.999Z</time></trkpt><trkpt lat="40.39805174774265" lon="15.720221424057355"><ele>779.0</ele><time>2026-04-19T08:57:38.999Z</time></trkpt><trkpt lat="40.39812352813219" lon="15.720189187603356"><ele>779.0000000000001</ele><time>2026-04-19T08:57:40.999Z</time></trkpt><trkpt lat="40.39819812258083" lon="15.720207153111408"><ele>779.0</ele><time>2026-04-19T08:57:44.999Z</time></trkpt><trkpt lat="40.39820679631083" lon="15.720097548250184"><ele>772.6666666666667</ele><time>2026-04-19T08:57:47.999Z</time></trkpt><trkpt lat="40.39817117296067" lon="15.720019749736718"><ele>766.3333333333334</ele><time>2026-04-19T08:57:49.998Z</time></trkpt><trkpt lat="40.398143873869" lon="15.719638562687061"><ele>760.0</ele><time>2026-04-19T08:57:53.998Z</time></trkpt><trkpt lat="40.39810773675083" lon="15.719472157203171"><ele>762.0</ele><time>2026-04-19T08:57:55.998Z</time></trkpt><trkpt lat="40.39807086790955" lon="15.719342906193852"><ele>764.0</ele><time>2026-04-19T08:57:57.998Z</time></trkpt><trkpt lat="40.398048068021474" lon="15.719207751393018"><ele>766.0</ele><time>2026-04-19T08:57:59.998Z</time></trkpt><trkpt lat="40.398041002596095" lon="15.719066836749661"><ele>768.0</ele><time>2026-04-19T08:58:01.998Z</time></trkpt><trkpt lat="40.39803947728358" lon="15.718984131860545"><ele>770.0</ele><time>2026-04-19T08:58:02.998Z</time></trkpt><trkpt lat="40.39802565955151" lon="15.718887421010097"><ele>774.0000000000001</ele><time>2026-04-19T08:58:03.998Z</time></trkpt><trkpt lat="40.397970393352466" lon="15.718770645091872"><ele>778.0</ele><time>2026-04-19T08:58:05.998Z</time></trkpt><trkpt lat="40.397975924932446" lon="15.718647322596732"><ele>782.0</ele><time>2026-04-19T08:58:07.998Z</time></trkpt><trkpt lat="40.39800128379278" lon="15.718570513002899"><ele>786.0</ele><time>2026-04-19T08:58:09.998Z</time></trkpt><trkpt lat="40.39796959242222" lon="15.718457670451071"><ele>790.0000000000001</ele><time>2026-04-19T08:58:14Z</time></trkpt><trkpt lat="40.397952870273926" lon="15.718355073500845"><ele>794.0</ele><time>2026-04-19T08:58:16Z</time></trkpt><trkpt lat="40.397889478584375" lon="15.71824879948816"><ele>798.2</ele><time>2026-04-19T08:58:19Z</time></trkpt><trkpt lat="40.39784360058625" lon="15.718132490535416"><ele>802.4000000000001</ele><time>2026-04-19T08:58:21Z</time></trkpt><trkpt lat="40.39780816873185" lon="15.717997640892593"><ele>806.6</ele><time>2026-04-19T08:58:23Z</time></trkpt><trkpt lat="40.397770654213275" lon="15.71792620060198"><ele>810.8</ele><time>2026-04-19T08:58:24Z</time></trkpt><trkpt lat="40.397722414416464" lon="15.717817107883855"><ele>815.0</ele><time>2026-04-19T08:58:26Z</time></trkpt><trkpt lat="40.39766590595434" lon="15.717732334870908"><ele>816.8333333333334</ele><time>2026-04-19T08:58:28Z</time></trkpt><trkpt lat="40.397631751727914" lon="15.717650610315582"><ele>818.6666666666667</ele><time>2026-04-19T08:58:30Z</time></trkpt><trkpt lat="40.39762843047343" lon="15.717566402063165"><ele>820.5</ele><time>2026-04-19T08:58:31Z</time></trkpt><trkpt lat="40.397604152936914" lon="15.71743704295633"><ele>822.3333333333333</ele><time>2026-04-19T08:58:33Z</time></trkpt><trkpt lat="40.39758947051119" lon="15.717325786895119"><ele>824.1666666666666</ele><time>2026-04-19T08:58:48Z</time></trkpt><trkpt lat="40.397552879755224" lon="15.717214227530757"><ele>826.0</ele><time>2026-04-19T08:59:00.999Z</time></trkpt><trkpt lat="40.39753013386611" lon="15.717094431535445"><ele>825.9999999999999</ele><time>2026-04-19T08:59:03.999Z</time></trkpt><trkpt lat="40.39748344193061" lon="15.717021956447686"><ele>826.0</ele><time>2026-04-19T08:59:05.999Z</time></trkpt><trkpt lat="40.397408996201555" lon="15.717084459028595"><ele>826.0</ele><time>2026-04-19T09:01:09.999Z</time></trkpt><trkpt lat="40.39735776583128" lon="15.717164560857501"><ele>826.0</ele><time>2026-04-19T09:01:13.999Z</time></trkpt><trkpt lat="40.397308119712285" lon="15.717224054543744"><ele>825.9999999999999</ele><time>2026-04-19T09:01:15.999Z</time></trkpt><trkpt lat="40.397237030517516" lon="15.717317398303512"><ele>826.0</ele><time>2026-04-19T09:01:18.999Z</time></trkpt><trkpt lat="40.3971809467868" lon="15.71742103925794"><ele>832.9999999999999</ele><time>2026-04-19T09:01:22.999Z</time></trkpt><trkpt lat="40.39712086624064" lon="15.717450879204632"><ele>840.0</ele><time>2026-04-19T09:01:35.999Z</time></trkpt><trkpt lat="40.3970736953152" lon="15.71753003037714"><ele>847.0</ele><time>2026-04-19T09:01:41.999Z</time></trkpt><trkpt lat="40.39702434804871" lon="15.717601734876803"><ele>854.0</ele><time>2026-04-19T09:01:44.999Z</time></trkpt><trkpt lat="40.39699618825003" lon="15.717692118887573"><ele>860.9999999999999</ele><time>2026-04-19T09:03:30.999Z</time></trkpt><trkpt lat="40.397072437944814" lon="15.717564739796714"><ele>868.0</ele><time>2026-04-19T09:04:14.998Z</time></trkpt><trkpt lat="40.397121937297875" lon="15.71750240565795"><ele>868.0</ele><time>2026-04-19T09:04:22.998Z</time></trkpt><trkpt lat="40.397156710928826" lon="15.717408563107554"><ele>868.0</ele><time>2026-04-19T09:04:26.998Z</time></trkpt><trkpt lat="40.39720826793907" lon="15.717353197478852"><ele>868.0</ele><time>2026-04-19T09:04:32Z</time></trkpt><trkpt lat="40.39727458692854" lon="15.717277486446683"><ele>868.0</ele><time>2026-04-19T09:04:34Z</time></trkpt><trkpt lat="40.39732475463809" lon="15.717215264535728"><ele>868.0</ele><time>2026-04-19T09:04:40Z</time></trkpt><trkpt lat="40.397376016175585" lon="15.717140452889016"><ele>868.0</ele><time>2026-04-19T09:04:44Z</time></trkpt><trkpt lat="40.39742295935735" lon="15.717076573854783"><ele>868.0</ele><time>2026-04-19T09:04:47Z</time></trkpt><trkpt lat="40.39748877145369" lon="15.717098926890092"><ele>860.9999999999999</ele><time>2026-04-19T09:04:52Z</time></trkpt><trkpt lat="40.39745123806216" lon="15.717206567062847"><ele>854.0</ele><time>2026-04-19T09:04:55Z</time></trkpt><trkpt lat="40.39752232848743" lon="15.717269161622964"><ele>847.0</ele><time>2026-04-19T09:04:59Z</time></trkpt><trkpt lat="40.397551357535626" lon="15.717361939104808"><ele>840.0</ele><time>2026-04-19T09:05:05Z</time></trkpt><trkpt lat="40.39758516882789" lon="15.717456190766642"><ele>832.9999999999999</ele><time>2026-04-19T09:05:08Z</time></trkpt><trkpt lat="40.39759383106479" lon="15.717550540423458"><ele>826.0</ele><time>2026-04-19T09:05:11Z</time></trkpt><trkpt lat="40.397640760548036" lon="15.717618427503645"><ele>825.9999999999999</ele><time>2026-04-19T09:05:14.999Z</time></trkpt><trkpt lat="40.39765871522763" lon="15.717702183906175"><ele>826.0</ele><time>2026-04-19T09:05:19.999Z</time></trkpt><trkpt lat="40.39773766862597" lon="15.71775461404403"><ele>826.0</ele><time>2026-04-19T09:05:23.999Z</time></trkpt><trkpt lat="40.39772547003242" lon="15.717858914244962"><ele>826.0</ele><time>2026-04-19T09:05:27.999Z</time></trkpt><trkpt lat="40.397789258393985" lon="15.717965433406698"><ele>825.9999999999999</ele><time>2026-04-19T09:05:30.999Z</time></trkpt><trkpt lat="40.39782734054503" lon="15.718073855963489"><ele>826.0</ele><time>2026-04-19T09:05:34.999Z</time></trkpt><trkpt lat="40.397856338198594" lon="15.718173546465161"><ele>824.1666666666666</ele><time>2026-04-19T09:05:37.999Z</time></trkpt><trkpt lat="40.397900587257496" lon="15.718289818244651"><ele>822.3333333333333</ele><time>2026-04-19T09:05:40.999Z</time></trkpt><trkpt lat="40.39789703042869" lon="15.718380382079973"><ele>820.5</ele><time>2026-04-19T09:05:42.999Z</time></trkpt><trkpt lat="40.39791625209955" lon="15.718473879068684"><ele>818.6666666666667</ele><time>2026-04-19T09:05:45.999Z</time></trkpt><trkpt lat="40.39793964424789" lon="15.718603687568242"><ele>816.8333333333334</ele><time>2026-04-19T09:05:48.999Z</time></trkpt><trkpt lat="40.39795647199532" lon="15.71871422218153"><ele>815.0</ele><time>2026-04-19T09:05:50.999Z</time></trkpt><trkpt lat="40.397966581816334" lon="15.718803525619515"><ele>811.5000000000001</ele><time>2026-04-19T09:05:52.999Z</time></trkpt><trkpt lat="40.39799517398231" lon="15.718910594337993"><ele>808.0</ele><time>2026-04-19T09:05:54.999Z</time></trkpt><trkpt lat="40.39800731454224" lon="15.719031961716997"><ele>804.5</ele><time>2026-04-19T09:05:56.999Z</time></trkpt><trkpt lat="40.398012371774556" lon="15.719142325688258"><ele>801.0</ele><time>2026-04-19T09:05:58.999Z</time></trkpt><trkpt lat="40.39803498301327" lon="15.719243875234444"><ele>797.5000000000001</ele><time>2026-04-19T09:06:00.999Z</time></trkpt><trkpt lat="40.398074123788106" lon="15.719356877590998"><ele>794.0</ele><time>2026-04-19T09:06:03.999Z</time></trkpt><trkpt lat="40.39807420478671" lon="15.719448670970364"><ele>787.2</ele><time>2026-04-19T09:06:05.998Z</time></trkpt><trkpt lat="40.39809178510252" lon="15.71956264408829"><ele>780.4000000000001</ele><time>2026-04-19T09:06:07.998Z</time></trkpt><trkpt lat="40.398098586030805" lon="15.719659422922707"><ele>773.6</ele><time>2026-04-19T09:06:09.998Z</time></trkpt><trkpt lat="40.39811376753554" lon="15.719762232049776"><ele>766.8</ele><time>2026-04-19T09:06:13.998Z</time></trkpt><trkpt lat="40.39815510511184" lon="15.719867454684163"><ele>760.0</ele><time>2026-04-19T09:06:15.998Z</time></trkpt><trkpt lat="40.39814901383363" lon="15.720149343752164"><ele>760.0</ele><time>2026-04-19T09:06:18.998Z</time></trkpt><trkpt lat="40.39821613552464" lon="15.720183242366323"><ele>760.0</ele><time>2026-04-19T09:06:21.998Z</time></trkpt><trkpt lat="40.39828647605202" lon="15.720245753855291"><ele>760.0</ele><time>2026-04-19T09:06:24.998Z</time></trkpt><trkpt lat="40.39833550060057" lon="15.720355212145908"><ele>760.0</ele><time>2026-04-19T09:06:26.998Z</time></trkpt><trkpt lat="40.398315347949264" lon="15.720458157409398"><ele>760.0</ele><time>2026-04-19T09:06:28.998Z</time></trkpt><trkpt lat="40.39831433224922" lon="15.720567140596685"><ele>760.0</ele><time>2026-04-19T09:06:30.998Z</time></trkpt><trkpt lat="40.398286914038685" lon="15.72067673639074"><ele>757.4</ele><time>2026-04-19T09:06:32.998Z</time></trkpt><trkpt lat="40.39826442408693" lon="15.720774927506021"><ele>754.8</ele><time>2026-04-19T09:06:35.998Z</time></trkpt><trkpt lat="40.39826279229355" lon="15.720879867591128"><ele>752.2</ele><time>2026-04-19T09:06:38Z</time></trkpt><trkpt lat="40.398289647826346" lon="15.72100326649093"><ele>749.6</ele><time>2026-04-19T09:06:39Z</time></trkpt><trkpt lat="40.39835963335731" lon="15.721148672841995"><ele>747.0</ele><time>2026-04-19T09:06:42Z</time></trkpt><trkpt lat="40.39832655932896" lon="15.721234061713504"><ele>745.5</ele><time>2026-04-19T09:06:44Z</time></trkpt><trkpt lat="40.398332060473805" lon="15.721332972209066"><ele>744.0</ele><time>2026-04-19T09:06:46Z</time></trkpt><trkpt lat="40.398344063194074" lon="15.721417430620477"><ele>742.5</ele><time>2026-04-19T09:06:48Z</time></trkpt><trkpt lat="40.398394479943185" lon="15.721501311457155"><ele>741.0</ele><time>2026-04-19T09:06:50Z</time></trkpt><trkpt lat="40.39842936892456" lon="15.721592940352915"><ele>739.5</ele><time>2026-04-19T09:06:52Z</time></trkpt><trkpt lat="40.39844572912443" lon="15.721698282883713"><ele>738.0</ele><time>2026-04-19T09:06:54Z</time></trkpt><trkpt lat="40.39843041412894" lon="15.721809595168846"><ele>735.6666666666666</ele><time>2026-04-19T09:06:57Z</time></trkpt><trkpt lat="40.39841252755073" lon="15.721908112413944"><ele>733.3333333333334</ele><time>2026-04-19T09:06:59Z</time></trkpt><trkpt lat="40.398384863027864" lon="15.721990059447279"><ele>731.0</ele><time>2026-04-19T09:07:01Z</time></trkpt><trkpt lat="40.398465702508645" lon="15.722049299801078"><ele>728.6666666666667</ele><time>2026-04-19T09:07:04Z</time></trkpt><trkpt lat="40.398567498505436" lon="15.722056061146766"><ele>726.3333333333334</ele><time>2026-04-19T09:07:06Z</time></trkpt><trkpt lat="40.39864577635668" lon="15.722024541247215"><ele>724.0</ele><time>2026-04-19T09:07:08Z</time></trkpt><trkpt lat="40.39873119965055" lon="15.722002367788063"><ele>724.0</ele><time>2026-04-19T09:07:10Z</time></trkpt><trkpt lat="40.39878642648026" lon="15.72194898788746"><ele>724.0</ele><time>2026-04-19T09:07:12Z</time></trkpt><trkpt lat="40.39886805868989" lon="15.721904874693594"><ele>724.0</ele><time>2026-04-19T09:07:14Z</time></trkpt><trkpt lat="40.398929795031776" lon="15.721840902610275"><ele>724.0</ele><time>2026-04-19T09:07:16Z</time></trkpt><trkpt lat="40.39895965227885" lon="15.721743397261005"><ele>724.0</ele><time>2026-04-19T09:07:18Z</time></trkpt><trkpt lat="40.39904251404591" lon="15.721683291254884"><ele>724.0</ele><time>2026-04-19T09:07:20Z</time></trkpt><trkpt lat="40.39913590961301" lon="15.721705859803782"><ele>721.3333333333334</ele><time>2026-04-19T09:07:22.999Z</time></trkpt><trkpt lat="40.39916924631798" lon="15.721833908855421"><ele>718.6666666666667</ele><time>2026-04-19T09:07:25.999Z</time></trkpt><trkpt lat="40.39917521834174" lon="15.721945587907042"><ele>716.0</ele><time>2026-04-19T09:07:27.999Z</time></trkpt><trkpt lat="40.399192629541716" lon="15.722035450826588"><ele>713.3333333333334</ele><time>2026-04-19T09:07:29.999Z</time></trkpt><trkpt lat="40.39920294014455" lon="15.722126461231218"><ele>710.6666666666666</ele><time>2026-04-19T09:07:31.999Z</time></trkpt><trkpt lat="40.39924462508176" lon="15.722211355179759"><ele>708.0</ele><time>2026-04-19T09:07:33.999Z</time></trkpt><trkpt lat="40.399218905347716" lon="15.722318671759236"><ele>705.8</ele><time>2026-04-19T09:07:36.999Z</time></trkpt><trkpt lat="40.39917525853836" lon="15.722394277191684"><ele>703.5999999999999</ele><time>2026-04-19T09:07:39.999Z</time></trkpt><trkpt lat="40.39914674389857" lon="15.722489786622493"><ele>701.4000000000001</ele><time>2026-04-19T09:07:44.999Z</time></trkpt><trkpt lat="40.39909976834287" lon="15.722611220308456"><ele>699.2</ele><time>2026-04-19T09:07:46.999Z</time></trkpt><trkpt lat="40.39904702945543" lon="15.72274041031201"><ele>697.0</ele><time>2026-04-19T09:07:48.999Z</time></trkpt><trkpt lat="40.39899249441227" lon="15.722825839743928"><ele>698.8333333333334</ele><time>2026-04-19T09:07:49.999Z</time></trkpt><trkpt lat="40.398946937116705" lon="15.72288386082864"><ele>700.6666666666667</ele><time>2026-04-19T09:07:50.999Z</time></trkpt><trkpt lat="40.39889335554016" lon="15.722958631453624"><ele>702.5</ele><time>2026-04-19T09:07:51.999Z</time></trkpt><trkpt lat="40.39883251745565" lon="15.723024754446001"><ele>704.3333333333334</ele><time>2026-04-19T09:07:52.999Z</time></trkpt><trkpt lat="40.398787428497116" lon="15.723127702553322"><ele>706.1666666666666</ele><time>2026-04-19T09:07:53.999Z</time></trkpt><trkpt lat="40.398739489751016" lon="15.723206622636434"><ele>708.0</ele><time>2026-04-19T09:07:54.999Z</time></trkpt><trkpt lat="40.39869012735048" lon="15.723267644414426"><ele>708.0</ele><time>2026-04-19T09:07:55.999Z</time></trkpt><trkpt lat="40.39865032528706" lon="15.723352140572233"><ele>708.0</ele><time>2026-04-19T09:07:56.999Z</time></trkpt><trkpt lat="40.39858798684164" lon="15.723455349544622"><ele>708.0</ele><time>2026-04-19T09:07:57.999Z</time></trkpt><trkpt lat="40.39856176557574" lon="15.723541912703446"><ele>708.0</ele><time>2026-04-19T09:07:58.999Z</time></trkpt><trkpt lat="40.39855242859233" lon="15.723668360356221"><ele>708.0</ele><time>2026-04-19T09:08:00.999Z</time></trkpt><trkpt lat="40.39849856076064" lon="15.723734967464154"><ele>708.0</ele><time>2026-04-19T09:08:01.999Z</time></trkpt><trkpt lat="40.39846918963772" lon="15.723924356105918"><ele>706.0</ele><time>2026-04-19T09:08:03.999Z</time></trkpt><trkpt lat="40.39844065606674" lon="15.724034143865357"><ele>704.0</ele><time>2026-04-19T09:08:04.999Z</time></trkpt><trkpt lat="40.398406670473626" lon="15.72414268902946"><ele>702.0</ele><time>2026-04-19T09:08:05.999Z</time></trkpt><trkpt lat="40.39835319636354" lon="15.724263486703592"><ele>700.0</ele><time>2026-04-19T09:08:06.999Z</time></trkpt><trkpt lat="40.39828246429505" lon="15.7243930289236"><ele>698.0</ele><time>2026-04-19T09:08:07.999Z</time></trkpt><trkpt lat="40.39821666130168" lon="15.72448116777827"><ele>698.5</ele><time>2026-04-19T09:08:08.999Z</time></trkpt><trkpt lat="40.39815777337703" lon="15.724553631200356"><ele>699.0</ele><time>2026-04-19T09:08:09.999Z</time></trkpt><trkpt lat="40.39810861563287" lon="15.72460793200699"><ele>699.5</ele><time>2026-04-19T09:08:10.999Z</time></trkpt><trkpt lat="40.398059763600635" lon="15.72466419670586"><ele>700.0</ele><time>2026-04-19T09:08:11.999Z</time></trkpt><trkpt lat="40.39800009537566" lon="15.724718583637136"><ele>700.5</ele><time>2026-04-19T09:08:12.999Z</time></trkpt><trkpt lat="40.39794550416064" lon="15.724769284020178"><ele>701.0</ele><time>2026-04-19T09:08:13.999Z</time></trkpt><trkpt lat="40.397843322038014" lon="15.724829481154583"><ele>701.0</ele><time>2026-04-19T09:08:15.998Z</time></trkpt><trkpt lat="40.39778164707844" lon="15.724857015172896"><ele>701.0</ele><time>2026-04-19T09:08:18.998Z</time></trkpt><trkpt lat="40.39769870393007" lon="15.724817758007326"><ele>701.0</ele><time>2026-04-19T09:08:22.998Z</time></trkpt><trkpt lat="40.397638573044176" lon="15.72479271153744"><ele>701.0</ele><time>2026-04-19T09:08:24.998Z</time></trkpt><trkpt lat="40.397552835650686" lon="15.724751586875042"><ele>701.0</ele><time>2026-04-19T09:08:27.998Z</time></trkpt><trkpt lat="40.39749367523697" lon="15.724701636946929"><ele>701.0</ele><time>2026-04-19T09:08:29.998Z</time></trkpt><trkpt lat="40.397404981156456" lon="15.724623896362665"><ele>701.0</ele><time>2026-04-19T09:08:31.998Z</time></trkpt><trkpt lat="40.397342468065354" lon="15.724569479617651"><ele>701.0</ele><time>2026-04-19T09:08:44Z</time></trkpt><trkpt lat="40.39729525484157" lon="15.724439487251496"><ele>701.0</ele><time>2026-04-19T09:08:46Z</time></trkpt><trkpt lat="40.39722496396366" lon="15.724305858171334"><ele>701.0</ele><time>2026-04-19T09:08:48Z</time></trkpt><trkpt lat="40.39718627144269" lon="15.724213871533491"><ele>701.0</ele><time>2026-04-19T09:08:49Z</time></trkpt><trkpt lat="40.397125760177786" lon="15.724115178762842"><ele>704.0</ele><time>2026-04-19T09:08:50Z</time></trkpt><trkpt lat="40.39705621990099" lon="15.724031215296138"><ele>707.0</ele><time>2026-04-19T09:08:51Z</time></trkpt><trkpt lat="40.396993723998484" lon="15.723932443531524"><ele>710.0</ele><time>2026-04-19T09:08:52Z</time></trkpt><trkpt lat="40.39698981473237" lon="15.723761154787496"><ele>713.0</ele><time>2026-04-19T09:08:54Z</time></trkpt><trkpt lat="40.39697967943148" lon="15.723634211994593"><ele>716.0</ele><time>2026-04-19T09:08:56Z</time></trkpt><trkpt lat="40.396950526530986" lon="15.723552730176205"><ele>719.0</ele><time>2026-04-19T09:08:57Z</time></trkpt><trkpt lat="40.396948784916994" lon="15.72346791870106"><ele>722.0</ele><time>2026-04-19T09:08:58Z</time></trkpt><trkpt lat="40.396968532183706" lon="15.723388870868137"><ele>725.0</ele><time>2026-04-19T09:09:00Z</time></trkpt><trkpt lat="40.3970261727283" lon="15.723310148439612"><ele>728.0</ele><time>2026-04-19T09:09:02Z</time></trkpt><trkpt lat="40.39705170125869" lon="15.723223082550595"><ele>731.0</ele><time>2026-04-19T09:09:03Z</time></trkpt><trkpt lat="40.39709500732386" lon="15.723104202628258"><ele>734.0</ele><time>2026-04-19T09:09:04Z</time></trkpt><trkpt lat="40.397154690838605" lon="15.723022372400768"><ele>732.8000000000001</ele><time>2026-04-19T09:09:05Z</time></trkpt><trkpt lat="40.39720463226276" lon="15.7229484712794"><ele>731.6</ele><time>2026-04-19T09:09:06Z</time></trkpt><trkpt lat="40.39723797467336" lon="15.722819011787374"><ele>730.4</ele><time>2026-04-19T09:09:08Z</time></trkpt><trkpt lat="40.397320399301044" lon="15.722715121848868"><ele>729.2</ele><time>2026-04-19T09:09:10Z</time></trkpt><trkpt lat="40.39737676998753" lon="15.722633017401634"><ele>728.0</ele><time>2026-04-19T09:09:16Z</time></trkpt><trkpt lat="40.397379623556596" lon="15.72253513267789"><ele>730.4</ele><time>2026-04-19T09:09:37.999Z</time></trkpt><trkpt lat="40.39740504715112" lon="15.722413783667482"><ele>732.8</ele><time>2026-04-19T09:09:40.999Z</time></trkpt><trkpt lat="40.39735785833631" lon="15.72231779851372"><ele>735.2</ele><time>2026-04-19T09:09:42.999Z</time></trkpt><trkpt lat="40.39733077229807" lon="15.72220701786857"><ele>737.6</ele><time>2026-04-19T09:09:43.999Z</time></trkpt><trkpt lat="40.39731393177534" lon="15.722091996411445"><ele>740.0</ele><time>2026-04-19T09:09:45.999Z</time></trkpt><trkpt lat="40.39729285265828" lon="15.721968939108947"><ele>742.3333333333333</ele><time>2026-04-19T09:09:46.999Z</time></trkpt><trkpt lat="40.397261848451414" lon="15.721870534846083"><ele>744.6666666666666</ele><time>2026-04-19T09:09:47.999Z</time></trkpt><trkpt lat="40.39720284263681" lon="15.721780799116866"><ele>747.0</ele><time>2026-04-19T09:09:49.999Z</time></trkpt><trkpt lat="40.39713732607941" lon="15.721782716957465"><ele>749.3333333333334</ele><time>2026-04-19T09:09:53.999Z</time></trkpt><trkpt lat="40.39711260216494" lon="15.721702821679926"><ele>751.6666666666667</ele><time>2026-04-19T09:09:54.999Z</time></trkpt><trkpt lat="40.39710768915254" lon="15.72160661751224"><ele>754.0</ele><time>2026-04-19T09:11:07Z</time></trkpt><trkpt lat="40.397146332425244" lon="15.7216985142651"><ele>754.0</ele><time>2026-04-19T09:11:22Z</time></trkpt><trkpt lat="40.39721280596905" lon="15.721760805223985"><ele>754.0</ele><time>2026-04-19T09:11:24Z</time></trkpt><trkpt lat="40.39724157353672" lon="15.721841702082845"><ele>754.0</ele><time>2026-04-19T09:11:26Z</time></trkpt><trkpt lat="40.39727255341983" lon="15.721937272855131"><ele>754.0</ele><time>2026-04-19T09:11:28Z</time></trkpt><trkpt lat="40.3973066499705" lon="15.72207121122034"><ele>754.0</ele><time>2026-04-19T09:11:30.999Z</time></trkpt><trkpt lat="40.397338765285156" lon="15.72216601333017"><ele>754.0</ele><time>2026-04-19T09:11:32.999Z</time></trkpt><trkpt lat="40.39738246696759" lon="15.72223398005252"><ele>751.9999999999999</ele><time>2026-04-19T09:11:35.999Z</time></trkpt><trkpt lat="40.39739146827665" lon="15.722316743247818"><ele>750.0</ele><time>2026-04-19T09:12:05.999Z</time></trkpt><trkpt lat="40.39734276223225" lon="15.722383557429348"><ele>748.0</ele><time>2026-04-19T09:12:10.999Z</time></trkpt><trkpt lat="40.39736234381416" lon="15.722475411504481"><ele>746.0</ele><time>2026-04-19T09:12:15.999Z</time></trkpt><trkpt lat="40.39734847421169" lon="15.722588267518795"><ele>744.0</ele><time>2026-04-19T09:12:23.998Z</time></trkpt><trkpt lat="40.39731106226127" lon="15.722655164376922"><ele>741.9999999999999</ele><time>2026-04-19T09:12:25.998Z</time></trkpt><trkpt lat="40.397269043410105" lon="15.722723002011547"><ele>740.0</ele><time>2026-04-19T09:12:27.998Z</time></trkpt><trkpt lat="40.397218549693626" lon="15.722786782702533"><ele>739.0</ele><time>2026-04-19T09:12:29.998Z</time></trkpt><trkpt lat="40.39717613949419" lon="15.722867309108153"><ele>738.0</ele><time>2026-04-19T09:12:31.998Z</time></trkpt><trkpt lat="40.39710574866371" lon="15.722977143917305"><ele>737.0</ele><time>2026-04-19T09:12:32.998Z</time></trkpt><trkpt lat="40.397076796117126" lon="15.723064686466463"><ele>736.0</ele><time>2026-04-19T09:12:33.998Z</time></trkpt><trkpt lat="40.39703921119929" lon="15.723154322802603"><ele>735.0</ele><time>2026-04-19T09:12:34.998Z</time></trkpt><trkpt lat="40.39698745864709" lon="15.723221899624617"><ele>734.0</ele><time>2026-04-19T09:12:36.998Z</time></trkpt><trkpt lat="40.39695201766029" lon="15.723309744944894"><ele>734.0</ele><time>2026-04-19T09:12:38.998Z</time></trkpt><trkpt lat="40.39694967074517" lon="15.723392590008174"><ele>734.0</ele><time>2026-04-19T09:12:39.998Z</time></trkpt><trkpt lat="40.39694932264265" lon="15.723485614304474"><ele>734.0</ele><time>2026-04-19T09:12:42.998Z</time></trkpt><trkpt lat="40.39695968163054" lon="15.723592822890915"><ele>734.0</ele><time>2026-04-19T09:12:45.998Z</time></trkpt><trkpt lat="40.3969715698203" lon="15.723677675405705"><ele>734.0</ele><time>2026-04-19T09:12:52.998Z</time></trkpt><trkpt lat="40.396879492549566" lon="15.72362297010328"><ele>734.0</ele><time>2026-04-19T09:12:57Z</time></trkpt><trkpt lat="40.3966304475853" lon="15.723381707741696"><ele>734.0</ele><time>2026-04-19T09:13:00Z</time></trkpt><trkpt lat="40.39658941330072" lon="15.723288118259687"><ele>734.0</ele><time>2026-04-19T09:13:01Z</time></trkpt><trkpt lat="40.396530729212095" lon="15.723181396632624"><ele>734.0</ele><time>2026-04-19T09:13:02Z</time></trkpt><trkpt lat="40.39658849004124" lon="15.723013586752371"><ele>734.0</ele><time>2026-04-19T09:13:03Z</time></trkpt><trkpt lat="40.39656481413667" lon="15.722904895522118"><ele>734.0</ele><time>2026-04-19T09:13:04Z</time></trkpt><trkpt lat="40.39653164761593" lon="15.722762570470369"><ele>737.2</ele><time>2026-04-19T09:13:05Z</time></trkpt><trkpt lat="40.39648159140031" lon="15.722632185252637"><ele>740.4000000000001</ele><time>2026-04-19T09:13:06Z</time></trkpt><trkpt lat="40.3964267492621" lon="15.72252370284036"><ele>743.6</ele><time>2026-04-19T09:13:07Z</time></trkpt><trkpt lat="40.39640063609978" lon="15.722407496767406"><ele>746.8</ele><time>2026-04-19T09:13:08Z</time></trkpt><trkpt lat="40.3963777617772" lon="15.722290591219771"><ele>750.0</ele><time>2026-04-19T09:13:09Z</time></trkpt><trkpt lat="40.39633918851879" lon="15.722211691779641"><ele>750.0</ele><time>2026-04-19T09:13:10Z</time></trkpt><trkpt lat="40.39633687850267" lon="15.722107297866405"><ele>750.0</ele><time>2026-04-19T09:13:12Z</time></trkpt><trkpt lat="40.39629929081659" lon="15.722026919596956"><ele>750.0</ele><time>2026-04-19T09:13:14Z</time></trkpt><trkpt lat="40.39633207714426" lon="15.721898243378408"><ele>750.0</ele><time>2026-04-19T09:13:16Z</time></trkpt><trkpt lat="40.39630967173192" lon="15.721793090252213"><ele>750.0</ele><time>2026-04-19T09:13:17Z</time></trkpt><trkpt lat="40.396323464707876" lon="15.721668047030041"><ele>750.0</ele><time>2026-04-19T09:13:18Z</time></trkpt><trkpt lat="40.39625060671529" lon="15.721715437136845"><ele>756.4</ele><time>2026-04-19T09:13:19Z</time></trkpt><trkpt lat="40.39622585199408" lon="15.721573111809064"><ele>762.8</ele><time>2026-04-19T09:13:21Z</time></trkpt><trkpt lat="40.39620437813672" lon="15.72145949447568"><ele>769.2</ele><time>2026-04-19T09:13:23Z</time></trkpt><trkpt lat="40.39620737425396" lon="15.72135531693914"><ele>775.6</ele><time>2026-04-19T09:13:24Z</time></trkpt><trkpt lat="40.39624238410313" lon="15.72126237364028"><ele>782.0</ele><time>2026-04-19T09:13:38.999Z</time></trkpt><trkpt lat="40.39626430274498" lon="15.721122362025945"><ele>782.5000000000001</ele><time>2026-04-19T09:14:10.999Z</time></trkpt><trkpt lat="40.396340934758165" lon="15.721065599706977"><ele>783.0</ele><time>2026-04-19T09:14:13.999Z</time></trkpt><trkpt lat="40.3963325370194" lon="15.720953059701605"><ele>783.5</ele><time>2026-04-19T09:14:15.999Z</time></trkpt><trkpt lat="40.39631351980029" lon="15.720865915309552"><ele>784.0</ele><time>2026-04-19T09:14:17.999Z</time></trkpt><trkpt lat="40.39634351254027" lon="15.720737901709322"><ele>784.5000000000001</ele><time>2026-04-19T09:14:20.999Z</time></trkpt><trkpt lat="40.3963438099945" lon="15.720627638682783"><ele>785.0</ele><time>2026-04-19T09:14:23.999Z</time></trkpt><trkpt lat="40.396329168960655" lon="15.720539807108983"><ele>787.4285714285714</ele><time>2026-04-19T09:14:25.999Z</time></trkpt><trkpt lat="40.39630772721814" lon="15.72043542463192"><ele>789.8571428571428</ele><time>2026-04-19T09:14:28.998Z</time></trkpt><trkpt lat="40.39628293113659" lon="15.72034988397031"><ele>792.2857142857142</ele><time>2026-04-19T09:14:31.998Z</time></trkpt><trkpt lat="40.396251367751375" lon="15.720266802300873"><ele>794.7142857142858</ele><time>2026-04-19T09:14:34.998Z</time></trkpt><trkpt lat="40.39621338288044" lon="15.72018623399856"><ele>797.1428571428571</ele><time>2026-04-19T09:14:38.998Z</time></trkpt><trkpt lat="40.39617109908175" lon="15.720113581729212"><ele>799.5714285714286</ele><time>2026-04-19T09:15:18Z</time></trkpt><trkpt lat="40.39622864045055" lon="15.720173987677631"><ele>802.0</ele><time>2026-04-19T09:20:06.999Z</time></trkpt><trkpt lat="40.396283840183244" lon="15.720222126820541"><ele>802.0</ele><time>2026-04-19T09:20:12.999Z</time></trkpt><trkpt lat="40.3962545867646" lon="15.720303139601985"><ele>802.0</ele><time>2026-04-19T09:20:32.999Z</time></trkpt><trkpt lat="40.39629403230335" lon="15.720372817889258"><ele>802.0</ele><time>2026-04-19T09:20:36.999Z</time></trkpt><trkpt lat="40.3963082588561" lon="15.720470089777024"><ele>802.0</ele><time>2026-04-19T09:20:41.999Z</time></trkpt><trkpt lat="40.39634568244705" lon="15.720537712630904"><ele>802.0</ele><time>2026-04-19T09:20:44.998Z</time></trkpt><trkpt lat="40.39635263291565" lon="15.720641771128964"><ele>802.0</ele><time>2026-04-19T09:20:47.998Z</time></trkpt><trkpt lat="40.39631820435201" lon="15.720743266609551"><ele>802.0</ele><time>2026-04-19T09:20:50.998Z</time></trkpt><trkpt lat="40.39633651689927" lon="15.720867400985494"><ele>801.9999999999999</ele><time>2026-04-19T09:20:53.998Z</time></trkpt><trkpt lat="40.396355585634126" lon="15.720965838789514"><ele>802.0</ele><time>2026-04-19T09:20:56.998Z</time></trkpt><trkpt lat="40.39632712681597" lon="15.72104296442707"><ele>802.0</ele><time>2026-04-19T09:20:59.998Z</time></trkpt><trkpt lat="40.39627515703402" lon="15.72110237680887"><ele>802.0</ele><time>2026-04-19T09:21:03.998Z</time></trkpt><trkpt lat="40.39627332329803" lon="15.721195829716033"><ele>801.9999999999999</ele><time>2026-04-19T09:21:09.998Z</time></trkpt><trkpt lat="40.39622992830435" lon="15.721323066022121"><ele>802.0</ele><time>2026-04-19T09:21:12.998Z</time></trkpt><trkpt lat="40.39625247961325" lon="15.72144463458258"><ele>798.6666666666666</ele><time>2026-04-19T09:21:14.998Z</time></trkpt><trkpt lat="40.39625047590465" lon="15.721530483660041"><ele>795.3333333333333</ele><time>2026-04-19T09:21:16.998Z</time></trkpt><trkpt lat="40.39627453268075" lon="15.721652522178841"><ele>792.0</ele><time>2026-04-19T09:21:20Z</time></trkpt><trkpt lat="40.39628693338598" lon="15.721769747874987"><ele>788.6666666666667</ele><time>2026-04-19T09:21:22Z</time></trkpt><trkpt lat="40.39630682374201" lon="15.721917903553353"><ele>785.3333333333334</ele><time>2026-04-19T09:21:25Z</time></trkpt><trkpt lat="40.39629490711569" lon="15.722006074570539"><ele>782.0</ele><time>2026-04-19T09:21:26Z</time></trkpt><trkpt lat="40.3963216679118" lon="15.722169538198655"><ele>778.0000000000001</ele><time>2026-04-19T09:21:28Z</time></trkpt><trkpt lat="40.39632824458551" lon="15.722287241934104"><ele>774.0</ele><time>2026-04-19T09:21:30Z</time></trkpt><trkpt lat="40.396343143111764" lon="15.722376975005664"><ele>770.0</ele><time>2026-04-19T09:21:33Z</time></trkpt><trkpt lat="40.39636120792583" lon="15.722462503393235"><ele>766.0</ele><time>2026-04-19T09:21:35Z</time></trkpt><trkpt lat="40.39640706914955" lon="15.722601935664377"><ele>762.0</ele><time>2026-04-19T09:21:37Z</time></trkpt><trkpt lat="40.3964431817855" lon="15.722694150956938"><ele>758.0</ele><time>2026-04-19T09:21:38Z</time></trkpt><trkpt lat="40.39648008416147" lon="15.722815234879224"><ele>754.0</ele><time>2026-04-19T09:21:39Z</time></trkpt><trkpt lat="40.396494516500574" lon="15.72289593471295"><ele>750.0</ele><time>2026-04-19T09:21:40Z</time></trkpt><trkpt lat="40.39651362920087" lon="15.722980942629222"><ele>746.0</ele><time>2026-04-19T09:21:42Z</time></trkpt><trkpt lat="40.39654772722543" lon="15.72310100887451"><ele>742.0</ele><time>2026-04-19T09:21:44Z</time></trkpt><trkpt lat="40.39655590752355" lon="15.723186673144578"><ele>738.0</ele><time>2026-04-19T09:21:46Z</time></trkpt><trkpt lat="40.396580105586175" lon="15.723286385644869"><ele>734.0</ele><time>2026-04-19T09:21:48Z</time></trkpt><trkpt lat="40.39663763400823" lon="15.723368344762413"><ele>734.0</ele><time>2026-04-19T09:21:50Z</time></trkpt><trkpt lat="40.396668365071484" lon="15.723442737559946"><ele>734.0</ele><time>2026-04-19T09:21:51Z</time></trkpt><trkpt lat="40.396740658537524" lon="15.72350198750793"><ele>734.0</ele><time>2026-04-19T09:21:53Z</time></trkpt><trkpt lat="40.39680928613803" lon="15.723567149082353"><ele>734.0</ele><time>2026-04-19T09:21:54Z</time></trkpt><trkpt lat="40.39687821637864" lon="15.723639772634"><ele>734.0</ele><time>2026-04-19T09:21:56Z</time></trkpt><trkpt lat="40.39694141825495" lon="15.72372218592792"><ele>734.0</ele><time>2026-04-19T09:21:57.999Z</time></trkpt><trkpt lat="40.39695368615136" lon="15.72381384420239"><ele>731.0</ele><time>2026-04-19T09:21:59.999Z</time></trkpt><trkpt lat="40.39698562809217" lon="15.723950642318858"><ele>728.0</ele><time>2026-04-19T09:22:01.999Z</time></trkpt><trkpt lat="40.3970438299824" lon="15.72402553801717"><ele>725.0</ele><time>2026-04-19T09:22:02.999Z</time></trkpt><trkpt lat="40.39708977898118" lon="15.724083751303853"><ele>722.0</ele><time>2026-04-19T09:22:03.999Z</time></trkpt><trkpt lat="40.39713701701034" lon="15.724154914533168"><ele>719.0</ele><time>2026-04-19T09:22:04.999Z</time></trkpt><trkpt lat="40.39718714649007" lon="15.724235784393422"><ele>716.0</ele><time>2026-04-19T09:22:06.999Z</time></trkpt><trkpt lat="40.397233113547884" lon="15.724354287515869"><ele>716.0000000000001</ele><time>2026-04-19T09:22:08.999Z</time></trkpt><trkpt lat="40.3972601974623" lon="15.724431251828115"><ele>716.0</ele><time>2026-04-19T09:22:10.999Z</time></trkpt><trkpt lat="40.39721584208524" lon="15.72449274899308"><ele>716.0</ele><time>2026-04-19T09:22:14.999Z</time></trkpt><trkpt lat="40.397135591930315" lon="15.724465027391187"><ele>716.0</ele><time>2026-04-19T09:22:16.999Z</time></trkpt><trkpt lat="40.39707113013348" lon="15.724423026023862"><ele>716.0</ele><time>2026-04-19T09:22:18.999Z</time></trkpt><trkpt lat="40.39699801702899" lon="15.724409682477354"><ele>716.0000000000001</ele><time>2026-04-19T09:22:22.999Z</time></trkpt><trkpt lat="40.396934767829414" lon="15.724399660725314"><ele>716.0</ele><time>2026-04-19T09:22:24.999Z</time></trkpt><trkpt lat="40.396833846684" lon="15.724333979860319"><ele>716.0</ele><time>2026-04-19T09:22:26.999Z</time></trkpt><trkpt lat="40.39677135608083" lon="15.724272106911494"><ele>716.0</ele><time>2026-04-19T09:22:28.999Z</time></trkpt><trkpt lat="40.39668842715559" lon="15.724213445069168"><ele>716.0</ele><time>2026-04-19T09:22:30.999Z</time></trkpt><trkpt lat="40.39662940957278" lon="15.724145685198627"><ele>716.0</ele><time>2026-04-19T09:22:54.998Z</time></trkpt><trkpt lat="40.396530087085225" lon="15.724064192328026"><ele>716.0</ele><time>2026-04-19T09:22:56.998Z</time></trkpt><trkpt lat="40.39639758325622" lon="15.723995744940565"><ele>715.5999999999999</ele><time>2026-04-19T09:22:58.998Z</time></trkpt><trkpt lat="40.396278363450094" lon="15.723960990259817"><ele>715.2</ele><time>2026-04-19T09:23:00.998Z</time></trkpt><trkpt lat="40.396159115638525" lon="15.723964883999162"><ele>714.8</ele><time>2026-04-19T09:23:02.998Z</time></trkpt><trkpt lat="40.39607854580231" lon="15.723978439568556"><ele>714.4000000000001</ele><time>2026-04-19T09:23:04.998Z</time></trkpt><trkpt lat="40.3959852093847" lon="15.723974989866766"><ele>714.0</ele><time>2026-04-19T09:23:06.998Z</time></trkpt><trkpt lat="40.395881479984496" lon="15.724005812555266"><ele>714.0</ele><time>2026-04-19T09:23:08.998Z</time></trkpt><trkpt lat="40.395778553507355" lon="15.72399255685307"><ele>714.0</ele><time>2026-04-19T09:23:09.998Z</time></trkpt><trkpt lat="40.395686512339395" lon="15.723993940075497"><ele>714.0</ele><time>2026-04-19T09:23:10.998Z</time></trkpt><trkpt lat="40.39559234591018" lon="15.723957547132438"><ele>714.0</ele><time>2026-04-19T09:23:12.998Z</time></trkpt><trkpt lat="40.39550582294919" lon="15.723915457920363"><ele>714.0</ele><time>2026-04-19T09:23:14.998Z</time></trkpt><trkpt lat="40.39547322917219" lon="15.724013614212947"><ele>716.6666666666666</ele><time>2026-04-19T09:23:15.998Z</time></trkpt><trkpt lat="40.395404562192134" lon="15.724024278897868"><ele>719.3333333333334</ele><time>2026-04-19T09:23:17.998Z</time></trkpt><trkpt lat="40.39532073781999" lon="15.723980330583645"><ele>722.0</ele><time>2026-04-19T09:23:18.998Z</time></trkpt><trkpt lat="40.39525317359691" lon="15.723988486912729"><ele>724.6666666666667</ele><time>2026-04-19T09:23:19.998Z</time></trkpt><trkpt lat="40.39519656054524" lon="15.724046899607899"><ele>727.3333333333334</ele><time>2026-04-19T09:23:21.998Z</time></trkpt><trkpt lat="40.39507059897163" lon="15.724139222519655"><ele>730.0</ele><time>2026-04-19T09:23:23.998Z</time></trkpt><trkpt lat="40.39502012935524" lon="15.724237686698864"><ele>730.0</ele><time>2026-04-19T09:23:24.998Z</time></trkpt><trkpt lat="40.39496843793866" lon="15.72432702565423"><ele>730.0</ele><time>2026-04-19T09:23:26Z</time></trkpt><trkpt lat="40.39492127089846" lon="15.724401483950745"><ele>730.0</ele><time>2026-04-19T09:23:27Z</time></trkpt><trkpt lat="40.394870806557535" lon="15.724472579324598"><ele>730.0</ele><time>2026-04-19T09:23:28Z</time></trkpt><trkpt lat="40.394769919337435" lon="15.72453686485633"><ele>730.0</ele><time>2026-04-19T09:23:30Z</time></trkpt><trkpt lat="40.39469183742832" lon="15.724629464548322"><ele>734.3333333333334</ele><time>2026-04-19T09:23:33Z</time></trkpt><trkpt lat="40.39466726288176" lon="15.724714018699315"><ele>738.6666666666667</ele><time>2026-04-19T09:23:34Z</time></trkpt><trkpt lat="40.39464296269247" lon="15.724811761239442"><ele>743.0</ele><time>2026-04-19T09:23:35Z</time></trkpt><trkpt lat="40.39462999982182" lon="15.724906210740212"><ele>747.3333333333334</ele><time>2026-04-19T09:23:36Z</time></trkpt><trkpt lat="40.39458688072485" lon="15.724999021320006"><ele>751.6666666666666</ele><time>2026-04-19T09:23:38Z</time></trkpt><trkpt lat="40.394530485173846" lon="15.725059344678266"><ele>756.0</ele><time>2026-04-19T09:23:40Z</time></trkpt><trkpt lat="40.39444522821073" lon="15.725191333028151"><ele>753.5999999999999</ele><time>2026-04-19T09:23:42Z</time></trkpt><trkpt lat="40.394394312793246" lon="15.72524201053768"><ele>751.2</ele><time>2026-04-19T09:23:43Z</time></trkpt><trkpt lat="40.39432745738104" lon="15.725350142246569"><ele>748.8</ele><time>2026-04-19T09:23:44Z</time></trkpt><trkpt lat="40.394255256838676" lon="15.725471596371388"><ele>746.4000000000001</ele><time>2026-04-19T09:23:45Z</time></trkpt><trkpt lat="40.39419285264844" lon="15.725537155516456"><ele>744.0</ele><time>2026-04-19T09:23:46Z</time></trkpt><trkpt lat="40.39407436278645" lon="15.72561654371116"><ele>744.0</ele><time>2026-04-19T09:23:48Z</time></trkpt><trkpt lat="40.39401178642801" lon="15.725634453094157"><ele>744.0</ele><time>2026-04-19T09:23:49Z</time></trkpt><trkpt lat="40.39394449306823" lon="15.725646650683439"><ele>744.0</ele><time>2026-04-19T09:23:50Z</time></trkpt><trkpt lat="40.39387906553762" lon="15.725660674236297"><ele>744.0</ele><time>2026-04-19T09:23:51Z</time></trkpt><trkpt lat="40.393751450425796" lon="15.725639438932935"><ele>744.0</ele><time>2026-04-19T09:23:53Z</time></trkpt><trkpt lat="40.39369399142323" lon="15.72569114153529"><ele>744.0</ele><time>2026-04-19T09:23:54Z</time></trkpt><trkpt lat="40.393602683251174" lon="15.725693726289407"><ele>746.6</ele><time>2026-04-19T09:23:56Z</time></trkpt><trkpt lat="40.393537785900094" lon="15.72571113115701"><ele>749.2</ele><time>2026-04-19T09:23:57Z</time></trkpt><trkpt lat="40.39341376081083" lon="15.725697922393515"><ele>751.8000000000001</ele><time>2026-04-19T09:23:59Z</time></trkpt><trkpt lat="40.3933344710004" lon="15.725704815128388"><ele>754.4000000000001</ele><time>2026-04-19T09:24:00Z</time></trkpt><trkpt lat="40.39325002426016" lon="15.725701393584647"><ele>757.0</ele><time>2026-04-19T09:24:01.999Z</time></trkpt><trkpt lat="40.39312593861568" lon="15.725744801668013"><ele>757.0</ele><time>2026-04-19T09:24:04.999Z</time></trkpt><trkpt lat="40.39303842894444" lon="15.725784246396561"><ele>757.0</ele><time>2026-04-19T09:24:05.999Z</time></trkpt><trkpt lat="40.39295614973204" lon="15.72583204437498"><ele>757.0</ele><time>2026-04-19T09:24:06.999Z</time></trkpt><trkpt lat="40.392869982307325" lon="15.725870181443991"><ele>757.0</ele><time>2026-04-19T09:24:07.999Z</time></trkpt><trkpt lat="40.39280120232382" lon="15.725912270313906"><ele>757.0</ele><time>2026-04-19T09:24:08.999Z</time></trkpt><trkpt lat="40.39272820832086" lon="15.72589414589889"><ele>757.0</ele><time>2026-04-19T09:24:09.999Z</time></trkpt><trkpt lat="40.3926478689076" lon="15.72590281178681"><ele>759.8333333333334</ele><time>2026-04-19T09:24:10.999Z</time></trkpt><trkpt lat="40.39255480567381" lon="15.725912771407364"><ele>762.6666666666667</ele><time>2026-04-19T09:24:12.999Z</time></trkpt><trkpt lat="40.392489162613714" lon="15.725924016866708"><ele>765.5</ele><time>2026-04-19T09:24:13.999Z</time></trkpt><trkpt lat="40.392423487748495" lon="15.725896928890853"><ele>768.3333333333334</ele><time>2026-04-19T09:24:15.999Z</time></trkpt><trkpt lat="40.39232978410609" lon="15.725906244938237"><ele>771.1666666666666</ele><time>2026-04-19T09:24:40.999Z</time></trkpt><trkpt lat="40.39232462868906" lon="15.725820036745583"><ele>774.0</ele><time>2026-04-19T09:24:49.999Z</time></trkpt><trkpt lat="40.3923024370892" lon="15.725733983593916"><ele>774.0</ele><time>2026-04-19T09:24:51.999Z</time></trkpt><trkpt lat="40.39221685979706" lon="15.725600301446587"><ele>774.0</ele><time>2026-04-19T09:24:53.999Z</time></trkpt><trkpt lat="40.39215341214322" lon="15.725561975833907"><ele>774.0</ele><time>2026-04-19T09:24:55.999Z</time></trkpt><trkpt lat="40.39209972978038" lon="15.725496828761603"><ele>774.0</ele><time>2026-04-19T09:24:57.998Z</time></trkpt><trkpt lat="40.392059134697284" lon="15.725412788636925"><ele>774.0</ele><time>2026-04-19T09:25:00.998Z</time></trkpt><trkpt lat="40.391989020947776" lon="15.725375377524268"><ele>774.0</ele><time>2026-04-19T09:25:02.998Z</time></trkpt><trkpt lat="40.39187589724476" lon="15.725366231136196"><ele>773.1666666666666</ele><time>2026-04-19T09:25:04.998Z</time></trkpt><trkpt lat="40.391810902788805" lon="15.725353442809737"><ele>772.3333333333333</ele><time>2026-04-19T09:25:05.998Z</time></trkpt><trkpt lat="40.39172562990612" lon="15.72532673407046"><ele>771.5</ele><time>2026-04-19T09:25:07.998Z</time></trkpt><trkpt lat="40.39163690343099" lon="15.725289559477917"><ele>770.6666666666666</ele><time>2026-04-19T09:25:09.998Z</time></trkpt><trkpt lat="40.391526639892504" lon="15.72524342672733"><ele>769.8333333333333</ele><time>2026-04-19T09:25:11.998Z</time></trkpt><trkpt lat="40.39146194426777" lon="15.725227219083994"><ele>769.0</ele><time>2026-04-19T09:25:12.998Z</time></trkpt><trkpt lat="40.39139340619521" lon="15.72521382441707"><ele>771.4000000000001</ele><time>2026-04-19T09:25:13.998Z</time></trkpt><trkpt lat="40.39129968655673" lon="15.72518313381085"><ele>773.8</ele><time>2026-04-19T09:25:15.998Z</time></trkpt><trkpt lat="40.39122974638777" lon="15.725180763707657"><ele>776.2</ele><time>2026-04-19T09:25:17.998Z</time></trkpt><trkpt lat="40.3911181767754" lon="15.725174084559631"><ele>778.5999999999999</ele><time>2026-04-19T09:25:20.998Z</time></trkpt><trkpt lat="40.39101277797479" lon="15.725155372201092"><ele>781.0</ele><time>2026-04-19T09:25:22.998Z</time></trkpt><trkpt lat="40.390934338085344" lon="15.725152417470293"><ele>781.0</ele><time>2026-04-19T09:25:25.998Z</time></trkpt><trkpt lat="40.39086882823578" lon="15.725134225240426"><ele>781.0</ele><time>2026-04-19T09:25:27.998Z</time></trkpt><trkpt lat="40.390803322787264" lon="15.725096373382314"><ele>781.0</ele><time>2026-04-19T09:25:29.998Z</time></trkpt><trkpt lat="40.39072719089526" lon="15.725091709754556"><ele>781.0</ele><time>2026-04-19T09:25:32Z</time></trkpt><trkpt lat="40.39060646129024" lon="15.725075834331573"><ele>781.0</ele><time>2026-04-19T09:25:34Z</time></trkpt><trkpt lat="40.390427568093514" lon="15.725085046165447"><ele>781.0</ele><time>2026-04-19T09:25:36Z</time></trkpt><trkpt lat="40.39033345431107" lon="15.725096576692714"><ele>781.0</ele><time>2026-04-19T09:25:38Z</time></trkpt><trkpt lat="40.39029830617749" lon="15.725013352765556"><ele>781.0</ele><time>2026-04-19T09:25:40Z</time></trkpt><trkpt lat="40.390383156781326" lon="15.724983839795605"><ele>781.0</ele><time>2026-04-19T09:25:45Z</time></trkpt><trkpt lat="40.390476039296445" lon="15.725041838904001"><ele>781.0</ele><time>2026-04-19T09:25:47Z</time></trkpt><trkpt lat="40.39058013921821" lon="15.725047569310796"><ele>780.9999999999999</ele><time>2026-04-19T09:25:49Z</time></trkpt><trkpt lat="40.39062872787151" lon="15.724979509827456"><ele>781.0</ele><time>2026-04-19T09:25:51Z</time></trkpt><trkpt lat="40.39070877675156" lon="15.724974039612922"><ele>781.0</ele><time>2026-04-19T09:25:53Z</time></trkpt><trkpt lat="40.3907313953435" lon="15.725059828754194"><ele>781.0</ele><time>2026-04-19T09:25:55Z</time></trkpt><trkpt lat="40.39080537179913" lon="15.72508570834918"><ele>780.9999999999999</ele><time>2026-04-19T09:25:57Z</time></trkpt><trkpt lat="40.39087859972376" lon="15.725115506684665"><ele>781.0</ele><time>2026-04-19T09:26:02Z</time></trkpt><trkpt lat="40.3909701667313" lon="15.725127873637739"><ele>781.0</ele><time>2026-04-19T09:26:04Z</time></trkpt><trkpt lat="40.391063953324846" lon="15.725145333231458"><ele>781.0</ele><time>2026-04-19T09:26:06Z</time></trkpt><trkpt lat="40.39115848545579" lon="15.725171922964167"><ele>781.0</ele><time>2026-04-19T09:26:08Z</time></trkpt><trkpt lat="40.391234814657615" lon="15.725179289506972"><ele>781.0</ele><time>2026-04-19T09:26:09Z</time></trkpt><trkpt lat="40.39131151945179" lon="15.725183542665778"><ele>781.0</ele><time>2026-04-19T09:26:09.999Z</time></trkpt><trkpt lat="40.391448348311656" lon="15.725228509793359"><ele>778.5999999999999</ele><time>2026-04-19T09:26:11.999Z</time></trkpt><trkpt lat="40.391556947344164" lon="15.725274381498368"><ele>776.2</ele><time>2026-04-19T09:26:13.999Z</time></trkpt><trkpt lat="40.39166494833401" lon="15.72529644089698"><ele>773.8</ele><time>2026-04-19T09:26:15.999Z</time></trkpt><trkpt lat="40.39172741009252" lon="15.72531047784004"><ele>771.4000000000001</ele><time>2026-04-19T09:26:16.999Z</time></trkpt><trkpt lat="40.39180321396993" lon="15.725326929934067"><ele>769.0</ele><time>2026-04-19T09:26:17.999Z</time></trkpt><trkpt lat="40.391892934018536" lon="15.725326835281757"><ele>768.9999999999999</ele><time>2026-04-19T09:26:18.999Z</time></trkpt><trkpt lat="40.391963501405634" lon="15.725332881133431"><ele>769.0</ele><time>2026-04-19T09:26:19.999Z</time></trkpt><trkpt lat="40.392043565951255" lon="15.725372186032226"><ele>769.0</ele><time>2026-04-19T09:26:21.999Z</time></trkpt><trkpt lat="40.392092896479994" lon="15.725445824910201"><ele>769.0</ele><time>2026-04-19T09:26:23.999Z</time></trkpt><trkpt lat="40.39211960673193" lon="15.72552626687253"><ele>768.9999999999999</ele><time>2026-04-19T09:26:25.999Z</time></trkpt><trkpt lat="40.39218615344851" lon="15.72561554045168"><ele>769.0</ele><time>2026-04-19T09:26:27.999Z</time></trkpt><trkpt lat="40.392267953963724" lon="15.72568894316633"><ele>769.0</ele><time>2026-04-19T09:26:29.999Z</time></trkpt><trkpt lat="40.392260754468786" lon="15.725784141100833"><ele>769.0</ele><time>2026-04-19T09:26:31.999Z</time></trkpt><trkpt lat="40.39225158314413" lon="15.725880220692863"><ele>769.0</ele><time>2026-04-19T09:26:33.999Z</time></trkpt><trkpt lat="40.392227360335845" lon="15.72606994599615"><ele>769.0</ele><time>2026-04-19T09:26:35.999Z</time></trkpt><trkpt lat="40.392206453856936" lon="15.726196933227538"><ele>769.0</ele><time>2026-04-19T09:26:36.999Z</time></trkpt><trkpt lat="40.39214961980367" lon="15.726290172650616"><ele>767.8000000000001</ele><time>2026-04-19T09:26:37.999Z</time></trkpt><trkpt lat="40.392107966691654" lon="15.726365756679245"><ele>766.6</ele><time>2026-04-19T09:26:38.999Z</time></trkpt><trkpt lat="40.392047262189955" lon="15.726492388672037"><ele>765.4</ele><time>2026-04-19T09:26:40.999Z</time></trkpt><trkpt lat="40.39199030205732" lon="15.726598846137014"><ele>764.2</ele><time>2026-04-19T09:26:42.999Z</time></trkpt><trkpt lat="40.39194910840479" lon="15.726715579392991"><ele>763.0</ele><time>2026-04-19T09:26:44.999Z</time></trkpt><trkpt lat="40.39196165453913" lon="15.726838622069117"><ele>762.3333333333334</ele><time>2026-04-19T09:26:46.999Z</time></trkpt><trkpt lat="40.391933879293134" lon="15.726961913787937"><ele>761.6666666666667</ele><time>2026-04-19T09:26:48.999Z</time></trkpt><trkpt lat="40.391890264435766" lon="15.727022409042954"><ele>761.0</ele><time>2026-04-19T09:26:52.999Z</time></trkpt><trkpt lat="40.39195696637119" lon="15.727104515048456"><ele>760.3333333333334</ele><time>2026-04-19T09:28:44.999Z</time></trkpt><trkpt lat="40.39197046841259" lon="15.727191100476945"><ele>759.6666666666666</ele><time>2026-04-19T09:28:46.999Z</time></trkpt><trkpt lat="40.39196965425834" lon="15.727279449091604"><ele>759.0</ele><time>2026-04-19T09:28:49.999Z</time></trkpt><trkpt lat="40.391940780159025" lon="15.727381030268488"><ele>759.0</ele><time>2026-04-19T09:28:52.999Z</time></trkpt><trkpt lat="40.39194770767192" lon="15.727467843982351"><ele>759.0</ele><time>2026-04-19T09:28:55.999Z</time></trkpt><trkpt lat="40.39201665754834" lon="15.72753834592639"><ele>759.0</ele><time>2026-04-19T09:29:06.999Z</time></trkpt><trkpt lat="40.39208501008888" lon="15.727534889385499"><ele>759.0</ele><time>2026-04-19T09:29:08.998Z</time></trkpt><trkpt lat="40.39215597274687" lon="15.72754718902214"><ele>759.0</ele><time>2026-04-19T09:29:10.998Z</time></trkpt><trkpt lat="40.39223658997368" lon="15.727558548567535"><ele>759.0</ele><time>2026-04-19T09:29:13.998Z</time></trkpt><trkpt lat="40.39232205987854" lon="15.727598368126236"><ele>761.0</ele><time>2026-04-19T09:29:16.998Z</time></trkpt><trkpt lat="40.39239939185907" lon="15.727636792521695"><ele>763.0</ele><time>2026-04-19T09:29:20.998Z</time></trkpt><trkpt lat="40.39244532629006" lon="15.7277229437645"><ele>765.0</ele><time>2026-04-19T09:29:35.998Z</time></trkpt><trkpt lat="40.39242640983779" lon="15.727639969645113"><ele>767.0</ele><time>2026-04-19T09:29:45Z</time></trkpt><trkpt lat="40.392344246374236" lon="15.727604741899015"><ele>769.0</ele><time>2026-04-19T09:29:49Z</time></trkpt><trkpt lat="40.39228438778174" lon="15.727563928901118"><ele>771.0</ele><time>2026-04-19T09:29:52Z</time></trkpt><trkpt lat="40.39219815894512" lon="15.727569224590187"><ele>769.0</ele><time>2026-04-19T09:29:54Z</time></trkpt><trkpt lat="40.392098120944176" lon="15.72755609736689"><ele>767.0</ele><time>2026-04-19T09:29:56Z</time></trkpt><trkpt lat="40.39197449147256" lon="15.72752710219717"><ele>765.0</ele><time>2026-04-19T09:29:58Z</time></trkpt><trkpt lat="40.39190164723346" lon="15.72752390927241"><ele>763.0</ele><time>2026-04-19T09:30:09Z</time></trkpt><trkpt lat="40.39183072018391" lon="15.727523376481088"><ele>761.0</ele><time>2026-04-19T09:30:12Z</time></trkpt><trkpt lat="40.391765398553595" lon="15.72750466203829"><ele>759.0</ele><time>2026-04-19T09:30:15Z</time></trkpt><trkpt lat="40.39169369944358" lon="15.727425265566334"><ele>759.0</ele><time>2026-04-19T09:30:18Z</time></trkpt><trkpt lat="40.39163345520304" lon="15.7273623090025"><ele>759.0</ele><time>2026-04-19T09:30:21Z</time></trkpt><trkpt lat="40.39158707027711" lon="15.727299768919387"><ele>759.0</ele><time>2026-04-19T09:30:22.999Z</time></trkpt><trkpt lat="40.3915227418453" lon="15.727244081543876"><ele>759.0</ele><time>2026-04-19T09:30:24.999Z</time></trkpt><trkpt lat="40.39148998494941" lon="15.727169887316892"><ele>759.0</ele><time>2026-04-19T09:30:26.999Z</time></trkpt><trkpt lat="40.391429749778304" lon="15.727083644122839"><ele>759.0</ele><time>2026-04-19T09:30:30.999Z</time></trkpt><trkpt lat="40.39135040057997" lon="15.726992792208227"><ele>759.6666666666666</ele><time>2026-04-19T09:30:33.999Z</time></trkpt><trkpt lat="40.39132449732547" lon="15.726858343606589"><ele>760.3333333333334</ele><time>2026-04-19T09:30:36.999Z</time></trkpt><trkpt lat="40.391321402395576" lon="15.726769504320467"><ele>761.0</ele><time>2026-04-19T09:30:38.999Z</time></trkpt><trkpt lat="40.39134622415775" lon="15.726685281661155"><ele>761.6666666666667</ele><time>2026-04-19T09:30:40.999Z</time></trkpt><trkpt lat="40.39136840041962" lon="15.726584184646812"><ele>762.3333333333334</ele><time>2026-04-19T09:30:43.999Z</time></trkpt><trkpt lat="40.39137574224612" lon="15.726482731762124"><ele>763.0</ele><time>2026-04-19T09:30:45.999Z</time></trkpt><trkpt lat="40.391283509835745" lon="15.726373979096099"><ele>759.3333333333334</ele><time>2026-04-19T09:30:49.999Z</time></trkpt><trkpt lat="40.39120216539062" lon="15.726304421845818"><ele>755.6666666666667</ele><time>2026-04-19T09:30:53.999Z</time></trkpt><trkpt lat="40.391129261443105" lon="15.726290013724714"><ele>752.0</ele><time>2026-04-19T09:30:54.999Z</time></trkpt><trkpt lat="40.391051094226405" lon="15.726292260285602"><ele>748.3333333333334</ele><time>2026-04-19T09:30:56.999Z</time></trkpt><trkpt lat="40.39098810616101" lon="15.726259552635067"><ele>744.6666666666666</ele><time>2026-04-19T09:30:59.999Z</time></trkpt><trkpt lat="40.39089672218058" lon="15.7261979399176"><ele>741.0</ele><time>2026-04-19T09:31:01.999Z</time></trkpt><trkpt lat="40.390821110986465" lon="15.726135936875524"><ele>741.0</ele><time>2026-04-19T09:31:03.999Z</time></trkpt><trkpt lat="40.390766134959414" lon="15.726093457896834"><ele>741.0</ele><time>2026-04-19T09:31:04.999Z</time></trkpt><trkpt lat="40.39069239794613" lon="15.726075070638316"><ele>741.0</ele><time>2026-04-19T09:31:06.999Z</time></trkpt><trkpt lat="40.39060696325136" lon="15.72609695316113"><ele>741.0</ele><time>2026-04-19T09:31:08.999Z</time></trkpt><trkpt lat="40.39054821222494" lon="15.726043888340268"><ele>741.0</ele><time>2026-04-19T09:31:10.999Z</time></trkpt><trkpt lat="40.3904794538842" lon="15.726014436966148"><ele>741.0</ele><time>2026-04-19T09:31:12.999Z</time></trkpt><trkpt lat="40.390371937068515" lon="15.726025664171463"><ele>740.4285714285714</ele><time>2026-04-19T09:31:14.999Z</time></trkpt><trkpt lat="40.390309055078305" lon="15.726020013486737"><ele>739.8571428571429</ele><time>2026-04-19T09:31:15.999Z</time></trkpt><trkpt lat="40.390215299023886" lon="15.72602197653024"><ele>739.2857142857143</ele><time>2026-04-19T09:31:17.998Z</time></trkpt><trkpt lat="40.39014128025943" lon="15.725997562667702"><ele>738.7142857142858</ele><time>2026-04-19T09:31:19.998Z</time></trkpt><trkpt lat="40.39008101894" lon="15.725966231045337"><ele>738.1428571428571</ele><time>2026-04-19T09:31:20.998Z</time></trkpt><trkpt lat="40.39000435308515" lon="15.725953570148993"><ele>737.5714285714287</ele><time>2026-04-19T09:31:37.998Z</time></trkpt><trkpt lat="40.38993978328851" lon="15.72595369497477"><ele>737.0</ele><time>2026-04-19T09:31:40.998Z</time></trkpt><trkpt lat="40.38990329883835" lon="15.72603639091726"><ele>734.1666666666666</ele><time>2026-04-19T09:31:43.998Z</time></trkpt><trkpt lat="40.389927368430804" lon="15.726123974681776"><ele>731.3333333333333</ele><time>2026-04-19T09:31:48.998Z</time></trkpt><trkpt lat="40.38995688028367" lon="15.726225098990918"><ele>728.5</ele><time>2026-04-19T09:31:53Z</time></trkpt><trkpt lat="40.3900080168772" lon="15.726325701204294"><ele>725.6666666666666</ele><time>2026-04-19T09:31:56Z</time></trkpt><trkpt lat="40.390057999833864" lon="15.726392262666566"><ele>722.8333333333334</ele><time>2026-04-19T09:31:59Z</time></trkpt><trkpt lat="40.39010843635701" lon="15.726467218110447"><ele>720.0</ele><time>2026-04-19T09:32:01Z</time></trkpt><trkpt lat="40.39013423179401" lon="15.72655663547063"><ele>720.0</ele><time>2026-04-19T09:32:04Z</time></trkpt><trkpt lat="40.390149690218415" lon="15.726664301598847"><ele>720.0</ele><time>2026-04-19T09:32:06Z</time></trkpt><trkpt lat="40.39014611272822" lon="15.726771240600511"><ele>720.0</ele><time>2026-04-19T09:32:08Z</time></trkpt><trkpt lat="40.39013452960154" lon="15.726929261493487"><ele>720.0</ele><time>2026-04-19T09:32:12Z</time></trkpt><trkpt lat="40.39010136561297" lon="15.727037568136996"><ele>720.0</ele><time>2026-04-19T09:32:15Z</time></trkpt><trkpt lat="40.390058377610906" lon="15.727146662645946"><ele>717.6</ele><time>2026-04-19T09:32:18Z</time></trkpt><trkpt lat="40.38998789608962" lon="15.727316052631435"><ele>715.2</ele><time>2026-04-19T09:32:20Z</time></trkpt><trkpt lat="40.38996852555726" lon="15.727406334982595"><ele>712.8</ele><time>2026-04-19T09:32:22Z</time></trkpt><trkpt lat="40.389953451327095" lon="15.727533519146462"><ele>710.4</ele><time>2026-04-19T09:32:25Z</time></trkpt><trkpt lat="40.389933782056126" lon="15.727634768797847"><ele>708.0</ele><time>2026-04-19T09:32:27Z</time></trkpt><trkpt lat="40.38990509611722" lon="15.727772335080253"><ele>706.5</ele><time>2026-04-19T09:32:28.999Z</time></trkpt><trkpt lat="40.38986906109023" lon="15.727872220281368"><ele>705.0</ele><time>2026-04-19T09:32:31.999Z</time></trkpt><trkpt lat="40.389843218721964" lon="15.727968983506218"><ele>703.5</ele><time>2026-04-19T09:32:34.999Z</time></trkpt><trkpt lat="40.38980274811242" lon="15.728065946675004"><ele>702.0</ele><time>2026-04-19T09:32:37.999Z</time></trkpt><trkpt lat="40.38980189443062" lon="15.728184407478174"><ele>700.5</ele><time>2026-04-19T09:32:41.999Z</time></trkpt><trkpt lat="40.38976306950212" lon="15.728286740386062"><ele>699.0</ele><time>2026-04-19T09:32:43.999Z</time></trkpt><trkpt lat="40.389711687635135" lon="15.728342420264006"><ele>696.0</ele><time>2026-04-19T09:32:45.999Z</time></trkpt><trkpt lat="40.38963754190886" lon="15.728440083578098"><ele>693.0</ele><time>2026-04-19T09:32:49.999Z</time></trkpt><trkpt lat="40.38959496760245" lon="15.728502758101557"><ele>690.0</ele><time>2026-04-19T09:32:52.999Z</time></trkpt><trkpt lat="40.389541433390995" lon="15.728580568950996"><ele>687.0</ele><time>2026-04-19T09:32:54.999Z</time></trkpt><trkpt lat="40.38954199505566" lon="15.728674704521614"><ele>684.0</ele><time>2026-04-19T09:32:56.999Z</time></trkpt><trkpt lat="40.3895547593216" lon="15.728871018764286"><ele>682.6</ele><time>2026-04-19T09:32:58.999Z</time></trkpt><trkpt lat="40.38958900523925" lon="15.728992404906494"><ele>681.2</ele><time>2026-04-19T09:33:00.999Z</time></trkpt><trkpt lat="40.38960945533819" lon="15.729109877311446"><ele>679.8000000000001</ele><time>2026-04-19T09:33:02.999Z</time></trkpt><trkpt lat="40.38962117868612" lon="15.729244276369316"><ele>678.4000000000001</ele><time>2026-04-19T09:33:04.999Z</time></trkpt><trkpt lat="40.389653388129304" lon="15.729385268950779"><ele>677.0</ele><time>2026-04-19T09:33:06.999Z</time></trkpt><trkpt lat="40.38963448212853" lon="15.729464832453644"><ele>677.5</ele><time>2026-04-19T09:33:07.999Z</time></trkpt><trkpt lat="40.389634332112806" lon="15.729550986294443"><ele>678.0</ele><time>2026-04-19T09:33:08.999Z</time></trkpt><trkpt lat="40.389655822087" lon="15.729655263845823"><ele>678.5</ele><time>2026-04-19T09:33:10.999Z</time></trkpt><trkpt lat="40.38966077289857" lon="15.729767265046693"><ele>679.0</ele><time>2026-04-19T09:33:12.999Z</time></trkpt><trkpt lat="40.38966240034015" lon="15.729884234396193"><ele>679.5</ele><time>2026-04-19T09:33:14.999Z</time></trkpt><trkpt lat="40.38968437613228" lon="15.729965807728492"><ele>680.0</ele><time>2026-04-19T09:33:15.999Z</time></trkpt><trkpt lat="40.3897463986654" lon="15.730104522873926"><ele>680.0</ele><time>2026-04-19T09:33:17.999Z</time></trkpt><trkpt lat="40.38974544349833" lon="15.73020254860165"><ele>680.0</ele><time>2026-04-19T09:33:18.999Z</time></trkpt><trkpt lat="40.3897518383541" lon="15.730289631882526"><ele>680.0</ele><time>2026-04-19T09:33:19.999Z</time></trkpt><trkpt lat="40.38976371347738" lon="15.730398300514903"><ele>680.0</ele><time>2026-04-19T09:33:20.999Z</time></trkpt><trkpt lat="40.38978046039643" lon="15.730508763374386"><ele>680.0</ele><time>2026-04-19T09:33:21.999Z</time></trkpt><trkpt lat="40.3898021621735" lon="15.730609338658658"><ele>680.0</ele><time>2026-04-19T09:33:22.999Z</time></trkpt><trkpt lat="40.38983784262349" lon="15.730705223219301"><ele>678.2</ele><time>2026-04-19T09:33:23.999Z</time></trkpt><trkpt lat="40.38992046317831" lon="15.73078545002264"><ele>676.4</ele><time>2026-04-19T09:33:24.998Z</time></trkpt><trkpt lat="40.38999727339688" lon="15.730873349743725"><ele>674.5999999999999</ele><time>2026-04-19T09:33:25.998Z</time></trkpt><trkpt lat="40.39007465349318" lon="15.730956399575291"><ele>672.8</ele><time>2026-04-19T09:33:26.998Z</time></trkpt><trkpt lat="40.39013937280308" lon="15.731057341670894"><ele>671.0</ele><time>2026-04-19T09:33:27.998Z</time></trkpt><trkpt lat="40.39020933543275" lon="15.731143121040015"><ele>672.4</ele><time>2026-04-19T09:33:28.998Z</time></trkpt><trkpt lat="40.390274869325644" lon="15.73123537835973"><ele>673.8</ele><time>2026-04-19T09:33:29.998Z</time></trkpt><trkpt lat="40.390349224510956" lon="15.731350145637824"><ele>675.1999999999999</ele><time>2026-04-19T09:33:30.998Z</time></trkpt><trkpt lat="40.390420000208394" lon="15.731459734968638"><ele>676.5999999999999</ele><time>2026-04-19T09:33:31.998Z</time></trkpt><trkpt lat="40.39047398110269" lon="15.731579907185004"><ele>678.0</ele><time>2026-04-19T09:33:32.998Z</time></trkpt><trkpt lat="40.39052022345313" lon="15.731697414890538"><ele>678.0</ele><time>2026-04-19T09:33:33.998Z</time></trkpt><trkpt lat="40.39056664300286" lon="15.731808332652323"><ele>678.0</ele><time>2026-04-19T09:33:34.998Z</time></trkpt><trkpt lat="40.39060263799915" lon="15.731927032308555"><ele>678.0</ele><time>2026-04-19T09:33:35.998Z</time></trkpt><trkpt lat="40.39062907904777" lon="15.732046870390798"><ele>678.0</ele><time>2026-04-19T09:33:36.998Z</time></trkpt><trkpt lat="40.39065609903481" lon="15.732167851271935"><ele>678.0</ele><time>2026-04-19T09:33:37.998Z</time></trkpt><trkpt lat="40.390692106626574" lon="15.73228762874606"><ele>675.4</ele><time>2026-04-19T09:33:38.998Z</time></trkpt><trkpt lat="40.39073082650206" lon="15.732409400992834"><ele>672.8</ele><time>2026-04-19T09:33:39.998Z</time></trkpt><trkpt lat="40.39076544964932" lon="15.732531102844996"><ele>670.2</ele><time>2026-04-19T09:33:40.998Z</time></trkpt><trkpt lat="40.390797706136986" lon="15.732643274156626"><ele>667.6</ele><time>2026-04-19T09:33:41.998Z</time></trkpt><trkpt lat="40.39086686106752" lon="15.732746027528016"><ele>665.0</ele><time>2026-04-19T09:33:42.998Z</time></trkpt><trkpt lat="40.39095665871764" lon="15.732817573154179"><ele>662.0</ele><time>2026-04-19T09:33:43.998Z</time></trkpt><trkpt lat="40.39105965195052" lon="15.732846267543138"><ele>659.0</ele><time>2026-04-19T09:33:44.998Z</time></trkpt><trkpt lat="40.39117222085292" lon="15.73285615767664"><ele>656.0</ele><time>2026-04-19T09:33:45.998Z</time></trkpt><trkpt lat="40.39128589616438" lon="15.73283067588754"><ele>653.0</ele><time>2026-04-19T09:33:46.998Z</time></trkpt><trkpt lat="40.391400968980186" lon="15.732811752334412"><ele>650.0</ele><time>2026-04-19T09:33:47.998Z</time></trkpt><trkpt lat="40.39151663057728" lon="15.732780297476765"><ele>649.5</ele><time>2026-04-19T09:33:48.998Z</time></trkpt><trkpt lat="40.39162948354674" lon="15.732754547558061"><ele>649.0</ele><time>2026-04-19T09:33:49.998Z</time></trkpt><trkpt lat="40.39175370995598" lon="15.732733530262244"><ele>648.5</ele><time>2026-04-19T09:33:50.998Z</time></trkpt><trkpt lat="40.391877108000735" lon="15.732710617272357"><ele>648.0</ele><time>2026-04-19T09:33:51.998Z</time></trkpt><trkpt lat="40.391997105168535" lon="15.732681202730996"><ele>651.2</ele><time>2026-04-19T09:33:52.998Z</time></trkpt><trkpt lat="40.392108801756265" lon="15.732627058669305"><ele>654.4</ele><time>2026-04-19T09:33:53.998Z</time></trkpt><trkpt lat="40.392208224892514" lon="15.73256830544732"><ele>657.6</ele><time>2026-04-19T09:33:54.998Z</time></trkpt><trkpt lat="40.392300565771876" lon="15.732505817349754"><ele>660.8000000000001</ele><time>2026-04-19T09:33:56Z</time></trkpt><trkpt lat="40.39238899768079" lon="15.7324522640644"><ele>664.0</ele><time>2026-04-19T09:33:57Z</time></trkpt><trkpt lat="40.392489986507606" lon="15.732430906992374"><ele>664.0</ele><time>2026-04-19T09:33:58Z</time></trkpt><trkpt lat="40.3925763184761" lon="15.73238661516495"><ele>664.0</ele><time>2026-04-19T09:33:59Z</time></trkpt><trkpt lat="40.392711431859" lon="15.732385028304998"><ele>664.0</ele><time>2026-04-19T09:34:00Z</time></trkpt><trkpt lat="40.392833314323056" lon="15.732379291012764"><ele>664.0</ele><time>2026-04-19T09:34:01Z</time></trkpt><trkpt lat="40.39294403770499" lon="15.732382440569712"><ele>663.0</ele><time>2026-04-19T09:34:02Z</time></trkpt><trkpt lat="40.39306612347662" lon="15.732395789082725"><ele>662.0</ele><time>2026-04-19T09:34:03Z</time></trkpt><trkpt lat="40.3931814178934" lon="15.732383083696265"><ele>661.0</ele><time>2026-04-19T09:34:04Z</time></trkpt><trkpt lat="40.39329571145368" lon="15.732391128326823"><ele>660.0</ele><time>2026-04-19T09:34:05Z</time></trkpt><trkpt lat="40.39341510049482" lon="15.732384268509659"><ele>660.0</ele><time>2026-04-19T09:34:06Z</time></trkpt><trkpt lat="40.39353445551216" lon="15.73238654496087"><ele>660.0</ele><time>2026-04-19T09:34:07Z</time></trkpt><trkpt lat="40.39364478989399" lon="15.7323870995426"><ele>660.0</ele><time>2026-04-19T09:34:08Z</time></trkpt><trkpt lat="40.39376533026949" lon="15.732378374558765"><ele>660.0</ele><time>2026-04-19T09:34:09Z</time></trkpt><trkpt lat="40.393878770985275" lon="15.732377706404046"><ele>658.0</ele><time>2026-04-19T09:34:10Z</time></trkpt><trkpt lat="40.3939887846803" lon="15.732374200594892"><ele>656.0</ele><time>2026-04-19T09:34:11Z</time></trkpt><trkpt lat="40.39409630734432" lon="15.732364486015515"><ele>654.0</ele><time>2026-04-19T09:34:12Z</time></trkpt><trkpt lat="40.394206696566265" lon="15.732356509906372"><ele>652.0</ele><time>2026-04-19T09:34:13Z</time></trkpt><trkpt lat="40.39431099782318" lon="15.732299136053435"><ele>650.0</ele><time>2026-04-19T09:34:14Z</time></trkpt><trkpt lat="40.39440908910944" lon="15.732224423104778"><ele>650.0</ele><time>2026-04-19T09:34:15Z</time></trkpt><trkpt lat="40.39450222923417" lon="15.732142264825018"><ele>650.0</ele><time>2026-04-19T09:34:16Z</time></trkpt><trkpt lat="40.39458742513955" lon="15.732035945345451"><ele>650.0</ele><time>2026-04-19T09:34:17Z</time></trkpt><trkpt lat="40.39466707213411" lon="15.731911970058714"><ele>650.0</ele><time>2026-04-19T09:34:18Z</time></trkpt><trkpt lat="40.39473856109526" lon="15.731800041334724"><ele>650.75</ele><time>2026-04-19T09:34:19Z</time></trkpt><trkpt lat="40.39482183636935" lon="15.73168817257421"><ele>651.5</ele><time>2026-04-19T09:34:20Z</time></trkpt><trkpt lat="40.39490466130644" lon="15.731577482623248"><ele>652.25</ele><time>2026-04-19T09:34:21Z</time></trkpt><trkpt lat="40.39498026453526" lon="15.731464361373899"><ele>653.0</ele><time>2026-04-19T09:34:22Z</time></trkpt><trkpt lat="40.395041522827285" lon="15.731330160401262"><ele>653.0</ele><time>2026-04-19T09:34:23Z</time></trkpt><trkpt lat="40.39510537616533" lon="15.731189815211506"><ele>653.0</ele><time>2026-04-19T09:34:24Z</time></trkpt><trkpt lat="40.39515611359345" lon="15.73105785122999"><ele>653.0</ele><time>2026-04-19T09:34:25Z</time></trkpt><trkpt lat="40.39521872213355" lon="15.730933772543755"><ele>653.0</ele><time>2026-04-19T09:34:26Z</time></trkpt><trkpt lat="40.39526100899582" lon="15.730820083508087"><ele>653.0</ele><time>2026-04-19T09:34:27Z</time></trkpt><trkpt lat="40.3952997115803" lon="15.730734988979941"><ele>654.5999999999999</ele><time>2026-04-19T09:34:28Z</time></trkpt><trkpt lat="40.39534505752736" lon="15.730664684344928"><ele>656.1999999999999</ele><time>2026-04-19T09:34:29Z</time></trkpt><trkpt lat="40.39542531994115" lon="15.73055076723593"><ele>657.8</ele><time>2026-04-19T09:34:31Z</time></trkpt><trkpt lat="40.39550582574944" lon="15.73047192033369"><ele>659.4</ele><time>2026-04-19T09:34:33Z</time></trkpt><trkpt lat="40.39556819257213" lon="15.730409399092611"><ele>661.0</ele><time>2026-04-19T09:34:35Z</time></trkpt><trkpt lat="40.39548330939081" lon="15.730452646331074"><ele>661.0</ele><time>2026-04-19T09:34:42.999Z</time></trkpt><trkpt lat="40.39541903528875" lon="15.73054824207235"><ele>661.0</ele><time>2026-04-19T09:34:43.999Z</time></trkpt><trkpt lat="40.395339895398244" lon="15.730681110368733"><ele>661.0</ele><time>2026-04-19T09:34:44.999Z</time></trkpt><trkpt lat="40.39523798761576" lon="15.730764551339119"><ele>661.0</ele><time>2026-04-19T09:34:45.999Z</time></trkpt><trkpt lat="40.395180507764245" lon="15.730894378951994"><ele>661.0</ele><time>2026-04-19T09:34:46.999Z</time></trkpt><trkpt lat="40.39513199834408" lon="15.731009003041633"><ele>661.0</ele><time>2026-04-19T09:34:47.999Z</time></trkpt><trkpt lat="40.39513454545049" lon="15.731153716070006"><ele>661.0</ele><time>2026-04-19T09:34:48.999Z</time></trkpt><trkpt lat="40.39509741868274" lon="15.731275175876977"><ele>661.0</ele><time>2026-04-19T09:34:49.999Z</time></trkpt><trkpt lat="40.395081234312414" lon="15.731407146600418"><ele>661.0</ele><time>2026-04-19T09:34:50.999Z</time></trkpt><trkpt lat="40.395117080856984" lon="15.73155278669298"><ele>659.6666666666667</ele><time>2026-04-19T09:34:51.999Z</time></trkpt><trkpt lat="40.395201297538556" lon="15.731636325759498"><ele>658.3333333333334</ele><time>2026-04-19T09:34:52.999Z</time></trkpt><trkpt lat="40.395238940810664" lon="15.731765018131536"><ele>657.0</ele><time>2026-04-19T09:34:54.999Z</time></trkpt><trkpt lat="40.395269615341626" lon="15.731839282563369"><ele>655.6666666666666</ele><time>2026-04-19T09:34:56.999Z</time></trkpt><trkpt lat="40.39535127723571" lon="15.731879826957643"><ele>654.3333333333333</ele><time>2026-04-19T09:34:59.999Z</time></trkpt><trkpt lat="40.39531122563457" lon="15.731975704289907"><ele>653.0</ele><time>2026-04-19T09:35:02.999Z</time></trkpt><trkpt lat="40.39527481823463" lon="15.732084316623974"><ele>651.0</ele><time>2026-04-19T09:35:04.999Z</time></trkpt><trkpt lat="40.39534747206354" lon="15.73220513280772"><ele>649.0</ele><time>2026-04-19T09:35:05.999Z</time></trkpt><trkpt lat="40.39540891797942" lon="15.732363567303581"><ele>647.0</ele><time>2026-04-19T09:35:07.999Z</time></trkpt><trkpt lat="40.395442568820954" lon="15.732440035909766"><ele>645.0</ele><time>2026-04-19T09:35:08.999Z</time></trkpt><trkpt lat="40.395523036191506" lon="15.73254511144084"><ele>643.0</ele><time>2026-04-19T09:35:10.999Z</time></trkpt><trkpt lat="40.39567226748912" lon="15.732579231424792"><ele>643.0</ele><time>2026-04-19T09:35:12.999Z</time></trkpt><trkpt lat="40.39575643475445" lon="15.732596896804488"><ele>643.0</ele><time>2026-04-19T09:35:13.999Z</time></trkpt><trkpt lat="40.39584475156347" lon="15.732626423538413"><ele>643.0</ele><time>2026-04-19T09:35:14.999Z</time></trkpt><trkpt lat="40.395925185431466" lon="15.73265924667307"><ele>643.0</ele><time>2026-04-19T09:35:15.999Z</time></trkpt><trkpt lat="40.39599377758502" lon="15.732687237486418"><ele>643.0</ele><time>2026-04-19T09:35:16.999Z</time></trkpt><trkpt lat="40.39605785684016" lon="15.732712422971105"><ele>643.0</ele><time>2026-04-19T09:35:17.999Z</time></trkpt><trkpt lat="40.396128378843414" lon="15.732739582767037"><ele>643.0</ele><time>2026-04-19T09:35:18.999Z</time></trkpt><trkpt lat="40.39619889620402" lon="15.732762936286775"><ele>643.0</ele><time>2026-04-19T09:35:19.999Z</time></trkpt><trkpt lat="40.39632032331018" lon="15.73279926156991"><ele>643.0</ele><time>2026-04-19T09:35:21.999Z</time></trkpt><trkpt lat="40.396383969469454" lon="15.732820492932797"><ele>643.0</ele><time>2026-04-19T09:35:22.999Z</time></trkpt><trkpt lat="40.39645114879308" lon="15.732842902904508"><ele>643.0</ele><time>2026-04-19T09:35:23.999Z</time></trkpt><trkpt lat="40.39651853112747" lon="15.732865380588468"><ele>643.0</ele><time>2026-04-19T09:35:24.999Z</time></trkpt><trkpt lat="40.396588448995544" lon="15.73288928211063"><ele>642.8333333333334</ele><time>2026-04-19T09:35:25.999Z</time></trkpt><trkpt lat="40.39666105631775" lon="15.732917067743156"><ele>642.6666666666667</ele><time>2026-04-19T09:35:26.999Z</time></trkpt><trkpt lat="40.39673500955304" lon="15.732947641338253"><ele>642.5</ele><time>2026-04-19T09:35:27.999Z</time></trkpt><trkpt lat="40.3968041644584" lon="15.732975922167892"><ele>642.3333333333334</ele><time>2026-04-19T09:35:28.999Z</time></trkpt><trkpt lat="40.39689072999202" lon="15.733011113380702"><ele>642.1666666666666</ele><time>2026-04-19T09:35:29.999Z</time></trkpt><trkpt lat="40.39700558323607" lon="15.733056983356782"><ele>642.0</ele><time>2026-04-19T09:35:31.999Z</time></trkpt><trkpt lat="40.39707220918678" lon="15.733060792767626"><ele>641.9999999999999</ele><time>2026-04-19T09:35:32.998Z</time></trkpt><trkpt lat="40.397131990564475" lon="15.733105085573824"><ele>642.0</ele><time>2026-04-19T09:35:33.998Z</time></trkpt><trkpt lat="40.397198101547744" lon="15.733130243022416"><ele>642.0</ele><time>2026-04-19T09:35:34.998Z</time></trkpt><trkpt lat="40.3972662820948" lon="15.733156188003074"><ele>642.0</ele><time>2026-04-19T09:35:35.998Z</time></trkpt><trkpt lat="40.39733567297291" lon="15.733182780220012"><ele>642.0</ele><time>2026-04-19T09:35:36.998Z</time></trkpt><trkpt lat="40.397406449497545" lon="15.73321114287275"><ele>641.9999999999999</ele><time>2026-04-19T09:35:37.998Z</time></trkpt><trkpt lat="40.39747592950431" lon="15.733238985964272"><ele>642.0</ele><time>2026-04-19T09:35:38.998Z</time></trkpt><trkpt lat="40.39755088634147" lon="15.733268902397898"><ele>642.6666666666666</ele><time>2026-04-19T09:35:39.998Z</time></trkpt><trkpt lat="40.39762170018289" lon="15.733296028111383"><ele>643.3333333333334</ele><time>2026-04-19T09:35:40.998Z</time></trkpt><trkpt lat="40.39769529334778" lon="15.733324218463913"><ele>644.0</ele><time>2026-04-19T09:35:41.998Z</time></trkpt><trkpt lat="40.39777017528426" lon="15.733352902485949"><ele>644.6666666666667</ele><time>2026-04-19T09:35:42.998Z</time></trkpt><trkpt lat="40.39784719500373" lon="15.733382405400096"><ele>645.3333333333334</ele><time>2026-04-19T09:35:43.998Z</time></trkpt><trkpt lat="40.397922418952405" lon="15.733411220434908"><ele>646.0</ele><time>2026-04-19T09:35:44.998Z</time></trkpt><trkpt lat="40.397988110033864" lon="15.733417564371837"><ele>646.4285714285714</ele><time>2026-04-19T09:35:45.998Z</time></trkpt><trkpt lat="40.398066405639305" lon="15.733466644479575"><ele>646.8571428571429</ele><time>2026-04-19T09:35:46.998Z</time></trkpt><trkpt lat="40.398134766143905" lon="15.733492993589008"><ele>647.2857142857142</ele><time>2026-04-19T09:35:47.998Z</time></trkpt><trkpt lat="40.39819506190056" lon="15.733519006328564"><ele>647.7142857142858</ele><time>2026-04-19T09:35:48.998Z</time></trkpt><trkpt lat="40.39826152982782" lon="15.733548579900505"><ele>648.1428571428571</ele><time>2026-04-19T09:35:49.998Z</time></trkpt><trkpt lat="40.39832945732659" lon="15.733579030448807"><ele>648.5714285714286</ele><time>2026-04-19T09:35:50.998Z</time></trkpt><trkpt lat="40.398399800345985" lon="15.73361056728704"><ele>649.0</ele><time>2026-04-19T09:35:51.998Z</time></trkpt><trkpt lat="40.398472829123676" lon="15.733643308245489"><ele>649.0</ele><time>2026-04-19T09:35:52.998Z</time></trkpt><trkpt lat="40.39854706023832" lon="15.733677846487407"><ele>649.0</ele><time>2026-04-19T09:35:53.998Z</time></trkpt><trkpt lat="40.3986174751618" lon="15.733712940222757"><ele>649.0</ele><time>2026-04-19T09:35:54.998Z</time></trkpt><trkpt lat="40.39868952053066" lon="15.733750393170277"><ele>649.0</ele><time>2026-04-19T09:35:55.998Z</time></trkpt><trkpt lat="40.398762476067354" lon="15.733788319167541"><ele>649.0</ele><time>2026-04-19T09:35:56.998Z</time></trkpt><trkpt lat="40.39883416348745" lon="15.733834820033655"><ele>649.0</ele><time>2026-04-19T09:35:57.998Z</time></trkpt><trkpt lat="40.39890252357141" lon="15.733880795357559"><ele>649.0</ele><time>2026-04-19T09:35:58.998Z</time></trkpt><trkpt lat="40.398974565221245" lon="15.733933961474156"><ele>649.0</ele><time>2026-04-19T09:35:59.998Z</time></trkpt><trkpt lat="40.39904980685927" lon="15.733985033932107"><ele>649.0</ele><time>2026-04-19T09:36:00.998Z</time></trkpt><trkpt lat="40.399127436419725" lon="15.734028290034539"><ele>649.0</ele><time>2026-04-19T09:36:02Z</time></trkpt><trkpt lat="40.3992047049946" lon="15.734066248873118"><ele>649.0</ele><time>2026-04-19T09:36:03Z</time></trkpt><trkpt lat="40.39927634497318" lon="15.734106216194528"><ele>649.0</ele><time>2026-04-19T09:36:04Z</time></trkpt><trkpt lat="40.399345076771894" lon="15.734154288579592"><ele>649.0</ele><time>2026-04-19T09:36:05Z</time></trkpt><trkpt lat="40.39941009302904" lon="15.734218396530043"><ele>649.0</ele><time>2026-04-19T09:36:06Z</time></trkpt><trkpt lat="40.39948011891167" lon="15.734279650752974"><ele>649.0</ele><time>2026-04-19T09:36:07Z</time></trkpt><trkpt lat="40.39955399990939" lon="15.734339916994552"><ele>649.0</ele><time>2026-04-19T09:36:08Z</time></trkpt><trkpt lat="40.39963175136113" lon="15.734396966107251"><ele>649.0</ele><time>2026-04-19T09:36:09Z</time></trkpt><trkpt lat="40.39970512446519" lon="15.734443762784167"><ele>649.0</ele><time>2026-04-19T09:36:10Z</time></trkpt><trkpt lat="40.39978286573081" lon="15.73448687912198"><ele>649.3333333333334</ele><time>2026-04-19T09:36:11Z</time></trkpt><trkpt lat="40.399866825806946" lon="15.73453227437153"><ele>649.6666666666667</ele><time>2026-04-19T09:36:12Z</time></trkpt><trkpt lat="40.39995289719141" lon="15.734575083118708"><ele>650.0</ele><time>2026-04-19T09:36:13Z</time></trkpt><trkpt lat="40.400037901843056" lon="15.734609852345914"><ele>650.3333333333334</ele><time>2026-04-19T09:36:14Z</time></trkpt><trkpt lat="40.400117455875844" lon="15.734629881003078"><ele>650.6666666666666</ele><time>2026-04-19T09:36:15Z</time></trkpt><trkpt lat="40.40019358161334" lon="15.734642434213738"><ele>651.0</ele><time>2026-04-19T09:36:16Z</time></trkpt><trkpt lat="40.40027616669428" lon="15.734625551931224"><ele>651.0</ele><time>2026-04-19T09:36:17Z</time></trkpt><trkpt lat="40.40036250709784" lon="15.734620154387859"><ele>651.0</ele><time>2026-04-19T09:36:18Z</time></trkpt><trkpt lat="40.4004490984534" lon="15.734604681524756"><ele>651.0</ele><time>2026-04-19T09:36:19Z</time></trkpt><trkpt lat="40.400536600463425" lon="15.734580874090382"><ele>651.0</ele><time>2026-04-19T09:36:20Z</time></trkpt><trkpt lat="40.4006229933006" lon="15.734548048616103"><ele>651.0</ele><time>2026-04-19T09:36:21Z</time></trkpt><trkpt lat="40.40070579815454" lon="15.734514979495767"><ele>651.0</ele><time>2026-04-19T09:36:22Z</time></trkpt><trkpt lat="40.40077887599597" lon="15.734483978803658"><ele>651.1666666666666</ele><time>2026-04-19T09:36:23Z</time></trkpt><trkpt lat="40.4008572392865" lon="15.734473607624603"><ele>651.3333333333334</ele><time>2026-04-19T09:36:24Z</time></trkpt><trkpt lat="40.40093959169706" lon="15.73445172894889"><ele>651.5</ele><time>2026-04-19T09:36:25Z</time></trkpt><trkpt lat="40.4010238181545" lon="15.734413911330158"><ele>651.6666666666667</ele><time>2026-04-19T09:36:26Z</time></trkpt><trkpt lat="40.40110911730522" lon="15.734399486123952"><ele>651.8333333333334</ele><time>2026-04-19T09:36:27Z</time></trkpt><trkpt lat="40.401191265618586" lon="15.734387753446647"><ele>652.0</ele><time>2026-04-19T09:36:28Z</time></trkpt><trkpt lat="40.40127454768663" lon="15.734376474125604"><ele>652.6666666666667</ele><time>2026-04-19T09:36:29Z</time></trkpt><trkpt lat="40.40136171983069" lon="15.734369096030493"><ele>653.3333333333334</ele><time>2026-04-19T09:36:30Z</time></trkpt><trkpt lat="40.40144739743578" lon="15.734351629134979"><ele>654.0</ele><time>2026-04-19T09:36:31Z</time></trkpt><trkpt lat="40.40152286321689" lon="15.734335243411515"><ele>654.6666666666666</ele><time>2026-04-19T09:36:32Z</time></trkpt><trkpt lat="40.40159360032798" lon="15.734331513201282"><ele>655.3333333333333</ele><time>2026-04-19T09:36:33Z</time></trkpt><trkpt lat="40.40167359559712" lon="15.734329307206654"><ele>656.0</ele><time>2026-04-19T09:36:34Z</time></trkpt><trkpt lat="40.40175349124172" lon="15.734351507157124"><ele>656.0</ele><time>2026-04-19T09:36:35Z</time></trkpt><trkpt lat="40.4018314593632" lon="15.734352520775243"><ele>656.0</ele><time>2026-04-19T09:36:36Z</time></trkpt><trkpt lat="40.40190933834771" lon="15.734352942620022"><ele>656.0</ele><time>2026-04-19T09:36:37Z</time></trkpt><trkpt lat="40.401992266276345" lon="15.734353391810806"><ele>656.0</ele><time>2026-04-19T09:36:38Z</time></trkpt><trkpt lat="40.40206925265575" lon="15.734351738855722"><ele>656.0</ele><time>2026-04-19T09:36:39Z</time></trkpt><trkpt lat="40.40220430250497" lon="15.734326567299775"><ele>655.8333333333333</ele><time>2026-04-19T09:36:41Z</time></trkpt><trkpt lat="40.40228794298773" lon="15.734329723982302"><ele>655.6666666666666</ele><time>2026-04-19T09:36:42Z</time></trkpt><trkpt lat="40.402370956097236" lon="15.734287524408147"><ele>655.5</ele><time>2026-04-19T09:36:43Z</time></trkpt><trkpt lat="40.40245163298781" lon="15.734266937192626"><ele>655.3333333333334</ele><time>2026-04-19T09:36:43.999Z</time></trkpt><trkpt lat="40.40253586940686" lon="15.734250360672947"><ele>655.1666666666667</ele><time>2026-04-19T09:36:44.999Z</time></trkpt><trkpt lat="40.40262252082735" lon="15.734243682746898"><ele>655.0</ele><time>2026-04-19T09:36:45.999Z</time></trkpt><trkpt lat="40.40270881337603" lon="15.734275338523528"><ele>655.0</ele><time>2026-04-19T09:36:46.999Z</time></trkpt><trkpt lat="40.402778509064774" lon="15.734282604632781"><ele>655.0</ele><time>2026-04-19T09:36:48.999Z</time></trkpt><trkpt lat="40.40276097753368" lon="15.734387596083144"><ele>655.0</ele><time>2026-04-19T09:44:42Z</time></trkpt><trkpt lat="40.40275828451715" lon="15.734576099059906"><ele>655.0</ele><time>2026-04-19T09:44:44Z</time></trkpt><trkpt lat="40.40272828872881" lon="15.734750107446581"><ele>655.0</ele><time>2026-04-19T09:44:46Z</time></trkpt><trkpt lat="40.402729699911504" lon="15.734850498633518"><ele>655.0</ele><time>2026-04-19T09:44:47Z</time></trkpt><trkpt lat="40.402730427235014" lon="15.734935377009698"><ele>655.0</ele><time>2026-04-19T09:44:48Z</time></trkpt><trkpt lat="40.402719041928194" lon="15.735088004441444"><ele>655.0</ele><time>2026-04-19T09:44:50Z</time></trkpt><trkpt lat="40.40270747307983" lon="15.735259818408675"><ele>655.0</ele><time>2026-04-19T09:44:52Z</time></trkpt><trkpt lat="40.40270169035417" lon="15.735354590891385"><ele>655.0</ele><time>2026-04-19T09:44:53Z</time></trkpt><trkpt lat="40.40269992948481" lon="15.735457124884038"><ele>655.0</ele><time>2026-04-19T09:44:54Z</time></trkpt><trkpt lat="40.40271092124785" lon="15.735543728899293"><ele>655.0</ele><time>2026-04-19T09:44:55Z</time></trkpt><trkpt lat="40.4027600678082" lon="15.735616999145403"><ele>655.0</ele><time>2026-04-19T09:44:56Z</time></trkpt><trkpt lat="40.40283410978468" lon="15.73563896905854"><ele>655.0</ele><time>2026-04-19T09:44:57Z</time></trkpt><trkpt lat="40.402914987771496" lon="15.735574936891014"><ele>655.0</ele><time>2026-04-19T09:44:58Z</time></trkpt><trkpt lat="40.40301993303141" lon="15.73556652892727"><ele>655.0</ele><time>2026-04-19T09:45:00Z</time></trkpt><trkpt lat="40.403091965815975" lon="15.73556720681283"><ele>655.0</ele><time>2026-04-19T09:45:02Z</time></trkpt><trkpt lat="40.403200913463884" lon="15.735562314536962"><ele>655.0</ele><time>2026-04-19T09:45:04Z</time></trkpt><trkpt lat="40.40328178511908" lon="15.735498706916497"><ele>655.0</ele><time>2026-04-19T09:45:06Z</time></trkpt><trkpt lat="40.40334070697916" lon="15.735445544799248"><ele>655.0</ele><time>2026-04-19T09:45:08Z</time></trkpt><trkpt lat="40.40340799065483" lon="15.735388796334336"><ele>655.0</ele><time>2026-04-19T09:45:09.999Z</time></trkpt><trkpt lat="40.40349327715358" lon="15.735399301865996"><ele>655.0</ele><time>2026-04-19T09:45:11.999Z</time></trkpt><trkpt lat="40.40358135577392" lon="15.735371772764436"><ele>655.0</ele><time>2026-04-19T09:45:13.999Z</time></trkpt><trkpt lat="40.40367046011695" lon="15.735400852296191"><ele>655.0</ele><time>2026-04-19T09:45:15.999Z</time></trkpt><trkpt lat="40.40376996054002" lon="15.73546097803087"><ele>655.0</ele><time>2026-04-19T09:45:17.999Z</time></trkpt><trkpt lat="40.40388800834159" lon="15.735466042902068"><ele>655.0</ele><time>2026-04-19T09:45:19.999Z</time></trkpt><trkpt lat="40.40399234258657" lon="15.735525866749377"><ele>655.0</ele><time>2026-04-19T09:45:21.999Z</time></trkpt><trkpt lat="40.404101374539536" lon="15.735568514422194"><ele>655.8333333333334</ele><time>2026-04-19T09:45:23.999Z</time></trkpt><trkpt lat="40.40422533959115" lon="15.73558072637374"><ele>656.6666666666667</ele><time>2026-04-19T09:45:25.999Z</time></trkpt><trkpt lat="40.40429402118455" lon="15.735583161034095"><ele>657.5</ele><time>2026-04-19T09:45:26.999Z</time></trkpt><trkpt lat="40.40436466356392" lon="15.735585574636419"><ele>658.3333333333334</ele><time>2026-04-19T09:45:27.999Z</time></trkpt><trkpt lat="40.40443114770662" lon="15.735587846127958"><ele>659.1666666666666</ele><time>2026-04-19T09:45:28.999Z</time></trkpt><trkpt lat="40.40449516334433" lon="15.735593047569163"><ele>660.0</ele><time>2026-04-19T09:45:29.999Z</time></trkpt><trkpt lat="40.40456366409244" lon="15.735598257160712"><ele>660.1666666666666</ele><time>2026-04-19T09:45:30.999Z</time></trkpt><trkpt lat="40.40468715615778" lon="15.735596501402384"><ele>660.3333333333334</ele><time>2026-04-19T09:45:32.999Z</time></trkpt><trkpt lat="40.404761308581136" lon="15.735595056639408"><ele>660.5</ele><time>2026-04-19T09:45:33.999Z</time></trkpt><trkpt lat="40.404837171633886" lon="15.735573129512808"><ele>660.6666666666667</ele><time>2026-04-19T09:45:34.999Z</time></trkpt><trkpt lat="40.40491495796098" lon="15.735595031477715"><ele>660.8333333333334</ele><time>2026-04-19T09:45:35.999Z</time></trkpt><trkpt lat="40.40499282794496" lon="15.735607376383884"><ele>661.0</ele><time>2026-04-19T09:45:36.999Z</time></trkpt><trkpt lat="40.405090703964014" lon="15.735715375987605"><ele>661.0</ele><time>2026-04-19T09:45:38.999Z</time></trkpt><trkpt lat="40.40515165860176" lon="15.735779318214737"><ele>661.0</ele><time>2026-04-19T09:45:39.999Z</time></trkpt><trkpt lat="40.40522506824953" lon="15.73580631700938"><ele>661.0</ele><time>2026-04-19T09:45:40.999Z</time></trkpt><trkpt lat="40.405315149920966" lon="15.735771878580795"><ele>661.0</ele><time>2026-04-19T09:45:41.999Z</time></trkpt><trkpt lat="40.405414004747485" lon="15.735746185069978"><ele>661.0</ele><time>2026-04-19T09:45:42.999Z</time></trkpt><trkpt lat="40.40551220731614" lon="15.735736600070311"><ele>661.0</ele><time>2026-04-19T09:45:43.999Z</time></trkpt><trkpt lat="40.40558719853638" lon="15.735739667499463"><ele>661.0</ele><time>2026-04-19T09:45:44.999Z</time></trkpt><trkpt lat="40.405712682053895" lon="15.735780107858096"><ele>661.0</ele><time>2026-04-19T09:45:46.999Z</time></trkpt><trkpt lat="40.40577471533613" lon="15.73580065141912"><ele>661.0</ele><time>2026-04-19T09:45:47.999Z</time></trkpt><trkpt lat="40.405902557831226" lon="15.735849832703058"><ele>661.0</ele><time>2026-04-19T09:45:49.999Z</time></trkpt><trkpt lat="40.40602409243034" lon="15.735883627725084"><ele>661.0</ele><time>2026-04-19T09:45:51.999Z</time></trkpt><trkpt lat="40.406143555558614" lon="15.7359008201013"><ele>661.0</ele><time>2026-04-19T09:45:53.999Z</time></trkpt><trkpt lat="40.406256266103384" lon="15.735882901194282"><ele>661.0</ele><time>2026-04-19T09:45:55.999Z</time></trkpt><trkpt lat="40.40635936315991" lon="15.735868691022587"><ele>661.0</ele><time>2026-04-19T09:45:57.999Z</time></trkpt><trkpt lat="40.4064660120514" lon="15.735869646044781"><ele>661.0</ele><time>2026-04-19T09:45:59.999Z</time></trkpt><trkpt lat="40.40655181050897" lon="15.735857080025442"><ele>661.5999999999999</ele><time>2026-04-19T09:46:01.998Z</time></trkpt><trkpt lat="40.406638030274586" lon="15.73584504459828"><ele>662.2</ele><time>2026-04-19T09:46:03.998Z</time></trkpt><trkpt lat="40.40674066327157" lon="15.73583317341259"><ele>662.8</ele><time>2026-04-19T09:46:05.998Z</time></trkpt><trkpt lat="40.4068517302011" lon="15.735864341564914"><ele>663.4000000000001</ele><time>2026-04-19T09:46:07.998Z</time></trkpt><trkpt lat="40.40697121945297" lon="15.73590246072631"><ele>664.0</ele><time>2026-04-19T09:46:09.998Z</time></trkpt><trkpt lat="40.407032827723086" lon="15.735926845320863"><ele>664.0</ele><time>2026-04-19T09:46:10.998Z</time></trkpt><trkpt lat="40.4070941975639" lon="15.73595339512231"><ele>664.0</ele><time>2026-04-19T09:46:11.998Z</time></trkpt><trkpt lat="40.40719940716739" lon="15.736012881593046"><ele>664.0</ele><time>2026-04-19T09:46:13.998Z</time></trkpt><trkpt lat="40.40726832046878" lon="15.736033425151769"><ele>664.0</ele><time>2026-04-19T09:46:15.998Z</time></trkpt><trkpt lat="40.40719887367847" lon="15.73611339788187"><ele>664.0</ele><time>2026-04-19T09:46:18.998Z</time></trkpt><trkpt lat="40.4070839891933" lon="15.73614770088346"><ele>664.0</ele><time>2026-04-19T09:46:20.998Z</time></trkpt><trkpt lat="40.40701258801671" lon="15.736197190839766"><ele>664.0</ele><time>2026-04-19T09:46:21.998Z</time></trkpt><trkpt lat="40.40693613893219" lon="15.736248018083593"><ele>664.0</ele><time>2026-04-19T09:46:22.998Z</time></trkpt><trkpt lat="40.40685347535043" lon="15.736302977030178"><ele>664.0</ele><time>2026-04-19T09:46:23.998Z</time></trkpt><trkpt lat="40.40676494775331" lon="15.736361834671133"><ele>664.0</ele><time>2026-04-19T09:46:24.998Z</time></trkpt><trkpt lat="40.40667239146753" lon="15.736423370816201"><ele>664.0</ele><time>2026-04-19T09:46:25.998Z</time></trkpt><trkpt lat="40.406574803324204" lon="15.736488252359008"><ele>664.0</ele><time>2026-04-19T09:46:26.998Z</time></trkpt><trkpt lat="40.406477285347655" lon="15.736553087273014"><ele>664.0</ele><time>2026-04-19T09:46:27.998Z</time></trkpt><trkpt lat="40.40637390136853" lon="15.736621822226363"><ele>664.0</ele><time>2026-04-19T09:46:28.998Z</time></trkpt><trkpt lat="40.4062668758955" lon="15.736689741741642"><ele>663.75</ele><time>2026-04-19T09:46:29.998Z</time></trkpt><trkpt lat="40.40615233113716" lon="15.736757549804135"><ele>663.5</ele><time>2026-04-19T09:46:30.998Z</time></trkpt><trkpt lat="40.40604292637083" lon="15.73682231505975"><ele>663.25</ele><time>2026-04-19T09:46:32Z</time></trkpt><trkpt lat="40.405931625139736" lon="15.736888202986458"><ele>663.0</ele><time>2026-04-19T09:46:33Z</time></trkpt><trkpt lat="40.405817929447174" lon="15.736957137182776"><ele>663.0</ele><time>2026-04-19T09:46:34Z</time></trkpt><trkpt lat="40.40570618702601" lon="15.737026971547321"><ele>663.0</ele><time>2026-04-19T09:46:35Z</time></trkpt><trkpt lat="40.40559269386272" lon="15.737092814430063"><ele>663.0</ele><time>2026-04-19T09:46:36Z</time></trkpt><trkpt lat="40.405475976739204" lon="15.737156039358913"><ele>663.0</ele><time>2026-04-19T09:46:37Z</time></trkpt><trkpt lat="40.405354100949225" lon="15.737222057701826"><ele>662.25</ele><time>2026-04-19T09:46:38Z</time></trkpt><trkpt lat="40.40523197416676" lon="15.737285592096512"><ele>661.5</ele><time>2026-04-19T09:46:39Z</time></trkpt><trkpt lat="40.405109305833356" lon="15.737348202245244"><ele>660.75</ele><time>2026-04-19T09:46:40Z</time></trkpt><trkpt lat="40.40498413185585" lon="15.737414346500696"><ele>660.0</ele><time>2026-04-19T09:46:41Z</time></trkpt><trkpt lat="40.40486323867408" lon="15.737478228729053"><ele>660.0</ele><time>2026-04-19T09:46:42Z</time></trkpt><trkpt lat="40.40474401019549" lon="15.737540974433054"><ele>660.0</ele><time>2026-04-19T09:46:43Z</time></trkpt><trkpt lat="40.40462767604762" lon="15.73760125717006"><ele>660.0</ele><time>2026-04-19T09:46:44Z</time></trkpt><trkpt lat="40.404511569200494" lon="15.737660521225731"><ele>660.0</ele><time>2026-04-19T09:46:45Z</time></trkpt><trkpt lat="40.40439100146115" lon="15.737718988460784"><ele>660.25</ele><time>2026-04-19T09:46:46Z</time></trkpt><trkpt lat="40.40427338446507" lon="15.73777110402192"><ele>660.5</ele><time>2026-04-19T09:46:47Z</time></trkpt><trkpt lat="40.40415402951562" lon="15.73781967404619"><ele>660.75</ele><time>2026-04-19T09:46:48Z</time></trkpt><trkpt lat="40.404036495669224" lon="15.737867265427182"><ele>661.0</ele><time>2026-04-19T09:46:49Z</time></trkpt><trkpt lat="40.40392131552454" lon="15.73791644231491"><ele>660.25</ele><time>2026-04-19T09:46:50Z</time></trkpt><trkpt lat="40.40380345429114" lon="15.737968068302607"><ele>659.5</ele><time>2026-04-19T09:46:51Z</time></trkpt><trkpt lat="40.40368471823066" lon="15.738016698501868"><ele>658.75</ele><time>2026-04-19T09:46:52Z</time></trkpt><trkpt lat="40.40356724160859" lon="15.738062364204637"><ele>658.0</ele><time>2026-04-19T09:46:53Z</time></trkpt><trkpt lat="40.40346009110556" lon="15.73810211065376"><ele>658.0</ele><time>2026-04-19T09:46:54Z</time></trkpt><trkpt lat="40.40335806410643" lon="15.738139401401527"><ele>658.0</ele><time>2026-04-19T09:46:55Z</time></trkpt><trkpt lat="40.40326285038422" lon="15.738172582330598"><ele>658.0</ele><time>2026-04-19T09:46:56Z</time></trkpt><trkpt lat="40.40316171692037" lon="15.738207826066166"><ele>658.0</ele><time>2026-04-19T09:46:57Z</time></trkpt><trkpt lat="40.40306418734098" lon="15.738241814071262"><ele>658.0</ele><time>2026-04-19T09:46:58Z</time></trkpt><trkpt lat="40.40297354589115" lon="15.738273401857477"><ele>657.8333333333334</ele><time>2026-04-19T09:46:59Z</time></trkpt><trkpt lat="40.402887541575666" lon="15.738306190461772"><ele>657.6666666666667</ele><time>2026-04-19T09:47:00Z</time></trkpt><trkpt lat="40.40280846115561" lon="15.738344248717267"><ele>657.5</ele><time>2026-04-19T09:47:01Z</time></trkpt><trkpt lat="40.40274993325637" lon="15.738383969949616"><ele>657.3333333333334</ele><time>2026-04-19T09:47:02Z</time></trkpt><trkpt lat="40.402711663884695" lon="15.738504177271242"><ele>657.1666666666666</ele><time>2026-04-19T09:47:04Z</time></trkpt><trkpt lat="40.40272357987015" lon="15.738605350430165"><ele>657.0</ele><time>2026-04-19T09:47:06Z</time></trkpt><trkpt lat="40.402741687103344" lon="15.738731511851267"><ele>657.0</ele><time>2026-04-19T09:47:08Z</time></trkpt><trkpt lat="40.402759152984" lon="15.738840856594294"><ele>657.0</ele><time>2026-04-19T09:47:13Z</time></trkpt><trkpt lat="40.40277233714852" lon="15.73892308829301"><ele>657.0</ele><time>2026-04-19T09:47:16.999Z</time></trkpt><trkpt lat="40.402821582698095" lon="15.73897766677859"><ele>657.0</ele><time>2026-04-19T09:47:56.999Z</time></trkpt><trkpt lat="40.40283337449579" lon="15.738895545979405"><ele>657.0</ele><time>2026-04-19T09:48:05.999Z</time></trkpt><trkpt lat="40.40280667404116" lon="15.738787676477862"><ele>657.0</ele><time>2026-04-19T09:48:07.998Z</time></trkpt><trkpt lat="40.40279219007378" lon="15.738680953823087"><ele>657.0</ele><time>2026-04-19T09:48:09.998Z</time></trkpt><trkpt lat="40.40275915088972" lon="15.738576323076984"><ele>657.0</ele><time>2026-04-19T09:48:13.998Z</time></trkpt><trkpt lat="40.40270968553163" lon="15.738504162364745"><ele>657.0</ele><time>2026-04-19T09:48:16.998Z</time></trkpt><trkpt lat="40.40263607058479" lon="15.738538293276802"><ele>657.0</ele><time>2026-04-19T09:48:18.998Z</time></trkpt><trkpt lat="40.402550087384725" lon="15.738558859257248"><ele>657.0</ele><time>2026-04-19T09:48:20.998Z</time></trkpt><trkpt lat="40.40246162676083" lon="15.738577579521811"><ele>657.0</ele><time>2026-04-19T09:48:22.998Z</time></trkpt><trkpt lat="40.40234317848996" lon="15.73859680057719"><ele>657.0</ele><time>2026-04-19T09:48:24.998Z</time></trkpt><trkpt lat="40.402227585228644" lon="15.73861135205838"><ele>657.0</ele><time>2026-04-19T09:48:26.998Z</time></trkpt><trkpt lat="40.402160766226345" lon="15.738610938626287"><ele>657.0</ele><time>2026-04-19T09:48:28.998Z</time></trkpt><trkpt lat="40.40209545984769" lon="15.73858987217982"><ele>657.0</ele><time>2026-04-19T09:48:31.998Z</time></trkpt><trkpt lat="40.40203195520528" lon="15.738562966320902"><ele>657.0</ele><time>2026-04-19T09:48:34.998Z</time></trkpt><trkpt lat="40.4019536692622" lon="15.738488139355763"><ele>657.0</ele><time>2026-04-19T09:48:38Z</time></trkpt><trkpt lat="40.40185407799957" lon="15.73839247069708"><ele>657.0</ele><time>2026-04-19T09:48:40Z</time></trkpt><trkpt lat="40.40178509592429" lon="15.738338458980458"><ele>656.5</ele><time>2026-04-19T09:48:41Z</time></trkpt><trkpt lat="40.40171971183956" lon="15.738308000655104"><ele>656.0</ele><time>2026-04-19T09:48:42Z</time></trkpt><trkpt lat="40.40164290705196" lon="15.738281178144469"><ele>655.5</ele><time>2026-04-19T09:48:43Z</time></trkpt><trkpt lat="40.401566612078156" lon="15.73829991308744"><ele>655.0</ele><time>2026-04-19T09:48:44Z</time></trkpt><trkpt lat="40.40149508356669" lon="15.738302683809954"><ele>654.5</ele><time>2026-04-19T09:48:45Z</time></trkpt><trkpt lat="40.40142504271437" lon="15.738294554666231"><ele>654.0</ele><time>2026-04-19T09:48:46Z</time></trkpt><trkpt lat="40.40131088292418" lon="15.738326924984285"><ele>653.6666666666666</ele><time>2026-04-19T09:48:48Z</time></trkpt><trkpt lat="40.40124148358961" lon="15.738350069576715"><ele>653.3333333333334</ele><time>2026-04-19T09:48:49Z</time></trkpt><trkpt lat="40.40117000185292" lon="15.738373908696484"><ele>653.0</ele><time>2026-04-19T09:48:50Z</time></trkpt><trkpt lat="40.40110673178334" lon="15.738392684162413"><ele>652.6666666666667</ele><time>2026-04-19T09:48:51Z</time></trkpt><trkpt lat="40.40104446100325" lon="15.7384049829837"><ele>652.3333333333334</ele><time>2026-04-19T09:48:52Z</time></trkpt><trkpt lat="40.40090455077481" lon="15.7383913379431"><ele>652.0</ele><time>2026-04-19T09:48:54Z</time></trkpt><trkpt lat="40.40081934783567" lon="15.738391281972538"><ele>652.0</ele><time>2026-04-19T09:48:55Z</time></trkpt><trkpt lat="40.40074296340036" lon="15.738400897191811"><ele>652.0</ele><time>2026-04-19T09:48:56Z</time></trkpt><trkpt lat="40.400677210529324" lon="15.738413583865327"><ele>652.0</ele><time>2026-04-19T09:48:57Z</time></trkpt><trkpt lat="40.40054569869681" lon="15.738432383881436"><ele>652.0</ele><time>2026-04-19T09:48:59Z</time></trkpt><trkpt lat="40.40047105334881" lon="15.738449223199998"><ele>652.0</ele><time>2026-04-19T09:49:00Z</time></trkpt><trkpt lat="40.4004013078225" lon="15.738471912272415"><ele>652.0</ele><time>2026-04-19T09:49:01Z</time></trkpt><trkpt lat="40.40031945055066" lon="15.738530361641141"><ele>652.0</ele><time>2026-04-19T09:49:02Z</time></trkpt><trkpt lat="40.40023923081051" lon="15.738583806361026"><ele>652.0</ele><time>2026-04-19T09:49:03Z</time></trkpt><trkpt lat="40.40015987708981" lon="15.738620973386931"><ele>652.0</ele><time>2026-04-19T09:49:04Z</time></trkpt><trkpt lat="40.400075111712525" lon="15.738656060230634"><ele>652.0</ele><time>2026-04-19T09:49:05Z</time></trkpt><trkpt lat="40.40000254993098" lon="15.738685294686464"><ele>652.0</ele><time>2026-04-19T09:49:06Z</time></trkpt><trkpt lat="40.39992902362085" lon="15.738710365225318"><ele>652.0</ele><time>2026-04-19T09:49:07Z</time></trkpt><trkpt lat="40.39984747971778" lon="15.738731955403404"><ele>652.0</ele><time>2026-04-19T09:49:08Z</time></trkpt><trkpt lat="40.399761347878325" lon="15.738741908109583"><ele>652.0</ele><time>2026-04-19T09:49:09Z</time></trkpt><trkpt lat="40.39966553673182" lon="15.738748023713429"><ele>652.0</ele><time>2026-04-19T09:49:10Z</time></trkpt><trkpt lat="40.399562063120484" lon="15.738752309430959"><ele>652.0</ele><time>2026-04-19T09:49:11Z</time></trkpt><trkpt lat="40.399458421590296" lon="15.738752127573674"><ele>652.0</ele><time>2026-04-19T09:49:12Z</time></trkpt><trkpt lat="40.39936655057766" lon="15.738751002974622"><ele>651.4000000000001</ele><time>2026-04-19T09:49:13Z</time></trkpt><trkpt lat="40.399273319629316" lon="15.738743000521605"><ele>650.8000000000001</ele><time>2026-04-19T09:49:14Z</time></trkpt><trkpt lat="40.39918038350785" lon="15.738731620757848"><ele>650.2</ele><time>2026-04-19T09:49:15Z</time></trkpt><trkpt lat="40.399074317030596" lon="15.738717833280962"><ele>649.6</ele><time>2026-04-19T09:49:16Z</time></trkpt><trkpt lat="40.398976320279125" lon="15.738693373943411"><ele>649.0</ele><time>2026-04-19T09:49:17Z</time></trkpt><trkpt lat="40.398893127369846" lon="15.738662784284083"><ele>648.6</ele><time>2026-04-19T09:49:18Z</time></trkpt><trkpt lat="40.39881291085418" lon="15.738651934499105"><ele>648.2</ele><time>2026-04-19T09:49:18.999Z</time></trkpt><trkpt lat="40.398735877229065" lon="15.738635255132046"><ele>647.8000000000001</ele><time>2026-04-19T09:49:19.999Z</time></trkpt><trkpt lat="40.398642832018005" lon="15.738647596082895"><ele>647.4000000000001</ele><time>2026-04-19T09:49:20.999Z</time></trkpt><trkpt lat="40.39854978142921" lon="15.73865241157188"><ele>647.0</ele><time>2026-04-19T09:49:21.999Z</time></trkpt><trkpt lat="40.39844350896939" lon="15.738630793149815"><ele>647.0</ele><time>2026-04-19T09:49:22.999Z</time></trkpt><trkpt lat="40.39833743015412" lon="15.738553018271261"><ele>647.0</ele><time>2026-04-19T09:49:23.999Z</time></trkpt><trkpt lat="40.39822169362997" lon="15.738510273147565"><ele>647.0</ele><time>2026-04-19T09:49:24.999Z</time></trkpt><trkpt lat="40.39812297207697" lon="15.73846367379923"><ele>647.0</ele><time>2026-04-19T09:49:25.999Z</time></trkpt><trkpt lat="40.39802738535758" lon="15.738420598005144"><ele>647.0</ele><time>2026-04-19T09:49:26.999Z</time></trkpt><trkpt lat="40.39790517117977" lon="15.738370127453372"><ele>646.8333333333333</ele><time>2026-04-19T09:49:27.999Z</time></trkpt><trkpt lat="40.39781214238523" lon="15.738308379987492"><ele>646.6666666666666</ele><time>2026-04-19T09:49:28.999Z</time></trkpt><trkpt lat="40.39773203469877" lon="15.738267167584755"><ele>646.5</ele><time>2026-04-19T09:49:29.999Z</time></trkpt><trkpt lat="40.39766056262731" lon="15.738261510619761"><ele>646.3333333333334</ele><time>2026-04-19T09:49:30.999Z</time></trkpt><trkpt lat="40.39757875099037" lon="15.738276121063853"><ele>646.1666666666667</ele><time>2026-04-19T09:49:31.999Z</time></trkpt><trkpt lat="40.397486932381874" lon="15.738328592552309"><ele>646.0</ele><time>2026-04-19T09:49:32.999Z</time></trkpt><trkpt lat="40.397410151466566" lon="15.738362495972636"><ele>646.0</ele><time>2026-04-19T09:49:33.999Z</time></trkpt><trkpt lat="40.39734541607583" lon="15.738393035326164"><ele>646.0</ele><time>2026-04-19T09:49:34.999Z</time></trkpt><trkpt lat="40.39727810577929" lon="15.738354650388116"><ele>646.0</ele><time>2026-04-19T09:49:35.999Z</time></trkpt><trkpt lat="40.3972113669603" lon="15.738290457439696"><ele>646.0</ele><time>2026-04-19T09:49:36.999Z</time></trkpt><trkpt lat="40.39714067976526" lon="15.738235955473122"><ele>646.0</ele><time>2026-04-19T09:49:37.999Z</time></trkpt><trkpt lat="40.3970520375499" lon="15.73820550830559"><ele>646.0</ele><time>2026-04-19T09:49:38.999Z</time></trkpt><trkpt lat="40.39694685072164" lon="15.738180858858017"><ele>645.1999999999999</ele><time>2026-04-19T09:49:39.999Z</time></trkpt><trkpt lat="40.39683160511676" lon="15.738196662127365"><ele>644.4</ele><time>2026-04-19T09:49:40.999Z</time></trkpt><trkpt lat="40.39672387410611" lon="15.738202284019504"><ele>643.6</ele><time>2026-04-19T09:49:41.999Z</time></trkpt><trkpt lat="40.3966122395743" lon="15.738222563731416"><ele>642.8</ele><time>2026-04-19T09:49:42.999Z</time></trkpt><trkpt lat="40.39650493287343" lon="15.738220892710684"><ele>642.0</ele><time>2026-04-19T09:49:43.999Z</time></trkpt><trkpt lat="40.39639126134189" lon="15.738213646183008"><ele>642.0</ele><time>2026-04-19T09:49:44.999Z</time></trkpt><trkpt lat="40.39627475597478" lon="15.738211135961379"><ele>642.0</ele><time>2026-04-19T09:49:45.999Z</time></trkpt><trkpt lat="40.396160545591776" lon="15.738222958444645"><ele>642.0</ele><time>2026-04-19T09:49:46.999Z</time></trkpt><trkpt lat="40.396049429649366" lon="15.738235332294042"><ele>642.0</ele><time>2026-04-19T09:49:47.999Z</time></trkpt><trkpt lat="40.39594713702708" lon="15.738236547610162"><ele>642.0</ele><time>2026-04-19T09:49:48.999Z</time></trkpt><trkpt lat="40.39584318845045" lon="15.738234898162096"><ele>642.0</ele><time>2026-04-19T09:49:49.999Z</time></trkpt><trkpt lat="40.39574616627329" lon="15.73823300312435"><ele>642.0</ele><time>2026-04-19T09:49:50.999Z</time></trkpt><trkpt lat="40.395656746064944" lon="15.738240523685368"><ele>642.0</ele><time>2026-04-19T09:49:51.999Z</time></trkpt><trkpt lat="40.395563975784384" lon="15.73824219962706"><ele>642.0</ele><time>2026-04-19T09:49:52.999Z</time></trkpt><trkpt lat="40.39547718266601" lon="15.738254151223595"><ele>642.0</ele><time>2026-04-19T09:49:53.999Z</time></trkpt><trkpt lat="40.39539941455719" lon="15.738276642811329"><ele>642.0</ele><time>2026-04-19T09:49:54.999Z</time></trkpt><trkpt lat="40.395319395779964" lon="15.738264336791442"><ele>641.2</ele><time>2026-04-19T09:49:55.999Z</time></trkpt><trkpt lat="40.39523716191438" lon="15.738254264939803"><ele>640.4000000000001</ele><time>2026-04-19T09:49:56.999Z</time></trkpt><trkpt lat="40.3951455786729" lon="15.73824251759466"><ele>639.5999999999999</ele><time>2026-04-19T09:49:57.999Z</time></trkpt><trkpt lat="40.39505742010911" lon="15.738227985196627"><ele>638.8</ele><time>2026-04-19T09:49:58.999Z</time></trkpt><trkpt lat="40.39494619873863" lon="15.738176211742259"><ele>638.0</ele><time>2026-04-19T09:49:59.999Z</time></trkpt><trkpt lat="40.394836116655156" lon="15.738163998649533"><ele>638.0</ele><time>2026-04-19T09:50:00.999Z</time></trkpt><trkpt lat="40.39473780021479" lon="15.738117886081486"><ele>638.0</ele><time>2026-04-19T09:50:01.999Z</time></trkpt><trkpt lat="40.3946462542287" lon="15.738064856175761"><ele>638.0</ele><time>2026-04-19T09:50:02.999Z</time></trkpt><trkpt lat="40.39454270552352" lon="15.738011742419092"><ele>638.0</ele><time>2026-04-19T09:50:03.999Z</time></trkpt><trkpt lat="40.39444279306105" lon="15.73794787884195"><ele>638.0</ele><time>2026-04-19T09:50:04.999Z</time></trkpt><trkpt lat="40.394349903711415" lon="15.737884933072054"><ele>638.5</ele><time>2026-04-19T09:50:05.999Z</time></trkpt><trkpt lat="40.394260782453586" lon="15.73783540822154"><ele>639.0</ele><time>2026-04-19T09:50:06.999Z</time></trkpt><trkpt lat="40.3941763706083" lon="15.737813320504404"><ele>639.5</ele><time>2026-04-19T09:50:07.999Z</time></trkpt><trkpt lat="40.39410499980007" lon="15.737814116601912"><ele>640.0</ele><time>2026-04-19T09:50:08.999Z</time></trkpt><trkpt lat="40.39404812903941" lon="15.737890241880395"><ele>640.5</ele><time>2026-04-19T09:50:09.999Z</time></trkpt><trkpt lat="40.39399712289853" lon="15.737948687085925"><ele>641.0</ele><time>2026-04-19T09:50:10.998Z</time></trkpt><trkpt lat="40.39394423299163" lon="15.73799671182467"><ele>641.0</ele><time>2026-04-19T09:50:11.998Z</time></trkpt><trkpt lat="40.39386433770947" lon="15.738013506268768"><ele>641.0</ele><time>2026-04-19T09:50:12.998Z</time></trkpt><trkpt lat="40.393767095293725" lon="15.737994118803757"><ele>641.0</ele><time>2026-04-19T09:50:13.998Z</time></trkpt><trkpt lat="40.39365472317599" lon="15.737981604110152"><ele>641.0</ele><time>2026-04-19T09:50:14.998Z</time></trkpt><trkpt lat="40.39353621017629" lon="15.73797756305053"><ele>641.0</ele><time>2026-04-19T09:50:15.998Z</time></trkpt><trkpt lat="40.39341628962936" lon="15.737971265057725"><ele>639.75</ele><time>2026-04-19T09:50:16.998Z</time></trkpt><trkpt lat="40.39329152052827" lon="15.737957945173934"><ele>638.5</ele><time>2026-04-19T09:50:17.998Z</time></trkpt><trkpt lat="40.39316170429642" lon="15.737943643240394"><ele>637.25</ele><time>2026-04-19T09:50:18.998Z</time></trkpt><trkpt lat="40.393034797748285" lon="15.737934257138543"><ele>636.0</ele><time>2026-04-19T09:50:19.998Z</time></trkpt><trkpt lat="40.39292732395862" lon="15.737931034093839"><ele>635.8333333333334</ele><time>2026-04-19T09:50:20.998Z</time></trkpt><trkpt lat="40.39282868155567" lon="15.737935821605605"><ele>635.6666666666666</ele><time>2026-04-19T09:50:21.998Z</time></trkpt><trkpt lat="40.39273823917736" lon="15.737910537313741"><ele>635.5</ele><time>2026-04-19T09:50:22.998Z</time></trkpt><trkpt lat="40.39265112194808" lon="15.73790162607851"><ele>635.3333333333333</ele><time>2026-04-19T09:50:23.998Z</time></trkpt><trkpt lat="40.39257052303083" lon="15.737884050374527"><ele>635.1666666666666</ele><time>2026-04-19T09:50:24.998Z</time></trkpt><trkpt lat="40.3924927503638" lon="15.737877284100188"><ele>635.0</ele><time>2026-04-19T09:50:25.998Z</time></trkpt><trkpt lat="40.392423681512206" lon="15.73783881453773"><ele>635.0</ele><time>2026-04-19T09:50:26.998Z</time></trkpt><trkpt lat="40.39235103646511" lon="15.737777474402234"><ele>635.0</ele><time>2026-04-19T09:50:27.998Z</time></trkpt><trkpt lat="40.3922726598835" lon="15.737712899765551"><ele>635.0</ele><time>2026-04-19T09:50:28.998Z</time></trkpt><trkpt lat="40.3921793840921" lon="15.737674542361738"><ele>635.0</ele><time>2026-04-19T09:50:29.998Z</time></trkpt><trkpt lat="40.39209311501761" lon="15.737657726328125"><ele>635.0</ele><time>2026-04-19T09:50:30.998Z</time></trkpt><trkpt lat="40.39201251682208" lon="15.737631788638566"><ele>635.0</ele><time>2026-04-19T09:50:31.998Z</time></trkpt><trkpt lat="40.39193038352811" lon="15.737660135362102"><ele>634.8333333333333</ele><time>2026-04-19T09:50:32.998Z</time></trkpt><trkpt lat="40.39183583715107" lon="15.73766926719182"><ele>634.6666666666666</ele><time>2026-04-19T09:50:33.998Z</time></trkpt><trkpt lat="40.391737005309224" lon="15.737678847661194"><ele>634.5</ele><time>2026-04-19T09:50:34.998Z</time></trkpt><trkpt lat="40.39164777193566" lon="15.73768085303612"><ele>634.3333333333334</ele><time>2026-04-19T09:50:35.998Z</time></trkpt><trkpt lat="40.391571095341874" lon="15.73773102714967"><ele>634.1666666666667</ele><time>2026-04-19T09:50:36.998Z</time></trkpt><trkpt lat="40.39150423416291" lon="15.737789353601029"><ele>634.0</ele><time>2026-04-19T09:50:37.998Z</time></trkpt><trkpt lat="40.391426988510425" lon="15.737819788240833"><ele>634.2</ele><time>2026-04-19T09:50:38.998Z</time></trkpt><trkpt lat="40.391329591929626" lon="15.737835849664991"><ele>634.4</ele><time>2026-04-19T09:50:39.998Z</time></trkpt><trkpt lat="40.39122702069101" lon="15.737855421827252"><ele>634.6</ele><time>2026-04-19T09:50:40.998Z</time></trkpt><trkpt lat="40.39112228716287" lon="15.73787587520015"><ele>634.8</ele><time>2026-04-19T09:50:41.998Z</time></trkpt><trkpt lat="40.39102005511643" lon="15.737900302334777"><ele>635.0</ele><time>2026-04-19T09:50:42.998Z</time></trkpt><trkpt lat="40.390929566148486" lon="15.73793120512626"><ele>635.0</ele><time>2026-04-19T09:50:44Z</time></trkpt><trkpt lat="40.39084285128481" lon="15.737964066380938"><ele>635.0</ele><time>2026-04-19T09:50:45Z</time></trkpt><trkpt lat="40.39074688962889" lon="15.73800043179074"><ele>635.0</ele><time>2026-04-19T09:50:46Z</time></trkpt><trkpt lat="40.390648576036654" lon="15.738042480880367"><ele>635.0</ele><time>2026-04-19T09:50:47Z</time></trkpt><trkpt lat="40.39055913760857" lon="15.738085409196358"><ele>635.0</ele><time>2026-04-19T09:50:48Z</time></trkpt><trkpt lat="40.39047029233787" lon="15.738137725160843"><ele>634.8</ele><time>2026-04-19T09:50:49Z</time></trkpt><trkpt lat="40.3903790287761" lon="15.73819241055523"><ele>634.6</ele><time>2026-04-19T09:50:50Z</time></trkpt><trkpt lat="40.3902786144759" lon="15.7382341614071"><ele>634.4</ele><time>2026-04-19T09:50:51Z</time></trkpt><trkpt lat="40.390181740514855" lon="15.73826104370974"><ele>634.2</ele><time>2026-04-19T09:50:52Z</time></trkpt><trkpt lat="40.3900853130751" lon="15.738271915032218"><ele>634.0</ele><time>2026-04-19T09:50:53Z</time></trkpt><trkpt lat="40.38999445332555" lon="15.738263765690512"><ele>634.0</ele><time>2026-04-19T09:50:54Z</time></trkpt><trkpt lat="40.389911704591704" lon="15.738249260080769"><ele>634.0</ele><time>2026-04-19T09:50:55Z</time></trkpt><trkpt lat="40.389822579167344" lon="15.738249203768786"><ele>634.0</ele><time>2026-04-19T09:50:56Z</time></trkpt><trkpt lat="40.38974421269075" lon="15.73823817537594"><ele>634.0</ele><time>2026-04-19T09:50:57Z</time></trkpt><trkpt lat="40.38965759507071" lon="15.73824890007032"><ele>634.0</ele><time>2026-04-19T09:50:58Z</time></trkpt><trkpt lat="40.38959126711336" lon="15.738238297022344"><ele>634.0</ele><time>2026-04-19T09:50:59Z</time></trkpt><trkpt lat="40.38946897455647" lon="15.738257291680604"><ele>633.0</ele><time>2026-04-19T09:51:01Z</time></trkpt><trkpt lat="40.38937934117867" lon="15.738265603901757"><ele>632.0</ele><time>2026-04-19T09:51:03Z</time></trkpt><trkpt lat="40.389298423790116" lon="15.738270638735104"><ele>631.0</ele><time>2026-04-19T09:51:18Z</time></trkpt><trkpt lat="40.38920120160697" lon="15.738229894619032"><ele>630.0</ele><time>2026-04-19T09:51:20Z</time></trkpt><trkpt lat="40.38912964331449" lon="15.738383551741231"><ele>629.0</ele><time>2026-04-19T09:51:21Z</time></trkpt><trkpt lat="40.38904068055043" lon="15.738411281183472"><ele>629.0</ele><time>2026-04-19T09:51:22.999Z</time></trkpt><trkpt lat="40.38897093912539" lon="15.738433037268955"><ele>629.0</ele><time>2026-04-19T09:51:24.999Z</time></trkpt><trkpt lat="40.38888741075753" lon="15.738468364381534"><ele>629.0</ele><time>2026-04-19T09:51:26.999Z</time></trkpt><trkpt lat="40.38882606446702" lon="15.738494470852533"><ele>629.0</ele><time>2026-04-19T09:51:27.999Z</time></trkpt><trkpt lat="40.38871922351912" lon="15.738549297105216"><ele>629.0</ele><time>2026-04-19T09:51:29.999Z</time></trkpt><trkpt lat="40.38862513973814" lon="15.738524800876249"><ele>629.0</ele><time>2026-04-19T09:51:31.999Z</time></trkpt><trkpt lat="40.38850491852558" lon="15.738470720621464"><ele>629.1428571428571</ele><time>2026-04-19T09:51:33.999Z</time></trkpt><trkpt lat="40.388432777174025" lon="15.738444216995115"><ele>629.2857142857143</ele><time>2026-04-19T09:51:34.999Z</time></trkpt><trkpt lat="40.388354998854" lon="15.738415418098501"><ele>629.4285714285714</ele><time>2026-04-19T09:51:35.999Z</time></trkpt><trkpt lat="40.38827736784657" lon="15.738394966352129"><ele>629.5714285714286</ele><time>2026-04-19T09:51:36.999Z</time></trkpt><trkpt lat="40.38821062942265" lon="15.738352253303168"><ele>629.7142857142858</ele><time>2026-04-19T09:51:37.999Z</time></trkpt><trkpt lat="40.388146069936056" lon="15.73833587823378"><ele>629.8571428571429</ele><time>2026-04-19T09:51:38.999Z</time></trkpt><trkpt lat="40.38807990956159" lon="15.738311821929384"><ele>630.0</ele><time>2026-04-19T09:51:39.999Z</time></trkpt><trkpt lat="40.38801161688552" lon="15.738287837629853"><ele>630.2857142857143</ele><time>2026-04-19T09:51:40.999Z</time></trkpt><trkpt lat="40.38794217237349" lon="15.738291065091584"><ele>630.5714285714286</ele><time>2026-04-19T09:51:41.999Z</time></trkpt><trkpt lat="40.38787609736996" lon="15.738267841602953"><ele>630.8571428571429</ele><time>2026-04-19T09:51:42.999Z</time></trkpt><trkpt lat="40.387806894641635" lon="15.738234676939271"><ele>631.1428571428571</ele><time>2026-04-19T09:51:43.999Z</time></trkpt><trkpt lat="40.38774377532072" lon="15.73820055065325"><ele>631.4285714285714</ele><time>2026-04-19T09:51:44.999Z</time></trkpt><trkpt lat="40.38767606256038" lon="15.738173243114606"><ele>631.7142857142858</ele><time>2026-04-19T09:51:46.999Z</time></trkpt><trkpt lat="40.38759869505271" lon="15.738201220212401"><ele>632.0</ele><time>2026-04-19T09:51:50.999Z</time></trkpt><trkpt lat="40.387541150074206" lon="15.738243306660221"><ele>632.0</ele><time>2026-04-19T09:52:00.999Z</time></trkpt><trkpt lat="40.387530910869906" lon="15.738326434066085"><ele>632.0</ele><time>2026-04-19T09:52:03.999Z</time></trkpt><trkpt lat="40.38751329737666" lon="15.738424687598133"><ele>632.0</ele><time>2026-04-19T09:52:05.999Z</time></trkpt><trkpt lat="40.38743989964343" lon="15.738421600770932"><ele>632.0</ele><time>2026-04-19T09:52:08.999Z</time></trkpt><trkpt lat="40.38733907626362" lon="15.738395959158037"><ele>632.0</ele><time>2026-04-19T09:52:10.999Z</time></trkpt><trkpt lat="40.38727351401678" lon="15.73840193963708"><ele>632.0</ele><time>2026-04-19T09:52:13.998Z</time></trkpt><trkpt lat="40.38731114121845" lon="15.73848430755212"><ele>632.0</ele><time>2026-04-19T09:52:17.998Z</time></trkpt><trkpt lat="40.38737569541853" lon="15.738499861842218"><ele>632.0</ele><time>2026-04-19T09:52:19.998Z</time></trkpt><trkpt lat="40.38744357503762" lon="15.738559975792347"><ele>632.0</ele><time>2026-04-19T09:52:42.998Z</time></trkpt><trkpt lat="40.38751196825106" lon="15.73858213473956"><ele>632.0</ele><time>2026-04-19T09:52:43.998Z</time></trkpt><trkpt lat="40.38759988479934" lon="15.738611414955619"><ele>632.0</ele><time>2026-04-19T09:52:44.998Z</time></trkpt><trkpt lat="40.387704057429005" lon="15.738646853364926"><ele>632.0</ele><time>2026-04-19T09:52:45.998Z</time></trkpt><trkpt lat="40.38781291226979" lon="15.738682403296183"><ele>631.6</ele><time>2026-04-19T09:52:46.998Z</time></trkpt><trkpt lat="40.387918822795534" lon="15.738717186977409"><ele>631.2</ele><time>2026-04-19T09:52:47.998Z</time></trkpt><trkpt lat="40.38800568864488" lon="15.738739178360888"><ele>630.8</ele><time>2026-04-19T09:52:48.998Z</time></trkpt><trkpt lat="40.38808816129939" lon="15.738768351495253"><ele>630.4</ele><time>2026-04-19T09:52:50Z</time></trkpt><trkpt lat="40.388185214007905" lon="15.738813820490927"><ele>630.0</ele><time>2026-04-19T09:52:51Z</time></trkpt><trkpt lat="40.388290495414715" lon="15.73885454119438"><ele>630.0</ele><time>2026-04-19T09:52:52Z</time></trkpt><trkpt lat="40.38840634233753" lon="15.738901617852097"><ele>630.0</ele><time>2026-04-19T09:52:53Z</time></trkpt><trkpt lat="40.38850048309242" lon="15.738898423169276"><ele>630.0</ele><time>2026-04-19T09:52:54Z</time></trkpt><trkpt lat="40.38857914771136" lon="15.738923724793619"><ele>630.0</ele><time>2026-04-19T09:52:55Z</time></trkpt><trkpt lat="40.388666225684595" lon="15.73895585725851"><ele>630.0</ele><time>2026-04-19T09:52:56Z</time></trkpt><trkpt lat="40.38875767277839" lon="15.739002027856142"><ele>630.0</ele><time>2026-04-19T09:52:57Z</time></trkpt><trkpt lat="40.388838973093584" lon="15.739054500498131"><ele>630.0</ele><time>2026-04-19T09:52:58Z</time></trkpt><trkpt lat="40.38891965545084" lon="15.739110810149183"><ele>630.0</ele><time>2026-04-19T09:52:59Z</time></trkpt><trkpt lat="40.389001965182" lon="15.739174777632352"><ele>630.0</ele><time>2026-04-19T09:53:00Z</time></trkpt><trkpt lat="40.389088167370566" lon="15.739248100079662"><ele>630.0</ele><time>2026-04-19T09:53:01Z</time></trkpt><trkpt lat="40.38917958940004" lon="15.739307600847743"><ele>630.1666666666666</ele><time>2026-04-19T09:53:02Z</time></trkpt><trkpt lat="40.38926635183777" lon="15.739339604178257"><ele>630.3333333333334</ele><time>2026-04-19T09:53:03Z</time></trkpt><trkpt lat="40.389347194656395" lon="15.73937473816946"><ele>630.5</ele><time>2026-04-19T09:53:04Z</time></trkpt><trkpt lat="40.38941425002837" lon="15.73939756897591"><ele>630.6666666666667</ele><time>2026-04-19T09:53:05Z</time></trkpt><trkpt lat="40.389485583341056" lon="15.739422176041511"><ele>630.8333333333334</ele><time>2026-04-19T09:53:06Z</time></trkpt><trkpt lat="40.38955430138978" lon="15.739443833196907"><ele>631.0</ele><time>2026-04-19T09:53:07Z</time></trkpt><trkpt lat="40.38969039158542" lon="15.739527937467713"><ele>631.6</ele><time>2026-04-19T09:53:09Z</time></trkpt><trkpt lat="40.38973758592584" lon="15.73958825596197"><ele>632.2</ele><time>2026-04-19T09:53:10Z</time></trkpt><trkpt lat="40.38979001166797" lon="15.739651847980832"><ele>632.8</ele><time>2026-04-19T09:53:11Z</time></trkpt><trkpt lat="40.389848565559504" lon="15.739732313464863"><ele>633.4</ele><time>2026-04-19T09:53:12Z</time></trkpt><trkpt lat="40.3899590778048" lon="15.739791665106146"><ele>634.0</ele><time>2026-04-19T09:53:14Z</time></trkpt><trkpt lat="40.39007248394202" lon="15.739759368933267"><ele>634.0</ele><time>2026-04-19T09:53:21Z</time></trkpt><trkpt lat="40.390135825184124" lon="15.73973054189072"><ele>634.0</ele><time>2026-04-19T09:53:22Z</time></trkpt><trkpt lat="40.39024984180704" lon="15.739677098696093"><ele>634.0</ele><time>2026-04-19T09:53:24Z</time></trkpt><trkpt lat="40.39033792742333" lon="15.739659187424522"><ele>634.0</ele><time>2026-04-19T09:53:25Z</time></trkpt><trkpt lat="40.390428859255046" lon="15.739645512578338"><ele>634.0</ele><time>2026-04-19T09:53:26Z</time></trkpt><trkpt lat="40.39050697403407" lon="15.739655391913315"><ele>634.0</ele><time>2026-04-19T09:53:27Z</time></trkpt><trkpt lat="40.390581105419606" lon="15.739674263464675"><ele>634.0</ele><time>2026-04-19T09:53:28Z</time></trkpt><trkpt lat="40.390651409863764" lon="15.739721275386735"><ele>634.0</ele><time>2026-04-19T09:53:29Z</time></trkpt><trkpt lat="40.390717689433174" lon="15.739772252271438"><ele>634.0</ele><time>2026-04-19T09:53:29.999Z</time></trkpt><trkpt lat="40.39077562917687" lon="15.73983454501624"><ele>634.0</ele><time>2026-04-19T09:53:30.999Z</time></trkpt><trkpt lat="40.390831019600164" lon="15.739876799096344"><ele>634.0</ele><time>2026-04-19T09:53:31.999Z</time></trkpt><trkpt lat="40.39093832684562" lon="15.739968582733399"><ele>634.0</ele><time>2026-04-19T09:53:33.999Z</time></trkpt><trkpt lat="40.39099869608247" lon="15.74002638694982"><ele>634.0</ele><time>2026-04-19T09:53:34.999Z</time></trkpt><trkpt lat="40.39105576263783" lon="15.74008210686903"><ele>634.0</ele><time>2026-04-19T09:53:35.999Z</time></trkpt><trkpt lat="40.3911114992304" lon="15.740124027865457"><ele>634.0</ele><time>2026-04-19T09:53:36.999Z</time></trkpt><trkpt lat="40.39121887080878" lon="15.740172482252392"><ele>634.0</ele><time>2026-04-19T09:53:38.999Z</time></trkpt><trkpt lat="40.391342763927675" lon="15.740195661441518"><ele>634.0</ele><time>2026-04-19T09:53:40.999Z</time></trkpt><trkpt lat="40.39141866625904" lon="15.740191043142397"><ele>634.0</ele><time>2026-04-19T09:53:41.999Z</time></trkpt><trkpt lat="40.39148474117022" lon="15.740164120700307"><ele>634.0</ele><time>2026-04-19T09:53:42.999Z</time></trkpt><trkpt lat="40.391567251947045" lon="15.740152421938278"><ele>634.0</ele><time>2026-04-19T09:53:43.999Z</time></trkpt><trkpt lat="40.39162905000673" lon="15.74012512601253"><ele>634.0</ele><time>2026-04-19T09:53:44.999Z</time></trkpt><trkpt lat="40.39168807897988" lon="15.740090001691177"><ele>634.0</ele><time>2026-04-19T09:53:45.999Z</time></trkpt><trkpt lat="40.39181113622374" lon="15.740037142001567"><ele>634.0</ele><time>2026-04-19T09:53:47.999Z</time></trkpt><trkpt lat="40.39188587172847" lon="15.740006301756582"><ele>634.0</ele><time>2026-04-19T09:53:48.999Z</time></trkpt><trkpt lat="40.39197252616584" lon="15.739985214982884"><ele>634.0</ele><time>2026-04-19T09:53:49.999Z</time></trkpt><trkpt lat="40.392054609367264" lon="15.73997665159085"><ele>634.0</ele><time>2026-04-19T09:53:50.999Z</time></trkpt><trkpt lat="40.39212833377535" lon="15.739960699435844"><ele>634.0</ele><time>2026-04-19T09:53:51.999Z</time></trkpt><trkpt lat="40.39219229450365" lon="15.739955176960647"><ele>634.0</ele><time>2026-04-19T09:53:52.999Z</time></trkpt><trkpt lat="40.39231369531027" lon="15.73993092083535"><ele>634.0</ele><time>2026-04-19T09:53:54.999Z</time></trkpt><trkpt lat="40.39238099129537" lon="15.739928492349911"><ele>634.3333333333334</ele><time>2026-04-19T09:53:55.999Z</time></trkpt><trkpt lat="40.392455467077994" lon="15.739936266258091"><ele>634.6666666666667</ele><time>2026-04-19T09:53:56.999Z</time></trkpt><trkpt lat="40.39252000765473" lon="15.739967296943354"><ele>635.0</ele><time>2026-04-19T09:53:57.999Z</time></trkpt><trkpt lat="40.39259159350186" lon="15.740003221779654"><ele>635.3333333333334</ele><time>2026-04-19T09:53:58.999Z</time></trkpt><trkpt lat="40.39265882838781" lon="15.740028116782748"><ele>635.6666666666666</ele><time>2026-04-19T09:53:59.999Z</time></trkpt><trkpt lat="40.39277157438152" lon="15.740075159626636"><ele>636.0</ele><time>2026-04-19T09:54:01.999Z</time></trkpt><trkpt lat="40.39284752699512" lon="15.740103166706277"><ele>636.0</ele><time>2026-04-19T09:54:03.999Z</time></trkpt><trkpt lat="40.3929179184947" lon="15.740145920885062"><ele>636.0</ele><time>2026-04-19T09:54:06.999Z</time></trkpt><trkpt lat="40.39299306235431" lon="15.740158079225253"><ele>636.0</ele><time>2026-04-19T09:54:09.999Z</time></trkpt><trkpt lat="40.39307670794874" lon="15.740237966070415"><ele>636.0</ele><time>2026-04-19T09:54:34.998Z</time></trkpt><trkpt lat="40.393172799032115" lon="15.740323485600234"><ele>636.0</ele><time>2026-04-19T09:54:36.998Z</time></trkpt><trkpt lat="40.39325908448304" lon="15.740389972738118"><ele>637.3333333333334</ele><time>2026-04-19T09:54:38.998Z</time></trkpt><trkpt lat="40.39334008008091" lon="15.740444782022267"><ele>638.6666666666666</ele><time>2026-04-19T09:54:40.998Z</time></trkpt><trkpt lat="40.3934169531679" lon="15.740491600160862"><ele>640.0</ele><time>2026-04-19T09:54:42.998Z</time></trkpt><trkpt lat="40.39350155947207" lon="15.740569961109975"><ele>641.3333333333333</ele><time>2026-04-19T09:54:45.998Z</time></trkpt><trkpt lat="40.39357291934524" lon="15.740626090812608"><ele>642.6666666666666</ele><time>2026-04-19T09:54:47.998Z</time></trkpt><trkpt lat="40.39364438174129" lon="15.740681236962141"><ele>644.0</ele><time>2026-04-19T09:54:49.998Z</time></trkpt><trkpt lat="40.39370722967767" lon="15.740721934439438"><ele>644.0</ele><time>2026-04-19T09:54:51.998Z</time></trkpt><trkpt lat="40.393797851970994" lon="15.74075294414801"><ele>644.0</ele><time>2026-04-19T09:54:53.998Z</time></trkpt><trkpt lat="40.39387859444342" lon="15.74077581427051"><ele>644.0</ele><time>2026-04-19T09:54:56Z</time></trkpt><trkpt lat="40.39395819593942" lon="15.740780764156217"><ele>644.0</ele><time>2026-04-19T09:54:59Z</time></trkpt><trkpt lat="40.39402350433669" lon="15.740776316222972"><ele>644.0</ele><time>2026-04-19T09:55:01Z</time></trkpt><trkpt lat="40.39408464644186" lon="15.7407432045818"><ele>644.0</ele><time>2026-04-19T09:55:03Z</time></trkpt><trkpt lat="40.394156947879594" lon="15.740700250484599"><ele>643.75</ele><time>2026-04-19T09:55:05Z</time></trkpt><trkpt lat="40.3942221346131" lon="15.740625332398663"><ele>643.5</ele><time>2026-04-19T09:55:06Z</time></trkpt><trkpt lat="40.394331948145506" lon="15.740515375907492"><ele>643.25</ele><time>2026-04-19T09:55:07Z</time></trkpt><trkpt lat="40.39446067757849" lon="15.74040722057241"><ele>643.0</ele><time>2026-04-19T09:55:09Z</time></trkpt><trkpt lat="40.394539059043936" lon="15.740330420593681"><ele>643.0</ele><time>2026-04-19T09:55:10Z</time></trkpt><trkpt lat="40.39461356551588" lon="15.740277768303118"><ele>643.0</ele><time>2026-04-19T09:55:11Z</time></trkpt><trkpt lat="40.39468055189517" lon="15.740225801795498"><ele>643.0</ele><time>2026-04-19T09:55:12Z</time></trkpt><trkpt lat="40.39476454993339" lon="15.740174275283097"><ele>643.0</ele><time>2026-04-19T09:55:13Z</time></trkpt><trkpt lat="40.394864821255" lon="15.740119967528853"><ele>643.0</ele><time>2026-04-19T09:55:14Z</time></trkpt><trkpt lat="40.39492488648031" lon="15.740083010902907"><ele>643.0</ele><time>2026-04-19T09:55:15Z</time></trkpt><trkpt lat="40.3949876959074" lon="15.740040061041578"><ele>642.8333333333334</ele><time>2026-04-19T09:55:16Z</time></trkpt><trkpt lat="40.39505520420938" lon="15.739980451899362"><ele>642.6666666666667</ele><time>2026-04-19T09:55:18Z</time></trkpt><trkpt lat="40.395132969761235" lon="15.740002960867066"><ele>642.5</ele><time>2026-04-19T09:55:19Z</time></trkpt><trkpt lat="40.395252556220306" lon="15.740022198058686"><ele>642.3333333333334</ele><time>2026-04-19T09:55:20Z</time></trkpt><trkpt lat="40.39533244569718" lon="15.740032639215695"><ele>642.1666666666666</ele><time>2026-04-19T09:55:21Z</time></trkpt><trkpt lat="40.39540845915704" lon="15.740062678795434"><ele>642.0</ele><time>2026-04-19T09:55:22Z</time></trkpt><trkpt lat="40.39553718413662" lon="15.740129993714877"><ele>642.4000000000001</ele><time>2026-04-19T09:55:24Z</time></trkpt><trkpt lat="40.39561136658815" lon="15.74019667722794"><ele>642.8000000000001</ele><time>2026-04-19T09:55:25Z</time></trkpt><trkpt lat="40.395710637361105" lon="15.740305232388877"><ele>643.2</ele><time>2026-04-19T09:55:26Z</time></trkpt><trkpt lat="40.39578324213189" lon="15.74037236618196"><ele>643.6</ele><time>2026-04-19T09:55:27Z</time></trkpt><trkpt lat="40.39584373350759" lon="15.740418803478446"><ele>644.0</ele><time>2026-04-19T09:55:28Z</time></trkpt><trkpt lat="40.39590611492583" lon="15.740471301174855"><ele>644.0</ele><time>2026-04-19T09:55:29Z</time></trkpt><trkpt lat="40.3959359637481" lon="15.740580055023523"><ele>644.0</ele><time>2026-04-19T09:55:30Z</time></trkpt><trkpt lat="40.39600338300732" lon="15.74063774428284"><ele>644.0</ele><time>2026-04-19T09:55:31Z</time></trkpt><trkpt lat="40.39604150094365" lon="15.74070494800563"><ele>644.0</ele><time>2026-04-19T09:55:32Z</time></trkpt><trkpt lat="40.39610807082516" lon="15.740815185154442"><ele>644.0</ele><time>2026-04-19T09:55:33.999Z</time></trkpt><trkpt lat="40.396155701145496" lon="15.740894753651956"><ele>644.0</ele><time>2026-04-19T09:55:34.999Z</time></trkpt><trkpt lat="40.39617135255388" lon="15.740981093882633"><ele>644.3333333333333</ele><time>2026-04-19T09:55:35.999Z</time></trkpt><trkpt lat="40.396190565443796" lon="15.74111832764895"><ele>644.6666666666666</ele><time>2026-04-19T09:55:37.999Z</time></trkpt><trkpt lat="40.39615536125416" lon="15.741221406542952"><ele>645.0</ele><time>2026-04-19T09:55:39.999Z</time></trkpt><trkpt lat="40.39610793304221" lon="15.741294255481225"><ele>645.3333333333334</ele><time>2026-04-19T09:55:42.999Z</time></trkpt><trkpt lat="40.39614100775502" lon="15.741391186854958"><ele>645.6666666666667</ele><time>2026-04-19T09:55:47.999Z</time></trkpt><trkpt lat="40.396158077364326" lon="15.74147436471776"><ele>646.0</ele><time>2026-04-19T09:55:50.999Z</time></trkpt><trkpt lat="40.396183256179086" lon="15.74158478701099"><ele>646.0</ele><time>2026-04-19T09:55:53.999Z</time></trkpt><trkpt lat="40.39618615710122" lon="15.74168831018491"><ele>646.0</ele><time>2026-04-19T09:55:55.999Z</time></trkpt><trkpt lat="40.39618637034165" lon="15.741788583143649"><ele>646.0</ele><time>2026-04-19T09:55:57.999Z</time></trkpt><trkpt lat="40.39616372838843" lon="15.741898451858827"><ele>646.0</ele><time>2026-04-19T09:55:59.999Z</time></trkpt><trkpt lat="40.396177642202424" lon="15.742059079092112"><ele>646.0</ele><time>2026-04-19T09:56:01.999Z</time></trkpt><trkpt lat="40.39618859364394" lon="15.742155825072054"><ele>646.0</ele><time>2026-04-19T09:56:02.999Z</time></trkpt><trkpt lat="40.39620073374082" lon="15.742264934764746"><ele>646.6666666666667</ele><time>2026-04-19T09:56:03.999Z</time></trkpt><trkpt lat="40.39620504709387" lon="15.742369108224443"><ele>647.3333333333334</ele><time>2026-04-19T09:56:04.999Z</time></trkpt><trkpt lat="40.39621309161142" lon="15.742542804281488"><ele>648.0</ele><time>2026-04-19T09:56:06.999Z</time></trkpt><trkpt lat="40.39621928272631" lon="15.74263798433891"><ele>648.6666666666666</ele><time>2026-04-19T09:56:07.999Z</time></trkpt><trkpt lat="40.39623302154724" lon="15.742733680469048"><ele>649.3333333333333</ele><time>2026-04-19T09:56:08.999Z</time></trkpt><trkpt lat="40.39623664485648" lon="15.742824402303912"><ele>650.0</ele><time>2026-04-19T09:56:09.999Z</time></trkpt><trkpt lat="40.39624030388255" lon="15.742909182704196"><ele>650.3333333333333</ele><time>2026-04-19T09:56:10.999Z</time></trkpt><trkpt lat="40.39624497670088" lon="15.742995821391485"><ele>650.6666666666666</ele><time>2026-04-19T09:56:11.999Z</time></trkpt><trkpt lat="40.39624750358325" lon="15.743080019358272"><ele>651.0</ele><time>2026-04-19T09:56:12.999Z</time></trkpt><trkpt lat="40.396256734138696" lon="15.743196501138772"><ele>651.3333333333334</ele><time>2026-04-19T09:56:14.999Z</time></trkpt><trkpt lat="40.396240053984656" lon="15.743299705636913"><ele>651.6666666666667</ele><time>2026-04-19T09:56:17.999Z</time></trkpt><trkpt lat="40.39617595233241" lon="15.743328730489843"><ele>652.0</ele><time>2026-04-19T09:56:19.999Z</time></trkpt><trkpt lat="40.396096359379456" lon="15.743437420631468"><ele>652.0</ele><time>2026-04-19T09:56:21.999Z</time></trkpt><trkpt lat="40.39609190301546" lon="15.743535672899238"><ele>652.0</ele><time>2026-04-19T09:56:22.999Z</time></trkpt><trkpt lat="40.396118656214824" lon="15.743657110668003"><ele>652.0</ele><time>2026-04-19T09:56:23.999Z</time></trkpt><trkpt lat="40.396132036661356" lon="15.743809607120827"><ele>652.0</ele><time>2026-04-19T09:56:24.999Z</time></trkpt><trkpt lat="40.39616664184986" lon="15.743950960322724"><ele>652.0</ele><time>2026-04-19T09:56:25.998Z</time></trkpt><trkpt lat="40.39620141728992" lon="15.744101581696402"><ele>652.75</ele><time>2026-04-19T09:56:26.998Z</time></trkpt><trkpt lat="40.39623431320519" lon="15.744255181262595"><ele>653.5</ele><time>2026-04-19T09:56:27.998Z</time></trkpt><trkpt lat="40.39626567863426" lon="15.744418976840944"><ele>654.25</ele><time>2026-04-19T09:56:28.998Z</time></trkpt><trkpt lat="40.39629486765696" lon="15.74458372032038"><ele>655.0</ele><time>2026-04-19T09:56:29.998Z</time></trkpt><trkpt lat="40.39631988827595" lon="15.744734004686903"><ele>655.6666666666667</ele><time>2026-04-19T09:56:30.998Z</time></trkpt><trkpt lat="40.396341611421725" lon="15.744864483022164"><ele>656.3333333333334</ele><time>2026-04-19T09:56:31.998Z</time></trkpt><trkpt lat="40.39636103657951" lon="15.74498485580509"><ele>657.0</ele><time>2026-04-19T09:56:32.998Z</time></trkpt><trkpt lat="40.39637772333975" lon="15.745094804423863"><ele>657.6666666666666</ele><time>2026-04-19T09:56:33.998Z</time></trkpt><trkpt lat="40.39639331899364" lon="15.745197563758413"><ele>658.3333333333333</ele><time>2026-04-19T09:56:34.998Z</time></trkpt><trkpt lat="40.39640224228371" lon="15.74529946570626"><ele>659.0</ele><time>2026-04-19T09:56:35.998Z</time></trkpt><trkpt lat="40.39647909459578" lon="15.745421275110372"><ele>659.0</ele><time>2026-04-19T09:56:36.998Z</time></trkpt><trkpt lat="40.396536447523154" lon="15.745497696279118"><ele>659.0</ele><time>2026-04-19T09:56:37.998Z</time></trkpt><trkpt lat="40.39661262124217" lon="15.74559919560453"><ele>659.0</ele><time>2026-04-19T09:56:38.998Z</time></trkpt><trkpt lat="40.39668398325916" lon="15.745694283525035"><ele>659.0</ele><time>2026-04-19T09:56:39.998Z</time></trkpt><trkpt lat="40.396760583418065" lon="15.745796900757203"><ele>659.0</ele><time>2026-04-19T09:56:40.998Z</time></trkpt><trkpt lat="40.39683814522526" lon="15.7459053781033"><ele>659.0</ele><time>2026-04-19T09:56:41.998Z</time></trkpt><trkpt lat="40.3969113760635" lon="15.746007769597364"><ele>659.0</ele><time>2026-04-19T09:56:42.998Z</time></trkpt><trkpt lat="40.39697389870456" lon="15.746094601718259"><ele>659.0</ele><time>2026-04-19T09:56:43.998Z</time></trkpt><trkpt lat="40.397030695632594" lon="15.746168509637654"><ele>659.0</ele><time>2026-04-19T09:56:44.998Z</time></trkpt><trkpt lat="40.397085046425055" lon="15.746235171908367"><ele>659.0</ele><time>2026-04-19T09:56:45.998Z</time></trkpt><trkpt lat="40.39714749815428" lon="15.74630686886095"><ele>659.0</ele><time>2026-04-19T09:56:46.998Z</time></trkpt><trkpt lat="40.39722183192263" lon="15.74638696893139"><ele>660.1666666666666</ele><time>2026-04-19T09:56:47.998Z</time></trkpt><trkpt lat="40.397304215096234" lon="15.746471903643268"><ele>661.3333333333333</ele><time>2026-04-19T09:56:48.998Z</time></trkpt><trkpt lat="40.397388758135435" lon="15.746556995649025"><ele>662.5</ele><time>2026-04-19T09:56:49.998Z</time></trkpt><trkpt lat="40.39745783207995" lon="15.74662651813532"><ele>663.6666666666666</ele><time>2026-04-19T09:56:50.998Z</time></trkpt><trkpt lat="40.39751691813981" lon="15.746685987874908"><ele>664.8333333333334</ele><time>2026-04-19T09:56:51.998Z</time></trkpt><trkpt lat="40.39757078355446" lon="15.746740203050843"><ele>666.0</ele><time>2026-04-19T09:56:52.998Z</time></trkpt><trkpt lat="40.39766174807817" lon="15.746831758258306"><ele>666.25</ele><time>2026-04-19T09:56:54.998Z</time></trkpt><trkpt lat="40.39774852819293" lon="15.746917618179275"><ele>666.5</ele><time>2026-04-19T09:56:56.998Z</time></trkpt><trkpt lat="40.39784450418753" lon="15.747012543258496"><ele>666.75</ele><time>2026-04-19T09:56:58.998Z</time></trkpt><trkpt lat="40.397934282336436" lon="15.747110280857374"><ele>667.0</ele><time>2026-04-19T09:57:00.998Z</time></trkpt><trkpt lat="40.398027831489955" lon="15.747218897629324"><ele>667.8333333333334</ele><time>2026-04-19T09:57:03Z</time></trkpt><trkpt lat="40.39807830633218" lon="15.747277502134837"><ele>668.6666666666667</ele><time>2026-04-19T09:57:04Z</time></trkpt><trkpt lat="40.398169442080615" lon="15.747383316868463"><ele>669.5</ele><time>2026-04-19T09:57:06Z</time></trkpt><trkpt lat="40.398217986071224" lon="15.74743763637571"><ele>670.3333333333334</ele><time>2026-04-19T09:57:07Z</time></trkpt><trkpt lat="40.398268755742656" lon="15.747493897896032"><ele>671.1666666666666</ele><time>2026-04-19T09:57:08Z</time></trkpt><trkpt lat="40.3983290880536" lon="15.747530564510564"><ele>672.0</ele><time>2026-04-19T09:57:09Z</time></trkpt><trkpt lat="40.3983901519329" lon="15.747582587798846"><ele>672.0</ele><time>2026-04-19T09:57:10Z</time></trkpt><trkpt lat="40.39845485356979" lon="15.747630814543037"><ele>672.0</ele><time>2026-04-19T09:57:11Z</time></trkpt><trkpt lat="40.39852514438555" lon="15.747673474096025"><ele>672.0</ele><time>2026-04-19T09:57:12Z</time></trkpt><trkpt lat="40.39860356960169" lon="15.747710788037603"><ele>672.0</ele><time>2026-04-19T09:57:13Z</time></trkpt><trkpt lat="40.398696691104234" lon="15.747750578288986"><ele>672.0</ele><time>2026-04-19T09:57:14Z</time></trkpt><trkpt lat="40.398791905104765" lon="15.747790334822092"><ele>672.0</ele><time>2026-04-19T09:57:15Z</time></trkpt><trkpt lat="40.398882246803154" lon="15.747827521834989"><ele>673.0</ele><time>2026-04-19T09:57:16Z</time></trkpt><trkpt lat="40.39896408554856" lon="15.747862737653437"><ele>674.0</ele><time>2026-04-19T09:57:17Z</time></trkpt><trkpt lat="40.39906068063969" lon="15.747902007385296"><ele>675.0</ele><time>2026-04-19T09:57:18Z</time></trkpt><trkpt lat="40.39916771671511" lon="15.74793979302857"><ele>676.0</ele><time>2026-04-19T09:57:19Z</time></trkpt><trkpt lat="40.39926272882471" lon="15.748003671840774"><ele>677.0</ele><time>2026-04-19T09:57:20Z</time></trkpt><trkpt lat="40.399371883721486" lon="15.748075629225596"><ele>677.0</ele><time>2026-04-19T09:57:21Z</time></trkpt><trkpt lat="40.39949233261333" lon="15.74816330684245"><ele>677.0</ele><time>2026-04-19T09:57:22Z</time></trkpt><trkpt lat="40.39962590500947" lon="15.748238599649701"><ele>677.0</ele><time>2026-04-19T09:57:23Z</time></trkpt><trkpt lat="40.39976573182615" lon="15.748340466283626"><ele>677.0</ele><time>2026-04-19T09:57:24Z</time></trkpt><trkpt lat="40.39991291908671" lon="15.74846740261362"><ele>680.6666666666666</ele><time>2026-04-19T09:57:25Z</time></trkpt><trkpt lat="40.40006984901623" lon="15.748578789174209"><ele>684.3333333333334</ele><time>2026-04-19T09:57:26Z</time></trkpt><trkpt lat="40.40020266157212" lon="15.748668592756204"><ele>688.0</ele><time>2026-04-19T09:57:27Z</time></trkpt><trkpt lat="40.40032679668354" lon="15.748728838064409"><ele>688.0</ele><time>2026-04-19T09:57:28Z</time></trkpt><trkpt lat="40.40043754603448" lon="15.748809528186289"><ele>688.0</ele><time>2026-04-19T09:57:29Z</time></trkpt><trkpt lat="40.40051851169924" lon="15.748906822904992"><ele>688.0</ele><time>2026-04-19T09:57:30Z</time></trkpt><trkpt lat="40.400592401452094" lon="15.748993645108925"><ele>688.0</ele><time>2026-04-19T09:57:31Z</time></trkpt><trkpt lat="40.400665014459975" lon="15.7490996298081"><ele>688.0</ele><time>2026-04-19T09:57:32Z</time></trkpt><trkpt lat="40.400742988169604" lon="15.749188421530661"><ele>687.5999999999999</ele><time>2026-04-19T09:57:33Z</time></trkpt><trkpt lat="40.400867894473585" lon="15.749240011034935"><ele>687.1999999999999</ele><time>2026-04-19T09:57:35Z</time></trkpt><trkpt lat="40.40094544684572" lon="15.749289181628571"><ele>686.8</ele><time>2026-04-19T09:57:36Z</time></trkpt><trkpt lat="40.40103418692895" lon="15.749329445289703"><ele>686.4</ele><time>2026-04-19T09:57:37Z</time></trkpt><trkpt lat="40.40111546700989" lon="15.749365152845368"><ele>686.0</ele><time>2026-04-19T09:57:38Z</time></trkpt><trkpt lat="40.40118520648323" lon="15.74939579044096"><ele>688.1999999999999</ele><time>2026-04-19T09:57:38.999Z</time></trkpt><trkpt lat="40.401262085785994" lon="15.749402996443182"><ele>690.4</ele><time>2026-04-19T09:57:39.999Z</time></trkpt><trkpt lat="40.401344502081514" lon="15.749431556909105"><ele>692.6</ele><time>2026-04-19T09:57:40.999Z</time></trkpt><trkpt lat="40.40143798560966" lon="15.749432878339523"><ele>694.8</ele><time>2026-04-19T09:57:41.999Z</time></trkpt><trkpt lat="40.40153475552715" lon="15.749431845141062"><ele>697.0</ele><time>2026-04-19T09:57:42.999Z</time></trkpt><trkpt lat="40.4016420422869" lon="15.74943866488954"><ele>697.0</ele><time>2026-04-19T09:57:43.999Z</time></trkpt><trkpt lat="40.40175949234795" lon="15.749441843218447"><ele>697.0</ele><time>2026-04-19T09:57:44.999Z</time></trkpt><trkpt lat="40.40187219224339" lon="15.749433177948609"><ele>697.0</ele><time>2026-04-19T09:57:45.999Z</time></trkpt><trkpt lat="40.401974726331154" lon="15.749413674598005"><ele>697.0</ele><time>2026-04-19T09:57:46.999Z</time></trkpt><trkpt lat="40.402069894441546" lon="15.749385507887048"><ele>697.0</ele><time>2026-04-19T09:57:47.999Z</time></trkpt><trkpt lat="40.402166333759276" lon="15.749361803054713"><ele>697.0</ele><time>2026-04-19T09:57:48.999Z</time></trkpt><trkpt lat="40.40225010121001" lon="15.749335998352493"><ele>697.0</ele><time>2026-04-19T09:57:49.999Z</time></trkpt><trkpt lat="40.402357965471765" lon="15.749326361393495"><ele>697.0</ele><time>2026-04-19T09:57:51.999Z</time></trkpt><trkpt lat="40.402436950014106" lon="15.749322603976182"><ele>697.0</ele><time>2026-04-19T09:57:53.999Z</time></trkpt><trkpt lat="40.402511778614084" lon="15.749303662409252"><ele>697.0</ele><time>2026-04-19T09:57:55.999Z</time></trkpt><trkpt lat="40.402578531760675" lon="15.749312540539313"><ele>697.0</ele><time>2026-04-19T09:58:09.999Z</time></trkpt><trkpt lat="40.402706090117945" lon="15.74933298672666"><ele>697.0</ele><time>2026-04-19T09:58:11.999Z</time></trkpt><trkpt lat="40.40277674347829" lon="15.749334290656622"><ele>697.0</ele><time>2026-04-19T09:58:12.999Z</time></trkpt><trkpt lat="40.40285613176711" lon="15.74933255926221"><ele>697.0</ele><time>2026-04-19T09:58:13.999Z</time></trkpt><trkpt lat="40.40296527346929" lon="15.749297559128877"><ele>697.0</ele><time>2026-04-19T09:58:14.999Z</time></trkpt><trkpt lat="40.40311630513619" lon="15.74928148045755"><ele>697.0</ele><time>2026-04-19T09:58:15.999Z</time></trkpt><trkpt lat="40.40322217566887" lon="15.749276610202376"><ele>699.0</ele><time>2026-04-19T09:58:16.999Z</time></trkpt><trkpt lat="40.403334650590466" lon="15.749306646669583"><ele>701.0</ele><time>2026-04-19T09:58:17.999Z</time></trkpt><trkpt lat="40.40345378222691" lon="15.749359714528165"><ele>703.0</ele><time>2026-04-19T09:58:18.999Z</time></trkpt><trkpt lat="40.403564598248614" lon="15.749415017903996"><ele>705.0</ele><time>2026-04-19T09:58:19.999Z</time></trkpt><trkpt lat="40.403654707624824" lon="15.74944877778816"><ele>706.0</ele><time>2026-04-19T09:58:20.999Z</time></trkpt><trkpt lat="40.403734105191745" lon="15.749425211756408"><ele>707.0</ele><time>2026-04-19T09:58:21.999Z</time></trkpt><trkpt lat="40.403831145509244" lon="15.749389250281714"><ele>708.0</ele><time>2026-04-19T09:58:22.999Z</time></trkpt><trkpt lat="40.40393806093251" lon="15.749377423223367"><ele>709.0</ele><time>2026-04-19T09:58:23.999Z</time></trkpt><trkpt lat="40.40405712829283" lon="15.74935905180766"><ele>710.0</ele><time>2026-04-19T09:58:24.999Z</time></trkpt><trkpt lat="40.404185778562415" lon="15.749340184215315"><ele>710.0</ele><time>2026-04-19T09:58:25.999Z</time></trkpt><trkpt lat="40.40431407791426" lon="15.749320537455851"><ele>710.0</ele><time>2026-04-19T09:58:26.999Z</time></trkpt><trkpt lat="40.40443348313563" lon="15.749289160085322"><ele>710.0</ele><time>2026-04-19T09:58:27.999Z</time></trkpt><trkpt lat="40.40455005789539" lon="15.74928450625707"><ele>710.0</ele><time>2026-04-19T09:58:28.999Z</time></trkpt><trkpt lat="40.40464419109031" lon="15.74927571120428"><ele>710.3333333333333</ele><time>2026-04-19T09:58:29.999Z</time></trkpt><trkpt lat="40.404718179427014" lon="15.749275290613138"><ele>710.6666666666666</ele><time>2026-04-19T09:58:30.999Z</time></trkpt><trkpt lat="40.40478098752577" lon="15.74928832746773"><ele>711.0</ele><time>2026-04-19T09:58:31.998Z</time></trkpt><trkpt lat="40.40486695343852" lon="15.74930797725883"><ele>711.3333333333334</ele><time>2026-04-19T09:58:32.998Z</time></trkpt><trkpt lat="40.40496672805514" lon="15.749333927578679"><ele>711.6666666666667</ele><time>2026-04-19T09:58:33.998Z</time></trkpt><trkpt lat="40.405057975537254" lon="15.749364017367553"><ele>712.0</ele><time>2026-04-19T09:58:34.998Z</time></trkpt><trkpt lat="40.40513742613209" lon="15.749389335649086"><ele>715.75</ele><time>2026-04-19T09:58:35.998Z</time></trkpt><trkpt lat="40.40522418971829" lon="15.749416694030659"><ele>719.5</ele><time>2026-04-19T09:58:36.998Z</time></trkpt><trkpt lat="40.405323701233876" lon="15.749449044026136"><ele>723.25</ele><time>2026-04-19T09:58:37.998Z</time></trkpt><trkpt lat="40.4054489394456" lon="15.749491694019218"><ele>727.0</ele><time>2026-04-19T09:58:38.998Z</time></trkpt><trkpt lat="40.405581798328676" lon="15.749541091811233"><ele>727.0</ele><time>2026-04-19T09:58:39.998Z</time></trkpt><trkpt lat="40.40569417675898" lon="15.74959314578751"><ele>727.0</ele><time>2026-04-19T09:58:40.998Z</time></trkpt><trkpt lat="40.405791193084255" lon="15.749651107365015"><ele>727.0</ele><time>2026-04-19T09:58:41.998Z</time></trkpt><trkpt lat="40.405887402004595" lon="15.749727549044414"><ele>727.0</ele><time>2026-04-19T09:58:42.998Z</time></trkpt><trkpt lat="40.40597929769724" lon="15.74980928715519"><ele>727.0</ele><time>2026-04-19T09:58:43.998Z</time></trkpt><trkpt lat="40.40606750545533" lon="15.749892211468815"><ele>727.0</ele><time>2026-04-19T09:58:44.998Z</time></trkpt><trkpt lat="40.406151527514616" lon="15.749973076204105"><ele>727.0</ele><time>2026-04-19T09:58:45.998Z</time></trkpt><trkpt lat="40.40622853662042" lon="15.750059439625645"><ele>727.0</ele><time>2026-04-19T09:58:46.998Z</time></trkpt><trkpt lat="40.40630729008389" lon="15.750154812168685"><ele>727.0</ele><time>2026-04-19T09:58:47.998Z</time></trkpt><trkpt lat="40.406394047104996" lon="15.750241114933251"><ele>727.0</ele><time>2026-04-19T09:58:48.998Z</time></trkpt><trkpt lat="40.40648796503593" lon="15.750314272651865"><ele>728.4000000000001</ele><time>2026-04-19T09:58:49.998Z</time></trkpt><trkpt lat="40.40658845055877" lon="15.750397626160757"><ele>729.8000000000001</ele><time>2026-04-19T09:58:50.998Z</time></trkpt><trkpt lat="40.4066755483335" lon="15.750464073426237"><ele>731.2</ele><time>2026-04-19T09:58:51.998Z</time></trkpt><trkpt lat="40.40675292903881" lon="15.75051818714271"><ele>732.6</ele><time>2026-04-19T09:58:52.998Z</time></trkpt><trkpt lat="40.40686058836392" lon="15.750552537789314"><ele>734.0</ele><time>2026-04-19T09:58:53.998Z</time></trkpt><trkpt lat="40.40696690812314" lon="15.750628622630376"><ele>734.0</ele><time>2026-04-19T09:58:54.998Z</time></trkpt><trkpt lat="40.40708247434636" lon="15.750685849230823"><ele>734.0</ele><time>2026-04-19T09:58:55.998Z</time></trkpt><trkpt lat="40.407199146156564" lon="15.750745428993014"><ele>734.0</ele><time>2026-04-19T09:58:56.998Z</time></trkpt><trkpt lat="40.407305447445495" lon="15.750810478675506"><ele>734.0</ele><time>2026-04-19T09:58:57.998Z</time></trkpt><trkpt lat="40.40739597540988" lon="15.750874125309421"><ele>734.6</ele><time>2026-04-19T09:58:58.998Z</time></trkpt><trkpt lat="40.40747650341568" lon="15.750932439468514"><ele>735.2</ele><time>2026-04-19T09:58:59.998Z</time></trkpt><trkpt lat="40.407552231940464" lon="15.75098907641328"><ele>735.8000000000001</ele><time>2026-04-19T09:59:00.998Z</time></trkpt><trkpt lat="40.407634257567295" lon="15.751050422958718"><ele>736.4000000000001</ele><time>2026-04-19T09:59:01.998Z</time></trkpt><trkpt lat="40.40772850946213" lon="15.751117987590384"><ele>737.0</ele><time>2026-04-19T09:59:02.998Z</time></trkpt><trkpt lat="40.40779441136228" lon="15.75116094300171"><ele>738.3333333333333</ele><time>2026-04-19T09:59:03.998Z</time></trkpt><trkpt lat="40.4078937753801" lon="15.751184243560278"><ele>739.6666666666666</ele><time>2026-04-19T09:59:05.998Z</time></trkpt><trkpt lat="40.40796603469314" lon="15.751161480055861"><ele>741.0</ele><time>2026-04-19T09:59:08Z</time></trkpt><trkpt lat="40.40803277927006" lon="15.751043095023777"><ele>742.3333333333334</ele><time>2026-04-19T09:59:10Z</time></trkpt><trkpt lat="40.40807686817197" lon="15.750970177302879"><ele>743.6666666666667</ele><time>2026-04-19T09:59:11Z</time></trkpt><trkpt lat="40.40812312676936" lon="15.750911393041969"><ele>745.0</ele><time>2026-04-19T09:59:12Z</time></trkpt><trkpt lat="40.408178710476435" lon="15.75085457171544"><ele>745.1666666666667</ele><time>2026-04-19T09:59:13Z</time></trkpt><trkpt lat="40.40827362291382" lon="15.750770293805902"><ele>745.3333333333334</ele><time>2026-04-19T09:59:15Z</time></trkpt><trkpt lat="40.40827215999652" lon="15.750666825368652"><ele>745.5</ele><time>2026-04-19T09:59:17Z</time></trkpt><trkpt lat="40.40827793141115" lon="15.750556547129522"><ele>745.6666666666666</ele><time>2026-04-19T09:59:18Z</time></trkpt><trkpt lat="40.40827767356144" lon="15.750463567561448"><ele>745.8333333333333</ele><time>2026-04-19T09:59:19Z</time></trkpt><trkpt lat="40.4082452061498" lon="15.750388015225619"><ele>746.0</ele><time>2026-04-19T09:59:20Z</time></trkpt><trkpt lat="40.408207375225025" lon="15.750253802343627"><ele>747.4</ele><time>2026-04-19T09:59:22Z</time></trkpt><trkpt lat="40.40814625999787" lon="15.750098291316137"><ele>748.8</ele><time>2026-04-19T09:59:24Z</time></trkpt><trkpt lat="40.40813234300285" lon="15.74999372600255"><ele>750.1999999999999</ele><time>2026-04-19T09:59:25Z</time></trkpt><trkpt lat="40.40813468809617" lon="15.749880052787754"><ele>751.5999999999999</ele><time>2026-04-19T09:59:26Z</time></trkpt><trkpt lat="40.40815125975556" lon="15.749760310706131"><ele>753.0</ele><time>2026-04-19T09:59:27Z</time></trkpt><trkpt lat="40.40817846882712" lon="15.749635134452205"><ele>753.0</ele><time>2026-04-19T09:59:28Z</time></trkpt><trkpt lat="40.408197894083955" lon="15.74952272015556"><ele>753.0</ele><time>2026-04-19T09:59:29Z</time></trkpt><trkpt lat="40.40819585869549" lon="15.749413992727984"><ele>753.0</ele><time>2026-04-19T09:59:30Z</time></trkpt><trkpt lat="40.40817381761566" lon="15.74928739489341"><ele>753.0</ele><time>2026-04-19T09:59:31Z</time></trkpt><trkpt lat="40.40815704794892" lon="15.74916169334732"><ele>753.0</ele><time>2026-04-19T09:59:32Z</time></trkpt><trkpt lat="40.408144129794806" lon="15.749017363864205"><ele>754.1666666666666</ele><time>2026-04-19T09:59:33Z</time></trkpt><trkpt lat="40.408125728095925" lon="15.748886173030252"><ele>755.3333333333334</ele><time>2026-04-19T09:59:34Z</time></trkpt><trkpt lat="40.4081180971398" lon="15.748734841225449"><ele>756.5</ele><time>2026-04-19T09:59:36Z</time></trkpt><trkpt lat="40.40811418866699" lon="15.748652180467518"><ele>757.6666666666667</ele><time>2026-04-19T09:59:37Z</time></trkpt><trkpt lat="40.40811151660041" lon="15.748543347014673"><ele>758.8333333333334</ele><time>2026-04-19T09:59:38Z</time></trkpt><trkpt lat="40.408127508141696" lon="15.748435517436787"><ele>760.0</ele><time>2026-04-19T09:59:39Z</time></trkpt><trkpt lat="40.408169457140865" lon="15.748346446233164"><ele>760.8571428571429</ele><time>2026-04-19T09:59:40Z</time></trkpt><trkpt lat="40.408218977994984" lon="15.748254540899062"><ele>761.7142857142858</ele><time>2026-04-19T09:59:41Z</time></trkpt><trkpt lat="40.40824838936508" lon="15.748167180165842"><ele>762.5714285714286</ele><time>2026-04-19T09:59:42Z</time></trkpt><trkpt lat="40.408272074342065" lon="15.748075898828834"><ele>763.4285714285714</ele><time>2026-04-19T09:59:43Z</time></trkpt><trkpt lat="40.40829192395389" lon="15.747995153837907"><ele>764.2857142857142</ele><time>2026-04-19T09:59:44Z</time></trkpt><trkpt lat="40.40830722131906" lon="15.747903030291342"><ele>765.1428571428571</ele><time>2026-04-19T09:59:44.999Z</time></trkpt><trkpt lat="40.408317623866104" lon="15.747804188514975"><ele>766.0</ele><time>2026-04-19T09:59:45.999Z</time></trkpt><trkpt lat="40.40831820998662" lon="15.747705176339837"><ele>766.8333333333334</ele><time>2026-04-19T09:59:46.999Z</time></trkpt><trkpt lat="40.40830440184799" lon="15.747587070026384"><ele>767.6666666666667</ele><time>2026-04-19T09:59:47.999Z</time></trkpt><trkpt lat="40.40828360240405" lon="15.74748411430525"><ele>768.5</ele><time>2026-04-19T09:59:48.999Z</time></trkpt><trkpt lat="40.40826837162758" lon="15.747386654211379"><ele>769.3333333333334</ele><time>2026-04-19T09:59:49.999Z</time></trkpt><trkpt lat="40.4082560266549" lon="15.74725009404704"><ele>770.1666666666666</ele><time>2026-04-19T09:59:51.999Z</time></trkpt><trkpt lat="40.40825444031153" lon="15.747152888229287"><ele>771.0</ele><time>2026-04-19T09:59:53.999Z</time></trkpt><trkpt lat="40.40828137050203" lon="15.747064354849853"><ele>771.0</ele><time>2026-04-19T09:59:56.999Z</time></trkpt><trkpt lat="40.408344713901286" lon="15.746978764920987"><ele>771.0</ele><time>2026-04-19T09:59:58.999Z</time></trkpt><trkpt lat="40.408452485823204" lon="15.747026635558177"><ele>771.0</ele><time>2026-04-19T09:59:59.999Z</time></trkpt><trkpt lat="40.40852088433081" lon="15.747028676223978"><ele>771.0</ele><time>2026-04-19T10:00:00.999Z</time></trkpt><trkpt lat="40.40858906884967" lon="15.746999403089061"><ele>771.0</ele><time>2026-04-19T10:00:01.999Z</time></trkpt><trkpt lat="40.40866768545248" lon="15.746989397318865"><ele>771.0</ele><time>2026-04-19T10:00:02.999Z</time></trkpt><trkpt lat="40.40874570012733" lon="15.747000835980403"><ele>771.0</ele><time>2026-04-19T10:00:03.999Z</time></trkpt><trkpt lat="40.40882513886624" lon="15.747015317650625"><ele>771.0</ele><time>2026-04-19T10:00:04.999Z</time></trkpt><trkpt lat="40.40889159649034" lon="15.747062664389226"><ele>771.0</ele><time>2026-04-19T10:00:05.999Z</time></trkpt><trkpt lat="40.408962863218925" lon="15.747092121870727"><ele>771.0</ele><time>2026-04-19T10:00:06.999Z</time></trkpt><trkpt lat="40.409031507110406" lon="15.747122246803977"><ele>771.0</ele><time>2026-04-19T10:00:07.999Z</time></trkpt><trkpt lat="40.40910070685063" lon="15.747155215383588"><ele>771.0</ele><time>2026-04-19T10:00:08.999Z</time></trkpt><trkpt lat="40.409168655031145" lon="15.747192653142008"><ele>773.3333333333334</ele><time>2026-04-19T10:00:09.999Z</time></trkpt><trkpt lat="40.4092352646914" lon="15.747236818397132"><ele>775.6666666666667</ele><time>2026-04-19T10:00:10.999Z</time></trkpt><trkpt lat="40.40930552452435" lon="15.747288825815263"><ele>778.0</ele><time>2026-04-19T10:00:11.999Z</time></trkpt><trkpt lat="40.40937543311959" lon="15.747347990430793"><ele>780.3333333333334</ele><time>2026-04-19T10:00:12.999Z</time></trkpt><trkpt lat="40.40944406833455" lon="15.747419143639439"><ele>782.6666666666667</ele><time>2026-04-19T10:00:13.999Z</time></trkpt><trkpt lat="40.40950211803882" lon="15.747481813927728"><ele>785.0</ele><time>2026-04-19T10:00:14.999Z</time></trkpt><trkpt lat="40.40955384180832" lon="15.747539073309088"><ele>785.0000000000001</ele><time>2026-04-19T10:00:15.999Z</time></trkpt><trkpt lat="40.409608185067114" lon="15.747606070190347"><ele>785.0</ele><time>2026-04-19T10:00:16.999Z</time></trkpt><trkpt lat="40.4096550794714" lon="15.747670885115959"><ele>785.0</ele><time>2026-04-19T10:00:17.999Z</time></trkpt><trkpt lat="40.4097180486398" lon="15.747763946441118"><ele>785.0</ele><time>2026-04-19T10:00:18.999Z</time></trkpt><trkpt lat="40.409784475125996" lon="15.74786167832653"><ele>785.0000000000001</ele><time>2026-04-19T10:00:19.999Z</time></trkpt><trkpt lat="40.409853686388814" lon="15.747961483654137"><ele>785.0</ele><time>2026-04-19T10:00:20.999Z</time></trkpt><trkpt lat="40.40992709027026" lon="15.748049521656961"><ele>787.2857142857143</ele><time>2026-04-19T10:00:21.999Z</time></trkpt><trkpt lat="40.409980935621846" lon="15.748143871017811"><ele>789.5714285714286</ele><time>2026-04-19T10:00:22.999Z</time></trkpt><trkpt lat="40.4100283813157" lon="15.74821278952974"><ele>791.8571428571429</ele><time>2026-04-19T10:00:23.999Z</time></trkpt><trkpt lat="40.410070816861946" lon="15.748274811548892"><ele>794.1428571428571</ele><time>2026-04-19T10:00:24.999Z</time></trkpt><trkpt lat="40.41011610432935" lon="15.74834241754842"><ele>796.4285714285713</ele><time>2026-04-19T10:00:25.999Z</time></trkpt><trkpt lat="40.410163681171454" lon="15.748413441108035"><ele>798.7142857142857</ele><time>2026-04-19T10:00:26.999Z</time></trkpt><trkpt lat="40.41021879953732" lon="15.748496438880004"><ele>801.0</ele><time>2026-04-19T10:00:27.999Z</time></trkpt><trkpt lat="40.410270076787846" lon="15.748579920548396"><ele>801.1666666666666</ele><time>2026-04-19T10:00:28.999Z</time></trkpt><trkpt lat="40.41032982382772" lon="15.748674197436369"><ele>801.3333333333333</ele><time>2026-04-19T10:00:29.999Z</time></trkpt><trkpt lat="40.410382658428034" lon="15.748752648819478"><ele>801.5</ele><time>2026-04-19T10:00:30.999Z</time></trkpt><trkpt lat="40.410443752463344" lon="15.748841064404413"><ele>801.6666666666666</ele><time>2026-04-19T10:00:32.999Z</time></trkpt><trkpt lat="40.41048691629738" lon="15.748903060145933"><ele>801.8333333333333</ele><time>2026-04-19T10:00:34.999Z</time></trkpt><trkpt lat="40.410559028902284" lon="15.749003106044354"><ele>802.0</ele><time>2026-04-19T10:00:36.999Z</time></trkpt><trkpt lat="40.41062706635547" lon="15.749092201478875"><ele>803.4000000000001</ele><time>2026-04-19T10:00:38.998Z</time></trkpt><trkpt lat="40.41069539970487" lon="15.749183534911973"><ele>804.8000000000001</ele><time>2026-04-19T10:00:40.998Z</time></trkpt><trkpt lat="40.410770791167444" lon="15.749286910587124"><ele>806.2</ele><time>2026-04-19T10:00:42.998Z</time></trkpt><trkpt lat="40.410847360806464" lon="15.749394323936666"><ele>807.6</ele><time>2026-04-19T10:00:44.998Z</time></trkpt><trkpt lat="40.410919011237695" lon="15.749499076685002"><ele>809.0</ele><time>2026-04-19T10:00:46.998Z</time></trkpt><trkpt lat="40.41097256826527" lon="15.749585181174671"><ele>809.5714285714286</ele><time>2026-04-19T10:00:49.998Z</time></trkpt><trkpt lat="40.41101331000165" lon="15.749654532733686"><ele>810.1428571428571</ele><time>2026-04-19T10:00:52.998Z</time></trkpt><trkpt lat="40.41105623087975" lon="15.749728085933558"><ele>810.7142857142858</ele><time>2026-04-19T10:00:54.998Z</time></trkpt><trkpt lat="40.41109959546417" lon="15.749802399477893"><ele>811.2857142857142</ele><time>2026-04-19T10:00:56.998Z</time></trkpt><trkpt lat="40.411141555891014" lon="15.749868647467128"><ele>811.8571428571428</ele><time>2026-04-19T10:00:59.998Z</time></trkpt><trkpt lat="40.41119939189231" lon="15.749958567235986"><ele>812.4285714285714</ele><time>2026-04-19T10:01:02.998Z</time></trkpt><trkpt lat="40.41124892279159" lon="15.750028251534857"><ele>813.0</ele><time>2026-04-19T10:01:05.998Z</time></trkpt><trkpt lat="40.411296829099996" lon="15.750089250925948"><ele>814.0</ele><time>2026-04-19T10:01:08.998Z</time></trkpt><trkpt lat="40.411356832855894" lon="15.750158933336154"><ele>815.0</ele><time>2026-04-19T10:01:10.998Z</time></trkpt><trkpt lat="40.411427372888916" lon="15.750191917325669"><ele>816.0</ele><time>2026-04-19T10:01:14Z</time></trkpt><trkpt lat="40.41148748062683" lon="15.750266590180347"><ele>817.0</ele><time>2026-04-19T10:01:17Z</time></trkpt><trkpt lat="40.41153923309626" lon="15.750318851405838"><ele>818.0</ele><time>2026-04-19T10:01:19Z</time></trkpt><trkpt lat="40.41163320543067" lon="15.750415880385187"><ele>819.0</ele><time>2026-04-19T10:01:22Z</time></trkpt><trkpt lat="40.41169761558219" lon="15.750475092217924"><ele>819.0</ele><time>2026-04-19T10:01:24Z</time></trkpt><trkpt lat="40.41175089716283" lon="15.750526505321467"><ele>819.0</ele><time>2026-04-19T10:01:27Z</time></trkpt><trkpt lat="40.411804741837145" lon="15.75058241071109"><ele>819.0</ele><time>2026-04-19T10:01:29Z</time></trkpt><trkpt lat="40.41185221220851" lon="15.750655522532796"><ele>819.0</ele><time>2026-04-19T10:01:32Z</time></trkpt><trkpt lat="40.411912951699335" lon="15.750714777322887"><ele>819.0</ele><time>2026-04-19T10:02:20.999Z</time></trkpt><trkpt lat="40.411879167212184" lon="15.75063670251997"><ele>819.0</ele><time>2026-04-19T10:02:23.999Z</time></trkpt><trkpt lat="40.41181304630241" lon="15.75058414977704"><ele>819.0</ele><time>2026-04-19T10:02:24.999Z</time></trkpt><trkpt lat="40.411740289961465" lon="15.750535544183263"><ele>819.0</ele><time>2026-04-19T10:02:25.999Z</time></trkpt><trkpt lat="40.411682121077945" lon="15.750448128572835"><ele>819.0</ele><time>2026-04-19T10:02:26.999Z</time></trkpt><trkpt lat="40.41159666389567" lon="15.750359100120502"><ele>819.0</ele><time>2026-04-19T10:02:27.999Z</time></trkpt><trkpt lat="40.41150987394368" lon="15.750268391887094"><ele>819.0</ele><time>2026-04-19T10:02:28.999Z</time></trkpt><trkpt lat="40.411444282332376" lon="15.75019878971896"><ele>819.0</ele><time>2026-04-19T10:02:29.999Z</time></trkpt><trkpt lat="40.411362209909875" lon="15.750130419338628"><ele>817.8000000000001</ele><time>2026-04-19T10:02:30.999Z</time></trkpt><trkpt lat="40.411297891570335" lon="15.75005864834992"><ele>816.6</ele><time>2026-04-19T10:02:31.999Z</time></trkpt><trkpt lat="40.41124244197248" lon="15.749958003682451"><ele>815.4</ele><time>2026-04-19T10:02:32.999Z</time></trkpt><trkpt lat="40.411183792176274" lon="15.749867027564223"><ele>814.2</ele><time>2026-04-19T10:02:33.999Z</time></trkpt><trkpt lat="40.41109215664471" lon="15.749734456605024"><ele>813.0</ele><time>2026-04-19T10:02:35.999Z</time></trkpt><trkpt lat="40.411054008945044" lon="15.749660389096148"><ele>813.0</ele><time>2026-04-19T10:02:36.999Z</time></trkpt><trkpt lat="40.41099097051403" lon="15.74954572127274"><ele>813.0</ele><time>2026-04-19T10:02:37.999Z</time></trkpt><trkpt lat="40.41095761269235" lon="15.749449880360459"><ele>813.0</ele><time>2026-04-19T10:02:39.999Z</time></trkpt><trkpt lat="40.4108941329028" lon="15.749364371870266"><ele>813.0</ele><time>2026-04-19T10:02:40.999Z</time></trkpt><trkpt lat="40.41081982472089" lon="15.749278711520502"><ele>813.0</ele><time>2026-04-19T10:02:41.999Z</time></trkpt><trkpt lat="40.41076403984672" lon="15.74921125703014"><ele>812.3333333333334</ele><time>2026-04-19T10:02:42.999Z</time></trkpt><trkpt lat="40.41072069430324" lon="15.749148787118576"><ele>811.6666666666667</ele><time>2026-04-19T10:02:43.999Z</time></trkpt><trkpt lat="40.41067683161645" lon="15.749088201874152"><ele>811.0</ele><time>2026-04-19T10:02:44.998Z</time></trkpt><trkpt lat="40.41063198677274" lon="15.749028007888274"><ele>810.3333333333334</ele><time>2026-04-19T10:02:45.998Z</time></trkpt><trkpt lat="40.410562880174375" lon="15.748937449141325"><ele>809.6666666666667</ele><time>2026-04-19T10:02:47.998Z</time></trkpt><trkpt lat="40.410478830045406" lon="15.748838912184903"><ele>809.0</ele><time>2026-04-19T10:02:49.998Z</time></trkpt><trkpt lat="40.41042400722152" lon="15.748722941687852"><ele>808.0</ele><time>2026-04-19T10:02:51.998Z</time></trkpt><trkpt lat="40.41037957347547" lon="15.74865812413504"><ele>807.0</ele><time>2026-04-19T10:02:52.998Z</time></trkpt><trkpt lat="40.41032684854253" lon="15.748581246463567"><ele>806.0</ele><time>2026-04-19T10:02:53.998Z</time></trkpt><trkpt lat="40.410277994309745" lon="15.748508548532486"><ele>805.0</ele><time>2026-04-19T10:02:54.998Z</time></trkpt><trkpt lat="40.410239619790545" lon="15.748441887623704"><ele>804.0</ele><time>2026-04-19T10:02:55.998Z</time></trkpt><trkpt lat="40.41018426460881" lon="15.748360559335095"><ele>803.0</ele><time>2026-04-19T10:02:56.998Z</time></trkpt><trkpt lat="40.41013441204125" lon="15.748283812426624"><ele>802.0</ele><time>2026-04-19T10:02:57.998Z</time></trkpt><trkpt lat="40.41008559933613" lon="15.748211302521938"><ele>801.8333333333333</ele><time>2026-04-19T10:02:58.998Z</time></trkpt><trkpt lat="40.410029589254584" lon="15.7481439948642"><ele>801.6666666666666</ele><time>2026-04-19T10:02:59.998Z</time></trkpt><trkpt lat="40.40997448458231" lon="15.748078112143196"><ele>801.5</ele><time>2026-04-19T10:03:00.998Z</time></trkpt><trkpt lat="40.40992425039051" lon="15.748019475505142"><ele>801.3333333333333</ele><time>2026-04-19T10:03:01.998Z</time></trkpt><trkpt lat="40.40988210881687" lon="15.747950018569956"><ele>801.1666666666666</ele><time>2026-04-19T10:03:02.998Z</time></trkpt><trkpt lat="40.409795452721085" lon="15.747787733932801"><ele>801.0</ele><time>2026-04-19T10:03:04.998Z</time></trkpt><trkpt lat="40.4097414735854" lon="15.747705997077253"><ele>799.5999999999999</ele><time>2026-04-19T10:03:05.998Z</time></trkpt><trkpt lat="40.40969038769152" lon="15.747615427453734"><ele>798.2</ele><time>2026-04-19T10:03:06.998Z</time></trkpt><trkpt lat="40.409617573244496" lon="15.747541945684972"><ele>796.8</ele><time>2026-04-19T10:03:07.998Z</time></trkpt><trkpt lat="40.409547574225634" lon="15.747469748133845"><ele>795.4000000000001</ele><time>2026-04-19T10:03:08.998Z</time></trkpt><trkpt lat="40.409465362735126" lon="15.747386505447844"><ele>794.0</ele><time>2026-04-19T10:03:09.998Z</time></trkpt><trkpt lat="40.40938813271294" lon="15.74729644845018"><ele>791.75</ele><time>2026-04-19T10:03:10.998Z</time></trkpt><trkpt lat="40.40929339730955" lon="15.747197279386452"><ele>789.5</ele><time>2026-04-19T10:03:11.998Z</time></trkpt><trkpt lat="40.409185733709926" lon="15.747146628297244"><ele>787.25</ele><time>2026-04-19T10:03:12.998Z</time></trkpt><trkpt lat="40.40906619902884" lon="15.747095703650837"><ele>785.0</ele><time>2026-04-19T10:03:13.998Z</time></trkpt><trkpt lat="40.40895221271796" lon="15.747040456663564"><ele>785.0</ele><time>2026-04-19T10:03:14.998Z</time></trkpt><trkpt lat="40.40883798563093" lon="15.746993710896717"><ele>785.0</ele><time>2026-04-19T10:03:15.998Z</time></trkpt><trkpt lat="40.40872689969618" lon="15.746969247504296"><ele>785.0</ele><time>2026-04-19T10:03:16.998Z</time></trkpt><trkpt lat="40.40863050095886" lon="15.746961527755484"><ele>785.0</ele><time>2026-04-19T10:03:17.998Z</time></trkpt><trkpt lat="40.40853258780094" lon="15.74696659390192"><ele>785.0</ele><time>2026-04-19T10:03:18.998Z</time></trkpt><trkpt lat="40.4084738695653" lon="15.747004295424611"><ele>782.6666666666667</ele><time>2026-04-19T10:03:20Z</time></trkpt><trkpt lat="40.40840026254985" lon="15.746998950271504"><ele>780.3333333333334</ele><time>2026-04-19T10:03:23Z</time></trkpt><trkpt lat="40.4083201119649" lon="15.747024814742812"><ele>778.0</ele><time>2026-04-19T10:03:25Z</time></trkpt><trkpt lat="40.40825979411767" lon="15.747090088852797"><ele>775.6666666666667</ele><time>2026-04-19T10:03:27Z</time></trkpt><trkpt lat="40.408189864825914" lon="15.747144104040686"><ele>773.3333333333334</ele><time>2026-04-19T10:03:28Z</time></trkpt><trkpt lat="40.408211648274175" lon="15.747291773472515"><ele>771.0</ele><time>2026-04-19T10:03:29Z</time></trkpt><trkpt lat="40.40822540623202" lon="15.747393573166077"><ele>771.0</ele><time>2026-04-19T10:03:30Z</time></trkpt><trkpt lat="40.40824807251938" lon="15.74750200018418"><ele>771.0</ele><time>2026-04-19T10:03:31Z</time></trkpt><trkpt lat="40.40826638444129" lon="15.747607134175746"><ele>771.0</ele><time>2026-04-19T10:03:32Z</time></trkpt><trkpt lat="40.408279319880315" lon="15.747711505463755"><ele>771.0</ele><time>2026-04-19T10:03:33Z</time></trkpt><trkpt lat="40.408274327299566" lon="15.747809394552508"><ele>771.0</ele><time>2026-04-19T10:03:34Z</time></trkpt><trkpt lat="40.40825242538769" lon="15.747906850757534"><ele>771.0</ele><time>2026-04-19T10:03:35Z</time></trkpt><trkpt lat="40.40820268602984" lon="15.748097424977734"><ele>770.1666666666666</ele><time>2026-04-19T10:03:37Z</time></trkpt><trkpt lat="40.408170829899525" lon="15.748193657851258"><ele>769.3333333333334</ele><time>2026-04-19T10:03:38Z</time></trkpt><trkpt lat="40.40813287759672" lon="15.748296052540361"><ele>768.5</ele><time>2026-04-19T10:03:39Z</time></trkpt><trkpt lat="40.408101992672286" lon="15.74837652864652"><ele>767.6666666666667</ele><time>2026-04-19T10:03:40Z</time></trkpt><trkpt lat="40.408063620217185" lon="15.748505620782467"><ele>766.8333333333334</ele><time>2026-04-19T10:03:41Z</time></trkpt><trkpt lat="40.40805554510401" lon="15.748620809966388"><ele>766.0</ele><time>2026-04-19T10:03:42Z</time></trkpt><trkpt lat="40.408068124198536" lon="15.7487370340875"><ele>765.0</ele><time>2026-04-19T10:03:43Z</time></trkpt><trkpt lat="40.408073670064496" lon="15.748847014309971"><ele>764.0</ele><time>2026-04-19T10:03:44Z</time></trkpt><trkpt lat="40.408091891308395" lon="15.748959836926547"><ele>763.0</ele><time>2026-04-19T10:03:45Z</time></trkpt><trkpt lat="40.40810752662622" lon="15.749057665296393"><ele>762.0</ele><time>2026-04-19T10:03:46Z</time></trkpt><trkpt lat="40.40811947352276" lon="15.749143056601406"><ele>761.0</ele><time>2026-04-19T10:03:47Z</time></trkpt><trkpt lat="40.40813541848482" lon="15.74931701507413"><ele>760.0</ele><time>2026-04-19T10:03:49Z</time></trkpt><trkpt lat="40.408144231895484" lon="15.74941023685364"><ele>759.0</ele><time>2026-04-19T10:03:50Z</time></trkpt><trkpt lat="40.408151630943124" lon="15.7495028521472"><ele>758.0</ele><time>2026-04-19T10:03:51Z</time></trkpt><trkpt lat="40.40815454169398" lon="15.749593896869424"><ele>757.0</ele><time>2026-04-19T10:03:52Z</time></trkpt><trkpt lat="40.40812718210456" lon="15.74967846059835"><ele>756.0</ele><time>2026-04-19T10:03:53Z</time></trkpt><trkpt lat="40.408109081914695" lon="15.749766560477077"><ele>755.0</ele><time>2026-04-19T10:03:54Z</time></trkpt><trkpt lat="40.408099117334274" lon="15.749864048090037"><ele>754.0</ele><time>2026-04-19T10:03:55Z</time></trkpt><trkpt lat="40.40809822736428" lon="15.74996062983449"><ele>753.0</ele><time>2026-04-19T10:03:56Z</time></trkpt><trkpt lat="40.408107151834926" lon="15.750058105680266"><ele>753.0</ele><time>2026-04-19T10:03:57Z</time></trkpt><trkpt lat="40.40812861021351" lon="15.750144915985294"><ele>753.0</ele><time>2026-04-19T10:03:58Z</time></trkpt><trkpt lat="40.40818565811245" lon="15.750286072826869"><ele>753.0</ele><time>2026-04-19T10:03:59.999Z</time></trkpt><trkpt lat="40.40822981136903" lon="15.750430956849629"><ele>753.0</ele><time>2026-04-19T10:04:01.999Z</time></trkpt><trkpt lat="40.40824520809929" lon="15.750533817592084"><ele>753.0</ele><time>2026-04-19T10:04:02.999Z</time></trkpt><trkpt lat="40.40824951518157" lon="15.75062246034897"><ele>752.4</ele><time>2026-04-19T10:04:03.999Z</time></trkpt><trkpt lat="40.40824146424248" lon="15.750726561354808"><ele>751.8</ele><time>2026-04-19T10:04:04.999Z</time></trkpt><trkpt lat="40.40816629095812" lon="15.75082941131524"><ele>751.2</ele><time>2026-04-19T10:04:06.999Z</time></trkpt><trkpt lat="40.40810286624314" lon="15.750893425606828"><ele>750.6</ele><time>2026-04-19T10:04:07.999Z</time></trkpt><trkpt lat="40.40804302821558" lon="15.750983528847064"><ele>750.0</ele><time>2026-04-19T10:04:09.999Z</time></trkpt><trkpt lat="40.407962012249016" lon="15.751083971457959"><ele>750.0</ele><time>2026-04-19T10:04:11.999Z</time></trkpt><trkpt lat="40.40791272837624" lon="15.751168991154827"><ele>750.0</ele><time>2026-04-19T10:04:13.999Z</time></trkpt><trkpt lat="40.407866890734944" lon="15.751235493220218"><ele>750.0</ele><time>2026-04-19T10:04:16.999Z</time></trkpt><trkpt lat="40.40795818181459" lon="15.75132737400546"><ele>750.0</ele><time>2026-04-19T10:04:19.999Z</time></trkpt><trkpt lat="40.40789740093654" lon="15.751281154242466"><ele>750.0</ele><time>2026-04-19T10:04:40.999Z</time></trkpt><trkpt lat="40.40788080921765" lon="15.751189103391827"><ele>750.0</ele><time>2026-04-19T10:04:42.999Z</time></trkpt><trkpt lat="40.4079566716207" lon="15.751135216012173"><ele>749.3333333333334</ele><time>2026-04-19T10:04:44.999Z</time></trkpt><trkpt lat="40.40801651904029" lon="15.751083183230465"><ele>748.6666666666666</ele><time>2026-04-19T10:04:45.999Z</time></trkpt><trkpt lat="40.40805774694477" lon="15.751009847953906"><ele>748.0</ele><time>2026-04-19T10:04:46.999Z</time></trkpt><trkpt lat="40.408100381899" lon="15.750938578896962"><ele>747.3333333333333</ele><time>2026-04-19T10:04:47.999Z</time></trkpt><trkpt lat="40.40815544894813" lon="15.750877675954493"><ele>746.6666666666666</ele><time>2026-04-19T10:04:48.999Z</time></trkpt><trkpt lat="40.40824055734984" lon="15.750834462226823"><ele>746.0</ele><time>2026-04-19T10:04:50.999Z</time></trkpt><trkpt lat="40.40845892195047" lon="15.751026769314352"><ele>745.8</ele><time>2026-04-19T10:04:53.999Z</time></trkpt><trkpt lat="40.40857165221835" lon="15.751081993640232"><ele>745.5999999999999</ele><time>2026-04-19T10:04:55.998Z</time></trkpt><trkpt lat="40.40863978573897" lon="15.75112642543669"><ele>745.4</ele><time>2026-04-19T10:04:56.998Z</time></trkpt><trkpt lat="40.40870157351327" lon="15.751150459168125"><ele>745.2</ele><time>2026-04-19T10:04:57.998Z</time></trkpt><trkpt lat="40.40879528022106" lon="15.751232471436547"><ele>745.0</ele><time>2026-04-19T10:04:59.998Z</time></trkpt><trkpt lat="40.40886810041636" lon="15.75128639195201"><ele>746.4</ele><time>2026-04-19T10:05:01.998Z</time></trkpt><trkpt lat="40.4089345572264" lon="15.75133476626839"><ele>747.8</ele><time>2026-04-19T10:05:03.998Z</time></trkpt><trkpt lat="40.409009729622504" lon="15.751375819084078"><ele>749.2</ele><time>2026-04-19T10:05:06.998Z</time></trkpt><trkpt lat="40.40909272083159" lon="15.751411424595911"><ele>750.6</ele><time>2026-04-19T10:05:09.998Z</time></trkpt><trkpt lat="40.40916183629124" lon="15.751483893557655"><ele>752.0</ele><time>2026-04-19T10:05:11.998Z</time></trkpt><trkpt lat="40.409280375839536" lon="15.751565118862244"><ele>752.0</ele><time>2026-04-19T10:05:13.998Z</time></trkpt><trkpt lat="40.40933438700148" lon="15.751693197114077"><ele>752.0</ele><time>2026-04-19T10:05:15.998Z</time></trkpt><trkpt lat="40.4093172865181" lon="15.751816037546027"><ele>752.0</ele><time>2026-04-19T10:05:17.998Z</time></trkpt><trkpt lat="40.40932846341432" lon="15.751923120692176"><ele>752.0</ele><time>2026-04-19T10:05:18.998Z</time></trkpt><trkpt lat="40.40934011117072" lon="15.752014024373077"><ele>752.0</ele><time>2026-04-19T10:05:19.998Z</time></trkpt><trkpt lat="40.409351803649415" lon="15.752105190456888"><ele>752.0</ele><time>2026-04-19T10:05:20.998Z</time></trkpt><trkpt lat="40.40940946812578" lon="15.75223266746088"><ele>752.8333333333333</ele><time>2026-04-19T10:05:22.998Z</time></trkpt><trkpt lat="40.409459928163685" lon="15.752308412192798"><ele>753.6666666666666</ele><time>2026-04-19T10:05:23.998Z</time></trkpt><trkpt lat="40.40952544856754" lon="15.752393529132094"><ele>754.5</ele><time>2026-04-19T10:05:24.998Z</time></trkpt><trkpt lat="40.40958640389756" lon="15.752467896868245"><ele>755.3333333333334</ele><time>2026-04-19T10:05:26Z</time></trkpt><trkpt lat="40.40964528758387" lon="15.752534970406229"><ele>756.1666666666667</ele><time>2026-04-19T10:05:27Z</time></trkpt><trkpt lat="40.40974434424238" lon="15.752604504405284"><ele>757.0</ele><time>2026-04-19T10:05:29Z</time></trkpt><trkpt lat="40.40985057925565" lon="15.752673264353758"><ele>757.5</ele><time>2026-04-19T10:05:31Z</time></trkpt><trkpt lat="40.409924455241615" lon="15.752696737631686"><ele>758.0</ele><time>2026-04-19T10:05:32Z</time></trkpt><trkpt lat="40.40999818826337" lon="15.752733641266646"><ele>758.5</ele><time>2026-04-19T10:05:33Z</time></trkpt><trkpt lat="40.41005484279915" lon="15.752786381739229"><ele>759.0</ele><time>2026-04-19T10:05:34Z</time></trkpt><trkpt lat="40.410105931736666" lon="15.752845462826288"><ele>759.5</ele><time>2026-04-19T10:05:36Z</time></trkpt><trkpt lat="40.41013918289668" lon="15.75294580251542"><ele>760.0</ele><time>2026-04-19T10:05:40Z</time></trkpt><trkpt lat="40.41019197429505" lon="15.75302755491982"><ele>763.0</ele><time>2026-04-19T10:05:42Z</time></trkpt><trkpt lat="40.41029696875715" lon="15.753073085911176"><ele>766.0</ele><time>2026-04-19T10:05:44Z</time></trkpt><trkpt lat="40.4103686638705" lon="15.75311174443661"><ele>769.0</ele><time>2026-04-19T10:05:45Z</time></trkpt><trkpt lat="40.410471751096665" lon="15.75314519105236"><ele>772.0</ele><time>2026-04-19T10:05:47Z</time></trkpt><trkpt lat="40.41054746700622" lon="15.75316143164006"><ele>775.0</ele><time>2026-04-19T10:05:48Z</time></trkpt><trkpt lat="40.41063412030588" lon="15.753180497490721"><ele>775.0</ele><time>2026-04-19T10:05:49Z</time></trkpt><trkpt lat="40.410708555468325" lon="15.753219244753026"><ele>775.0</ele><time>2026-04-19T10:05:50Z</time></trkpt><trkpt lat="40.41079084810756" lon="15.753165405577633"><ele>775.0</ele><time>2026-04-19T10:05:51Z</time></trkpt><trkpt lat="40.41090817878733" lon="15.753123144780695"><ele>775.0</ele><time>2026-04-19T10:05:53Z</time></trkpt><trkpt lat="40.4110248293799" lon="15.753067026226242"><ele>775.0</ele><time>2026-04-19T10:05:55Z</time></trkpt><trkpt lat="40.41114353398347" lon="15.753044946034983"><ele>775.0</ele><time>2026-04-19T10:05:57Z</time></trkpt><trkpt lat="40.41123974466459" lon="15.753075785996145"><ele>775.0</ele><time>2026-04-19T10:05:59Z</time></trkpt><trkpt lat="40.41134269317042" lon="15.75314781922018"><ele>775.0</ele><time>2026-04-19T10:06:01Z</time></trkpt><trkpt lat="40.41141552616772" lon="15.75318477760246"><ele>775.0</ele><time>2026-04-19T10:06:02Z</time></trkpt><trkpt lat="40.41144767046742" lon="15.753266291894716"><ele>775.0</ele><time>2026-04-19T10:06:03Z</time></trkpt><trkpt lat="40.41150719484395" lon="15.753360298327603"><ele>775.6666666666666</ele><time>2026-04-19T10:06:04.999Z</time></trkpt><trkpt lat="40.41158290846263" lon="15.753470628807673"><ele>776.3333333333333</ele><time>2026-04-19T10:06:07.999Z</time></trkpt><trkpt lat="40.41162327057932" lon="15.753586876784606"><ele>777.0</ele><time>2026-04-19T10:06:09.999Z</time></trkpt><trkpt lat="40.41166682271223" lon="15.753682814022941"><ele>777.6666666666667</ele><time>2026-04-19T10:06:11.999Z</time></trkpt><trkpt lat="40.41169861515078" lon="15.753754639063251"><ele>778.3333333333334</ele><time>2026-04-19T10:06:12.999Z</time></trkpt><trkpt lat="40.41173569098498" lon="15.753845259977052"><ele>779.0</ele><time>2026-04-19T10:06:14.999Z</time></trkpt><trkpt lat="40.411788537336186" lon="15.753903495766728"><ele>780.3333333333334</ele><time>2026-04-19T10:06:16.999Z</time></trkpt><trkpt lat="40.41183995843916" lon="15.754009809223387"><ele>781.6666666666667</ele><time>2026-04-19T10:06:18.999Z</time></trkpt><trkpt lat="40.411880621248656" lon="15.754075587456581"><ele>783.0</ele><time>2026-04-19T10:06:19.999Z</time></trkpt><trkpt lat="40.411936045781495" lon="15.754157930326963"><ele>784.3333333333333</ele><time>2026-04-19T10:06:20.999Z</time></trkpt><trkpt lat="40.41197383619495" lon="15.754234808189688"><ele>785.6666666666666</ele><time>2026-04-19T10:06:21.999Z</time></trkpt><trkpt lat="40.41202915602038" lon="15.754359491983854"><ele>787.0</ele><time>2026-04-19T10:06:23.999Z</time></trkpt><trkpt lat="40.41212074121506" lon="15.75444191940288"><ele>788.6666666666666</ele><time>2026-04-19T10:06:26.999Z</time></trkpt><trkpt lat="40.412168785809094" lon="15.754502211954858"><ele>790.3333333333333</ele><time>2026-04-19T10:06:27.999Z</time></trkpt><trkpt lat="40.41222285683733" lon="15.754554363653508"><ele>792.0</ele><time>2026-04-19T10:06:28.999Z</time></trkpt><trkpt lat="40.412330888113296" lon="15.754661229438156"><ele>793.6666666666667</ele><time>2026-04-19T10:06:30.999Z</time></trkpt><trkpt lat="40.412387646401115" lon="15.754717841345247"><ele>795.3333333333334</ele><time>2026-04-19T10:06:31.999Z</time></trkpt><trkpt lat="40.41246118107992" lon="15.754755478241005"><ele>797.0</ele><time>2026-04-19T10:06:32.999Z</time></trkpt><trkpt lat="40.41252412177351" lon="15.754790657236747"><ele>797.0000000000001</ele><time>2026-04-19T10:06:33.999Z</time></trkpt><trkpt lat="40.41260253690233" lon="15.754816717085658"><ele>797.0</ele><time>2026-04-19T10:06:35.999Z</time></trkpt><trkpt lat="40.41268174803561" lon="15.754848967817335"><ele>797.0</ele><time>2026-04-19T10:06:39.999Z</time></trkpt><trkpt lat="40.41275310879894" lon="15.754816762247"><ele>797.0</ele><time>2026-04-19T10:06:41.999Z</time></trkpt><trkpt lat="40.41284037839412" lon="15.75483522703157"><ele>797.0000000000001</ele><time>2026-04-19T10:06:44.999Z</time></trkpt><trkpt lat="40.412909609900254" lon="15.754890877765249"><ele>797.0</ele><time>2026-04-19T10:06:46.999Z</time></trkpt><trkpt lat="40.412981482994255" lon="15.754943903228803"><ele>797.5000000000001</ele><time>2026-04-19T10:06:49.999Z</time></trkpt><trkpt lat="40.413059273071106" lon="15.754927328935088"><ele>798.0</ele><time>2026-04-19T10:06:52.999Z</time></trkpt><trkpt lat="40.413136050043455" lon="15.75493486530155"><ele>798.5</ele><time>2026-04-19T10:06:54.999Z</time></trkpt><trkpt lat="40.41319195824551" lon="15.755004694814328"><ele>799.0</ele><time>2026-04-19T10:06:56.999Z</time></trkpt><trkpt lat="40.41322733639858" lon="15.755077424715083"><ele>799.5000000000001</ele><time>2026-04-19T10:06:57.999Z</time></trkpt><trkpt lat="40.41327357115791" lon="15.755155564735615"><ele>800.0</ele><time>2026-04-19T10:06:58.999Z</time></trkpt><trkpt lat="40.41332114583174" lon="15.755233495591357"><ele>800.6</ele><time>2026-04-19T10:06:59.998Z</time></trkpt><trkpt lat="40.41340771945444" lon="15.755333794190467"><ele>801.2</ele><time>2026-04-19T10:07:01.998Z</time></trkpt><trkpt lat="40.413446842505124" lon="15.755406315500318"><ele>801.8</ele><time>2026-04-19T10:07:02.998Z</time></trkpt><trkpt lat="40.4135275520288" lon="15.755533933234139"><ele>802.4</ele><time>2026-04-19T10:07:04.998Z</time></trkpt><trkpt lat="40.41359461502547" lon="15.75564092333759"><ele>803.0</ele><time>2026-04-19T10:07:06.998Z</time></trkpt><trkpt lat="40.41364007905884" lon="15.75575952374439"><ele>803.0000000000001</ele><time>2026-04-19T10:07:08.998Z</time></trkpt><trkpt lat="40.41370292660323" lon="15.75588688009995"><ele>803.0</ele><time>2026-04-19T10:07:10.998Z</time></trkpt><trkpt lat="40.41376625551934" lon="15.755960214318991"><ele>803.0</ele><time>2026-04-19T10:07:11.998Z</time></trkpt><trkpt lat="40.41381605" lon="15.756027467912457"><ele>803.0</ele><time>2026-04-19T10:07:12.998Z</time></trkpt><trkpt lat="40.413854175586515" lon="15.756111016541436"><ele>803.0000000000001</ele><time>2026-04-19T10:07:13.998Z</time></trkpt><trkpt lat="40.413896003674566" lon="15.756201913050653"><ele>803.0</ele><time>2026-04-19T10:07:15.998Z</time></trkpt><trkpt lat="40.413943828230956" lon="15.756276589283917"><ele>804.1666666666667</ele><time>2026-04-19T10:07:18.998Z</time></trkpt><trkpt lat="40.41398852763855" lon="15.756368559444386"><ele>805.3333333333334</ele><time>2026-04-19T10:07:20.998Z</time></trkpt><trkpt lat="40.41405782557823" lon="15.756449494199845"><ele>806.5</ele><time>2026-04-19T10:07:23.998Z</time></trkpt><trkpt lat="40.41412466080047" lon="15.756496735981628"><ele>807.6666666666667</ele><time>2026-04-19T10:07:26.998Z</time></trkpt><trkpt lat="40.4141604653865" lon="15.756568592630439"><ele>808.8333333333334</ele><time>2026-04-19T10:07:27.998Z</time></trkpt><trkpt lat="40.41423775828116" lon="15.75666528788007"><ele>810.0</ele><time>2026-04-19T10:07:29.998Z</time></trkpt><trkpt lat="40.41430188533986" lon="15.756716211903305"><ele>810.0</ele><time>2026-04-19T10:07:30.998Z</time></trkpt><trkpt lat="40.414381923188095" lon="15.756768155816763"><ele>810.0</ele><time>2026-04-19T10:07:31.999Z</time></trkpt><trkpt lat="40.41445446781652" lon="15.756790003221111"><ele>810.0</ele><time>2026-04-19T10:07:32.999Z</time></trkpt><trkpt lat="40.41453844333369" lon="15.756874065387894"><ele>810.0</ele><time>2026-04-19T10:07:34.999Z</time></trkpt><trkpt lat="40.41458787650584" lon="15.756941353020919"><ele>810.0</ele><time>2026-04-19T10:07:35.999Z</time></trkpt><trkpt lat="40.414629055635864" lon="15.757018318137881"><ele>810.0</ele><time>2026-04-19T10:07:36.999Z</time></trkpt><trkpt lat="40.41472183735873" lon="15.757108606922698"><ele>813.0</ele><time>2026-04-19T10:07:39Z</time></trkpt><trkpt lat="40.41481767501949" lon="15.757175619565718"><ele>816.0</ele><time>2026-04-19T10:07:41Z</time></trkpt><trkpt lat="40.414883505385994" lon="15.75723020937298"><ele>819.0</ele><time>2026-04-19T10:07:42Z</time></trkpt><trkpt lat="40.41496958517129" lon="15.757295064856367"><ele>822.0</ele><time>2026-04-19T10:07:44Z</time></trkpt><trkpt lat="40.415048499535175" lon="15.757243238221413"><ele>825.0</ele><time>2026-04-19T10:07:46Z</time></trkpt><trkpt lat="40.4151427073691" lon="15.757178238898652"><ele>825.0</ele><time>2026-04-19T10:07:48Z</time></trkpt><trkpt lat="40.41527118399676" lon="15.757209156863242"><ele>825.0</ele><time>2026-04-19T10:07:50Z</time></trkpt><trkpt lat="40.415365248280054" lon="15.757263657101138"><ele>825.0</ele><time>2026-04-19T10:07:52Z</time></trkpt><trkpt lat="40.41544119049035" lon="15.757230231108748"><ele>825.0</ele><time>2026-04-19T10:07:55Z</time></trkpt><trkpt lat="40.4154957385566" lon="15.757185771430525"><ele>825.0</ele><time>2026-04-19T10:07:58.999Z</time></trkpt><trkpt lat="40.41558902627796" lon="15.757152717783558"><ele>825.1666666666666</ele><time>2026-04-19T10:08:01.999Z</time></trkpt><trkpt lat="40.4156518626046" lon="15.757165757940259"><ele>825.3333333333333</ele><time>2026-04-19T10:08:03.999Z</time></trkpt><trkpt lat="40.415717807346674" lon="15.75720910961708"><ele>825.5</ele><time>2026-04-19T10:08:06.999Z</time></trkpt><trkpt lat="40.41577542100186" lon="15.757275128450397"><ele>825.6666666666666</ele><time>2026-04-19T10:08:08.999Z</time></trkpt><trkpt lat="40.4158319018489" lon="15.757348904138766"><ele>825.8333333333333</ele><time>2026-04-19T10:08:11.999Z</time></trkpt><trkpt lat="40.41593545288509" lon="15.757449630511628"><ele>826.0</ele><time>2026-04-19T10:08:12.999Z</time></trkpt><trkpt lat="40.41602176615411" lon="15.757504665631595"><ele>825.9999999999999</ele><time>2026-04-19T10:08:14.999Z</time></trkpt><trkpt lat="40.41610928026793" lon="15.757521502603922"><ele>826.0</ele><time>2026-04-19T10:08:15.999Z</time></trkpt><trkpt lat="40.41614060636377" lon="15.757610330891918"><ele>826.0</ele><time>2026-04-19T10:08:16.999Z</time></trkpt><trkpt lat="40.416183949278846" lon="15.757686992729727"><ele>826.0</ele><time>2026-04-19T10:08:17.999Z</time></trkpt><trkpt lat="40.416270708812064" lon="15.757728842083289"><ele>825.9999999999999</ele><time>2026-04-19T10:08:19.999Z</time></trkpt><trkpt lat="40.41633125432614" lon="15.757797672785285"><ele>826.0</ele><time>2026-04-19T10:08:21.999Z</time></trkpt><trkpt lat="40.416399971589634" lon="15.75779318035151"><ele>828.1666666666666</ele><time>2026-04-19T10:08:26.999Z</time></trkpt><trkpt lat="40.4163958363823" lon="15.757651862773418"><ele>830.3333333333333</ele><time>2026-04-19T10:08:40.999Z</time></trkpt><trkpt lat="40.416363664899876" lon="15.757554782755305"><ele>832.5</ele><time>2026-04-19T10:08:42.999Z</time></trkpt><trkpt lat="40.41640748292967" lon="15.757470665284306"><ele>834.6666666666667</ele><time>2026-04-19T10:08:44.999Z</time></trkpt><trkpt lat="40.41645959272003" lon="15.757411550898826"><ele>836.8333333333334</ele><time>2026-04-19T10:08:45.999Z</time></trkpt><trkpt lat="40.41653895367603" lon="15.757363760702015"><ele>839.0</ele><time>2026-04-19T10:08:46.999Z</time></trkpt><trkpt lat="40.416616065840124" lon="15.757224204928624"><ele>839.0000000000001</ele><time>2026-04-19T10:08:48.999Z</time></trkpt><trkpt lat="40.41663755266605" lon="15.757106696315237"><ele>839.0</ele><time>2026-04-19T10:08:49.999Z</time></trkpt><trkpt lat="40.41667621590053" lon="15.757023028113352"><ele>839.0</ele><time>2026-04-19T10:08:50.999Z</time></trkpt><trkpt lat="40.416731673703225" lon="15.756945209161643"><ele>839.0</ele><time>2026-04-19T10:08:52.999Z</time></trkpt><trkpt lat="40.41678390251781" lon="15.756883717365938"><ele>839.0000000000001</ele><time>2026-04-19T10:09:46Z</time></trkpt><trkpt lat="40.41683282990607" lon="15.756813227732104"><ele>839.0</ele><time>2026-04-19T10:09:58Z</time></trkpt><trkpt lat="40.41688214959227" lon="15.756744399153458"><ele>839.5000000000001</ele><time>2026-04-19T10:10:10Z</time></trkpt><trkpt lat="40.41692096432474" lon="15.756659476491595"><ele>840.0</ele><time>2026-04-19T10:10:11Z</time></trkpt><trkpt lat="40.41696505840458" lon="15.75658252244897"><ele>840.5</ele><time>2026-04-19T10:10:12Z</time></trkpt><trkpt lat="40.41699172820078" lon="15.756413259502583"><ele>841.0</ele><time>2026-04-19T10:10:14Z</time></trkpt><trkpt lat="40.417044711876244" lon="15.75633503198446"><ele>841.5000000000001</ele><time>2026-04-19T10:10:15Z</time></trkpt><trkpt lat="40.41700552297411" lon="15.756260518427593"><ele>842.0</ele><time>2026-04-19T10:10:24.999Z</time></trkpt><trkpt lat="40.41702266849621" lon="15.756086414619741"><ele>842.8333333333334</ele><time>2026-04-19T10:10:50.999Z</time></trkpt><trkpt lat="40.417046954025324" lon="15.756009402574076"><ele>843.6666666666667</ele><time>2026-04-19T10:10:51.999Z</time></trkpt><trkpt lat="40.41706079068077" lon="15.755923508994602"><ele>844.5</ele><time>2026-04-19T10:10:52.999Z</time></trkpt><trkpt lat="40.41708573829679" lon="15.75579860893067"><ele>845.3333333333333</ele><time>2026-04-19T10:10:53.999Z</time></trkpt><trkpt lat="40.41707468385619" lon="15.755683566349477"><ele>846.1666666666666</ele><time>2026-04-19T10:10:54.999Z</time></trkpt><trkpt lat="40.41708548433509" lon="15.755571467335502"><ele>847.0</ele><time>2026-04-19T10:10:56.999Z</time></trkpt><trkpt lat="40.41713136215617" lon="15.755514144044472"><ele>849.2</ele><time>2026-04-19T10:10:59.999Z</time></trkpt><trkpt lat="40.417223073425525" lon="15.755461547221831"><ele>851.4000000000001</ele><time>2026-04-19T10:11:18.998Z</time></trkpt><trkpt lat="40.417283972515484" lon="15.755435473092797"><ele>853.5999999999999</ele><time>2026-04-19T10:11:23.998Z</time></trkpt><trkpt lat="40.417389021839405" lon="15.755419533196054"><ele>855.8</ele><time>2026-04-19T10:11:25.998Z</time></trkpt><trkpt lat="40.41751677770655" lon="15.755416678733146"><ele>858.0</ele><time>2026-04-19T10:11:27.998Z</time></trkpt><trkpt lat="40.417637618304305" lon="15.75540264566981"><ele>858.0</ele><time>2026-04-19T10:11:29.998Z</time></trkpt><trkpt lat="40.41775252972374" lon="15.755426663760835"><ele>858.0</ele><time>2026-04-19T10:11:31.998Z</time></trkpt><trkpt lat="40.41781620589222" lon="15.755447044933778"><ele>858.0</ele><time>2026-04-19T10:11:32.998Z</time></trkpt><trkpt lat="40.41788449087257" lon="15.755479923512855"><ele>858.0</ele><time>2026-04-19T10:11:33.998Z</time></trkpt><trkpt lat="40.41795386640637" lon="15.75550585153013"><ele>858.0</ele><time>2026-04-19T10:11:34.998Z</time></trkpt><trkpt lat="40.418032922163995" lon="15.755535011992558"><ele>858.0</ele><time>2026-04-19T10:11:35.998Z</time></trkpt><trkpt lat="40.418143509254406" lon="15.755563313527423"><ele>861.0</ele><time>2026-04-19T10:11:37.998Z</time></trkpt><trkpt lat="40.41824691081441" lon="15.7555845936723"><ele>864.0</ele><time>2026-04-19T10:11:39.998Z</time></trkpt><trkpt lat="40.418310428927555" lon="15.7556091786647"><ele>867.0</ele><time>2026-04-19T10:11:40.998Z</time></trkpt><trkpt lat="40.41839845627613" lon="15.755610527894511"><ele>870.0</ele><time>2026-04-19T10:11:42.998Z</time></trkpt><trkpt lat="40.41846459983161" lon="15.75558249097497"><ele>873.0</ele><time>2026-04-19T10:11:45Z</time></trkpt><trkpt lat="40.41857637533202" lon="15.755509646274668"><ele>873.0</ele><time>2026-04-19T10:11:47Z</time></trkpt><trkpt lat="40.418646183272216" lon="15.755436375785658"><ele>873.0</ele><time>2026-04-19T10:11:48Z</time></trkpt><trkpt lat="40.418693394617144" lon="15.755378086171385"><ele>873.0</ele><time>2026-04-19T10:11:49Z</time></trkpt><trkpt lat="40.4187505539982" lon="15.75531875874116"><ele>873.0</ele><time>2026-04-19T10:11:50Z</time></trkpt><trkpt lat="40.41881597645091" lon="15.755281627385493"><ele>873.0</ele><time>2026-04-19T10:11:51Z</time></trkpt><trkpt lat="40.41892591496462" lon="15.755207522463436"><ele>873.0</ele><time>2026-04-19T10:11:53Z</time></trkpt><trkpt lat="40.41904419918259" lon="15.755191905166452"><ele>875.5999999999999</ele><time>2026-04-19T10:11:55Z</time></trkpt><trkpt lat="40.41916921050204" lon="15.75522526495745"><ele>878.1999999999999</ele><time>2026-04-19T10:11:57Z</time></trkpt><trkpt lat="40.419293498546" lon="15.755253684175878"><ele>880.8</ele><time>2026-04-19T10:11:59Z</time></trkpt><trkpt lat="40.41938168597362" lon="15.75527408395982"><ele>883.4</ele><time>2026-04-19T10:12:01Z</time></trkpt><trkpt lat="40.419463238685935" lon="15.755280611356746"><ele>886.0</ele><time>2026-04-19T10:12:04Z</time></trkpt><trkpt lat="40.4195336446994" lon="15.755270769381958"><ele>885.9999999999999</ele><time>2026-04-19T10:12:06Z</time></trkpt><trkpt lat="40.419631248555355" lon="15.755268581986792"><ele>886.0</ele><time>2026-04-19T10:12:09Z</time></trkpt><trkpt lat="40.419708667522166" lon="15.755261823117277"><ele>886.0</ele><time>2026-04-19T10:12:11Z</time></trkpt><trkpt lat="40.41979300749182" lon="15.755227197484219"><ele>886.0</ele><time>2026-04-19T10:12:13Z</time></trkpt><trkpt lat="40.41986445663422" lon="15.755198444488913"><ele>885.9999999999999</ele><time>2026-04-19T10:12:15Z</time></trkpt><trkpt lat="40.419927461223395" lon="15.755156362018525"><ele>886.0</ele><time>2026-04-19T10:12:17Z</time></trkpt><trkpt lat="40.42001723399293" lon="15.755043196205188"><ele>884.6666666666666</ele><time>2026-04-19T10:12:19Z</time></trkpt><trkpt lat="40.420084764315014" lon="15.754980750363881"><ele>883.3333333333333</ele><time>2026-04-19T10:12:21Z</time></trkpt><trkpt lat="40.420164001462624" lon="15.754920505426973"><ele>882.0</ele><time>2026-04-19T10:12:24Z</time></trkpt><trkpt lat="40.42022927288758" lon="15.754876172645215"><ele>880.6666666666667</ele><time>2026-04-19T10:12:35.999Z</time></trkpt><trkpt lat="40.42030293200681" lon="15.754850693092573"><ele>879.3333333333334</ele><time>2026-04-19T10:13:39.998Z</time></trkpt><trkpt lat="40.42032124202983" lon="15.754757803734135"><ele>878.0</ele><time>2026-04-19T10:14:08Z</time></trkpt><trkpt lat="40.420349244687515" lon="15.754677196754406"><ele>878.0</ele><time>2026-04-19T10:14:14Z</time></trkpt><trkpt lat="40.42040073176662" lon="15.75462526035176"><ele>878.0</ele><time>2026-04-19T10:14:19Z</time></trkpt><trkpt lat="40.420430590598606" lon="15.754539877684904"><ele>878.0</ele><time>2026-04-19T10:14:23Z</time></trkpt><trkpt lat="40.42045204918398" lon="15.754459218117661"><ele>878.0</ele><time>2026-04-19T10:14:29Z</time></trkpt><trkpt lat="40.420474519269284" lon="15.754379034525128"><ele>878.0</ele><time>2026-04-19T10:15:30.999Z</time></trkpt><trkpt lat="40.420495015732534" lon="15.754280353390165"><ele>878.0</ele><time>2026-04-19T10:15:38.998Z</time></trkpt><trkpt lat="40.42050511154897" lon="15.754187790338184"><ele>878.0</ele><time>2026-04-19T10:15:44.998Z</time></trkpt><trkpt lat="40.420532585912134" lon="15.754081484680684"><ele>877.3333333333334</ele><time>2026-04-19T10:15:51.998Z</time></trkpt><trkpt lat="40.420491608867046" lon="15.753995226445491"><ele>876.6666666666667</ele><time>2026-04-19T10:15:57Z</time></trkpt><trkpt lat="40.42047995145731" lon="15.753909778178956"><ele>876.0</ele><time>2026-04-19T10:16:35.999Z</time></trkpt><trkpt lat="40.42049023692305" lon="15.754015140833522"><ele>875.3333333333333</ele><time>2026-04-19T10:17:09.999Z</time></trkpt><trkpt lat="40.42049908986277" lon="15.754162827288946"><ele>874.6666666666666</ele><time>2026-04-19T10:17:12.999Z</time></trkpt><trkpt lat="40.420500034435065" lon="15.754266717414088"><ele>874.0</ele><time>2026-04-19T10:17:17.999Z</time></trkpt><trkpt lat="40.42047375353247" lon="15.754353319878895"><ele>874.6666666666666</ele><time>2026-04-19T10:17:44.998Z</time></trkpt><trkpt lat="40.420455282678994" lon="15.754443746043945"><ele>875.3333333333333</ele><time>2026-04-19T10:17:51.998Z</time></trkpt><trkpt lat="40.420428889508905" lon="15.75454473501812"><ele>876.0</ele><time>2026-04-19T10:17:54.998Z</time></trkpt><trkpt lat="40.420387711739515" lon="15.754612298753987"><ele>876.6666666666667</ele><time>2026-04-19T10:18:00.998Z</time></trkpt><trkpt lat="40.420343780320145" lon="15.754714887065042"><ele>877.3333333333334</ele><time>2026-04-19T10:18:05Z</time></trkpt><trkpt lat="40.42029097247152" lon="15.754808654709956"><ele>878.0</ele><time>2026-04-19T10:18:09Z</time></trkpt><trkpt lat="40.42023157278907" lon="15.754853979753289"><ele>878.0</ele><time>2026-04-19T10:18:10Z</time></trkpt><trkpt lat="40.42016044727693" lon="15.754877474995439"><ele>878.0</ele><time>2026-04-19T10:18:12Z</time></trkpt><trkpt lat="40.42006809082631" lon="15.75497572474413"><ele>878.0</ele><time>2026-04-19T10:18:14Z</time></trkpt><trkpt lat="40.41999664113197" lon="15.755053399728894"><ele>878.0</ele><time>2026-04-19T10:18:16Z</time></trkpt><trkpt lat="40.41994025842083" lon="15.755120743345723"><ele>878.0</ele><time>2026-04-19T10:18:17Z</time></trkpt><trkpt lat="40.41984773032184" lon="15.755177885447702"><ele>878.0000000000001</ele><time>2026-04-19T10:18:19Z</time></trkpt><trkpt lat="40.419745385994666" lon="15.755196201424676"><ele>878.0</ele><time>2026-04-19T10:18:21Z</time></trkpt><trkpt lat="40.419675218518854" lon="15.755228065576295"><ele>878.0</ele><time>2026-04-19T10:18:22Z</time></trkpt><trkpt lat="40.41958636144607" lon="15.755241797535591"><ele>878.0</ele><time>2026-04-19T10:18:24Z</time></trkpt><trkpt lat="40.419484394292006" lon="15.755230851151074"><ele>878.0000000000001</ele><time>2026-04-19T10:18:27Z</time></trkpt><trkpt lat="40.41941821150321" lon="15.755220741060015"><ele>878.0</ele><time>2026-04-19T10:18:28Z</time></trkpt><trkpt lat="40.41932879449558" lon="15.755221332480039"><ele>876.8</ele><time>2026-04-19T10:18:29Z</time></trkpt><trkpt lat="40.419250995859684" lon="15.75521699192508"><ele>875.5999999999999</ele><time>2026-04-19T10:18:30Z</time></trkpt><trkpt lat="40.4191523531138" lon="15.755183405069905"><ele>874.4000000000001</ele><time>2026-04-19T10:18:32Z</time></trkpt><trkpt lat="40.41904284136338" lon="15.75519453198129"><ele>873.2</ele><time>2026-04-19T10:18:34Z</time></trkpt><trkpt lat="40.41895660323168" lon="15.75522147322843"><ele>872.0</ele><time>2026-04-19T10:18:36Z</time></trkpt><trkpt lat="40.41885738593187" lon="15.755300564268408"><ele>872.2</ele><time>2026-04-19T10:18:37.999Z</time></trkpt><trkpt lat="40.41878124786689" lon="15.755366631679275"><ele>872.4000000000001</ele><time>2026-04-19T10:18:39.999Z</time></trkpt><trkpt lat="40.4187276885907" lon="15.755413863285067"><ele>872.5999999999999</ele><time>2026-04-19T10:18:40.999Z</time></trkpt><trkpt lat="40.41866635782762" lon="15.75549460271348"><ele>872.8</ele><time>2026-04-19T10:18:41.999Z</time></trkpt><trkpt lat="40.418576303713486" lon="15.755585196496087"><ele>873.0</ele><time>2026-04-19T10:18:43.999Z</time></trkpt><trkpt lat="40.41847529805843" lon="15.75562420613628"><ele>873.0</ele><time>2026-04-19T10:18:45.999Z</time></trkpt><trkpt lat="40.41836716759358" lon="15.7556053412831"><ele>873.0</ele><time>2026-04-19T10:18:47.999Z</time></trkpt><trkpt lat="40.418293129190275" lon="15.75558632849865"><ele>873.0</ele><time>2026-04-19T10:18:48.999Z</time></trkpt><trkpt lat="40.4182247463124" lon="15.755557076054176"><ele>873.0</ele><time>2026-04-19T10:18:49.999Z</time></trkpt><trkpt lat="40.41814362359861" lon="15.755536196038994"><ele>873.0</ele><time>2026-04-19T10:18:50.999Z</time></trkpt><trkpt lat="40.41803144962686" lon="15.755506088151567"><ele>870.5</ele><time>2026-04-19T10:18:51.999Z</time></trkpt><trkpt lat="40.417938866269864" lon="15.755477196982898"><ele>868.0</ele><time>2026-04-19T10:18:52.999Z</time></trkpt><trkpt lat="40.41785141984722" lon="15.755444878704182"><ele>865.5</ele><time>2026-04-19T10:18:53.999Z</time></trkpt><trkpt lat="40.41777986224669" lon="15.755423274559496"><ele>863.0</ele><time>2026-04-19T10:18:54.999Z</time></trkpt><trkpt lat="40.41771396154736" lon="15.755410053057684"><ele>860.5</ele><time>2026-04-19T10:18:55.999Z</time></trkpt><trkpt lat="40.41764788788734" lon="15.755399872478074"><ele>858.0</ele><time>2026-04-19T10:18:56.999Z</time></trkpt><trkpt lat="40.41758358409352" lon="15.755396502259332"><ele>858.0</ele><time>2026-04-19T10:18:57.999Z</time></trkpt><trkpt lat="40.41751101535506" lon="15.755387708730582"><ele>858.0</ele><time>2026-04-19T10:18:58.999Z</time></trkpt><trkpt lat="40.417432258462796" lon="15.755419041414214"><ele>858.0</ele><time>2026-04-19T10:18:59.999Z</time></trkpt><trkpt lat="40.41735633609769" lon="15.755431196593614"><ele>858.0</ele><time>2026-04-19T10:19:00.999Z</time></trkpt><trkpt lat="40.41727165482008" lon="15.75542389906804"><ele>858.0</ele><time>2026-04-19T10:19:02.999Z</time></trkpt><trkpt lat="40.41721915077729" lon="15.755472719154273"><ele>858.0</ele><time>2026-04-19T10:19:13.999Z</time></trkpt><trkpt lat="40.41730693049762" lon="15.755545093159217"><ele>858.0</ele><time>2026-04-19T10:21:00.999Z</time></trkpt><trkpt lat="40.41737962255747" lon="15.75557542973574"><ele>858.0</ele><time>2026-04-19T10:21:02.999Z</time></trkpt><trkpt lat="40.417444802378085" lon="15.755609497856446"><ele>858.0</ele><time>2026-04-19T10:21:03.999Z</time></trkpt><trkpt lat="40.41752026840796" lon="15.75567795541005"><ele>858.0</ele><time>2026-04-19T10:21:05.999Z</time></trkpt><trkpt lat="40.41758588250816" lon="15.755712453724351"><ele>858.0</ele><time>2026-04-19T10:21:07.999Z</time></trkpt><trkpt lat="40.417656454025774" lon="15.755752930662492"><ele>858.0</ele><time>2026-04-19T10:21:11.999Z</time></trkpt><trkpt lat="40.417753952549184" lon="15.755813369013739"><ele>858.0</ele><time>2026-04-19T10:21:13.999Z</time></trkpt><trkpt lat="40.417860012729086" lon="15.755883697876094"><ele>858.0</ele><time>2026-04-19T10:21:15.999Z</time></trkpt><trkpt lat="40.417916427027826" lon="15.755922577041842"><ele>858.0</ele><time>2026-04-19T10:21:16.999Z</time></trkpt><trkpt lat="40.41797258172233" lon="15.755961277363953"><ele>858.0</ele><time>2026-04-19T10:21:17.999Z</time></trkpt><trkpt lat="40.4180311059695" lon="15.756001610757702"><ele>858.0</ele><time>2026-04-19T10:21:18.999Z</time></trkpt><trkpt lat="40.41809692250475" lon="15.756046969589097"><ele>858.0</ele><time>2026-04-19T10:21:19.999Z</time></trkpt><trkpt lat="40.41817226178976" lon="15.756096024344702"><ele>863.8</ele><time>2026-04-19T10:21:20.999Z</time></trkpt><trkpt lat="40.41824913322562" lon="15.75613544015785"><ele>869.5999999999999</ele><time>2026-04-19T10:21:21.999Z</time></trkpt><trkpt lat="40.418339097976684" lon="15.75616660853183"><ele>875.4000000000001</ele><time>2026-04-19T10:21:22.999Z</time></trkpt><trkpt lat="40.41840484155018" lon="15.756177669757307"><ele>881.2</ele><time>2026-04-19T10:21:23.999Z</time></trkpt><trkpt lat="40.41852790685946" lon="15.756222095466276"><ele>887.0</ele><time>2026-04-19T10:21:25.999Z</time></trkpt><trkpt lat="40.41862752907989" lon="15.756274648970157"><ele>887.0</ele><time>2026-04-19T10:21:27.999Z</time></trkpt><trkpt lat="40.41871918854692" lon="15.756345133290651"><ele>887.0</ele><time>2026-04-19T10:21:28.999Z</time></trkpt><trkpt lat="40.41881865915129" lon="15.75639036663259"><ele>887.0</ele><time>2026-04-19T10:21:29.999Z</time></trkpt><trkpt lat="40.41888809286296" lon="15.756373078415342"><ele>887.0</ele><time>2026-04-19T10:21:30.999Z</time></trkpt><trkpt lat="40.418971229740244" lon="15.756366067997273"><ele>887.0</ele><time>2026-04-19T10:21:31.999Z</time></trkpt><trkpt lat="40.4190596264478" lon="15.756333134900132"><ele>888.6</ele><time>2026-04-19T10:21:32.999Z</time></trkpt><trkpt lat="40.41914737289249" lon="15.75628641880328"><ele>890.2</ele><time>2026-04-19T10:21:33.999Z</time></trkpt><trkpt lat="40.419237990261564" lon="15.756283915752839"><ele>891.8</ele><time>2026-04-19T10:21:34.999Z</time></trkpt><trkpt lat="40.419328287520194" lon="15.756334140273077"><ele>893.4</ele><time>2026-04-19T10:21:35.999Z</time></trkpt><trkpt lat="40.419432818591865" lon="15.75636034582882"><ele>895.0</ele><time>2026-04-19T10:21:36.999Z</time></trkpt><trkpt lat="40.41953277216305" lon="15.756430321037369"><ele>898.0</ele><time>2026-04-19T10:21:37.999Z</time></trkpt><trkpt lat="40.41965406870259" lon="15.75648327206785"><ele>901.0</ele><time>2026-04-19T10:21:38.999Z</time></trkpt><trkpt lat="40.41977712661725" lon="15.756521072931877"><ele>904.0</ele><time>2026-04-19T10:21:39.999Z</time></trkpt><trkpt lat="40.41988870014685" lon="15.756518228328805"><ele>907.0</ele><time>2026-04-19T10:21:40.999Z</time></trkpt><trkpt lat="40.42000195406113" lon="15.756511914764104"><ele>907.0</ele><time>2026-04-19T10:21:41.999Z</time></trkpt><trkpt lat="40.420107883499796" lon="15.756476922822426"><ele>907.0</ele><time>2026-04-19T10:21:42.999Z</time></trkpt><trkpt lat="40.4202074598737" lon="15.756437634208877"><ele>907.0</ele><time>2026-04-19T10:21:43.999Z</time></trkpt><trkpt lat="40.42030204698946" lon="15.756378208058921"><ele>907.0</ele><time>2026-04-19T10:21:44.999Z</time></trkpt><trkpt lat="40.42038980841725" lon="15.756326396426163"><ele>907.0</ele><time>2026-04-19T10:21:45.999Z</time></trkpt><trkpt lat="40.42048674059144" lon="15.756255600672118"><ele>908.6</ele><time>2026-04-19T10:21:46.999Z</time></trkpt><trkpt lat="40.42061283003059" lon="15.756197102476447"><ele>910.2</ele><time>2026-04-19T10:21:47.999Z</time></trkpt><trkpt lat="40.42069895806484" lon="15.756137843109745"><ele>911.8</ele><time>2026-04-19T10:21:48.999Z</time></trkpt><trkpt lat="40.42078427628491" lon="15.756099932581412"><ele>913.4</ele><time>2026-04-19T10:21:49.999Z</time></trkpt><trkpt lat="40.42088512189989" lon="15.756055630251787"><ele>915.0</ele><time>2026-04-19T10:21:50.999Z</time></trkpt><trkpt lat="40.42099053233803" lon="15.756056397300952"><ele>915.0</ele><time>2026-04-19T10:21:51.998Z</time></trkpt><trkpt lat="40.42109143211888" lon="15.756043610825518"><ele>915.0</ele><time>2026-04-19T10:21:52.998Z</time></trkpt><trkpt lat="40.421184755145" lon="15.756056149214503"><ele>915.0</ele><time>2026-04-19T10:21:53.998Z</time></trkpt><trkpt lat="40.42126122140299" lon="15.756032649509455"><ele>915.0</ele><time>2026-04-19T10:21:54.998Z</time></trkpt><trkpt lat="40.42135955481647" lon="15.756020619288066"><ele>915.0</ele><time>2026-04-19T10:21:55.998Z</time></trkpt><trkpt lat="40.421449924283074" lon="15.755975547137902"><ele>915.0</ele><time>2026-04-19T10:21:56.998Z</time></trkpt><trkpt lat="40.42153984044802" lon="15.7559438182358"><ele>915.0</ele><time>2026-04-19T10:21:57.998Z</time></trkpt><trkpt lat="40.42162713009966" lon="15.755919306288549"><ele>915.0</ele><time>2026-04-19T10:21:58.998Z</time></trkpt><trkpt lat="40.42175443887529" lon="15.755902601732375"><ele>915.0</ele><time>2026-04-19T10:22:00.998Z</time></trkpt><trkpt lat="40.42182384813167" lon="15.755884564889442"><ele>915.0</ele><time>2026-04-19T10:22:01.998Z</time></trkpt><trkpt lat="40.42189871560748" lon="15.755840895224607"><ele>915.0</ele><time>2026-04-19T10:22:02.998Z</time></trkpt><trkpt lat="40.421987840237" lon="15.755758287059255"><ele>915.0</ele><time>2026-04-19T10:22:04.998Z</time></trkpt><trkpt lat="40.422060521711785" lon="15.755731722659222"><ele>915.0</ele><time>2026-04-19T10:22:08.998Z</time></trkpt><trkpt lat="40.422139202908994" lon="15.755749741832949"><ele>915.0</ele><time>2026-04-19T10:22:11.998Z</time></trkpt><trkpt lat="40.42221290476299" lon="15.75572936893981"><ele>915.0</ele><time>2026-04-19T10:22:14Z</time></trkpt><trkpt lat="40.422287350311834" lon="15.755722304802823"><ele>915.0</ele><time>2026-04-19T10:22:16Z</time></trkpt><trkpt lat="40.422368364374165" lon="15.755708657073724"><ele>918.6</ele><time>2026-04-19T10:22:18Z</time></trkpt><trkpt lat="40.422463078899746" lon="15.755685409519332"><ele>922.2</ele><time>2026-04-19T10:22:20Z</time></trkpt><trkpt lat="40.42252308089798" lon="15.75563512657492"><ele>925.8</ele><time>2026-04-19T10:22:21Z</time></trkpt><trkpt lat="40.42259417336347" lon="15.75556957708272"><ele>929.4</ele><time>2026-04-19T10:22:22Z</time></trkpt><trkpt lat="40.42267996418544" lon="15.755497726631825"><ele>933.0</ele><time>2026-04-19T10:22:23Z</time></trkpt><trkpt lat="40.422773494624494" lon="15.75541650928581"><ele>933.0</ele><time>2026-04-19T10:22:24Z</time></trkpt><trkpt lat="40.42287769673128" lon="15.755340371687376"><ele>933.0</ele><time>2026-04-19T10:22:25Z</time></trkpt><trkpt lat="40.42296111849871" lon="15.755266320465847"><ele>933.0</ele><time>2026-04-19T10:22:26Z</time></trkpt><trkpt lat="40.42303312329859" lon="15.755197373892385"><ele>933.0</ele><time>2026-04-19T10:22:27Z</time></trkpt><trkpt lat="40.423099362543816" lon="15.755133411998571"><ele>933.0</ele><time>2026-04-19T10:22:28Z</time></trkpt><trkpt lat="40.42316208938138" lon="15.75507487687537"><ele>933.6666666666666</ele><time>2026-04-19T10:22:29Z</time></trkpt><trkpt lat="40.42322046058261" lon="15.755009674498645"><ele>934.3333333333333</ele><time>2026-04-19T10:22:30Z</time></trkpt><trkpt lat="40.423278322917305" lon="15.754934435830863"><ele>935.0</ele><time>2026-04-19T10:22:31Z</time></trkpt><trkpt lat="40.423349070514824" lon="15.754868741387508"><ele>935.6666666666666</ele><time>2026-04-19T10:22:32Z</time></trkpt><trkpt lat="40.4234164843672" lon="15.754807613636883"><ele>936.3333333333333</ele><time>2026-04-19T10:22:33Z</time></trkpt><trkpt lat="40.42348116198256" lon="15.754755637430438"><ele>937.0</ele><time>2026-04-19T10:22:34Z</time></trkpt><trkpt lat="40.423543025641145" lon="15.754693683477749"><ele>936.9999999999999</ele><time>2026-04-19T10:22:35Z</time></trkpt><trkpt lat="40.42360859243461" lon="15.754628197568934"><ele>937.0</ele><time>2026-04-19T10:22:36Z</time></trkpt><trkpt lat="40.42367113187517" lon="15.754567444441738"><ele>937.0</ele><time>2026-04-19T10:22:37Z</time></trkpt><trkpt lat="40.423728143387414" lon="15.75450506650783"><ele>937.0</ele><time>2026-04-19T10:22:38Z</time></trkpt><trkpt lat="40.42378625873527" lon="15.754448319023297"><ele>936.9999999999999</ele><time>2026-04-19T10:22:39Z</time></trkpt><trkpt lat="40.4238423733175" lon="15.754377977258965"><ele>937.0</ele><time>2026-04-19T10:22:40Z</time></trkpt><trkpt lat="40.42389051496671" lon="15.754315719480667"><ele>937.3333333333333</ele><time>2026-04-19T10:22:41Z</time></trkpt><trkpt lat="40.42393540140258" lon="15.7542468107959"><ele>937.6666666666666</ele><time>2026-04-19T10:22:42Z</time></trkpt><trkpt lat="40.42398016817101" lon="15.754170580615101"><ele>938.0</ele><time>2026-04-19T10:22:43Z</time></trkpt><trkpt lat="40.4240353147867" lon="15.754059163500681"><ele>938.3333333333333</ele><time>2026-04-19T10:22:44Z</time></trkpt><trkpt lat="40.42408507787132" lon="15.753962162868236"><ele>938.6666666666666</ele><time>2026-04-19T10:22:45Z</time></trkpt><trkpt lat="40.42414014859066" lon="15.753875854566862"><ele>939.0</ele><time>2026-04-19T10:22:46Z</time></trkpt><trkpt lat="40.424193013490644" lon="15.753780404026639"><ele>939.0</ele><time>2026-04-19T10:22:47Z</time></trkpt><trkpt lat="40.42423864701851" lon="15.753702560073455"><ele>939.0000000000001</ele><time>2026-04-19T10:22:48Z</time></trkpt><trkpt lat="40.42428802744323" lon="15.753639852358624"><ele>939.0000000000001</ele><time>2026-04-19T10:22:49Z</time></trkpt><trkpt lat="40.42433192643702" lon="15.753570149430162"><ele>939.0</ele><time>2026-04-19T10:22:50Z</time></trkpt><trkpt lat="40.42443076032795" lon="15.75346887000376"><ele>939.0</ele><time>2026-04-19T10:22:52Z</time></trkpt><trkpt lat="40.42453654567373" lon="15.753408504167192"><ele>938.2</ele><time>2026-04-19T10:22:54Z</time></trkpt><trkpt lat="40.42462445168745" lon="15.753351049037967"><ele>937.4000000000001</ele><time>2026-04-19T10:22:55.999Z</time></trkpt><trkpt lat="40.42471893250122" lon="15.753284947182701"><ele>936.6</ele><time>2026-04-19T10:22:57.999Z</time></trkpt><trkpt lat="40.42482301437712" lon="15.75324935351716"><ele>935.8</ele><time>2026-04-19T10:22:59.999Z</time></trkpt><trkpt lat="40.42494926803074" lon="15.75320758504236"><ele>935.0</ele><time>2026-04-19T10:23:01.999Z</time></trkpt><trkpt lat="40.42501872071439" lon="15.753211154802182"><ele>934.8333333333334</ele><time>2026-04-19T10:23:02.999Z</time></trkpt><trkpt lat="40.425096726520316" lon="15.753233983529505"><ele>934.6666666666667</ele><time>2026-04-19T10:23:03.999Z</time></trkpt><trkpt lat="40.425177538782606" lon="15.753270172179478"><ele>934.5</ele><time>2026-04-19T10:23:04.999Z</time></trkpt><trkpt lat="40.425254819579656" lon="15.753312941257628"><ele>934.3333333333333</ele><time>2026-04-19T10:23:05.999Z</time></trkpt><trkpt lat="40.425331572494784" lon="15.753362520262502"><ele>934.1666666666666</ele><time>2026-04-19T10:23:06.999Z</time></trkpt><trkpt lat="40.425417490254745" lon="15.753433082086442"><ele>934.0</ele><time>2026-04-19T10:23:07.999Z</time></trkpt><trkpt lat="40.42550188302867" lon="15.753511647978177"><ele>932.4000000000001</ele><time>2026-04-19T10:23:08.999Z</time></trkpt><trkpt lat="40.42557320615309" lon="15.753577619776335"><ele>930.8000000000001</ele><time>2026-04-19T10:23:09.999Z</time></trkpt><trkpt lat="40.42565379115579" lon="15.753649686213407"><ele>929.1999999999999</ele><time>2026-04-19T10:23:10.999Z</time></trkpt><trkpt lat="40.425728002272145" lon="15.753721711416294"><ele>927.5999999999999</ele><time>2026-04-19T10:23:11.999Z</time></trkpt><trkpt lat="40.42579758537538" lon="15.75381169596981"><ele>926.0</ele><time>2026-04-19T10:23:12.999Z</time></trkpt><trkpt lat="40.42584987571787" lon="15.753889193746172"><ele>926.0</ele><time>2026-04-19T10:23:13.999Z</time></trkpt><trkpt lat="40.42589731999664" lon="15.75398104855555"><ele>925.9999999999999</ele><time>2026-04-19T10:23:14.999Z</time></trkpt><trkpt lat="40.425944957988264" lon="15.75406641261539"><ele>925.9999999999999</ele><time>2026-04-19T10:23:15.999Z</time></trkpt><trkpt lat="40.42602198659505" lon="15.75417306585159"><ele>926.0</ele><time>2026-04-19T10:23:16.999Z</time></trkpt><trkpt lat="40.426081177763926" lon="15.754277326517492"><ele>926.0</ele><time>2026-04-19T10:23:17.999Z</time></trkpt><trkpt lat="40.42614645807594" lon="15.75437771615033"><ele>927.0</ele><time>2026-04-19T10:23:18.999Z</time></trkpt><trkpt lat="40.42622512942439" lon="15.754450946623885"><ele>927.9999999999999</ele><time>2026-04-19T10:23:19.999Z</time></trkpt><trkpt lat="40.42632629463191" lon="15.75448472135326"><ele>928.9999999999999</ele><time>2026-04-19T10:23:20.999Z</time></trkpt><trkpt lat="40.42642621929338" lon="15.754507904387228"><ele>930.0</ele><time>2026-04-19T10:23:21.999Z</time></trkpt><trkpt lat="40.426525430785986" lon="15.754547096635692"><ele>931.0</ele><time>2026-04-19T10:23:22.999Z</time></trkpt><trkpt lat="40.42662062682307" lon="15.754583763609464"><ele>928.0</ele><time>2026-04-19T10:23:23.999Z</time></trkpt><trkpt lat="40.426713852551785" lon="15.75461283014218"><ele>924.9999999999999</ele><time>2026-04-19T10:23:24.999Z</time></trkpt><trkpt lat="40.42681653599997" lon="15.754639054381945"><ele>921.9999999999999</ele><time>2026-04-19T10:23:25.999Z</time></trkpt><trkpt lat="40.42692442567461" lon="15.75465534137159"><ele>919.0</ele><time>2026-04-19T10:23:26.999Z</time></trkpt><trkpt lat="40.42703734081591" lon="15.754657769647384"><ele>916.0</ele><time>2026-04-19T10:23:27.999Z</time></trkpt><trkpt lat="40.42714908583269" lon="15.754670130549316"><ele>916.0</ele><time>2026-04-19T10:23:28.999Z</time></trkpt><trkpt lat="40.427250168495156" lon="15.75466992222419"><ele>915.9999999999999</ele><time>2026-04-19T10:23:29.999Z</time></trkpt><trkpt lat="40.42734330035276" lon="15.754673169021824"><ele>915.9999999999999</ele><time>2026-04-19T10:23:30.999Z</time></trkpt><trkpt lat="40.42743685511178" lon="15.754668048321717"><ele>916.0</ele><time>2026-04-19T10:23:31.999Z</time></trkpt><trkpt lat="40.427526392993286" lon="15.754629435812587"><ele>916.0</ele><time>2026-04-19T10:23:32.999Z</time></trkpt><trkpt lat="40.42761573204521" lon="15.754575382466635"><ele>915.9999999999999</ele><time>2026-04-19T10:23:33.999Z</time></trkpt><trkpt lat="40.4276941837207" lon="15.754508364796493"><ele>916.0</ele><time>2026-04-19T10:23:34.999Z</time></trkpt><trkpt lat="40.4277669529906" lon="15.754464466688287"><ele>916.0</ele><time>2026-04-19T10:23:35.999Z</time></trkpt><trkpt lat="40.427824115783004" lon="15.754387093057291"><ele>916.0</ele><time>2026-04-19T10:23:36.999Z</time></trkpt><trkpt lat="40.42787470780237" lon="15.754288030994447"><ele>915.9999999999999</ele><time>2026-04-19T10:23:37.999Z</time></trkpt><trkpt lat="40.42792771838532" lon="15.754185698565108"><ele>916.0</ele><time>2026-04-19T10:23:38.999Z</time></trkpt><trkpt lat="40.42798605662329" lon="15.754105889529958"><ele>914.9999999999999</ele><time>2026-04-19T10:23:39.999Z</time></trkpt><trkpt lat="40.42805258450587" lon="15.754033150380756"><ele>914.0</ele><time>2026-04-19T10:23:40.999Z</time></trkpt><trkpt lat="40.42812130977959" lon="15.753951874759379"><ele>913.0</ele><time>2026-04-19T10:23:41.999Z</time></trkpt><trkpt lat="40.42817788817858" lon="15.75387290801526"><ele>912.0</ele><time>2026-04-19T10:23:42.999Z</time></trkpt><trkpt lat="40.428246030628145" lon="15.753798409382037"><ele>910.9999999999999</ele><time>2026-04-19T10:23:43.999Z</time></trkpt><trkpt lat="40.42831463792653" lon="15.753736896397642"><ele>910.0</ele><time>2026-04-19T10:23:44.999Z</time></trkpt><trkpt lat="40.42838722722311" lon="15.753698280666125"><ele>909.9999999999999</ele><time>2026-04-19T10:23:45.999Z</time></trkpt><trkpt lat="40.42846260512262" lon="15.75368514747485"><ele>910.0</ele><time>2026-04-19T10:23:46.999Z</time></trkpt><trkpt lat="40.42853455074847" lon="15.753669919576922"><ele>910.0</ele><time>2026-04-19T10:23:47.999Z</time></trkpt><trkpt lat="40.428641789103075" lon="15.753624418285947"><ele>910.0</ele><time>2026-04-19T10:23:49.999Z</time></trkpt><trkpt lat="40.42871411343197" lon="15.753600002105191"><ele>909.9999999999999</ele><time>2026-04-19T10:23:50.999Z</time></trkpt><trkpt lat="40.42878890844005" lon="15.753595898483166"><ele>910.0</ele><time>2026-04-19T10:23:51.999Z</time></trkpt><trkpt lat="40.42887058470861" lon="15.753613606496561"><ele>908.4999999999999</ele><time>2026-04-19T10:23:52.999Z</time></trkpt><trkpt lat="40.428947498914184" lon="15.753657649911899"><ele>907.0</ele><time>2026-04-19T10:23:53.999Z</time></trkpt><trkpt lat="40.42900966924929" lon="15.753736105123604"><ele>905.5</ele><time>2026-04-19T10:23:54.999Z</time></trkpt><trkpt lat="40.429075520685764" lon="15.75380168585505"><ele>904.0</ele><time>2026-04-19T10:23:55.999Z</time></trkpt><trkpt lat="40.42915660113965" lon="15.75386904281976"><ele>902.4999999999999</ele><time>2026-04-19T10:23:56.999Z</time></trkpt><trkpt lat="40.429223326607776" lon="15.753924001003634"><ele>901.0</ele><time>2026-04-19T10:23:57.999Z</time></trkpt><trkpt lat="40.429305253018356" lon="15.753993765748005"><ele>900.9999999999999</ele><time>2026-04-19T10:23:58.999Z</time></trkpt><trkpt lat="40.4293822332199" lon="15.754054131952238"><ele>901.0</ele><time>2026-04-19T10:23:59.998Z</time></trkpt><trkpt lat="40.42946293875054" lon="15.754106765082872"><ele>901.0</ele><time>2026-04-19T10:24:00.998Z</time></trkpt><trkpt lat="40.429539411120686" lon="15.754155370886153"><ele>901.0</ele><time>2026-04-19T10:24:01.998Z</time></trkpt><trkpt lat="40.429610259240434" lon="15.754213706843345"><ele>900.9999999999999</ele><time>2026-04-19T10:24:02.998Z</time></trkpt><trkpt lat="40.42968634859037" lon="15.75426097384948"><ele>901.0</ele><time>2026-04-19T10:24:03.998Z</time></trkpt><trkpt lat="40.42977311146166" lon="15.754287216959948"><ele>900.1666666666666</ele><time>2026-04-19T10:24:04.998Z</time></trkpt><trkpt lat="40.429850041823364" lon="15.754309082105786"><ele>899.3333333333333</ele><time>2026-04-19T10:24:05.998Z</time></trkpt><trkpt lat="40.429935509461025" lon="15.754319418938955"><ele>898.5</ele><time>2026-04-19T10:24:06.998Z</time></trkpt><trkpt lat="40.43002536617928" lon="15.754347243189496"><ele>897.6666666666667</ele><time>2026-04-19T10:24:07.998Z</time></trkpt><trkpt lat="40.43009500972214" lon="15.754366643916901"><ele>896.8333333333334</ele><time>2026-04-19T10:24:08.998Z</time></trkpt><trkpt lat="40.43016599585842" lon="15.754382791454445"><ele>896.0</ele><time>2026-04-19T10:24:09.998Z</time></trkpt><trkpt lat="40.4302315637759" lon="15.754394690805322"><ele>895.5000000000001</ele><time>2026-04-19T10:24:10.998Z</time></trkpt><trkpt lat="40.43031948889805" lon="15.754426066493119"><ele>895.0</ele><time>2026-04-19T10:24:12.998Z</time></trkpt><trkpt lat="40.43040002784471" lon="15.754439602755433"><ele>894.5</ele><time>2026-04-19T10:24:14.998Z</time></trkpt><trkpt lat="40.43050298134667" lon="15.754468882649306"><ele>894.0</ele><time>2026-04-19T10:24:16.998Z</time></trkpt><trkpt lat="40.43056576872794" lon="15.754488175526582"><ele>893.5000000000001</ele><time>2026-04-19T10:24:17.998Z</time></trkpt><trkpt lat="40.43063366810039" lon="15.754497994540746"><ele>893.0</ele><time>2026-04-19T10:24:19Z</time></trkpt><trkpt lat="40.43070454957758" lon="15.754503427485005"><ele>893.0000000000001</ele><time>2026-04-19T10:24:20Z</time></trkpt><trkpt lat="40.43078119695223" lon="15.754518759790843"><ele>893.0</ele><time>2026-04-19T10:24:21Z</time></trkpt><trkpt lat="40.43085586664843" lon="15.754522293176011"><ele>893.0</ele><time>2026-04-19T10:24:22Z</time></trkpt><trkpt lat="40.43092164845517" lon="15.754526102735152"><ele>893.0</ele><time>2026-04-19T10:24:23Z</time></trkpt><trkpt lat="40.431051808651496" lon="15.754540944647681"><ele>893.0000000000001</ele><time>2026-04-19T10:24:25Z</time></trkpt><trkpt lat="40.431127321017975" lon="15.754537050508507"><ele>893.0</ele><time>2026-04-19T10:24:26Z</time></trkpt><trkpt lat="40.43121368409164" lon="15.754521357816847"><ele>894.0</ele><time>2026-04-19T10:24:27Z</time></trkpt><trkpt lat="40.43130895994165" lon="15.7544979433485"><ele>895.0</ele><time>2026-04-19T10:24:28Z</time></trkpt><trkpt lat="40.43142855976568" lon="15.754446266324672"><ele>896.0</ele><time>2026-04-19T10:24:29Z</time></trkpt><trkpt lat="40.43153602476519" lon="15.754385277733405"><ele>897.0</ele><time>2026-04-19T10:24:30Z</time></trkpt><trkpt lat="40.43163633643128" lon="15.754333801724231"><ele>898.0</ele><time>2026-04-19T10:24:31Z</time></trkpt><trkpt lat="40.431739317905894" lon="15.75428993847612"><ele>898.0</ele><time>2026-04-19T10:24:32Z</time></trkpt><trkpt lat="40.431833674208406" lon="15.754259961997647"><ele>898.0</ele><time>2026-04-19T10:24:33Z</time></trkpt><trkpt lat="40.43192122559425" lon="15.754246761591324"><ele>898.0</ele><time>2026-04-19T10:24:34Z</time></trkpt><trkpt lat="40.432007113196946" lon="15.754264790699446"><ele>898.0</ele><time>2026-04-19T10:24:35Z</time></trkpt><trkpt lat="40.432097494411835" lon="15.754292939288726"><ele>898.0</ele><time>2026-04-19T10:24:36Z</time></trkpt><trkpt lat="40.43218814261576" lon="15.754321491831329"><ele>900.0</ele><time>2026-04-19T10:24:37Z</time></trkpt><trkpt lat="40.43227976648867" lon="15.75433430666873"><ele>902.0</ele><time>2026-04-19T10:24:38Z</time></trkpt><trkpt lat="40.43237375351233" lon="15.754359923017082"><ele>904.0</ele><time>2026-04-19T10:24:39Z</time></trkpt><trkpt lat="40.43247804236157" lon="15.75437753496413"><ele>906.0</ele><time>2026-04-19T10:24:40Z</time></trkpt><trkpt lat="40.43257291803614" lon="15.75440620154252"><ele>908.0</ele><time>2026-04-19T10:24:41Z</time></trkpt><trkpt lat="40.43266382388356" lon="15.754423286573699"><ele>908.0</ele><time>2026-04-19T10:24:42Z</time></trkpt><trkpt lat="40.43275127551919" lon="15.754444190463772"><ele>908.0</ele><time>2026-04-19T10:24:43Z</time></trkpt><trkpt lat="40.43282127212915" lon="15.754459884880871"><ele>908.0</ele><time>2026-04-19T10:24:44Z</time></trkpt><trkpt lat="40.43291795815319" lon="15.754479725488931"><ele>908.0</ele><time>2026-04-19T10:24:46Z</time></trkpt><trkpt lat="40.43295269461019" lon="15.754283030706647"><ele>908.0</ele><time>2026-04-19T10:24:48Z</time></trkpt><trkpt lat="40.43295321157962" lon="15.754188857567918"><ele>908.0</ele><time>2026-04-19T10:24:49Z</time></trkpt><trkpt lat="40.43295261301286" lon="15.754065593672657"><ele>908.0</ele><time>2026-04-19T10:24:50Z</time></trkpt><trkpt lat="40.4329500074118" lon="15.75393715369628"><ele>908.0</ele><time>2026-04-19T10:24:51Z</time></trkpt><trkpt lat="40.43294147025661" lon="15.753813676600364"><ele>908.0</ele><time>2026-04-19T10:24:52Z</time></trkpt><trkpt lat="40.432937520598486" lon="15.75368348861704"><ele>908.0</ele><time>2026-04-19T10:24:53Z</time></trkpt><trkpt lat="40.43293789833666" lon="15.753557989675793"><ele>907.4</ele><time>2026-04-19T10:24:54Z</time></trkpt><trkpt lat="40.43293259024743" lon="15.753431990169537"><ele>906.8</ele><time>2026-04-19T10:24:55Z</time></trkpt><trkpt lat="40.43293548519405" lon="15.753283566938157"><ele>906.2</ele><time>2026-04-19T10:24:56Z</time></trkpt><trkpt lat="40.43292451466486" lon="15.753182656152397"><ele>905.6</ele><time>2026-04-19T10:24:57Z</time></trkpt><trkpt lat="40.43292921342217" lon="15.753063825275797"><ele>905.0</ele><time>2026-04-19T10:24:58Z</time></trkpt><trkpt lat="40.43293366041769" lon="15.752938130573952"><ele>905.0000000000001</ele><time>2026-04-19T10:24:58.999Z</time></trkpt><trkpt lat="40.4329310639907" lon="15.752821850452715"><ele>905.0</ele><time>2026-04-19T10:24:59.999Z</time></trkpt><trkpt lat="40.432926763432235" lon="15.752716180582079"><ele>905.0</ele><time>2026-04-19T10:25:00.999Z</time></trkpt><trkpt lat="40.43292175051415" lon="15.752614896486175"><ele>905.0</ele><time>2026-04-19T10:25:01.999Z</time></trkpt><trkpt lat="40.432910320017804" lon="15.75251372065243"><ele>905.0000000000001</ele><time>2026-04-19T10:25:02.999Z</time></trkpt><trkpt lat="40.432879292406184" lon="15.752422978804123"><ele>905.0</ele><time>2026-04-19T10:25:03.999Z</time></trkpt><trkpt lat="40.43282398036842" lon="15.752342595184412"><ele>903.8333333333334</ele><time>2026-04-19T10:25:04.999Z</time></trkpt><trkpt lat="40.43275606644259" lon="15.752281481039686"><ele>902.6666666666667</ele><time>2026-04-19T10:25:05.999Z</time></trkpt><trkpt lat="40.43268157306682" lon="15.752220856240227"><ele>901.5</ele><time>2026-04-19T10:25:06.999Z</time></trkpt><trkpt lat="40.4326121246995" lon="15.752146514017676"><ele>900.3333333333333</ele><time>2026-04-19T10:25:07.999Z</time></trkpt><trkpt lat="40.43253228175641" lon="15.75208252279568"><ele>899.1666666666666</ele><time>2026-04-19T10:25:08.999Z</time></trkpt><trkpt lat="40.43247284564481" lon="15.752005842628389"><ele>898.0</ele><time>2026-04-19T10:25:09.999Z</time></trkpt><trkpt lat="40.43244231587341" lon="15.75192534996468"><ele>897.2857142857142</ele><time>2026-04-19T10:25:10.999Z</time></trkpt><trkpt lat="40.432415614834" lon="15.751843996618048"><ele>896.5714285714284</ele><time>2026-04-19T10:25:11.999Z</time></trkpt><trkpt lat="40.43237586911532" lon="15.751777697796705"><ele>895.8571428571429</ele><time>2026-04-19T10:25:12.999Z</time></trkpt><trkpt lat="40.43233840398594" lon="15.751710490271508"><ele>895.1428571428571</ele><time>2026-04-19T10:25:13.999Z</time></trkpt><trkpt lat="40.43225499638722" lon="15.751663903366909"><ele>894.4285714285714</ele><time>2026-04-19T10:25:14.999Z</time></trkpt><trkpt lat="40.432174508548904" lon="15.751662836854814"><ele>893.7142857142858</ele><time>2026-04-19T10:25:15.999Z</time></trkpt><trkpt lat="40.43210602338136" lon="15.751658450013107"><ele>893.0</ele><time>2026-04-19T10:25:16.999Z</time></trkpt><trkpt lat="40.4320393074691" lon="15.751611265565588"><ele>893.0000000000001</ele><time>2026-04-19T10:25:17.999Z</time></trkpt><trkpt lat="40.431983173843925" lon="15.751536404333912"><ele>893.0</ele><time>2026-04-19T10:25:18.999Z</time></trkpt><trkpt lat="40.43193801903266" lon="15.751437647622895"><ele>893.0</ele><time>2026-04-19T10:25:19.999Z</time></trkpt><trkpt lat="40.43189230979268" lon="15.751350764513832"><ele>893.0</ele><time>2026-04-19T10:25:20.999Z</time></trkpt><trkpt lat="40.43185400305882" lon="15.751259220960709"><ele>893.0000000000001</ele><time>2026-04-19T10:25:21.999Z</time></trkpt><trkpt lat="40.43181618408996" lon="15.751174739921774"><ele>893.0</ele><time>2026-04-19T10:25:22.999Z</time></trkpt><trkpt lat="40.4317092281872" lon="15.751091916350997"><ele>893.0000000000001</ele><time>2026-04-19T10:25:24.999Z</time></trkpt><trkpt lat="40.431628092715904" lon="15.751074442881572"><ele>893.0</ele><time>2026-04-19T10:25:25.999Z</time></trkpt><trkpt lat="40.4315531791768" lon="15.751040642112805"><ele>893.0</ele><time>2026-04-19T10:25:26.999Z</time></trkpt><trkpt lat="40.43149219196848" lon="15.750981034260759"><ele>893.0</ele><time>2026-04-19T10:25:27.999Z</time></trkpt><trkpt lat="40.43143817673823" lon="15.750905995253007"><ele>893.0000000000001</ele><time>2026-04-19T10:25:28.999Z</time></trkpt><trkpt lat="40.43137194532884" lon="15.750832112038866"><ele>893.0</ele><time>2026-04-19T10:25:29.999Z</time></trkpt><trkpt lat="40.43129878221436" lon="15.75078021746593"><ele>890.1666666666667</ele><time>2026-04-19T10:25:30.999Z</time></trkpt><trkpt lat="40.4312139147977" lon="15.750736387398723"><ele>887.3333333333334</ele><time>2026-04-19T10:25:31.999Z</time></trkpt><trkpt lat="40.431141215884004" lon="15.75067515525233"><ele>884.5</ele><time>2026-04-19T10:25:32.999Z</time></trkpt><trkpt lat="40.43106130443398" lon="15.750629516158583"><ele>881.6666666666667</ele><time>2026-04-19T10:25:33.999Z</time></trkpt><trkpt lat="40.43098338992644" lon="15.75058442102815"><ele>878.8333333333334</ele><time>2026-04-19T10:25:34.999Z</time></trkpt><trkpt lat="40.430908046426445" lon="15.750537684066751"><ele>876.0</ele><time>2026-04-19T10:25:35.999Z</time></trkpt><trkpt lat="40.43083662842284" lon="15.750481881481978"><ele>876.0</ele><time>2026-04-19T10:25:36.999Z</time></trkpt><trkpt lat="40.430768226339666" lon="15.750413851600104"><ele>876.0</ele><time>2026-04-19T10:25:37.999Z</time></trkpt><trkpt lat="40.430728540287475" lon="15.750329555905646"><ele>876.0</ele><time>2026-04-19T10:25:38.999Z</time></trkpt><trkpt lat="40.430677996196664" lon="15.750273525341647"><ele>876.0</ele><time>2026-04-19T10:25:39.999Z</time></trkpt><trkpt lat="40.43063403371933" lon="15.750183638318815"><ele>876.0</ele><time>2026-04-19T10:25:40.999Z</time></trkpt><trkpt lat="40.43058368793995" lon="15.750127259289092"><ele>876.0</ele><time>2026-04-19T10:25:41.999Z</time></trkpt><trkpt lat="40.430516949400996" lon="15.750000601730104"><ele>873.5999999999999</ele><time>2026-04-19T10:25:43.999Z</time></trkpt><trkpt lat="40.430446728596515" lon="15.749868115413902"><ele>871.1999999999999</ele><time>2026-04-19T10:25:45.999Z</time></trkpt><trkpt lat="40.430399215022064" lon="15.74979740615009"><ele>868.8000000000001</ele><time>2026-04-19T10:25:46.999Z</time></trkpt><trkpt lat="40.43033691061989" lon="15.749719358355573"><ele>866.4000000000001</ele><time>2026-04-19T10:25:47.999Z</time></trkpt><trkpt lat="40.430267147594" lon="15.749637444218422"><ele>864.0</ele><time>2026-04-19T10:25:48.999Z</time></trkpt><trkpt lat="40.43020240381057" lon="15.749541513725406"><ele>864.0</ele><time>2026-04-19T10:25:49.999Z</time></trkpt><trkpt lat="40.43016241652263" lon="15.749450919788991"><ele>864.0</ele><time>2026-04-19T10:25:50.999Z</time></trkpt><trkpt lat="40.43010295741196" lon="15.749378869472698"><ele>864.0</ele><time>2026-04-19T10:25:51.999Z</time></trkpt><trkpt lat="40.43006103270546" lon="15.74930327033628"><ele>864.0</ele><time>2026-04-19T10:25:52.999Z</time></trkpt><trkpt lat="40.43002639358408" lon="15.74922878071745"><ele>864.0</ele><time>2026-04-19T10:25:53.999Z</time></trkpt><trkpt lat="40.42997716973308" lon="15.74910568459375"><ele>864.0</ele><time>2026-04-19T10:25:55.999Z</time></trkpt><trkpt lat="40.42991199579089" lon="15.74900931000078"><ele>860.25</ele><time>2026-04-19T10:25:57.999Z</time></trkpt><trkpt lat="40.42985125837031" lon="15.748907106923054"><ele>856.5</ele><time>2026-04-19T10:25:59.999Z</time></trkpt><trkpt lat="40.429798078554285" lon="15.748816807762825"><ele>852.75</ele><time>2026-04-19T10:26:01.999Z</time></trkpt><trkpt lat="40.42992634294776" lon="15.748515073284585"><ele>849.0</ele><time>2026-04-19T10:26:04.998Z</time></trkpt><trkpt lat="40.42993780090223" lon="15.748380036379857"><ele>847.1666666666666</ele><time>2026-04-19T10:26:06.998Z</time></trkpt><trkpt lat="40.429931959786636" lon="15.74827339923893"><ele>845.3333333333333</ele><time>2026-04-19T10:26:08.998Z</time></trkpt><trkpt lat="40.42990274287999" lon="15.748169136241547"><ele>843.5</ele><time>2026-04-19T10:26:10.998Z</time></trkpt><trkpt lat="40.429838538990744" lon="15.748097700868325"><ele>841.6666666666666</ele><time>2026-04-19T10:26:12.998Z</time></trkpt><trkpt lat="40.42981014287144" lon="15.748020472066537"><ele>839.8333333333333</ele><time>2026-04-19T10:26:14.998Z</time></trkpt><trkpt lat="40.42975722802264" lon="15.747936681921601"><ele>838.0</ele><time>2026-04-19T10:26:16.998Z</time></trkpt><trkpt lat="40.42974734645369" lon="15.747804441193859"><ele>835.0</ele><time>2026-04-19T10:26:18.998Z</time></trkpt><trkpt lat="40.4297547985756" lon="15.747655192010136"><ele>832.0</ele><time>2026-04-19T10:26:20.998Z</time></trkpt><trkpt lat="40.4297608533944" lon="15.747553548569181"><ele>829.0</ele><time>2026-04-19T10:26:22.998Z</time></trkpt><trkpt lat="40.42977924916664" lon="15.747419071563442"><ele>826.0</ele><time>2026-04-19T10:26:25Z</time></trkpt><trkpt lat="40.429776968981606" lon="15.747285826257402"><ele>823.0</ele><time>2026-04-19T10:26:27Z</time></trkpt><trkpt lat="40.42977153000638" lon="15.747126477669598"><ele>822.9999999999999</ele><time>2026-04-19T10:26:29Z</time></trkpt><trkpt lat="40.42975601150984" lon="15.747043876289995"><ele>823.0</ele><time>2026-04-19T10:26:30Z</time></trkpt><trkpt lat="40.42973506990275" lon="15.746952855771543"><ele>823.0</ele><time>2026-04-19T10:26:31Z</time></trkpt><trkpt lat="40.42972276898838" lon="15.746870055968156"><ele>823.0</ele><time>2026-04-19T10:26:32Z</time></trkpt><trkpt lat="40.42970422377423" lon="15.746773974282284"><ele>822.9999999999999</ele><time>2026-04-19T10:26:33Z</time></trkpt><trkpt lat="40.4296348652027" lon="15.74664926162588"><ele>823.0</ele><time>2026-04-19T10:26:35Z</time></trkpt><trkpt lat="40.429592123893" lon="15.746583767433163"><ele>822.9999999999999</ele><time>2026-04-19T10:26:36Z</time></trkpt><trkpt lat="40.42954080940322" lon="15.746527825381616"><ele>823.0</ele><time>2026-04-19T10:26:37Z</time></trkpt><trkpt lat="40.42951485929637" lon="15.746426669291354"><ele>823.0</ele><time>2026-04-19T10:26:39Z</time></trkpt><trkpt lat="40.42959986855621" lon="15.746419831866113"><ele>823.0</ele><time>2026-04-19T10:26:40Z</time></trkpt><trkpt lat="40.42967900471269" lon="15.74645296656402"><ele>822.9999999999999</ele><time>2026-04-19T10:26:41Z</time></trkpt><trkpt lat="40.4297311025457" lon="15.746502185161363"><ele>823.0</ele><time>2026-04-19T10:26:42Z</time></trkpt><trkpt lat="40.42982500859508" lon="15.746553168045672"><ele>823.0</ele><time>2026-04-19T10:26:43Z</time></trkpt><trkpt lat="40.429900894990745" lon="15.746600172244065"><ele>823.0</ele><time>2026-04-19T10:26:44Z</time></trkpt><trkpt lat="40.4299599929313" lon="15.74665331204416"><ele>823.0</ele><time>2026-04-19T10:26:45Z</time></trkpt><trkpt lat="40.43000415488334" lon="15.746721232662402"><ele>823.0</ele><time>2026-04-19T10:26:46Z</time></trkpt><trkpt lat="40.43008468861279" lon="15.746831045138169"><ele>823.0</ele><time>2026-04-19T10:26:48Z</time></trkpt><trkpt lat="40.430186514690035" lon="15.746929241903302"><ele>823.0</ele><time>2026-04-19T10:26:50Z</time></trkpt><trkpt lat="40.43024892862051" lon="15.746946058182857"><ele>823.0</ele><time>2026-04-19T10:26:51Z</time></trkpt><trkpt lat="40.43038706795999" lon="15.746905993493309"><ele>823.0</ele><time>2026-04-19T10:26:53Z</time></trkpt><trkpt lat="40.43045687406867" lon="15.746862984065988"><ele>823.0</ele><time>2026-04-19T10:26:55Z</time></trkpt><trkpt lat="40.430543425952926" lon="15.746863181545658"><ele>823.0</ele><time>2026-04-19T10:26:57Z</time></trkpt><trkpt lat="40.430601913087465" lon="15.746984282317399"><ele>821.3333333333333</ele><time>2026-04-19T10:26:59Z</time></trkpt><trkpt lat="40.430681846474066" lon="15.747015860917605"><ele>819.6666666666666</ele><time>2026-04-19T10:27:00Z</time></trkpt><trkpt lat="40.4307946948031" lon="15.747047924700762"><ele>818.0</ele><time>2026-04-19T10:27:02Z</time></trkpt><trkpt lat="40.43086959428423" lon="15.747042992677928"><ele>816.3333333333333</ele><time>2026-04-19T10:27:03Z</time></trkpt><trkpt lat="40.430933421801754" lon="15.747000626362484"><ele>814.6666666666666</ele><time>2026-04-19T10:27:04Z</time></trkpt><trkpt lat="40.43100750046126" lon="15.746996619313535"><ele>813.0</ele><time>2026-04-19T10:27:04.999Z</time></trkpt><trkpt lat="40.43110318146599" lon="15.747017966811987"><ele>813.0</ele><time>2026-04-19T10:27:06.999Z</time></trkpt><trkpt lat="40.43120189283377" lon="15.74703211667144"><ele>813.0</ele><time>2026-04-19T10:27:07.999Z</time></trkpt><trkpt lat="40.43127071553859" lon="15.74704458822536"><ele>813.0</ele><time>2026-04-19T10:27:08.999Z</time></trkpt><trkpt lat="40.431344464506104" lon="15.747042643857002"><ele>813.0</ele><time>2026-04-19T10:27:09.999Z</time></trkpt><trkpt lat="40.431430119781766" lon="15.747071849312475"><ele>813.0</ele><time>2026-04-19T10:27:10.999Z</time></trkpt><trkpt lat="40.43150196958159" lon="15.747101057779853"><ele>813.0</ele><time>2026-04-19T10:27:11.999Z</time></trkpt><trkpt lat="40.43156656622705" lon="15.747141626839243"><ele>810.8</ele><time>2026-04-19T10:27:12.999Z</time></trkpt><trkpt lat="40.431635363587596" lon="15.747176157093163"><ele>808.5999999999999</ele><time>2026-04-19T10:27:13.999Z</time></trkpt><trkpt lat="40.431712491990005" lon="15.747304658064083"><ele>806.4000000000001</ele><time>2026-04-19T10:27:15.999Z</time></trkpt><trkpt lat="40.431766671723935" lon="15.747354385448402"><ele>804.2</ele><time>2026-04-19T10:27:16.999Z</time></trkpt><trkpt lat="40.43184616877027" lon="15.747487328671392"><ele>802.0</ele><time>2026-04-19T10:27:18.999Z</time></trkpt><trkpt lat="40.431888391198946" lon="15.747565346611964"><ele>801.9999999999999</ele><time>2026-04-19T10:27:19.999Z</time></trkpt><trkpt lat="40.43194823852523" lon="15.747639721016657"><ele>802.0</ele><time>2026-04-19T10:27:20.999Z</time></trkpt><trkpt lat="40.43203771624685" lon="15.747678092506682"><ele>802.0</ele><time>2026-04-19T10:27:21.999Z</time></trkpt><trkpt lat="40.432130724384876" lon="15.747709033945148"><ele>802.0</ele><time>2026-04-19T10:27:22.999Z</time></trkpt><trkpt lat="40.432215094608694" lon="15.747714827518463"><ele>801.9999999999999</ele><time>2026-04-19T10:27:23.999Z</time></trkpt><trkpt lat="40.43228148460236" lon="15.7477388325447"><ele>802.0</ele><time>2026-04-19T10:27:24.999Z</time></trkpt><trkpt lat="40.43238911532998" lon="15.747793988926563"><ele>802.9999999999999</ele><time>2026-04-19T10:27:26.999Z</time></trkpt><trkpt lat="40.43244667376199" lon="15.747856919146782"><ele>804.0</ele><time>2026-04-19T10:27:27.999Z</time></trkpt><trkpt lat="40.432492212804" lon="15.747948256625119"><ele>805.0</ele><time>2026-04-19T10:27:28.999Z</time></trkpt><trkpt lat="40.432542257446514" lon="15.748044021999531"><ele>806.0</ele><time>2026-04-19T10:27:29.999Z</time></trkpt><trkpt lat="40.43257622391099" lon="15.74814443537023"><ele>806.9999999999999</ele><time>2026-04-19T10:27:30.999Z</time></trkpt><trkpt lat="40.43259376987282" lon="15.74822786142043"><ele>808.0</ele><time>2026-04-19T10:27:31.999Z</time></trkpt><trkpt lat="40.43265883289965" lon="15.748344154867363"><ele>807.9999999999999</ele><time>2026-04-19T10:27:33.999Z</time></trkpt><trkpt lat="40.43275622233223" lon="15.748340556349767"><ele>808.0</ele><time>2026-04-19T10:27:35.999Z</time></trkpt><trkpt lat="40.43281412757223" lon="15.748286098981282"><ele>808.0</ele><time>2026-04-19T10:27:36.999Z</time></trkpt><trkpt lat="40.432879922035085" lon="15.748212774262678"><ele>808.0</ele><time>2026-04-19T10:27:37.999Z</time></trkpt><trkpt lat="40.432946321949515" lon="15.748141961303178"><ele>807.9999999999999</ele><time>2026-04-19T10:27:39.999Z</time></trkpt><trkpt lat="40.433043554365284" lon="15.748146449431282"><ele>808.0</ele><time>2026-04-19T10:27:41.999Z</time></trkpt><trkpt lat="40.433151064426994" lon="15.74814042733235"><ele>806.0</ele><time>2026-04-19T10:27:43.999Z</time></trkpt><trkpt lat="40.433251909329556" lon="15.748148161559675"><ele>804.0</ele><time>2026-04-19T10:27:48.999Z</time></trkpt><trkpt lat="40.43336248197468" lon="15.748132189849512"><ele>802.0</ele><time>2026-04-19T10:27:49.999Z</time></trkpt><trkpt lat="40.433497426622" lon="15.748018719663888"><ele>800.0</ele><time>2026-04-19T10:27:50.999Z</time></trkpt><trkpt lat="40.433600972359386" lon="15.747935500356316"><ele>800.0</ele><time>2026-04-19T10:27:51.999Z</time></trkpt><trkpt lat="40.433682312815115" lon="15.74787549266718"><ele>800.0</ele><time>2026-04-19T10:27:52.999Z</time></trkpt><trkpt lat="40.43377350100798" lon="15.747813099911248"><ele>800.0</ele><time>2026-04-19T10:27:53.999Z</time></trkpt><trkpt lat="40.43385780300236" lon="15.747701791438235"><ele>800.0</ele><time>2026-04-19T10:27:54.999Z</time></trkpt><trkpt lat="40.43394620187385" lon="15.74759641222088"><ele>800.0</ele><time>2026-04-19T10:27:55.999Z</time></trkpt><trkpt lat="40.43399979167604" lon="15.747501961557594"><ele>799.3333333333334</ele><time>2026-04-19T10:27:56.999Z</time></trkpt><trkpt lat="40.43405356085717" lon="15.747398051125405"><ele>798.6666666666667</ele><time>2026-04-19T10:27:57.999Z</time></trkpt><trkpt lat="40.43411529130305" lon="15.747300503015996"><ele>798.0</ele><time>2026-04-19T10:27:58.999Z</time></trkpt><trkpt lat="40.43415621685652" lon="15.747210275849023"><ele>797.3333333333333</ele><time>2026-04-19T10:27:59.999Z</time></trkpt><trkpt lat="40.434192268869666" lon="15.747079177326015"><ele>796.6666666666666</ele><time>2026-04-19T10:28:01.999Z</time></trkpt><trkpt lat="40.43416086074484" lon="15.746999839613544"><ele>796.0</ele><time>2026-04-19T10:28:02.999Z</time></trkpt><trkpt lat="40.434084463337896" lon="15.746876079938236"><ele>796.0</ele><time>2026-04-19T10:28:04.999Z</time></trkpt><trkpt lat="40.43402650157989" lon="15.746828610023812"><ele>796.0</ele><time>2026-04-19T10:28:05.999Z</time></trkpt><trkpt lat="40.43396098621113" lon="15.746782023572386"><ele>796.0</ele><time>2026-04-19T10:28:06.999Z</time></trkpt><trkpt lat="40.43387674311101" lon="15.74671231966349"><ele>796.0</ele><time>2026-04-19T10:28:07.999Z</time></trkpt><trkpt lat="40.433768415855006" lon="15.746608383267517"><ele>796.0</ele><time>2026-04-19T10:28:08.999Z</time></trkpt><trkpt lat="40.43369398768407" lon="15.746525549602714"><ele>794.1999999999999</ele><time>2026-04-19T10:28:09.998Z</time></trkpt><trkpt lat="40.43361311348915" lon="15.746450467983726"><ele>792.4</ele><time>2026-04-19T10:28:10.998Z</time></trkpt><trkpt lat="40.433530880366526" lon="15.7463758573824"><ele>790.6</ele><time>2026-04-19T10:28:11.998Z</time></trkpt><trkpt lat="40.43344640956881" lon="15.746303244025274"><ele>788.8</ele><time>2026-04-19T10:28:12.998Z</time></trkpt><trkpt lat="40.433374682764345" lon="15.746246262213127"><ele>787.0</ele><time>2026-04-19T10:28:13.998Z</time></trkpt><trkpt lat="40.43331022194737" lon="15.746184157323714"><ele>787.0</ele><time>2026-04-19T10:28:14.998Z</time></trkpt><trkpt lat="40.43324669919805" lon="15.746115597403099"><ele>787.0</ele><time>2026-04-19T10:28:15.998Z</time></trkpt><trkpt lat="40.43316812443779" lon="15.746014913424302"><ele>787.0</ele><time>2026-04-19T10:28:16.998Z</time></trkpt><trkpt lat="40.43308239285146" lon="15.745913596625648"><ele>787.0</ele><time>2026-04-19T10:28:17.998Z</time></trkpt><trkpt lat="40.43299982209093" lon="15.745827722333177"><ele>787.0</ele><time>2026-04-19T10:28:18.998Z</time></trkpt><trkpt lat="40.43292269946111" lon="15.745763812020316"><ele>786.8333333333333</ele><time>2026-04-19T10:28:19.998Z</time></trkpt><trkpt lat="40.43283450378293" lon="15.745700737308882"><ele>786.6666666666666</ele><time>2026-04-19T10:28:20.998Z</time></trkpt><trkpt lat="40.43276001472799" lon="15.745636105227101"><ele>786.5</ele><time>2026-04-19T10:28:21.998Z</time></trkpt><trkpt lat="40.43270746666123" lon="15.74556317364411"><ele>786.3333333333333</ele><time>2026-04-19T10:28:22.998Z</time></trkpt><trkpt lat="40.43266441460266" lon="15.745477873960194"><ele>786.1666666666666</ele><time>2026-04-19T10:28:23.998Z</time></trkpt><trkpt lat="40.43263996758612" lon="15.745376809557685"><ele>786.0</ele><time>2026-04-19T10:28:24.998Z</time></trkpt><trkpt lat="40.432613322057826" lon="15.745273196034772"><ele>787.1999999999999</ele><time>2026-04-19T10:28:25.998Z</time></trkpt><trkpt lat="40.4326163349021" lon="15.745136685897268"><ele>788.4</ele><time>2026-04-19T10:28:27.998Z</time></trkpt><trkpt lat="40.43272421877317" lon="15.745031776454192"><ele>789.6</ele><time>2026-04-19T10:28:29.998Z</time></trkpt><trkpt lat="40.43281012185748" lon="15.74497362364915"><ele>790.8</ele><time>2026-04-19T10:28:31Z</time></trkpt><trkpt lat="40.43289051563584" lon="15.74490484316535"><ele>792.0</ele><time>2026-04-19T10:28:32Z</time></trkpt><trkpt lat="40.432956435062664" lon="15.744772939765625"><ele>794.1666666666666</ele><time>2026-04-19T10:28:33Z</time></trkpt><trkpt lat="40.43300336681599" lon="15.744658502986638"><ele>796.3333333333333</ele><time>2026-04-19T10:28:34Z</time></trkpt><trkpt lat="40.433034536775686" lon="15.744573656673818"><ele>798.5</ele><time>2026-04-19T10:28:35Z</time></trkpt><trkpt lat="40.433049910984884" lon="15.744468205747873"><ele>800.6666666666666</ele><time>2026-04-19T10:28:36Z</time></trkpt><trkpt lat="40.43306200701159" lon="15.744355637834934"><ele>802.8333333333333</ele><time>2026-04-19T10:28:37Z</time></trkpt><trkpt lat="40.43305088100419" lon="15.74424224184531"><ele>805.0</ele><time>2026-04-19T10:28:38Z</time></trkpt><trkpt lat="40.433018983029456" lon="15.744102259289077"><ele>804.9999999999999</ele><time>2026-04-19T10:28:39Z</time></trkpt><trkpt lat="40.43299071864981" lon="15.743982008024112"><ele>805.0</ele><time>2026-04-19T10:28:40Z</time></trkpt><trkpt lat="40.43296780960646" lon="15.743875554766028"><ele>805.0</ele><time>2026-04-19T10:28:41Z</time></trkpt><trkpt lat="40.43294350897593" lon="15.74378439852787"><ele>805.0</ele><time>2026-04-19T10:28:42Z</time></trkpt><trkpt lat="40.43291858701311" lon="15.743673806750447"><ele>804.9999999999999</ele><time>2026-04-19T10:28:43Z</time></trkpt><trkpt lat="40.43291778927746" lon="15.743576905068036"><ele>805.0</ele><time>2026-04-19T10:28:44Z</time></trkpt><trkpt lat="40.43294267597051" lon="15.743475887470424"><ele>804.0</ele><time>2026-04-19T10:28:45Z</time></trkpt><trkpt lat="40.432971806888794" lon="15.743340649663535"><ele>803.0</ele><time>2026-04-19T10:28:46Z</time></trkpt><trkpt lat="40.43302042773738" lon="15.743181748064698"><ele>802.0</ele><time>2026-04-19T10:28:47Z</time></trkpt><trkpt lat="40.43306113123164" lon="15.7430469935472"><ele>801.0</ele><time>2026-04-19T10:28:48Z</time></trkpt><trkpt lat="40.433091951435415" lon="15.742920997178958"><ele>800.0</ele><time>2026-04-19T10:28:49Z</time></trkpt><trkpt lat="40.433126562901776" lon="15.742798708104663"><ele>799.1666666666667</ele><time>2026-04-19T10:28:50Z</time></trkpt><trkpt lat="40.4331664284417" lon="15.742683905306423"><ele>798.3333333333334</ele><time>2026-04-19T10:28:51Z</time></trkpt><trkpt lat="40.43319072710306" lon="15.74257186995565"><ele>797.5</ele><time>2026-04-19T10:28:52Z</time></trkpt><trkpt lat="40.433228889626726" lon="15.74246236269558"><ele>796.6666666666667</ele><time>2026-04-19T10:28:53Z</time></trkpt><trkpt lat="40.4332579415932" lon="15.742356741888079"><ele>795.8333333333334</ele><time>2026-04-19T10:28:54Z</time></trkpt><trkpt lat="40.43331112397596" lon="15.74226831446145"><ele>795.0</ele><time>2026-04-19T10:28:55Z</time></trkpt><trkpt lat="40.433351913782325" lon="15.742168330813717"><ele>795.0</ele><time>2026-04-19T10:28:56Z</time></trkpt><trkpt lat="40.43335226067745" lon="15.742056220947353"><ele>795.0</ele><time>2026-04-19T10:28:57Z</time></trkpt><trkpt lat="40.43333542090433" lon="15.741946921587902"><ele>795.0</ele><time>2026-04-19T10:28:58Z</time></trkpt><trkpt lat="40.43335680135344" lon="15.741779951823338"><ele>795.0</ele><time>2026-04-19T10:29:00Z</time></trkpt><trkpt lat="40.433393310035534" lon="15.74168450823738"><ele>795.0</ele><time>2026-04-19T10:29:01Z</time></trkpt><trkpt lat="40.433409724440004" lon="15.741580460458291"><ele>794.6666666666666</ele><time>2026-04-19T10:29:02Z</time></trkpt><trkpt lat="40.43340961987138" lon="15.741455158969512"><ele>794.3333333333333</ele><time>2026-04-19T10:29:03Z</time></trkpt><trkpt lat="40.4333732430974" lon="15.741361774151917"><ele>794.0</ele><time>2026-04-19T10:29:04Z</time></trkpt><trkpt lat="40.433328536877866" lon="15.741283376840043"><ele>793.6666666666666</ele><time>2026-04-19T10:29:05Z</time></trkpt><trkpt lat="40.433281401519935" lon="15.741210281549002"><ele>793.3333333333333</ele><time>2026-04-19T10:29:06Z</time></trkpt><trkpt lat="40.43320094623101" lon="15.741133688842178"><ele>793.0</ele><time>2026-04-19T10:29:07Z</time></trkpt><trkpt lat="40.433145125847744" lon="15.741070616378092"><ele>792.4</ele><time>2026-04-19T10:29:08Z</time></trkpt><trkpt lat="40.433074410491095" lon="15.741044534036496"><ele>791.8</ele><time>2026-04-19T10:29:09Z</time></trkpt><trkpt lat="40.43292338919379" lon="15.741006670839104"><ele>791.2</ele><time>2026-04-19T10:29:11Z</time></trkpt><trkpt lat="40.43284190724765" lon="15.741021571190931"><ele>790.6</ele><time>2026-04-19T10:29:11.999Z</time></trkpt><trkpt lat="40.43274383019072" lon="15.741011378732058"><ele>790.0</ele><time>2026-04-19T10:29:12.999Z</time></trkpt><trkpt lat="40.432655779898134" lon="15.74100843106806"><ele>790.0</ele><time>2026-04-19T10:29:13.999Z</time></trkpt><trkpt lat="40.432590553048264" lon="15.740997731139961"><ele>790.0</ele><time>2026-04-19T10:29:14.999Z</time></trkpt><trkpt lat="40.43249130073987" lon="15.74085462034895"><ele>790.0</ele><time>2026-04-19T10:29:16.999Z</time></trkpt><trkpt lat="40.432449711977426" lon="15.7407708122957"><ele>790.0</ele><time>2026-04-19T10:29:17.999Z</time></trkpt><trkpt lat="40.4324081063895" lon="15.740666152454933"><ele>790.0</ele><time>2026-04-19T10:29:18.999Z</time></trkpt><trkpt lat="40.432379672783895" lon="15.740484101733896"><ele>790.0</ele><time>2026-04-19T10:29:20.999Z</time></trkpt><trkpt lat="40.43240774647392" lon="15.740366282281798"><ele>790.0</ele><time>2026-04-19T10:29:21.999Z</time></trkpt><trkpt lat="40.43243390464872" lon="15.740234122874474"><ele>790.0</ele><time>2026-04-19T10:29:22.999Z</time></trkpt><trkpt lat="40.43244575819728" lon="15.740111835681386"><ele>790.0</ele><time>2026-04-19T10:29:23.999Z</time></trkpt><trkpt lat="40.43244348380782" lon="15.739978157718884"><ele>790.0</ele><time>2026-04-19T10:29:24.999Z</time></trkpt><trkpt lat="40.43241716938476" lon="15.73988089649214"><ele>791.0</ele><time>2026-04-19T10:29:25.999Z</time></trkpt><trkpt lat="40.43241118016521" lon="15.73974747763274"><ele>792.0</ele><time>2026-04-19T10:29:26.999Z</time></trkpt><trkpt lat="40.43243210677733" lon="15.73963726952972"><ele>793.0</ele><time>2026-04-19T10:29:27.999Z</time></trkpt><trkpt lat="40.43248320609136" lon="15.739537812916018"><ele>794.0</ele><time>2026-04-19T10:29:28.999Z</time></trkpt><trkpt lat="40.43251758258468" lon="15.739425647030393"><ele>795.0</ele><time>2026-04-19T10:29:29.999Z</time></trkpt><trkpt lat="40.4325313933602" lon="15.739305433772447"><ele>795.6</ele><time>2026-04-19T10:29:31.999Z</time></trkpt><trkpt lat="40.43251987822436" lon="15.739214924212549"><ele>796.2</ele><time>2026-04-19T10:29:32.999Z</time></trkpt><trkpt lat="40.43244772168963" lon="15.739138115214002"><ele>796.8</ele><time>2026-04-19T10:29:33.999Z</time></trkpt><trkpt lat="40.43238462247035" lon="15.739131240096647"><ele>797.4</ele><time>2026-04-19T10:29:34.999Z</time></trkpt><trkpt lat="40.432271112928134" lon="15.73912976828584"><ele>798.0</ele><time>2026-04-19T10:29:35.999Z</time></trkpt><trkpt lat="40.43214914437852" lon="15.739135332455502"><ele>796.2</ele><time>2026-04-19T10:29:36.999Z</time></trkpt><trkpt lat="40.43205292009723" lon="15.739155719850888"><ele>794.4</ele><time>2026-04-19T10:29:37.999Z</time></trkpt><trkpt lat="40.43196081016955" lon="15.739154213193542"><ele>792.6</ele><time>2026-04-19T10:29:38.999Z</time></trkpt><trkpt lat="40.431872092888085" lon="15.739159573928788"><ele>790.8000000000001</ele><time>2026-04-19T10:29:39.999Z</time></trkpt><trkpt lat="40.43178678748594" lon="15.739148570950757"><ele>789.0</ele><time>2026-04-19T10:29:40.999Z</time></trkpt><trkpt lat="40.43169149238753" lon="15.739095642976826"><ele>789.0</ele><time>2026-04-19T10:29:41.999Z</time></trkpt><trkpt lat="40.4315926702635" lon="15.739026209989674"><ele>789.0</ele><time>2026-04-19T10:29:42.999Z</time></trkpt><trkpt lat="40.43153386755991" lon="15.738956312325344"><ele>789.0</ele><time>2026-04-19T10:29:43.999Z</time></trkpt><trkpt lat="40.431462927067905" lon="15.738935824377482"><ele>789.0</ele><time>2026-04-19T10:29:44.999Z</time></trkpt><trkpt lat="40.43137793318363" lon="15.738862821794525"><ele>789.0</ele><time>2026-04-19T10:29:45.999Z</time></trkpt><trkpt lat="40.43139827488454" lon="15.738766498341347"><ele>789.0</ele><time>2026-04-19T10:29:46.999Z</time></trkpt><trkpt lat="40.4313791295857" lon="15.738647604156455"><ele>791.2</ele><time>2026-04-19T10:29:47.999Z</time></trkpt><trkpt lat="40.43137481825402" lon="15.738506174916532"><ele>793.4000000000001</ele><time>2026-04-19T10:29:48.999Z</time></trkpt><trkpt lat="40.43137898219592" lon="15.738356923745414"><ele>795.6</ele><time>2026-04-19T10:29:49.999Z</time></trkpt><trkpt lat="40.43137299603057" lon="15.738230219432268"><ele>797.8</ele><time>2026-04-19T10:29:50.999Z</time></trkpt><trkpt lat="40.431339038843966" lon="15.73814272284368"><ele>800.0</ele><time>2026-04-19T10:29:52.999Z</time></trkpt><trkpt lat="40.43128246498015" lon="15.738076770221562"><ele>800.0000000000001</ele><time>2026-04-19T10:29:53.999Z</time></trkpt><trkpt lat="40.431199591486774" lon="15.73804354409671"><ele>800.0</ele><time>2026-04-19T10:29:54.999Z</time></trkpt><trkpt lat="40.43113484502367" lon="15.738012172789688"><ele>800.0</ele><time>2026-04-19T10:29:55.999Z</time></trkpt><trkpt lat="40.431035835123964" lon="15.737940601359366"><ele>800.0</ele><time>2026-04-19T10:29:57.999Z</time></trkpt><trkpt lat="40.43096601313496" lon="15.737892021935954"><ele>800.0000000000001</ele><time>2026-04-19T10:29:58.999Z</time></trkpt><trkpt lat="40.43091308150005" lon="15.73783253671061"><ele>800.0</ele><time>2026-04-19T10:29:59.999Z</time></trkpt><trkpt lat="40.430853825308915" lon="15.737668329318913"><ele>803.6</ele><time>2026-04-19T10:30:01.999Z</time></trkpt><trkpt lat="40.430805031929395" lon="15.737573222707727"><ele>807.2</ele><time>2026-04-19T10:30:02.999Z</time></trkpt><trkpt lat="40.43072250178818" lon="15.737493285711588"><ele>810.8</ele><time>2026-04-19T10:30:03.999Z</time></trkpt><trkpt lat="40.43063649883567" lon="15.737417239032384"><ele>814.4</ele><time>2026-04-19T10:30:04.999Z</time></trkpt><trkpt lat="40.43056125810286" lon="15.737339022756329"><ele>818.0</ele><time>2026-04-19T10:30:05.999Z</time></trkpt><trkpt lat="40.43047704622403" lon="15.737288208147056"><ele>816.6666666666667</ele><time>2026-04-19T10:30:06.999Z</time></trkpt><trkpt lat="40.43039166590176" lon="15.73724552406011"><ele>815.3333333333334</ele><time>2026-04-19T10:30:07.999Z</time></trkpt><trkpt lat="40.43032430722373" lon="15.737210899678951"><ele>814.0</ele><time>2026-04-19T10:30:08.999Z</time></trkpt><trkpt lat="40.43027549372904" lon="15.737139681389552"><ele>812.6666666666667</ele><time>2026-04-19T10:30:09.999Z</time></trkpt><trkpt lat="40.43026169842716" lon="15.737050933210396"><ele>811.3333333333334</ele><time>2026-04-19T10:30:10.999Z</time></trkpt><trkpt lat="40.430227749696826" lon="15.736966812462567"><ele>810.0</ele><time>2026-04-19T10:30:11.999Z</time></trkpt><trkpt lat="40.430292614755615" lon="15.736833332748041"><ele>810.0</ele><time>2026-04-19T10:30:13.999Z</time></trkpt><trkpt lat="40.43035305838904" lon="15.736769331241808"><ele>810.0</ele><time>2026-04-19T10:30:14.999Z</time></trkpt><trkpt lat="40.430358732281626" lon="15.73668365112134"><ele>810.0</ele><time>2026-04-19T10:30:15.999Z</time></trkpt><trkpt lat="40.430338003362394" lon="15.736587131903379"><ele>810.0</ele><time>2026-04-19T10:30:16.999Z</time></trkpt><trkpt lat="40.43030458047649" lon="15.736493047178898"><ele>810.0</ele><time>2026-04-19T10:30:17.999Z</time></trkpt><trkpt lat="40.43026852799288" lon="15.736400676574833"><ele>810.0</ele><time>2026-04-19T10:30:19.999Z</time></trkpt><trkpt lat="40.43027334415279" lon="15.736294419847084"><ele>812.0</ele><time>2026-04-19T10:33:20Z</time></trkpt><trkpt lat="40.430023736421724" lon="15.735987921266792"><ele>814.0</ele><time>2026-04-19T10:33:23Z</time></trkpt><trkpt lat="40.42992862200184" lon="15.735931439103794"><ele>816.0</ele><time>2026-04-19T10:33:24Z</time></trkpt><trkpt lat="40.42984404983318" lon="15.735875705145132"><ele>816.0</ele><time>2026-04-19T10:33:25Z</time></trkpt><trkpt lat="40.429805369412215" lon="15.73571250066777"><ele>816.0</ele><time>2026-04-19T10:33:26Z</time></trkpt><trkpt lat="40.429696583899286" lon="15.735571929694911"><ele>816.0</ele><time>2026-04-19T10:33:27Z</time></trkpt><trkpt lat="40.429612781054395" lon="15.73542079980354"><ele>816.0</ele><time>2026-04-19T10:33:28Z</time></trkpt><trkpt lat="40.4295463326348" lon="15.735277088074021"><ele>817.0</ele><time>2026-04-19T10:33:29Z</time></trkpt><trkpt lat="40.42948834837675" lon="15.735176677137051"><ele>818.0</ele><time>2026-04-19T10:33:30Z</time></trkpt><trkpt lat="40.42943371679674" lon="15.73507208423653"><ele>819.0</ele><time>2026-04-19T10:33:32Z</time></trkpt><trkpt lat="40.429500825645604" lon="15.735009028316197"><ele>820.0</ele><time>2026-04-19T10:33:34.999Z</time></trkpt><trkpt lat="40.42956484045605" lon="15.734950016302726"><ele>821.0</ele><time>2026-04-19T10:33:35.999Z</time></trkpt><trkpt lat="40.42963033974607" lon="15.734908297088676"><ele>822.0</ele><time>2026-04-19T10:33:36.999Z</time></trkpt><trkpt lat="40.42970799908583" lon="15.734846484869939"><ele>822.8333333333334</ele><time>2026-04-19T10:33:38.999Z</time></trkpt><trkpt lat="40.429754158257026" lon="15.734789695234136"><ele>823.6666666666667</ele><time>2026-04-19T10:34:22.999Z</time></trkpt><trkpt lat="40.42983405419468" lon="15.734766524052452"><ele>824.5</ele><time>2026-04-19T10:34:23.999Z</time></trkpt><trkpt lat="40.42993320859395" lon="15.734695249100149"><ele>825.3333333333334</ele><time>2026-04-19T10:34:24.999Z</time></trkpt><trkpt lat="40.42986347324891" lon="15.734710877700351"><ele>826.1666666666667</ele><time>2026-04-19T10:34:25.999Z</time></trkpt><trkpt lat="40.42987948401044" lon="15.73458126278039"><ele>827.0</ele><time>2026-04-19T10:34:28.999Z</time></trkpt><trkpt lat="40.42988796203613" lon="15.73447344442143"><ele>827.0000000000001</ele><time>2026-04-19T10:34:30.999Z</time></trkpt><trkpt lat="40.429899536725074" lon="15.734373505126362"><ele>827.0</ele><time>2026-04-19T10:34:34.999Z</time></trkpt><trkpt lat="40.4298891026631" lon="15.734290362349386"><ele>827.0</ele><time>2026-04-19T10:34:51Z</time></trkpt><trkpt lat="40.42990152155608" lon="15.734371586234932"><ele>827.0</ele><time>2026-04-19T10:34:56Z</time></trkpt><trkpt lat="40.42999351025632" lon="15.734359816198245"><ele>827.0000000000001</ele><time>2026-04-19T10:37:05Z</time></trkpt><trkpt lat="40.429917820245464" lon="15.734392247786053"><ele>827.0</ele><time>2026-04-19T10:40:04.999Z</time></trkpt><trkpt lat="40.43000935078858" lon="15.734362469334176"><ele>827.0</ele><time>2026-04-19T10:42:47.998Z</time></trkpt><trkpt lat="40.42991667519048" lon="15.73433740370784"><ele>827.0</ele><time>2026-04-19T10:42:48.998Z</time></trkpt><trkpt lat="40.429853760211806" lon="15.734312432733512"><ele>827.0</ele><time>2026-04-19T10:42:59.998Z</time></trkpt><trkpt lat="40.42988873416912" lon="15.734239159830942"><ele>827.0</ele><time>2026-04-19T10:43:15.999Z</time></trkpt><trkpt lat="40.4299498124301" lon="15.734193433887873"><ele>827.0</ele><time>2026-04-19T10:43:27Z</time></trkpt><trkpt lat="40.43001339708681" lon="15.734258827421248"><ele>827.0</ele><time>2026-04-19T10:43:31Z</time></trkpt><trkpt lat="40.4300837214759" lon="15.734276290670216"><ele>827.0</ele><time>2026-04-19T10:43:50Z</time></trkpt><trkpt lat="40.43011011173455" lon="15.734357548894867"><ele>827.0</ele><time>2026-04-19T10:44:05.999Z</time></trkpt><trkpt lat="40.43008115809879" lon="15.734438947457678"><ele>827.0</ele><time>2026-04-19T10:44:26.999Z</time></trkpt><trkpt lat="40.43001901934765" lon="15.734331541768814"><ele>827.0</ele><time>2026-04-19T10:45:31Z</time></trkpt><trkpt lat="40.429928879092806" lon="15.734418355561203"><ele>827.0</ele><time>2026-04-19T11:06:56.999Z</time></trkpt></trkseg></trk></gpx>